<?xml version='1.0' encoding='UTF-8'?>
<gpx xmlns="http://www.topografix.com/GPX/1/1" creator="www.balnam.be" version="1.1" xmlns:xsi="http://www.w3.org/2001/XMLSchema-instance" xsi:schemaLocation="http://www.topografix.com/GPX/1/1 http://www.topografix.com/GPX/1/1/gpx.xsd">
<trk>
<name>lhvba1</name>
<cmt>r</cmt>
<desc>Battice Chemin n°1 Monty</desc>
<link href="https://chemins.be/battice/chemin/1"/><trkseg>
<trkpt lat="50.650716" lon="5.810905"><time>2026-05-07T18:26:14Z</time></trkpt>
<trkpt lat="50.655591" lon="5.815155"><time>2026-05-07T18:36:14Z</time></trkpt>
<trkpt lat="50.656274" lon="5.815191"><time>2026-05-07T18:46:14Z</time></trkpt>
<trkpt lat="50.656597" lon="5.815914"><time>2026-05-07T18:56:14Z</time></trkpt>
<trkpt lat="50.656631" lon="5.818299"><time>2026-05-07T19:06:14Z</time></trkpt>
<trkpt lat="50.657428" lon="5.819286"><time>2026-05-07T19:16:14Z</time></trkpt>
</trkseg></trk>
<trk>
<name>lhvba1</name>
<cmt>v</cmt>
<desc>Battice Chemin n°1 Monty</desc>
<link href="https://chemins.be/battice/chemin/1"/><trkseg>
<trkpt lat="50.657428" lon="5.819286"><time>2026-05-07T19:16:14Z</time></trkpt>
<trkpt lat="50.657884" lon="5.819833"><time>2026-05-07T19:26:14Z</time></trkpt>
<trkpt lat="50.661314" lon="5.822050"><time>2026-05-07T19:36:14Z</time></trkpt>
<trkpt lat="50.662650" lon="5.822023"><time>2026-05-07T19:46:14Z</time></trkpt>
<trkpt lat="50.664069" lon="5.823341"><time>2026-05-07T19:56:14Z</time></trkpt>
<trkpt lat="50.664958" lon="5.822582"><time>2026-05-07T20:06:14Z</time></trkpt>
<trkpt lat="50.665726" lon="5.822518"><time>2026-05-07T20:16:14Z</time></trkpt>
<trkpt lat="50.666479" lon="5.823266"><time>2026-05-07T20:26:14Z</time></trkpt>
<trkpt lat="50.667768" lon="5.824307"><time>2026-05-07T20:36:14Z</time></trkpt>
</trkseg>
</trk>
<trk>
<name>lhvba10</name>
<cmt>v</cmt>
<desc>Battice Chemin n°10 </desc>
<link href="https://chemins.be/battice/chemin/10"/><trkseg>
<trkpt lat="50.634748" lon="5.821239"><time>2026-05-07T18:26:14Z</time></trkpt>
<trkpt lat="50.634829" lon="5.822715"><time>2026-05-07T18:36:14Z</time></trkpt>
<trkpt lat="50.634799" lon="5.822847"><time>2026-05-07T18:46:14Z</time></trkpt>
</trkseg></trk>
<trk>
<name>lhvba10</name>
<cmt>q</cmt>
<desc>Battice Chemin n°10 </desc>
<link href="https://chemins.be/battice/chemin/10"/><trkseg>
<trkpt lat="50.634799" lon="5.822847"><time>2026-05-07T18:46:14Z</time></trkpt>
<trkpt lat="50.634340" lon="5.824565"><time>2026-05-07T18:56:14Z</time></trkpt>
<trkpt lat="50.634671" lon="5.825166"><time>2026-05-07T19:06:14Z</time></trkpt>
<trkpt lat="50.634608" lon="5.826661"><time>2026-05-07T19:16:14Z</time></trkpt>
<trkpt lat="50.634068" lon="5.827660"><time>2026-05-07T19:26:14Z</time></trkpt>
</trkseg></trk>
<trk>
<name>lhvba10</name>
<cmt>r</cmt>
<desc>Battice Chemin n°10 </desc>
<link href="https://chemins.be/battice/chemin/10"/><trkseg>
<trkpt lat="50.634068" lon="5.827660"><time>2026-05-07T19:26:14Z</time></trkpt>
<trkpt lat="50.633904" lon="5.830432"><time>2026-05-07T19:36:14Z</time></trkpt>
<trkpt lat="50.631345" lon="5.835224"><time>2026-05-07T19:46:14Z</time></trkpt>
<trkpt lat="50.631200" lon="5.837442"><time>2026-05-07T19:56:14Z</time></trkpt>
<trkpt lat="50.630075" lon="5.839788"><time>2026-05-07T20:06:14Z</time></trkpt>
<trkpt lat="50.629793" lon="5.842105"><time>2026-05-07T20:16:14Z</time></trkpt>
<trkpt lat="50.630129" lon="5.844780"><time>2026-05-07T20:26:14Z</time></trkpt>
<trkpt lat="50.629929" lon="5.846354"><time>2026-05-07T20:36:14Z</time></trkpt>
</trkseg></trk>
<trk>
<name>lhvba10</name>
<cmt>s</cmt>
<desc>Battice Chemin n°10 </desc>
<link href="https://chemins.be/battice/chemin/10"/><trkseg>
<trkpt lat="50.629929" lon="5.846354"><time>2026-05-07T20:36:14Z</time></trkpt>
<trkpt lat="50.630178" lon="5.850079"><time>2026-05-07T20:46:14Z</time></trkpt>
</trkseg></trk>
<trk>
<name>lhvba10</name>
<cmt>r</cmt>
<desc>Battice Chemin n°10 </desc>
<link href="https://chemins.be/battice/chemin/10"/><trkseg>
<trkpt lat="50.630178" lon="5.850079"><time>2026-05-07T20:46:14Z</time></trkpt>
<trkpt lat="50.630205" lon="5.851384"><time>2026-05-07T20:56:14Z</time></trkpt>
<trkpt lat="50.629901" lon="5.851470"><time>2026-05-07T21:06:14Z</time></trkpt>
<trkpt lat="50.629824" lon="5.852099"><time>2026-05-07T21:16:14Z</time></trkpt>
<trkpt lat="50.629069" lon="5.853789"><time>2026-05-07T21:26:14Z</time></trkpt>
<trkpt lat="50.628801" lon="5.854271"><time>2026-05-07T21:36:14Z</time></trkpt>
</trkseg></trk>
<trk>
<name>lhvba10</name>
<cmt>q</cmt>
<desc>Battice Chemin n°10 </desc>
<link href="https://chemins.be/battice/chemin/10"/><trkseg>
<trkpt lat="50.628801" lon="5.854271"><time>2026-05-07T21:36:14Z</time></trkpt>
<trkpt lat="50.628577" lon="5.854695"><time>2026-05-07T21:46:14Z</time></trkpt>
<trkpt lat="50.627163" lon="5.853102"><time>2026-05-07T21:56:14Z</time></trkpt>
</trkseg>
</trk>
<trk>
<name>lhvba100</name>
<cmt>v</cmt>
<desc>Battice Chemin n°100 Rue des deux Tilleuls</desc>
<link href="https://chemins.be/battice/chemin/100"/><trkseg>
<trkpt lat="50.623381" lon="5.770351"><time>2026-05-07T18:26:14Z</time></trkpt>
<trkpt lat="50.622697" lon="5.772719"><time>2026-05-07T18:36:14Z</time></trkpt>
</trkseg>
</trk>
<trk>
<name>lhvba103</name>
<cmt>v</cmt>
<desc>Battice Chemin/sentier n°103 </desc>
<link href="https://chemins.be/battice/chemin/103"/><trkseg>
<trkpt lat="50.626374" lon="5.776970"><time>2026-05-07T18:26:14Z</time></trkpt>
<trkpt lat="50.626210" lon="5.777993"><time>2026-05-07T18:36:14Z</time></trkpt>
<trkpt lat="50.626469" lon="5.779967"><time>2026-05-07T18:46:14Z</time></trkpt>
<trkpt lat="50.626869" lon="5.781033"><time>2026-05-07T18:56:14Z</time></trkpt>
</trkseg>
</trk>
<trk>
<name>lhvba104</name>
<cmt>v</cmt>
<desc>Battice Chemin n°104 </desc>
<link href="https://chemins.be/battice/chemin/104"/><trkseg>
<trkpt lat="50.626691" lon="5.772555"><time>2026-05-07T18:26:14Z</time></trkpt>
<trkpt lat="50.626027" lon="5.773935"><time>2026-05-07T18:36:14Z</time></trkpt>
</trkseg>
</trk>
<trk>
<name>lhvba106</name>
<cmt>v</cmt>
<desc>Battice Chemin n°106 Chemin du Bayon</desc>
<link href="https://chemins.be/battice/chemin/106"/><trkseg>
<trkpt lat="50.627797" lon="5.774002"><time>2026-05-07T18:26:14Z</time></trkpt>
<trkpt lat="50.627795" lon="5.774185"><time>2026-05-07T18:36:14Z</time></trkpt>
<trkpt lat="50.627872" lon="5.774485"><time>2026-05-07T18:46:14Z</time></trkpt>
<trkpt lat="50.628218" lon="5.774933"><time>2026-05-07T18:56:14Z</time></trkpt>
<trkpt lat="50.628493" lon="5.775252"><time>2026-05-07T19:06:14Z</time></trkpt>
<trkpt lat="50.628886" lon="5.775462"><time>2026-05-07T19:16:14Z</time></trkpt>
<trkpt lat="50.629524" lon="5.776188"><time>2026-05-07T19:26:14Z</time></trkpt>
<trkpt lat="50.629774" lon="5.776393"><time>2026-05-07T19:36:14Z</time></trkpt>
<trkpt lat="50.629834" lon="5.776579"><time>2026-05-07T19:46:14Z</time></trkpt>
<trkpt lat="50.629849" lon="5.776834"><time>2026-05-07T19:56:14Z</time></trkpt>
<trkpt lat="50.629891" lon="5.777061"><time>2026-05-07T20:06:14Z</time></trkpt>
<trkpt lat="50.630103" lon="5.777407"><time>2026-05-07T20:16:14Z</time></trkpt>
</trkseg>
</trk>
<trk>
<name>lhvba108</name>
<cmt>s</cmt>
<desc>Battice Chemin n°108 </desc>
<link href="https://chemins.be/battice/chemin/108"/><trkseg>
<trkpt lat="50.631534" lon="5.762707"><time>2026-05-07T18:26:14Z</time></trkpt>
<trkpt lat="50.631473" lon="5.764978"><time>2026-05-07T18:36:14Z</time></trkpt>
<trkpt lat="50.631950" lon="5.766137"><time>2026-05-07T18:46:14Z</time></trkpt>
</trkseg>
</trk>
<trk>
<name>lhvba109</name>
<cmt>s</cmt>
<desc>Battice Chemin n°109 </desc>
<link href="https://chemins.be/battice/chemin/109"/><trkseg>
<trkpt lat="50.631471" lon="5.764753"><time>2026-05-07T18:26:14Z</time></trkpt>
<trkpt lat="50.630931" lon="5.765028"><time>2026-05-07T18:36:14Z</time></trkpt>
</trkseg>
</trk>
<trk>
<name>lhvba10bis</name>
<cmt>v</cmt>
<desc>Battice Chemin n°10bis </desc>
<link href="https://chemins.be/battice/chemin/10bis"/><trkseg>
<trkpt lat="50.631614" lon="5.835560"><time>2026-05-07T18:26:14Z</time></trkpt>
<trkpt lat="50.631553" lon="5.835764"><time>2026-05-07T18:36:14Z</time></trkpt>
</trkseg>
</trk>
<trk>
<name>lhvba10ter</name>
<cmt>b</cmt>
<desc>Battice Chemin n°10ter </desc>
<link href="https://chemins.be/battice/chemin/10ter"/><trkseg>
<trkpt lat="50.632033" lon="5.833675"><time>2026-05-07T18:26:14Z</time></trkpt>
<trkpt lat="50.631956" lon="5.833489"><time>2026-05-07T18:36:14Z</time></trkpt>
<trkpt lat="50.632043" lon="5.833139"><time>2026-05-07T18:46:14Z</time></trkpt>
</trkseg>
</trk>
<trk>
<name>lhvba110</name>
<cmt>q</cmt>
<desc>Battice Chemin n°110 </desc>
<link href="https://chemins.be/battice/chemin/110"/><trkseg>
<trkpt lat="50.631544" lon="5.762699"><time>2026-05-07T18:26:14Z</time></trkpt>
<trkpt lat="50.632210" lon="5.764123"><time>2026-05-07T18:36:14Z</time></trkpt>
<trkpt lat="50.632451" lon="5.765074"><time>2026-05-07T18:46:14Z</time></trkpt>
</trkseg>
</trk>
<trk>
<name>lhvba112</name>
<cmt>s</cmt>
<desc>Battice Chemin n°112 </desc>
<link href="https://chemins.be/battice/chemin/112"/><trkseg>
<trkpt lat="50.636624" lon="5.766028"><time>2026-05-07T18:26:14Z</time></trkpt>
<trkpt lat="50.636380" lon="5.767160"><time>2026-05-07T18:36:14Z</time></trkpt>
</trkseg></trk>
<trk>
<name>lhvba112</name>
<cmt>v</cmt>
<desc>Battice Chemin n°112 </desc>
<link href="https://chemins.be/battice/chemin/112"/><trkseg>
<trkpt lat="50.636380" lon="5.767160"><time>2026-05-07T18:36:14Z</time></trkpt>
<trkpt lat="50.635982" lon="5.767417"><time>2026-05-07T18:46:14Z</time></trkpt>
<trkpt lat="50.635589" lon="5.768061"><time>2026-05-07T18:56:14Z</time></trkpt>
<trkpt lat="50.634756" lon="5.769879"><time>2026-05-07T19:06:14Z</time></trkpt>
<trkpt lat="50.634593" lon="5.770204"><time>2026-05-07T19:16:14Z</time></trkpt>
</trkseg></trk>
<trk>
<name>lhvba112</name>
<cmt>s</cmt>
<desc>Battice Chemin n°112 </desc>
<link href="https://chemins.be/battice/chemin/112"/><trkseg>
<trkpt lat="50.634593" lon="5.770204"><time>2026-05-07T19:16:14Z</time></trkpt>
<trkpt lat="50.633950" lon="5.771213"><time>2026-05-07T19:26:14Z</time></trkpt>
</trkseg></trk>
<trk>
<name>lhvba112</name>
<cmt>v</cmt>
<desc>Battice Chemin n°112 </desc>
<link href="https://chemins.be/battice/chemin/112"/><trkseg>
<trkpt lat="50.633950" lon="5.771213"><time>2026-05-07T19:26:14Z</time></trkpt>
<trkpt lat="50.633406" lon="5.771840"><time>2026-05-07T19:36:14Z</time></trkpt>
</trkseg></trk>
<trk>
<name>lhvba112</name>
<cmt>d</cmt>
<desc>Battice Chemin n°112 </desc>
<link href="https://chemins.be/battice/chemin/112"/><trkseg>
<trkpt lat="50.633406" lon="5.771840"><time>2026-05-07T19:36:14Z</time></trkpt>
<trkpt lat="50.633160" lon="5.772224"><time>2026-05-07T19:46:14Z</time></trkpt>
</trkseg></trk>
<trk>
<name>lhvba112</name>
<cmt>s</cmt>
<desc>Battice Chemin n°112 </desc>
<link href="https://chemins.be/battice/chemin/112"/><trkseg>
<trkpt lat="50.633160" lon="5.772224"><time>2026-05-07T19:46:14Z</time></trkpt>
<trkpt lat="50.632972" lon="5.772285"><time>2026-05-07T19:56:14Z</time></trkpt>
</trkseg></trk>
<trk>
<name>lhvba112</name>
<cmt>d</cmt>
<desc>Battice Chemin n°112 </desc>
<link href="https://chemins.be/battice/chemin/112"/><trkseg>
<trkpt lat="50.632972" lon="5.772285"><time>2026-05-07T19:56:14Z</time></trkpt>
<trkpt lat="50.632718" lon="5.772316"><time>2026-05-07T20:06:14Z</time></trkpt>
</trkseg></trk>
<trk>
<name>lhvba112</name>
<cmt>v</cmt>
<desc>Battice Chemin n°112 </desc>
<link href="https://chemins.be/battice/chemin/112"/><trkseg>
<trkpt lat="50.632718" lon="5.772316"><time>2026-05-07T20:06:14Z</time></trkpt>
<trkpt lat="50.632339" lon="5.773569"><time>2026-05-07T20:16:14Z</time></trkpt>
<trkpt lat="50.632152" lon="5.773818"><time>2026-05-07T20:26:14Z</time></trkpt>
</trkseg>
</trk>
<trk>
<name>lhvba113</name>
<cmt>v</cmt>
<desc>Battice Chemin n°113 </desc>
<link href="https://chemins.be/battice/chemin/113"/><trkseg>
<trkpt lat="50.633429" lon="5.771823"><time>2026-05-07T18:26:14Z</time></trkpt>
<trkpt lat="50.633932" lon="5.772292"><time>2026-05-07T18:36:14Z</time></trkpt>
</trkseg></trk>
<trk>
<name>lhvba113</name>
<cmt>s</cmt>
<desc>Battice Chemin n°113 </desc>
<link href="https://chemins.be/battice/chemin/113"/><trkseg>
<trkpt lat="50.633932" lon="5.772292"><time>2026-05-07T18:36:14Z</time></trkpt>
<trkpt lat="50.634617" lon="5.773708"><time>2026-05-07T18:46:14Z</time></trkpt>
</trkseg></trk>
<trk>
<name>lhvba113</name>
<cmt>v</cmt>
<desc>Battice Chemin n°113 </desc>
<link href="https://chemins.be/battice/chemin/113"/><trkseg>
<trkpt lat="50.634617" lon="5.773708"><time>2026-05-07T18:46:14Z</time></trkpt>
<trkpt lat="50.634970" lon="5.774306"><time>2026-05-07T18:56:14Z</time></trkpt>
<trkpt lat="50.635191" lon="5.774706"><time>2026-05-07T19:06:14Z</time></trkpt>
<trkpt lat="50.635227" lon="5.774837"><time>2026-05-07T19:16:14Z</time></trkpt>
</trkseg>
</trk>
<trk>
<name>lhvba115</name>
<cmt>q</cmt>
<desc>Battice Chemin n°115 </desc>
<link href="https://chemins.be/battice/chemin/115"/><trkseg>
<trkpt lat="50.644582" lon="5.775542"><time>2026-05-07T18:26:14Z</time></trkpt>
<trkpt lat="50.642273" lon="5.774633"><time>2026-05-07T18:36:14Z</time></trkpt>
<trkpt lat="50.641443" lon="5.772981"><time>2026-05-07T18:46:14Z</time></trkpt>
<trkpt lat="50.641145" lon="5.771931"><time>2026-05-07T18:56:14Z</time></trkpt>
<trkpt lat="50.640601" lon="5.771002"><time>2026-05-07T19:06:14Z</time></trkpt>
</trkseg></trk>
<trk>
<name>lhvba115</name>
<cmt>v</cmt>
<desc>Battice Chemin n°115 </desc>
<link href="https://chemins.be/battice/chemin/115"/><trkseg>
<trkpt lat="50.640601" lon="5.771002"><time>2026-05-07T19:06:14Z</time></trkpt>
<trkpt lat="50.639762" lon="5.770405"><time>2026-05-07T19:16:14Z</time></trkpt>
<trkpt lat="50.638791" lon="5.769486"><time>2026-05-07T19:26:14Z</time></trkpt>
<trkpt lat="50.638585" lon="5.769436"><time>2026-05-07T19:36:14Z</time></trkpt>
<trkpt lat="50.638145" lon="5.768699"><time>2026-05-07T19:46:14Z</time></trkpt>
<trkpt lat="50.637110" lon="5.768027"><time>2026-05-07T19:56:14Z</time></trkpt>
</trkseg></trk>
<trk>
<name>lhvba115</name>
<cmt>r</cmt>
<desc>Battice Chemin n°115 </desc>
<link href="https://chemins.be/battice/chemin/115"/><trkseg>
<trkpt lat="50.637110" lon="5.768027"><time>2026-05-07T19:56:14Z</time></trkpt>
<trkpt lat="50.636392" lon="5.767192"><time>2026-05-07T20:06:14Z</time></trkpt>
</trkseg></trk>
<trk>
<name>lhvba115</name>
<cmt>v</cmt>
<desc>Battice Chemin n°115 </desc>
<link href="https://chemins.be/battice/chemin/115"/><trkseg>
<trkpt lat="50.636392" lon="5.767192"><time>2026-05-07T20:06:14Z</time></trkpt>
<trkpt lat="50.635069" lon="5.762938"><time>2026-05-07T20:16:14Z</time></trkpt>
</trkseg>
</trk>
<trk>
<name>lhvba117</name>
<cmt>v</cmt>
<desc>Battice Chemin n°117 </desc>
<link href="https://chemins.be/battice/chemin/117"/><trkseg>
<trkpt lat="50.643464" lon="5.777696"><time>2026-05-07T18:26:14Z</time></trkpt>
<trkpt lat="50.642310" lon="5.774666"><time>2026-05-07T18:36:14Z</time></trkpt>
</trkseg>
</trk>
<trk>
<name>lhvba118</name>
<cmt>v</cmt>
<desc>Battice Chemin n°118 </desc>
<link href="https://chemins.be/battice/chemin/118"/><trkseg>
<trkpt lat="50.646617" lon="5.784919"><time>2026-05-07T18:26:14Z</time></trkpt>
<trkpt lat="50.646052" lon="5.785992"><time>2026-05-07T18:36:14Z</time></trkpt>
<trkpt lat="50.645556" lon="5.786603"><time>2026-05-07T18:46:14Z</time></trkpt>
<trkpt lat="50.645066" lon="5.786882"><time>2026-05-07T18:56:14Z</time></trkpt>
</trkseg>
</trk>
<trk>
<name>lhvba12</name>
<cmt>r</cmt>
<desc>Battice Chemin n°12 Rue de l'Espinette / Hauzeur</desc>
<link href="https://chemins.be/battice/chemin/12"/><trkseg>
<trkpt lat="50.631118" lon="5.837371"><time>2026-05-07T18:26:14Z</time></trkpt>
<trkpt lat="50.631599" lon="5.838018"><time>2026-05-07T18:36:14Z</time></trkpt>
<trkpt lat="50.632168" lon="5.838153"><time>2026-05-07T18:46:14Z</time></trkpt>
</trkseg></trk>
<trk>
<name>lhvba12</name>
<cmt>s</cmt>
<desc>Battice Chemin n°12 Rue de l'Espinette / Hauzeur</desc>
<link href="https://chemins.be/battice/chemin/12"/><trkseg>
<trkpt lat="50.632168" lon="5.838153"><time>2026-05-07T18:46:14Z</time></trkpt>
<trkpt lat="50.632283" lon="5.838213"><time>2026-05-07T18:56:14Z</time></trkpt>
</trkseg></trk>
<trk>
<name>lhvba12</name>
<cmt>v</cmt>
<desc>Battice Chemin n°12 Rue de l'Espinette / Hauzeur</desc>
<link href="https://chemins.be/battice/chemin/12"/><trkseg>
<trkpt lat="50.632283" lon="5.838213"><time>2026-05-07T18:56:14Z</time></trkpt>
<trkpt lat="50.633531" lon="5.838578"><time>2026-05-07T19:06:14Z</time></trkpt>
</trkseg></trk>
<trk>
<name>lhvba12</name>
<cmt>r</cmt>
<desc>Battice Chemin n°12 Rue de l'Espinette / Hauzeur</desc>
<link href="https://chemins.be/battice/chemin/12"/><trkseg>
<trkpt lat="50.633531" lon="5.838578"><time>2026-05-07T19:06:14Z</time></trkpt>
<trkpt lat="50.633689" lon="5.838593"><time>2026-05-07T19:16:14Z</time></trkpt>
<trkpt lat="50.634038" lon="5.838544"><time>2026-05-07T19:26:14Z</time></trkpt>
</trkseg></trk>
<trk>
<name>lhvba12</name>
<cmt>s</cmt>
<desc>Battice Chemin n°12 Rue de l'Espinette / Hauzeur</desc>
<link href="https://chemins.be/battice/chemin/12"/><trkseg>
<trkpt lat="50.634038" lon="5.838544"><time>2026-05-07T19:26:14Z</time></trkpt>
<trkpt lat="50.634415" lon="5.838293"><time>2026-05-07T19:36:14Z</time></trkpt>
<trkpt lat="50.634981" lon="5.837110"><time>2026-05-07T19:46:14Z</time></trkpt>
<trkpt lat="50.635776" lon="5.838608"><time>2026-05-07T19:56:14Z</time></trkpt>
<trkpt lat="50.637892" lon="5.838298"><time>2026-05-07T20:06:14Z</time></trkpt>
<trkpt lat="50.638804" lon="5.837712"><time>2026-05-07T20:16:14Z</time></trkpt>
</trkseg>
</trk>
<trk>
<name>lhvba122</name>
<cmt>s</cmt>
<desc>Battice Chemin n°122 </desc>
<link href="https://chemins.be/battice/chemin/122"/><trkseg>
<trkpt lat="50.648377" lon="5.796614"><time>2026-05-07T18:26:14Z</time></trkpt>
<trkpt lat="50.649433" lon="5.795730"><time>2026-05-07T18:36:14Z</time></trkpt>
<trkpt lat="50.650380" lon="5.794846"><time>2026-05-07T18:46:14Z</time></trkpt>
<trkpt lat="50.651909" lon="5.794134"><time>2026-05-07T18:56:14Z</time></trkpt>
<trkpt lat="50.654298" lon="5.793318"><time>2026-05-07T19:06:14Z</time></trkpt>
<trkpt lat="50.656165" lon="5.792898"><time>2026-05-07T19:16:14Z</time></trkpt>
</trkseg>
</trk>
<trk>
<name>lhvba125</name>
<cmt>q</cmt>
<desc>Battice Chemin n°125 </desc>
<link href="https://chemins.be/battice/chemin/125"/><trkseg>
<trkpt lat="50.669622" lon="5.775002"><time>2026-05-07T18:26:14Z</time></trkpt>
<trkpt lat="50.670279" lon="5.776024"><time>2026-05-07T18:36:14Z</time></trkpt>
<trkpt lat="50.671195" lon="5.776833"><time>2026-05-07T18:46:14Z</time></trkpt>
<trkpt lat="50.671780" lon="5.779236"><time>2026-05-07T18:56:14Z</time></trkpt>
<trkpt lat="50.671462" lon="5.780717"><time>2026-05-07T19:06:14Z</time></trkpt>
<trkpt lat="50.671884" lon="5.781761"><time>2026-05-07T19:16:14Z</time></trkpt>
<trkpt lat="50.672120" lon="5.782769"><time>2026-05-07T19:26:14Z</time></trkpt>
<trkpt lat="50.671974" lon="5.783413"><time>2026-05-07T19:36:14Z</time></trkpt>
<trkpt lat="50.672636" lon="5.784286"><time>2026-05-07T19:46:14Z</time></trkpt>
<trkpt lat="50.673434" lon="5.783971"><time>2026-05-07T19:56:14Z</time></trkpt>
</trkseg>
</trk>
<trk>
<name>lhvba126</name>
<cmt>q</cmt>
<desc>Battice Chemin n°126 Rue Hacboister</desc>
<link href="https://chemins.be/battice/chemin/126"/><trkseg>
<trkpt lat="50.670138" lon="5.761151"><time>2026-05-07T18:26:14Z</time></trkpt>
<trkpt lat="50.669304" lon="5.760380"><time>2026-05-07T18:36:14Z</time></trkpt>
</trkseg></trk>
<trk>
<name>lhvba126</name>
<cmt>r</cmt>
<desc>Battice Chemin n°126 Rue Hacboister</desc>
<link href="https://chemins.be/battice/chemin/126"/><trkseg>
<trkpt lat="50.669304" lon="5.760380"><time>2026-05-07T18:36:14Z</time></trkpt>
<trkpt lat="50.669030" lon="5.760535"><time>2026-05-07T18:46:14Z</time></trkpt>
<trkpt lat="50.668823" lon="5.760332"><time>2026-05-07T18:56:14Z</time></trkpt>
</trkseg></trk>
<trk>
<name>lhvba126</name>
<cmt>v</cmt>
<desc>Battice Chemin n°126 Rue Hacboister</desc>
<link href="https://chemins.be/battice/chemin/126"/><trkseg>
<trkpt lat="50.668823" lon="5.760332"><time>2026-05-07T18:56:14Z</time></trkpt>
<trkpt lat="50.668861" lon="5.759971"><time>2026-05-07T19:06:14Z</time></trkpt>
<trkpt lat="50.669055" lon="5.759621"><time>2026-05-07T19:16:14Z</time></trkpt>
<trkpt lat="50.669435" lon="5.758703"><time>2026-05-07T19:26:14Z</time></trkpt>
<trkpt lat="50.669526" lon="5.757877"><time>2026-05-07T19:36:14Z</time></trkpt>
<trkpt lat="50.669468" lon="5.756812"><time>2026-05-07T19:46:14Z</time></trkpt>
</trkseg>
</trk>
<trk>
<name>lhvba128</name>
<cmt>r</cmt>
<desc>Battice Chemin n°128 Mur du Couvent</desc>
<link href="https://chemins.be/battice/chemin/128"/><trkseg>
<trkpt lat="50.659188" lon="5.784407"><time>2026-05-07T18:26:14Z</time></trkpt>
<trkpt lat="50.659995" lon="5.787733"><time>2026-05-07T18:36:14Z</time></trkpt>
</trkseg></trk>
<trk>
<name>lhvba128</name>
<cmt>d</cmt>
<desc>Battice Chemin n°128 Mur du Couvent</desc>
<link href="https://chemins.be/battice/chemin/128"/><trkseg>
<trkpt lat="50.659995" lon="5.787733"><time>2026-05-07T18:36:14Z</time></trkpt>
<trkpt lat="50.660150" lon="5.788381"><time>2026-05-07T18:46:14Z</time></trkpt>
</trkseg>
</trk>
<trk>
<name>lhvba129</name>
<cmt>v</cmt>
<desc>Battice Chemin n°129 </desc>
<link href="https://chemins.be/battice/chemin/129"/><trkseg>
<trkpt lat="50.668784" lon="5.782970"><time>2026-05-07T18:26:14Z</time></trkpt>
<trkpt lat="50.668133" lon="5.782905"><time>2026-05-07T18:36:14Z</time></trkpt>
</trkseg></trk>
<trk>
<name>lhvba129</name>
<cmt>d</cmt>
<desc>Battice Chemin n°129 </desc>
<link href="https://chemins.be/battice/chemin/129"/><trkseg>
<trkpt lat="50.668133" lon="5.782905"><time>2026-05-07T18:36:14Z</time></trkpt>
<trkpt lat="50.666694" lon="5.783012"><time>2026-05-07T18:46:14Z</time></trkpt>
<trkpt lat="50.666146" lon="5.783449"><time>2026-05-07T18:56:14Z</time></trkpt>
<trkpt lat="50.665402" lon="5.785058"><time>2026-05-07T19:06:14Z</time></trkpt>
<trkpt lat="50.664841" lon="5.785693"><time>2026-05-07T19:16:14Z</time></trkpt>
<trkpt lat="50.662433" lon="5.788420"><time>2026-05-07T19:26:14Z</time></trkpt>
<trkpt lat="50.661951" lon="5.789304"><time>2026-05-07T19:36:14Z</time></trkpt>
<trkpt lat="50.661617" lon="5.789700"><time>2026-05-07T19:46:14Z</time></trkpt>
</trkseg>
</trk>
<trk>
<name>lhvba130</name>
<cmt>v</cmt>
<desc>Battice Chemin n°130 </desc>
<link href="https://chemins.be/battice/chemin/130"/><trkseg>
<trkpt lat="50.627621" lon="5.835079"><time>2026-05-07T18:26:14Z</time></trkpt>
<trkpt lat="50.627766" lon="5.834956"><time>2026-05-07T18:36:14Z</time></trkpt>
<trkpt lat="50.627948" lon="5.834820"><time>2026-05-07T18:46:14Z</time></trkpt>
<trkpt lat="50.628120" lon="5.834727"><time>2026-05-07T18:56:14Z</time></trkpt>
<trkpt lat="50.628328" lon="5.834648"><time>2026-05-07T19:06:14Z</time></trkpt>
<trkpt lat="50.628544" lon="5.834584"><time>2026-05-07T19:16:14Z</time></trkpt>
<trkpt lat="50.628770" lon="5.834521"><time>2026-05-07T19:26:14Z</time></trkpt>
<trkpt lat="50.628995" lon="5.834513"><time>2026-05-07T19:36:14Z</time></trkpt>
<trkpt lat="50.629157" lon="5.834533"><time>2026-05-07T19:46:14Z</time></trkpt>
<trkpt lat="50.629326" lon="5.834609"><time>2026-05-07T19:56:14Z</time></trkpt>
<trkpt lat="50.629443" lon="5.834640"><time>2026-05-07T20:06:14Z</time></trkpt>
<trkpt lat="50.629623" lon="5.834632"><time>2026-05-07T20:16:14Z</time></trkpt>
<trkpt lat="50.629804" lon="5.834567"><time>2026-05-07T20:26:14Z</time></trkpt>
<trkpt lat="50.629984" lon="5.834502"><time>2026-05-07T20:36:14Z</time></trkpt>
<trkpt lat="50.630048" lon="5.834461"><time>2026-05-07T20:46:14Z</time></trkpt>
</trkseg>
</trk>
<trk>
<name>lhvba131</name>
<cmt>v</cmt>
<desc>Battice Chemin n°131 Trou l'Bo</desc>
<link href="https://chemins.be/battice/chemin/131"/><trkseg>
<trkpt lat="50.626172" lon="5.831627"><time>2026-05-07T18:26:14Z</time></trkpt>
<trkpt lat="50.626189" lon="5.831726"><time>2026-05-07T18:36:14Z</time></trkpt>
<trkpt lat="50.626142" lon="5.831880"><time>2026-05-07T18:46:14Z</time></trkpt>
<trkpt lat="50.626130" lon="5.832106"><time>2026-05-07T18:56:14Z</time></trkpt>
<trkpt lat="50.626217" lon="5.832293"><time>2026-05-07T19:06:14Z</time></trkpt>
<trkpt lat="50.626296" lon="5.832451"><time>2026-05-07T19:16:14Z</time></trkpt>
<trkpt lat="50.626376" lon="5.832580"><time>2026-05-07T19:26:14Z</time></trkpt>
<trkpt lat="50.626500" lon="5.832669"><time>2026-05-07T19:36:14Z</time></trkpt>
<trkpt lat="50.626679" lon="5.832731"><time>2026-05-07T19:46:14Z</time></trkpt>
<trkpt lat="50.626849" lon="5.832835"><time>2026-05-07T19:56:14Z</time></trkpt>
<trkpt lat="50.627062" lon="5.833026"><time>2026-05-07T20:06:14Z</time></trkpt>
<trkpt lat="50.627247" lon="5.833328"><time>2026-05-07T20:16:14Z</time></trkpt>
<trkpt lat="50.627317" lon="5.833500"><time>2026-05-07T20:26:14Z</time></trkpt>
<trkpt lat="50.627341" lon="5.833784"><time>2026-05-07T20:36:14Z</time></trkpt>
<trkpt lat="50.627356" lon="5.833982"><time>2026-05-07T20:46:14Z</time></trkpt>
<trkpt lat="50.627444" lon="5.834168"><time>2026-05-07T20:56:14Z</time></trkpt>
<trkpt lat="50.627478" lon="5.834268"><time>2026-05-07T21:06:14Z</time></trkpt>
<trkpt lat="50.627468" lon="5.834381"><time>2026-05-07T21:16:14Z</time></trkpt>
<trkpt lat="50.627431" lon="5.834465"><time>2026-05-07T21:26:14Z</time></trkpt>
<trkpt lat="50.627421" lon="5.834549"><time>2026-05-07T21:36:14Z</time></trkpt>
</trkseg>
</trk>
<trk>
<name>lhvba132</name>
<cmt>r</cmt>
<desc>Battice Chemin n°132 Thier Nagant</desc>
<link href="https://chemins.be/battice/chemin/132"/><trkseg>
<trkpt lat="50.678384" lon="5.778500"><time>2026-05-07T18:26:14Z</time></trkpt>
<trkpt lat="50.677642" lon="5.774235"><time>2026-05-07T18:36:14Z</time></trkpt>
</trkseg>
</trk>
<trk>
<name>lhvba133</name>
<cmt>q</cmt>
<desc>Battice Sentier n°133 </desc>
<link href="https://chemins.be/battice/sentier/133"/><trkseg>
<trkpt lat="50.672129" lon="5.773398"><time>2026-05-07T18:26:14Z</time></trkpt>
<trkpt lat="50.674287" lon="5.776459"><time>2026-05-07T18:36:14Z</time></trkpt>
<trkpt lat="50.676825" lon="5.777260"><time>2026-05-07T18:46:14Z</time></trkpt>
<trkpt lat="50.678466" lon="5.778590"><time>2026-05-07T18:56:14Z</time></trkpt>
</trkseg>
</trk>
<trk>
<name>lhvba136</name>
<cmt>q</cmt>
<desc>Battice Sentier n°136 </desc>
<link href="https://chemins.be/battice/sentier/136"/><trkseg>
<trkpt lat="50.669511" lon="5.757958"><time>2026-05-07T18:26:14Z</time></trkpt>
<trkpt lat="50.669289" lon="5.757873"><time>2026-05-07T18:36:14Z</time></trkpt>
</trkseg>
</trk>
<trk>
<name>lhvba137</name>
<cmt>q</cmt>
<desc>Battice Sentier n°137 </desc>
<link href="https://chemins.be/battice/sentier/137"/><trkseg>
<trkpt lat="50.669499" lon="5.762617"><time>2026-05-07T18:26:14Z</time></trkpt>
<trkpt lat="50.669066" lon="5.760551"><time>2026-05-07T18:36:14Z</time></trkpt>
</trkseg>
</trk>
<trk>
<name>lhvba138</name>
<cmt>q</cmt>
<desc>Battice Sentier n°138 </desc>
<link href="https://chemins.be/battice/sentier/138"/><trkseg>
<trkpt lat="50.665752" lon="5.767985"><time>2026-05-07T18:26:14Z</time></trkpt>
<trkpt lat="50.666764" lon="5.772019"><time>2026-05-07T18:36:14Z</time></trkpt>
<trkpt lat="50.667265" lon="5.774903"><time>2026-05-07T18:46:14Z</time></trkpt>
</trkseg></trk>
<trk>
<name>lhvba138</name>
<cmt>v</cmt>
<desc>Battice Sentier n°138 </desc>
<link href="https://chemins.be/battice/sentier/138"/><trkseg>
<trkpt lat="50.667265" lon="5.774903"><time>2026-05-07T18:46:14Z</time></trkpt>
<trkpt lat="50.668211" lon="5.776431"><time>2026-05-07T18:56:14Z</time></trkpt>
</trkseg></trk>
<trk>
<name>lhvba138</name>
<cmt>r</cmt>
<desc>Battice Sentier n°138 </desc>
<link href="https://chemins.be/battice/sentier/138"/><trkseg>
<trkpt lat="50.668211" lon="5.776431"><time>2026-05-07T18:56:14Z</time></trkpt>
<trkpt lat="50.668015" lon="5.776706"><time>2026-05-07T19:06:14Z</time></trkpt>
</trkseg></trk>
<trk>
<name>lhvba138</name>
<cmt>q</cmt>
<desc>Battice Sentier n°138 </desc>
<link href="https://chemins.be/battice/sentier/138"/><trkseg>
<trkpt lat="50.668015" lon="5.776706"><time>2026-05-07T19:06:14Z</time></trkpt>
<trkpt lat="50.668919" lon="5.778920"><time>2026-05-07T19:16:14Z</time></trkpt>
<trkpt lat="50.670384" lon="5.781963"><time>2026-05-07T19:26:14Z</time></trkpt>
<trkpt lat="50.670620" lon="5.784729"><time>2026-05-07T19:36:14Z</time></trkpt>
<trkpt lat="50.670501" lon="5.786381"><time>2026-05-07T19:46:14Z</time></trkpt>
</trkseg>
</trk>
<trk>
<name>lhvba139</name>
<cmt>v</cmt>
<desc>Battice Sentier n°139 </desc>
<link href="https://chemins.be/battice/sentier/139"/><trkseg>
<trkpt lat="50.672685" lon="5.783898"><time>2026-05-07T18:26:14Z</time></trkpt>
<trkpt lat="50.672821" lon="5.785958"><time>2026-05-07T18:36:14Z</time></trkpt>
</trkseg>
</trk>
<trk>
<name>lhvba140</name>
<cmt>v</cmt>
<desc>Battice Chemin/sentier n°140 sentier 140</desc>
<link href="https://chemins.be/battice/chemin/140"/><trkseg>
<trkpt lat="50.659609" lon="5.783890"><time>2026-05-07T18:26:14Z</time></trkpt>
<trkpt lat="50.659441" lon="5.783282"><time>2026-05-07T18:36:14Z</time></trkpt>
<trkpt lat="50.659486" lon="5.782534"><time>2026-05-07T18:46:14Z</time></trkpt>
<trkpt lat="50.659409" lon="5.781995"><time>2026-05-07T18:56:14Z</time></trkpt>
<trkpt lat="50.659317" lon="5.781843"><time>2026-05-07T19:06:14Z</time></trkpt>
</trkseg></trk>
<trk>
<name>lhvba140</name>
<cmt>r</cmt>
<desc>Battice Chemin/sentier n°140 sentier 140</desc>
<link href="https://chemins.be/battice/chemin/140"/><trkseg>
<trkpt lat="50.659317" lon="5.781843"><time>2026-05-07T19:06:14Z</time></trkpt>
<trkpt lat="50.659344" lon="5.781335"><time>2026-05-07T19:16:14Z</time></trkpt>
<trkpt lat="50.659461" lon="5.780896"><time>2026-05-07T19:26:14Z</time></trkpt>
<trkpt lat="50.659643" lon="5.780585"><time>2026-05-07T19:36:14Z</time></trkpt>
</trkseg></trk>
<trk>
<name>lhvba140</name>
<cmt>v</cmt>
<desc>Battice Chemin/sentier n°140 sentier 140</desc>
<link href="https://chemins.be/battice/chemin/140"/><trkseg>
<trkpt lat="50.659643" lon="5.780585"><time>2026-05-07T19:36:14Z</time></trkpt>
<trkpt lat="50.660214" lon="5.779494"><time>2026-05-07T19:46:14Z</time></trkpt>
</trkseg>
</trk>
<trk>
<name>lhvba141</name>
<cmt>q</cmt>
<desc>Battice Sentier n°141 Voie des Hougnes</desc>
<link href="https://chemins.be/battice/sentier/141"/><trkseg>
<trkpt lat="50.652052" lon="5.790387"><time>2026-05-07T18:26:14Z</time></trkpt>
<trkpt lat="50.653314" lon="5.787988"><time>2026-05-07T18:36:14Z</time></trkpt>
</trkseg></trk>
<trk>
<name>lhvba141</name>
<cmt>r</cmt>
<desc>Battice Sentier n°141 Voie des Hougnes</desc>
<link href="https://chemins.be/battice/sentier/141"/><trkseg>
<trkpt lat="50.653314" lon="5.787988"><time>2026-05-07T18:36:14Z</time></trkpt>
<trkpt lat="50.653341" lon="5.787001"><time>2026-05-07T18:46:14Z</time></trkpt>
</trkseg></trk>
<trk>
<name>lhvba141</name>
<cmt>q</cmt>
<desc>Battice Sentier n°141 Voie des Hougnes</desc>
<link href="https://chemins.be/battice/sentier/141"/><trkseg>
<trkpt lat="50.653341" lon="5.787001"><time>2026-05-07T18:46:14Z</time></trkpt>
<trkpt lat="50.654316" lon="5.785788"><time>2026-05-07T18:56:14Z</time></trkpt>
<trkpt lat="50.656629" lon="5.782476"><time>2026-05-07T19:06:14Z</time></trkpt>
<trkpt lat="50.657373" lon="5.782576"><time>2026-05-07T19:16:14Z</time></trkpt>
<trkpt lat="50.658474" lon="5.781847"><time>2026-05-07T19:26:14Z</time></trkpt>
<trkpt lat="50.659059" lon="5.780187"><time>2026-05-07T19:36:14Z</time></trkpt>
<trkpt lat="50.659649" lon="5.779536"><time>2026-05-07T19:46:14Z</time></trkpt>
<trkpt lat="50.659882" lon="5.779312"><time>2026-05-07T19:56:14Z</time></trkpt>
</trkseg>
</trk>
<trk>
<name>lhvba142</name>
<cmt>q</cmt>
<desc>Battice Sentier n°142 </desc>
<link href="https://chemins.be/battice/sentier/142"/><trkseg>
<trkpt lat="50.651549" lon="5.779641"><time>2026-05-07T18:26:14Z</time></trkpt>
<trkpt lat="50.651635" lon="5.779906"><time>2026-05-07T18:36:14Z</time></trkpt>
<trkpt lat="50.651846" lon="5.780914"><time>2026-05-07T18:46:14Z</time></trkpt>
<trkpt lat="50.652078" lon="5.781103"><time>2026-05-07T18:56:14Z</time></trkpt>
<trkpt lat="50.652917" lon="5.782583"><time>2026-05-07T19:06:14Z</time></trkpt>
<trkpt lat="50.654332" lon="5.785781"><time>2026-05-07T19:16:14Z</time></trkpt>
</trkseg>
</trk>
<trk>
<name>lhvba143</name>
<cmt>v</cmt>
<desc>Battice Chemin n°143 </desc>
<link href="https://chemins.be/battice/chemin/143"/><trkseg>
<trkpt lat="50.651752" lon="5.778815"><time>2026-05-07T18:26:14Z</time></trkpt>
<trkpt lat="50.652491" lon="5.779130"><time>2026-05-07T18:36:14Z</time></trkpt>
<trkpt lat="50.653748" lon="5.777999"><time>2026-05-07T18:46:14Z</time></trkpt>
</trkseg>
</trk>
<trk>
<name>lhvba144</name>
<cmt>q</cmt>
<desc>Battice Sentier n°144 </desc>
<link href="https://chemins.be/battice/sentier/144"/><trkseg>
<trkpt lat="50.652820" lon="5.778793"><time>2026-05-07T18:26:14Z</time></trkpt>
<trkpt lat="50.653707" lon="5.777821"><time>2026-05-07T18:36:14Z</time></trkpt>
<trkpt lat="50.654868" lon="5.776984"><time>2026-05-07T18:46:14Z</time></trkpt>
</trkseg>
</trk>
<trk>
<name>lhvba145</name>
<cmt>q</cmt>
<desc>Battice Sentier n°145 </desc>
<link href="https://chemins.be/battice/sentier/145"/><trkseg>
<trkpt lat="50.648587" lon="5.795269"><time>2026-05-07T18:26:14Z</time></trkpt>
<trkpt lat="50.647441" lon="5.794475"><time>2026-05-07T18:36:14Z</time></trkpt>
<trkpt lat="50.646535" lon="5.794492"><time>2026-05-07T18:46:14Z</time></trkpt>
</trkseg>
</trk>
<trk>
<name>lhvba146</name>
<cmt>q</cmt>
<desc>Battice Sentier n°146 </desc>
<link href="https://chemins.be/battice/sentier/146"/><trkseg>
<trkpt lat="50.649063" lon="5.793267"><time>2026-05-07T18:26:14Z</time></trkpt>
<trkpt lat="50.648171" lon="5.794065"><time>2026-05-07T18:36:14Z</time></trkpt>
<trkpt lat="50.647469" lon="5.794468"><time>2026-05-07T18:46:14Z</time></trkpt>
</trkseg>
</trk>
<trk>
<name>lhvba147</name>
<cmt>v</cmt>
<desc>Battice Chemin n°147 </desc>
<link href="https://chemins.be/battice/chemin/147"/><trkseg>
<trkpt lat="50.648680" lon="5.795582"><time>2026-05-07T18:26:14Z</time></trkpt>
<trkpt lat="50.648198" lon="5.793934"><time>2026-05-07T18:36:14Z</time></trkpt>
<trkpt lat="50.648021" lon="5.793226"><time>2026-05-07T18:46:14Z</time></trkpt>
</trkseg>
</trk>
<trk>
<name>lhvba148</name>
<cmt>q</cmt>
<desc>Battice Sentier n°148 </desc>
<link href="https://chemins.be/battice/sentier/148"/><trkseg>
<trkpt lat="50.645319" lon="5.786737"><time>2026-05-07T18:26:14Z</time></trkpt>
<trkpt lat="50.645414" lon="5.784736"><time>2026-05-07T18:36:14Z</time></trkpt>
<trkpt lat="50.646122" lon="5.783170"><time>2026-05-07T18:46:14Z</time></trkpt>
<trkpt lat="50.647987" lon="5.780538"><time>2026-05-07T18:56:14Z</time></trkpt>
<trkpt lat="50.648504" lon="5.778456"><time>2026-05-07T19:06:14Z</time></trkpt>
<trkpt lat="50.648949" lon="5.777269"><time>2026-05-07T19:16:14Z</time></trkpt>
</trkseg>
</trk>
<trk>
<name>lhvba149</name>
<cmt>q</cmt>
<desc>Battice Sentier n°149 </desc>
<link href="https://chemins.be/battice/sentier/149"/><trkseg>
<trkpt lat="50.646093" lon="5.783197"><time>2026-05-07T18:26:14Z</time></trkpt>
<trkpt lat="50.644882" lon="5.783722"><time>2026-05-07T18:36:14Z</time></trkpt>
<trkpt lat="50.644059" lon="5.784538"><time>2026-05-07T18:46:14Z</time></trkpt>
</trkseg>
</trk>
<trk>
<name>lhvba150</name>
<cmt>q</cmt>
<desc>Battice Sentier n°150 </desc>
<link href="https://chemins.be/battice/sentier/150"/><trkseg>
<trkpt lat="50.651611" lon="5.779150"><time>2026-05-07T18:26:14Z</time></trkpt>
<trkpt lat="50.650831" lon="5.779687"><time>2026-05-07T18:36:14Z</time></trkpt>
<trkpt lat="50.649280" lon="5.782304"><time>2026-05-07T18:46:14Z</time></trkpt>
<trkpt lat="50.647838" lon="5.783692"><time>2026-05-07T18:56:14Z</time></trkpt>
<trkpt lat="50.647819" lon="5.784000"><time>2026-05-07T19:06:14Z</time></trkpt>
<trkpt lat="50.646881" lon="5.784436"><time>2026-05-07T19:16:14Z</time></trkpt>
<trkpt lat="50.646645" lon="5.784915"><time>2026-05-07T19:26:14Z</time></trkpt>
</trkseg>
</trk>
<trk>
<name>lhvba151</name>
<cmt>q</cmt>
<desc>Battice Sentier n°151 </desc>
<link href="https://chemins.be/battice/sentier/151"/><trkseg>
<trkpt lat="50.640357" lon="5.782565"><time>2026-05-07T18:26:14Z</time></trkpt>
<trkpt lat="50.639867" lon="5.780205"><time>2026-05-07T18:36:14Z</time></trkpt>
</trkseg></trk>
<trk>
<name>lhvba151</name>
<cmt>r</cmt>
<desc>Battice Sentier n°151 </desc>
<link href="https://chemins.be/battice/sentier/151"/><trkseg>
<trkpt lat="50.639867" lon="5.780205"><time>2026-05-07T18:36:14Z</time></trkpt>
<trkpt lat="50.639187" lon="5.774669"><time>2026-05-07T18:46:14Z</time></trkpt>
</trkseg></trk>
<trk>
<name>lhvba151</name>
<cmt>q</cmt>
<desc>Battice Sentier n°151 </desc>
<link href="https://chemins.be/battice/sentier/151"/><trkseg>
<trkpt lat="50.639187" lon="5.774669"><time>2026-05-07T18:46:14Z</time></trkpt>
<trkpt lat="50.637935" lon="5.771243"><time>2026-05-07T18:56:14Z</time></trkpt>
<trkpt lat="50.637794" lon="5.771143"><time>2026-05-07T19:06:14Z</time></trkpt>
</trkseg>
</trk>
<trk>
<name>lhvba152</name>
<cmt>q</cmt>
<desc>Battice Sentier n°152 </desc>
<link href="https://chemins.be/battice/sentier/152"/><trkseg>
<trkpt lat="50.639277" lon="5.775170"><time>2026-05-07T18:26:14Z</time></trkpt>
<trkpt lat="50.639518" lon="5.773131"><time>2026-05-07T18:36:14Z</time></trkpt>
<trkpt lat="50.639559" lon="5.770127"><time>2026-05-07T18:46:14Z</time></trkpt>
<trkpt lat="50.639472" lon="5.767717"><time>2026-05-07T18:56:14Z</time></trkpt>
<trkpt lat="50.638992" lon="5.764305"><time>2026-05-07T19:06:14Z</time></trkpt>
<trkpt lat="50.638742" lon="5.762596"><time>2026-05-07T19:16:14Z</time></trkpt>
</trkseg>
</trk>
<trk>
<name>lhvba153</name>
<cmt>q</cmt>
<desc>Battice Sentier n°153 </desc>
<link href="https://chemins.be/battice/sentier/153"/><trkseg>
<trkpt lat="50.639627" lon="5.763131"><time>2026-05-07T18:26:14Z</time></trkpt>
<trkpt lat="50.639019" lon="5.764440"><time>2026-05-07T18:36:14Z</time></trkpt>
<trkpt lat="50.638188" lon="5.765302"><time>2026-05-07T18:46:14Z</time></trkpt>
<trkpt lat="50.637046" lon="5.766487"><time>2026-05-07T18:56:14Z</time></trkpt>
</trkseg>
</trk>
<trk>
<name>lhvba154</name>
<cmt>q</cmt>
<desc>Battice Sentier n°154 </desc>
<link href="https://chemins.be/battice/sentier/154"/><trkseg>
<trkpt lat="50.638154" lon="5.775470"><time>2026-05-07T18:26:14Z</time></trkpt>
<trkpt lat="50.638358" lon="5.775363"><time>2026-05-07T18:36:14Z</time></trkpt>
<trkpt lat="50.639257" lon="5.775205"><time>2026-05-07T18:46:14Z</time></trkpt>
<trkpt lat="50.642255" lon="5.774590"><time>2026-05-07T18:56:14Z</time></trkpt>
</trkseg>
</trk>
<trk>
<name>lhvba155</name>
<cmt>q</cmt>
<desc>Battice Sentier n°155 </desc>
<link href="https://chemins.be/battice/sentier/155"/><trkseg>
<trkpt lat="50.639015" lon="5.781370"><time>2026-05-07T18:26:14Z</time></trkpt>
<trkpt lat="50.639724" lon="5.779349"><time>2026-05-07T18:36:14Z</time></trkpt>
</trkseg>
</trk>
<trk>
<name>lhvba157</name>
<cmt>v</cmt>
<desc>Battice Sentier n°157 </desc>
<link href="https://chemins.be/battice/sentier/157"/><trkseg>
<trkpt lat="50.635528" lon="5.783320"><time>2026-05-07T18:26:14Z</time></trkpt>
<trkpt lat="50.635812" lon="5.782975"><time>2026-05-07T18:36:14Z</time></trkpt>
<trkpt lat="50.635972" lon="5.782423"><time>2026-05-07T18:46:14Z</time></trkpt>
<trkpt lat="50.636096" lon="5.782317"><time>2026-05-07T18:56:14Z</time></trkpt>
</trkseg>
</trk>
<trk>
<name>lhvba158</name>
<cmt>q</cmt>
<desc>Battice Sentier n°158 </desc>
<link href="https://chemins.be/battice/sentier/158"/><trkseg>
<trkpt lat="50.632067" lon="5.773887"><time>2026-05-07T18:26:14Z</time></trkpt>
<trkpt lat="50.631702" lon="5.775174"><time>2026-05-07T18:36:14Z</time></trkpt>
<trkpt lat="50.631584" lon="5.776562"><time>2026-05-07T18:46:14Z</time></trkpt>
<trkpt lat="50.630809" lon="5.778175"><time>2026-05-07T18:56:14Z</time></trkpt>
<trkpt lat="50.629432" lon="5.780013"><time>2026-05-07T19:06:14Z</time></trkpt>
<trkpt lat="50.629082" lon="5.781004"><time>2026-05-07T19:16:14Z</time></trkpt>
</trkseg>
</trk>
<trk>
<name>lhvba159</name>
<cmt>q</cmt>
<desc>Battice Sentier n°159 </desc>
<link href="https://chemins.be/battice/sentier/159"/><trkseg>
<trkpt lat="50.630332" lon="5.768436"><time>2026-05-07T18:26:14Z</time></trkpt>
<trkpt lat="50.630464" lon="5.768626"><time>2026-05-07T18:36:14Z</time></trkpt>
<trkpt lat="50.630550" lon="5.769806"><time>2026-05-07T18:46:14Z</time></trkpt>
<trkpt lat="50.631147" lon="5.770407"><time>2026-05-07T18:56:14Z</time></trkpt>
<trkpt lat="50.631392" lon="5.770986"><time>2026-05-07T19:06:14Z</time></trkpt>
<trkpt lat="50.632387" lon="5.772234"><time>2026-05-07T19:16:14Z</time></trkpt>
<trkpt lat="50.632698" lon="5.772335"><time>2026-05-07T19:26:14Z</time></trkpt>
</trkseg>
</trk>
<trk>
<name>lhvba160</name>
<cmt>q</cmt>
<desc>Battice Sentier n°160 </desc>
<link href="https://chemins.be/battice/sentier/160"/><trkseg>
<trkpt lat="50.632360" lon="5.772281"><time>2026-05-07T18:26:14Z</time></trkpt>
<trkpt lat="50.631664" lon="5.772621"><time>2026-05-07T18:36:14Z</time></trkpt>
<trkpt lat="50.631131" lon="5.773129"><time>2026-05-07T18:46:14Z</time></trkpt>
</trkseg>
</trk>
<trk>
<name>lhvba161</name>
<cmt>v</cmt>
<desc>Battice Sentier n°161 </desc>
<link href="https://chemins.be/battice/sentier/161"/><trkseg>
<trkpt lat="50.629739" lon="5.771327"><time>2026-05-07T18:26:14Z</time></trkpt>
<trkpt lat="50.629447" lon="5.771028"><time>2026-05-07T18:36:14Z</time></trkpt>
</trkseg></trk>
<trk>
<name>lhvba161</name>
<cmt>q</cmt>
<desc>Battice Sentier n°161 </desc>
<link href="https://chemins.be/battice/sentier/161"/><trkseg>
<trkpt lat="50.629447" lon="5.771028"><time>2026-05-07T18:36:14Z</time></trkpt>
<trkpt lat="50.628150" lon="5.769551"><time>2026-05-07T18:46:14Z</time></trkpt>
<trkpt lat="50.627161" lon="5.768879"><time>2026-05-07T18:56:14Z</time></trkpt>
<trkpt lat="50.626650" lon="5.767435"><time>2026-05-07T19:06:14Z</time></trkpt>
</trkseg>
</trk>
<trk>
<name>lhvba162</name>
<cmt>v</cmt>
<desc>Battice Sentier n°162 </desc>
<link href="https://chemins.be/battice/sentier/162"/><trkseg>
<trkpt lat="50.625786" lon="5.771454"><time>2026-05-07T18:26:14Z</time></trkpt>
<trkpt lat="50.625940" lon="5.770819"><time>2026-05-07T18:36:14Z</time></trkpt>
</trkseg></trk>
<trk>
<name>lhvba162</name>
<cmt>q</cmt>
<desc>Battice Sentier n°162 </desc>
<link href="https://chemins.be/battice/sentier/162"/><trkseg>
<trkpt lat="50.625940" lon="5.770819"><time>2026-05-07T18:36:14Z</time></trkpt>
<trkpt lat="50.626281" lon="5.769566"><time>2026-05-07T18:46:14Z</time></trkpt>
<trkpt lat="50.627184" lon="5.768786"><time>2026-05-07T18:56:14Z</time></trkpt>
</trkseg>
</trk>
<trk>
<name>lhvba163</name>
<cmt>d</cmt>
<desc>Battice Sentier n°163 </desc>
<link href="https://chemins.be/battice/sentier/163"/><trkseg>
<trkpt lat="50.626944" lon="5.781291"><time>2026-05-07T18:26:14Z</time></trkpt>
<trkpt lat="50.627272" lon="5.782700"><time>2026-05-07T18:36:14Z</time></trkpt>
</trkseg></trk>
<trk>
<name>lhvba163</name>
<cmt>r</cmt>
<desc>Battice Sentier n°163 </desc>
<link href="https://chemins.be/battice/sentier/163"/><trkseg>
<trkpt lat="50.627272" lon="5.782700"><time>2026-05-07T18:36:14Z</time></trkpt>
<trkpt lat="50.627163" lon="5.782921"><time>2026-05-07T18:46:14Z</time></trkpt>
</trkseg></trk>
<trk>
<name>lhvba163</name>
<cmt>q</cmt>
<desc>Battice Sentier n°163 </desc>
<link href="https://chemins.be/battice/sentier/163"/><trkseg>
<trkpt lat="50.627163" lon="5.782921"><time>2026-05-07T18:46:14Z</time></trkpt>
<trkpt lat="50.627885" lon="5.783930"><time>2026-05-07T18:56:14Z</time></trkpt>
<trkpt lat="50.627730" lon="5.784681"><time>2026-05-07T19:06:14Z</time></trkpt>
<trkpt lat="50.627853" lon="5.785367"><time>2026-05-07T19:16:14Z</time></trkpt>
<trkpt lat="50.627889" lon="5.785975"><time>2026-05-07T19:26:14Z</time></trkpt>
</trkseg>
</trk>
<trk>
<name>lhvba164</name>
<cmt>q</cmt>
<desc>Battice Sentier n°164 </desc>
<link href="https://chemins.be/battice/sentier/164"/><trkseg>
<trkpt lat="50.622831" lon="5.779987"><time>2026-05-07T18:26:14Z</time></trkpt>
<trkpt lat="50.620794" lon="5.782235"><time>2026-05-07T18:36:14Z</time></trkpt>
<trkpt lat="50.620598" lon="5.782184"><time>2026-05-07T18:46:14Z</time></trkpt>
</trkseg>
</trk>
<trk>
<name>lhvba165</name>
<cmt>v</cmt>
<desc>Battice Sentier n°165 </desc>
<link href="https://chemins.be/battice/sentier/165"/><trkseg>
<trkpt lat="50.618839" lon="5.776647"><time>2026-05-07T18:26:14Z</time></trkpt>
<trkpt lat="50.618376" lon="5.776733"><time>2026-05-07T18:36:14Z</time></trkpt>
</trkseg></trk>
<trk>
<name>lhvba165</name>
<cmt>q</cmt>
<desc>Battice Sentier n°165 </desc>
<link href="https://chemins.be/battice/sentier/165"/><trkseg>
<trkpt lat="50.618376" lon="5.776733"><time>2026-05-07T18:36:14Z</time></trkpt>
<trkpt lat="50.618226" lon="5.776318"><time>2026-05-07T18:46:14Z</time></trkpt>
<trkpt lat="50.617568" lon="5.775738"><time>2026-05-07T18:56:14Z</time></trkpt>
</trkseg>
</trk>
<trk>
<name>lhvba166</name>
<cmt>q</cmt>
<desc>Battice Sentier n°166 </desc>
<link href="https://chemins.be/battice/sentier/166"/><trkseg>
<trkpt lat="50.613270" lon="5.778964"><time>2026-05-07T18:26:14Z</time></trkpt>
<trkpt lat="50.612049" lon="5.774594"><time>2026-05-07T18:36:14Z</time></trkpt>
<trkpt lat="50.611741" lon="5.774172"><time>2026-05-07T18:46:14Z</time></trkpt>
<trkpt lat="50.611468" lon="5.772913"><time>2026-05-07T18:56:14Z</time></trkpt>
<trkpt lat="50.610939" lon="5.771773"><time>2026-05-07T19:06:14Z</time></trkpt>
<trkpt lat="50.611155" lon="5.771505"><time>2026-05-07T19:16:14Z</time></trkpt>
<trkpt lat="50.611291" lon="5.770407"><time>2026-05-07T19:26:14Z</time></trkpt>
</trkseg>
</trk>
<trk>
<name>lhvba167</name>
<cmt>q</cmt>
<desc>Battice Sentier n°167 </desc>
<link href="https://chemins.be/battice/sentier/167"/><trkseg>
<trkpt lat="50.614528" lon="5.781223"><time>2026-05-07T18:26:14Z</time></trkpt>
<trkpt lat="50.613257" lon="5.782367"><time>2026-05-07T18:36:14Z</time></trkpt>
<trkpt lat="50.612368" lon="5.782582"><time>2026-05-07T18:46:14Z</time></trkpt>
</trkseg>
</trk>
<trk>
<name>lhvba168</name>
<cmt>q</cmt>
<desc>Battice Sentier n°168 </desc>
<link href="https://chemins.be/battice/sentier/168"/><trkseg>
<trkpt lat="50.614343" lon="5.797826"><time>2026-05-07T18:26:14Z</time></trkpt>
<trkpt lat="50.615517" lon="5.796273"><time>2026-05-07T18:36:14Z</time></trkpt>
<trkpt lat="50.617332" lon="5.795673"><time>2026-05-07T18:46:14Z</time></trkpt>
<trkpt lat="50.618281" lon="5.794893"><time>2026-05-07T18:56:14Z</time></trkpt>
</trkseg>
</trk>
<trk>
<name>lhvba169</name>
<cmt>q</cmt>
<desc>Battice Sentier n°169 </desc>
<link href="https://chemins.be/battice/sentier/169"/><trkseg>
<trkpt lat="50.617772" lon="5.793076"><time>2026-05-07T18:26:14Z</time></trkpt>
<trkpt lat="50.618235" lon="5.792449"><time>2026-05-07T18:36:14Z</time></trkpt>
<trkpt lat="50.618480" lon="5.791179"><time>2026-05-07T18:46:14Z</time></trkpt>
</trkseg>
</trk>
<trk>
<name>lhvba170</name>
<cmt>q</cmt>
<desc>Battice Sentier n°170 Rue d'Elvaux</desc>
<link href="https://chemins.be/battice/sentier/170"/><trkseg>
<trkpt lat="50.630092" lon="5.798925"><time>2026-05-07T18:26:14Z</time></trkpt>
<trkpt lat="50.629580" lon="5.799172"><time>2026-05-07T18:36:14Z</time></trkpt>
<trkpt lat="50.628863" lon="5.799783"><time>2026-05-07T18:46:14Z</time></trkpt>
<trkpt lat="50.628499" lon="5.799910"><time>2026-05-07T18:56:14Z</time></trkpt>
<trkpt lat="50.628067" lon="5.799830"><time>2026-05-07T19:06:14Z</time></trkpt>
<trkpt lat="50.626705" lon="5.799158"><time>2026-05-07T19:16:14Z</time></trkpt>
</trkseg></trk>
<trk>
<name>lhvba170</name>
<cmt>r</cmt>
<desc>Battice Sentier n°170 Rue d'Elvaux</desc>
<link href="https://chemins.be/battice/sentier/170"/><trkseg>
<trkpt lat="50.626705" lon="5.799158"><time>2026-05-07T19:16:14Z</time></trkpt>
<trkpt lat="50.625121" lon="5.798335"><time>2026-05-07T19:26:14Z</time></trkpt>
</trkseg></trk>
<trk>
<name>lhvba170</name>
<cmt>q</cmt>
<desc>Battice Sentier n°170 Rue d'Elvaux</desc>
<link href="https://chemins.be/battice/sentier/170"/><trkseg>
<trkpt lat="50.625121" lon="5.798335"><time>2026-05-07T19:26:14Z</time></trkpt>
<trkpt lat="50.623914" lon="5.795875"><time>2026-05-07T19:36:14Z</time></trkpt>
<trkpt lat="50.623538" lon="5.795488"><time>2026-05-07T19:46:14Z</time></trkpt>
<trkpt lat="50.622721" lon="5.793493"><time>2026-05-07T19:56:14Z</time></trkpt>
<trkpt lat="50.621718" lon="5.791998"><time>2026-05-07T20:06:14Z</time></trkpt>
</trkseg>
</trk>
<trk>
<name>lhvba171</name>
<cmt>q</cmt>
<desc>Battice Sentier n°171 </desc>
<link href="https://chemins.be/battice/sentier/171"/><trkseg>
<trkpt lat="50.616912" lon="5.791454"><time>2026-05-07T18:26:14Z</time></trkpt>
<trkpt lat="50.619210" lon="5.790913"><time>2026-05-07T18:36:14Z</time></trkpt>
</trkseg>
</trk>
<trk>
<name>lhvba172</name>
<cmt>q</cmt>
<desc>Battice Sentier n°172 En Wez / Thier Martin / Sur l'Agaux</desc>
<link href="https://chemins.be/battice/sentier/172"/><trkseg>
<trkpt lat="50.628252" lon="5.786569"><time>2026-05-07T18:26:14Z</time></trkpt>
<trkpt lat="50.627322" lon="5.787964"><time>2026-05-07T18:36:14Z</time></trkpt>
<trkpt lat="50.627213" lon="5.789995"><time>2026-05-07T18:46:14Z</time></trkpt>
</trkseg></trk>
<trk>
<name>lhvba172</name>
<cmt>r</cmt>
<desc>Battice Sentier n°172 En Wez / Thier Martin / Sur l'Agaux</desc>
<link href="https://chemins.be/battice/sentier/172"/><trkseg>
<trkpt lat="50.627213" lon="5.789995"><time>2026-05-07T18:46:14Z</time></trkpt>
<trkpt lat="50.627397" lon="5.791349"><time>2026-05-07T18:56:14Z</time></trkpt>
</trkseg></trk>
<trk>
<name>lhvba172</name>
<cmt>q</cmt>
<desc>Battice Sentier n°172 En Wez / Thier Martin / Sur l'Agaux</desc>
<link href="https://chemins.be/battice/sentier/172"/><trkseg>
<trkpt lat="50.627397" lon="5.791349"><time>2026-05-07T18:56:14Z</time></trkpt>
<trkpt lat="50.627481" lon="5.791969"><time>2026-05-07T19:06:14Z</time></trkpt>
<trkpt lat="50.627436" lon="5.792913"><time>2026-05-07T19:16:14Z</time></trkpt>
<trkpt lat="50.627826" lon="5.793807"><time>2026-05-07T19:26:14Z</time></trkpt>
<trkpt lat="50.627898" lon="5.794637"><time>2026-05-07T19:36:14Z</time></trkpt>
<trkpt lat="50.627735" lon="5.794780"><time>2026-05-07T19:46:14Z</time></trkpt>
<trkpt lat="50.628366" lon="5.796905"><time>2026-05-07T19:56:14Z</time></trkpt>
<trkpt lat="50.628657" lon="5.799673"><time>2026-05-07T20:06:14Z</time></trkpt>
</trkseg></trk>
<trk>
<name>lhvba172</name>
<cmt>r</cmt>
<desc>Battice Sentier n°172 En Wez / Thier Martin / Sur l'Agaux</desc>
<link href="https://chemins.be/battice/sentier/172"/><trkseg>
<trkpt lat="50.628657" lon="5.799673"><time>2026-05-07T20:06:14Z</time></trkpt>
<trkpt lat="50.628988" lon="5.799962"><time>2026-05-07T20:16:14Z</time></trkpt>
</trkseg></trk>
<trk>
<name>lhvba172</name>
<cmt>v</cmt>
<desc>Battice Sentier n°172 En Wez / Thier Martin / Sur l'Agaux</desc>
<link href="https://chemins.be/battice/sentier/172"/><trkseg>
<trkpt lat="50.628988" lon="5.799962"><time>2026-05-07T20:16:14Z</time></trkpt>
<trkpt lat="50.629477" lon="5.801303"><time>2026-05-07T20:26:14Z</time></trkpt>
<trkpt lat="50.630280" lon="5.802598"><time>2026-05-07T20:36:14Z</time></trkpt>
<trkpt lat="50.630720" lon="5.803814"><time>2026-05-07T20:46:14Z</time></trkpt>
</trkseg></trk>
<trk>
<name>lhvba172</name>
<cmt>r</cmt>
<desc>Battice Sentier n°172 En Wez / Thier Martin / Sur l'Agaux</desc>
<link href="https://chemins.be/battice/sentier/172"/><trkseg>
<trkpt lat="50.630720" lon="5.803814"><time>2026-05-07T20:46:14Z</time></trkpt>
<trkpt lat="50.630943" lon="5.805531"><time>2026-05-07T20:56:14Z</time></trkpt>
<trkpt lat="50.631564" lon="5.806103"><time>2026-05-07T21:06:14Z</time></trkpt>
</trkseg></trk>
<trk>
<name>lhvba172</name>
<cmt>d</cmt>
<desc>Battice Sentier n°172 En Wez / Thier Martin / Sur l'Agaux</desc>
<link href="https://chemins.be/battice/sentier/172"/><trkseg>
<trkpt lat="50.631564" lon="5.806103"><time>2026-05-07T21:06:14Z</time></trkpt>
<trkpt lat="50.632242" lon="5.806622"><time>2026-05-07T21:16:14Z</time></trkpt>
<trkpt lat="50.632691" lon="5.806819"><time>2026-05-07T21:26:14Z</time></trkpt>
<trkpt lat="50.633354" lon="5.806869"><time>2026-05-07T21:36:14Z</time></trkpt>
<trkpt lat="50.633660" lon="5.807137"><time>2026-05-07T21:46:14Z</time></trkpt>
<trkpt lat="50.633748" lon="5.807334"><time>2026-05-07T21:56:14Z</time></trkpt>
</trkseg>
</trk>
<trk>
<name>lhvba174</name>
<cmt>v</cmt>
<desc>Battice Sentier n°174 </desc>
<link href="https://chemins.be/battice/sentier/174"/><trkseg>
<trkpt lat="50.630902" lon="5.805563"><time>2026-05-07T18:26:14Z</time></trkpt>
<trkpt lat="50.629753" lon="5.806136"><time>2026-05-07T18:36:14Z</time></trkpt>
<trkpt lat="50.628919" lon="5.806634"><time>2026-05-07T18:46:14Z</time></trkpt>
<trkpt lat="50.628752" lon="5.807053"><time>2026-05-07T18:56:14Z</time></trkpt>
<trkpt lat="50.627814" lon="5.806544"><time>2026-05-07T19:06:14Z</time></trkpt>
<trkpt lat="50.625658" lon="5.804230"><time>2026-05-07T19:16:14Z</time></trkpt>
</trkseg>
</trk>
<trk>
<name>lhvba175</name>
<cmt>q</cmt>
<desc>Battice Sentier n°175 </desc>
<link href="https://chemins.be/battice/sentier/175"/><trkseg>
<trkpt lat="50.631807" lon="5.805446"><time>2026-05-07T18:26:14Z</time></trkpt>
<trkpt lat="50.632437" lon="5.803464"><time>2026-05-07T18:36:14Z</time></trkpt>
<trkpt lat="50.632753" lon="5.802953"><time>2026-05-07T18:46:14Z</time></trkpt>
</trkseg>
</trk>
<trk>
<name>lhvba176</name>
<cmt>v</cmt>
<desc>Battice Sentier n°176 </desc>
<link href="https://chemins.be/battice/sentier/176"/><trkseg>
<trkpt lat="50.629002" lon="5.809393"><time>2026-05-07T18:26:14Z</time></trkpt>
<trkpt lat="50.628803" lon="5.808765"><time>2026-05-07T18:36:14Z</time></trkpt>
<trkpt lat="50.628827" lon="5.808285"><time>2026-05-07T18:46:14Z</time></trkpt>
<trkpt lat="50.628751" lon="5.807152"><time>2026-05-07T18:56:14Z</time></trkpt>
</trkseg>
</trk>
<trk>
<name>lhvba177</name>
<cmt>q</cmt>
<desc>Battice Sentier n°177 </desc>
<link href="https://chemins.be/battice/sentier/177"/><trkseg>
<trkpt lat="50.625380" lon="5.804918"><time>2026-05-07T18:26:14Z</time></trkpt>
<trkpt lat="50.625637" lon="5.806824"><time>2026-05-07T18:36:14Z</time></trkpt>
<trkpt lat="50.625378" lon="5.807951"><time>2026-05-07T18:46:14Z</time></trkpt>
</trkseg>
</trk>
<trk>
<name>lhvba178</name>
<cmt>d</cmt>
<desc>Battice Sentier n°178 Vinâve</desc>
<link href="https://chemins.be/battice/sentier/178"/><trkseg>
<trkpt lat="50.622198" lon="5.808848"><time>2026-05-07T18:26:14Z</time></trkpt>
<trkpt lat="50.620724" lon="5.809935"><time>2026-05-07T18:36:14Z</time></trkpt>
<trkpt lat="50.619775" lon="5.811158"><time>2026-05-07T18:46:14Z</time></trkpt>
</trkseg></trk>
<trk>
<name>lhvba178</name>
<cmt>r</cmt>
<desc>Battice Sentier n°178 Vinâve</desc>
<link href="https://chemins.be/battice/sentier/178"/><trkseg>
<trkpt lat="50.619775" lon="5.811158"><time>2026-05-07T18:46:14Z</time></trkpt>
<trkpt lat="50.620057" lon="5.812302"><time>2026-05-07T18:56:14Z</time></trkpt>
</trkseg></trk>
<trk>
<name>lhvba178</name>
<cmt>d</cmt>
<desc>Battice Sentier n°178 Vinâve</desc>
<link href="https://chemins.be/battice/sentier/178"/><trkseg>
<trkpt lat="50.620057" lon="5.812302"><time>2026-05-07T18:56:14Z</time></trkpt>
<trkpt lat="50.618731" lon="5.813103"><time>2026-05-07T19:06:14Z</time></trkpt>
<trkpt lat="50.618264" lon="5.814026"><time>2026-05-07T19:16:14Z</time></trkpt>
<trkpt lat="50.617797" lon="5.814655"><time>2026-05-07T19:26:14Z</time></trkpt>
</trkseg>
</trk>
<trk>
<name>lhvba179</name>
<cmt>d</cmt>
<desc>Battice Sentier n°179 </desc>
<link href="https://chemins.be/battice/sentier/179"/><trkseg>
<trkpt lat="50.617745" lon="5.809195"><time>2026-05-07T18:26:14Z</time></trkpt>
<trkpt lat="50.616688" lon="5.811263"><time>2026-05-07T18:36:14Z</time></trkpt>
</trkseg>
</trk>
<trk>
<name>lhvba18</name>
<cmt>q</cmt>
<desc>Battice Chemin n°18 </desc>
<link href="https://chemins.be/battice/chemin/18"/><trkseg>
<trkpt lat="50.633061" lon="5.832140"><time>2026-05-07T18:26:14Z</time></trkpt>
<trkpt lat="50.633470" lon="5.834876"><time>2026-05-07T18:36:14Z</time></trkpt>
<trkpt lat="50.633741" lon="5.836689"><time>2026-05-07T18:46:14Z</time></trkpt>
</trkseg></trk>
<trk>
<name>lhvba18</name>
<cmt>s</cmt>
<desc>Battice Chemin n°18 </desc>
<link href="https://chemins.be/battice/chemin/18"/><trkseg>
<trkpt lat="50.633741" lon="5.836689"><time>2026-05-07T18:46:14Z</time></trkpt>
<trkpt lat="50.633660" lon="5.838477"><time>2026-05-07T18:56:14Z</time></trkpt>
</trkseg>
</trk>
<trk>
<name>lhvba181</name>
<cmt>v</cmt>
<desc>Battice Sentier n°181 </desc>
<link href="https://chemins.be/battice/sentier/181"/><trkseg>
<trkpt lat="50.628984" lon="5.820320"><time>2026-05-07T18:26:14Z</time></trkpt>
<trkpt lat="50.630514" lon="5.821639"><time>2026-05-07T18:36:14Z</time></trkpt>
</trkseg>
</trk>
<trk>
<name>lhvba182</name>
<cmt>q</cmt>
<desc>Battice Sentier n°182 </desc>
<link href="https://chemins.be/battice/sentier/182"/><trkseg>
<trkpt lat="50.629170" lon="5.820525"><time>2026-05-07T18:26:14Z</time></trkpt>
<trkpt lat="50.628848" lon="5.820993"><time>2026-05-07T18:36:14Z</time></trkpt>
<trkpt lat="50.628201" lon="5.821111"><time>2026-05-07T18:46:14Z</time></trkpt>
</trkseg>
</trk>
<trk>
<name>lhvba183</name>
<cmt>q</cmt>
<desc>Battice Sentier n°183 </desc>
<link href="https://chemins.be/battice/sentier/183"/><trkseg>
<trkpt lat="50.627398" lon="5.820332"><time>2026-05-07T18:26:14Z</time></trkpt>
<trkpt lat="50.628195" lon="5.821100"><time>2026-05-07T18:36:14Z</time></trkpt>
<trkpt lat="50.628986" lon="5.822524"><time>2026-05-07T18:46:14Z</time></trkpt>
</trkseg>
</trk>
<trk>
<name>lhvba184</name>
<cmt>v</cmt>
<desc>Battice Sentier n°184 Hautregard</desc>
<link href="https://chemins.be/battice/sentier/184"/><trkseg>
<trkpt lat="50.631885" lon="5.832822"><time>2026-05-07T18:26:14Z</time></trkpt>
<trkpt lat="50.631904" lon="5.832695"><time>2026-05-07T18:36:14Z</time></trkpt>
<trkpt lat="50.631871" lon="5.832454"><time>2026-05-07T18:46:14Z</time></trkpt>
<trkpt lat="50.631855" lon="5.832312"><time>2026-05-07T18:56:14Z</time></trkpt>
<trkpt lat="50.631830" lon="5.832142"><time>2026-05-07T19:06:14Z</time></trkpt>
<trkpt lat="50.631735" lon="5.831842"><time>2026-05-07T19:16:14Z</time></trkpt>
<trkpt lat="50.631648" lon="5.831585"><time>2026-05-07T19:26:14Z</time></trkpt>
<trkpt lat="50.631473" lon="5.831226"><time>2026-05-07T19:36:14Z</time></trkpt>
<trkpt lat="50.631438" lon="5.831154"><time>2026-05-07T19:46:14Z</time></trkpt>
<trkpt lat="50.631403" lon="5.831096"><time>2026-05-07T19:56:14Z</time></trkpt>
<trkpt lat="50.631304" lon="5.831079"><time>2026-05-07T20:06:14Z</time></trkpt>
<trkpt lat="50.630831" lon="5.830768"><time>2026-05-07T20:16:14Z</time></trkpt>
<trkpt lat="50.630475" lon="5.830530"><time>2026-05-07T20:26:14Z</time></trkpt>
<trkpt lat="50.630182" lon="5.830224"><time>2026-05-07T20:36:14Z</time></trkpt>
<trkpt lat="50.630182" lon="5.830182"><time>2026-05-07T20:46:14Z</time></trkpt>
<trkpt lat="50.630459" lon="5.829597"><time>2026-05-07T20:56:14Z</time></trkpt>
<trkpt lat="50.629327" lon="5.828798"><time>2026-05-07T21:06:14Z</time></trkpt>
<trkpt lat="50.629421" lon="5.828533"><time>2026-05-07T21:16:14Z</time></trkpt>
<trkpt lat="50.628817" lon="5.827906"><time>2026-05-07T21:26:14Z</time></trkpt>
<trkpt lat="50.628398" lon="5.825781"><time>2026-05-07T21:36:14Z</time></trkpt>
</trkseg></trk>
<trk>
<name>lhvba184</name>
<cmt>r</cmt>
<desc>Battice Sentier n°184 Hautregard</desc>
<link href="https://chemins.be/battice/sentier/184"/><trkseg>
<trkpt lat="50.628398" lon="5.825781"><time>2026-05-07T21:36:14Z</time></trkpt>
<trkpt lat="50.627944" lon="5.824733"><time>2026-05-07T21:46:14Z</time></trkpt>
</trkseg>
</trk>
<trk>
<name>lhvba185</name>
<cmt>v</cmt>
<desc>Battice Sentier n°185 Sentier n°15</desc>
<link href="https://chemins.be/battice/sentier/185"/><trkseg>
<trkpt lat="50.633858" lon="5.830296"><time>2026-05-07T18:26:14Z</time></trkpt>
<trkpt lat="50.633724" lon="5.830235"><time>2026-05-07T18:36:14Z</time></trkpt>
<trkpt lat="50.633617" lon="5.830189"><time>2026-05-07T18:46:14Z</time></trkpt>
<trkpt lat="50.633285" lon="5.830137"><time>2026-05-07T18:56:14Z</time></trkpt>
<trkpt lat="50.633103" lon="5.830301"><time>2026-05-07T19:06:14Z</time></trkpt>
<trkpt lat="50.633076" lon="5.830328"><time>2026-05-07T19:16:14Z</time></trkpt>
<trkpt lat="50.631956" lon="5.830011"><time>2026-05-07T19:26:14Z</time></trkpt>
<trkpt lat="50.631638" lon="5.830255"><time>2026-05-07T19:36:14Z</time></trkpt>
<trkpt lat="50.631574" lon="5.830352"><time>2026-05-07T19:46:14Z</time></trkpt>
<trkpt lat="50.631558" lon="5.830917"><time>2026-05-07T19:56:14Z</time></trkpt>
<trkpt lat="50.631451" lon="5.831099"><time>2026-05-07T20:06:14Z</time></trkpt>
<trkpt lat="50.629270" lon="5.831722"><time>2026-05-07T20:16:14Z</time></trkpt>
<trkpt lat="50.629197" lon="5.831930"><time>2026-05-07T20:26:14Z</time></trkpt>
<trkpt lat="50.629292" lon="5.832116"><time>2026-05-07T20:36:14Z</time></trkpt>
<trkpt lat="50.629258" lon="5.832280"><time>2026-05-07T20:46:14Z</time></trkpt>
</trkseg>
</trk>
<trk>
<name>lhvba186</name>
<cmt>q</cmt>
<desc>Battice Sentier n°186 </desc>
<link href="https://chemins.be/battice/sentier/186"/><trkseg>
<trkpt lat="50.628833" lon="5.827916"><time>2026-05-07T18:26:14Z</time></trkpt>
<trkpt lat="50.628729" lon="5.828081"><time>2026-05-07T18:36:14Z</time></trkpt>
<trkpt lat="50.626950" lon="5.827666"><time>2026-05-07T18:46:14Z</time></trkpt>
<trkpt lat="50.625312" lon="5.826758"><time>2026-05-07T18:56:14Z</time></trkpt>
<trkpt lat="50.625131" lon="5.826507"><time>2026-05-07T19:06:14Z</time></trkpt>
</trkseg>
</trk>
<trk>
<name>lhvba187</name>
<cmt>s</cmt>
<desc>Battice Chemin n°187 </desc>
<link href="https://chemins.be/battice/chemin/187"/><trkseg>
<trkpt lat="50.624497" lon="5.832514"><time>2026-05-07T18:26:14Z</time></trkpt>
<trkpt lat="50.625057" lon="5.832320"><time>2026-05-07T18:36:14Z</time></trkpt>
<trkpt lat="50.625266" lon="5.832978"><time>2026-05-07T18:46:14Z</time></trkpt>
</trkseg>
</trk>
<trk>
<name>lhvba188</name>
<cmt>q</cmt>
<desc>Battice Sentier n°188 </desc>
<link href="https://chemins.be/battice/sentier/188"/><trkseg>
<trkpt lat="50.626117" lon="5.831981"><time>2026-05-07T18:26:14Z</time></trkpt>
<trkpt lat="50.625119" lon="5.832467"><time>2026-05-07T18:36:14Z</time></trkpt>
</trkseg>
</trk>
<trk>
<name>lhvba189</name>
<cmt>v</cmt>
<desc>Battice Sentier n°189 </desc>
<link href="https://chemins.be/battice/sentier/189"/><trkseg>
<trkpt lat="50.632028" lon="5.821930"><time>2026-05-07T18:26:14Z</time></trkpt>
<trkpt lat="50.632255" lon="5.823026"><time>2026-05-07T18:36:14Z</time></trkpt>
<trkpt lat="50.632657" lon="5.823327"><time>2026-05-07T18:46:14Z</time></trkpt>
<trkpt lat="50.632929" lon="5.823777"><time>2026-05-07T18:56:14Z</time></trkpt>
<trkpt lat="50.633136" lon="5.824061"><time>2026-05-07T19:06:14Z</time></trkpt>
<trkpt lat="50.633462" lon="5.824533"><time>2026-05-07T19:16:14Z</time></trkpt>
</trkseg>
</trk>
<trk>
<name>lhvba19</name>
<cmt>d</cmt>
<desc>Battice Chemin n°19 </desc>
<link href="https://chemins.be/battice/chemin/19"/><trkseg>
<trkpt lat="50.630221" lon="5.849976"><time>2026-05-07T18:26:14Z</time></trkpt>
<trkpt lat="50.630466" lon="5.849160"><time>2026-05-07T18:36:14Z</time></trkpt>
<trkpt lat="50.631142" lon="5.846254"><time>2026-05-07T18:46:14Z</time></trkpt>
<trkpt lat="50.631859" lon="5.845287"><time>2026-05-07T18:56:14Z</time></trkpt>
<trkpt lat="50.632358" lon="5.845023"><time>2026-05-07T19:06:14Z</time></trkpt>
</trkseg></trk>
<trk>
<name>lhvba19</name>
<cmt>q</cmt>
<desc>Battice Chemin n°19 </desc>
<link href="https://chemins.be/battice/chemin/19"/><trkseg>
<trkpt lat="50.632358" lon="5.845023"><time>2026-05-07T19:06:14Z</time></trkpt>
<trkpt lat="50.632328" lon="5.843085"><time>2026-05-07T19:16:14Z</time></trkpt>
<trkpt lat="50.633774" lon="5.838751"><time>2026-05-07T19:26:14Z</time></trkpt>
</trkseg>
</trk>
<trk>
<name>lhvba190</name>
<cmt>s</cmt>
<desc>Battice Sentier n°190 </desc>
<link href="https://chemins.be/battice/sentier/190"/><trkseg>
<trkpt lat="50.633198" lon="5.824771"><time>2026-05-07T18:26:14Z</time></trkpt>
<trkpt lat="50.633551" lon="5.824056"><time>2026-05-07T18:36:14Z</time></trkpt>
<trkpt lat="50.633701" lon="5.823204"><time>2026-05-07T18:46:14Z</time></trkpt>
<trkpt lat="50.634209" lon="5.822883"><time>2026-05-07T18:56:14Z</time></trkpt>
<trkpt lat="50.634772" lon="5.822103"><time>2026-05-07T19:06:14Z</time></trkpt>
</trkseg>
</trk>
<trk>
<name>lhvba191</name>
<cmt>q</cmt>
<desc>Battice Sentier n°191 </desc>
<link href="https://chemins.be/battice/sentier/191"/><trkseg>
<trkpt lat="50.633927" lon="5.830466"><time>2026-05-07T18:26:14Z</time></trkpt>
<trkpt lat="50.634517" lon="5.833992"><time>2026-05-07T18:36:14Z</time></trkpt>
<trkpt lat="50.634633" lon="5.834758"><time>2026-05-07T18:46:14Z</time></trkpt>
</trkseg></trk>
<trk>
<name>lhvba191</name>
<cmt>s</cmt>
<desc>Battice Sentier n°191 </desc>
<link href="https://chemins.be/battice/sentier/191"/><trkseg>
<trkpt lat="50.634633" lon="5.834758"><time>2026-05-07T18:46:14Z</time></trkpt>
<trkpt lat="50.634980" lon="5.837046"><time>2026-05-07T18:56:14Z</time></trkpt>
</trkseg>
</trk>
<trk>
<name>lhvba192</name>
<cmt>v</cmt>
<desc>Battice Sentier n°192 </desc>
<link href="https://chemins.be/battice/sentier/192"/><trkseg>
<trkpt lat="50.631690" lon="5.834276"><time>2026-05-07T18:26:14Z</time></trkpt>
<trkpt lat="50.631514" lon="5.834246"><time>2026-05-07T18:36:14Z</time></trkpt>
</trkseg></trk>
<trk>
<name>lhvba192</name>
<cmt>q</cmt>
<desc>Battice Sentier n°192 </desc>
<link href="https://chemins.be/battice/sentier/192"/><trkseg>
<trkpt lat="50.631514" lon="5.834246"><time>2026-05-07T18:36:14Z</time></trkpt>
<trkpt lat="50.631082" lon="5.834154"><time>2026-05-07T18:46:14Z</time></trkpt>
<trkpt lat="50.630650" lon="5.834360"><time>2026-05-07T18:56:14Z</time></trkpt>
<trkpt lat="50.630324" lon="5.834515"><time>2026-05-07T19:06:14Z</time></trkpt>
</trkseg>
</trk>
<trk>
<name>lhvba193</name>
<cmt>q</cmt>
<desc>Battice Sentier n°193 </desc>
<link href="https://chemins.be/battice/sentier/193"/><trkseg>
<trkpt lat="50.632249" lon="5.834801"><time>2026-05-07T18:26:14Z</time></trkpt>
<trkpt lat="50.633061" lon="5.835838"><time>2026-05-07T18:36:14Z</time></trkpt>
<trkpt lat="50.633277" lon="5.836764"><time>2026-05-07T18:46:14Z</time></trkpt>
</trkseg></trk>
<trk>
<name>lhvba193</name>
<cmt>s</cmt>
<desc>Battice Sentier n°193 </desc>
<link href="https://chemins.be/battice/sentier/193"/><trkseg>
<trkpt lat="50.633277" lon="5.836764"><time>2026-05-07T18:46:14Z</time></trkpt>
<trkpt lat="50.633632" lon="5.838291"><time>2026-05-07T18:56:14Z</time></trkpt>
</trkseg>
</trk>
<trk>
<name>lhvba194</name>
<cmt>q</cmt>
<desc>Battice Sentier n°194 </desc>
<link href="https://chemins.be/battice/sentier/194"/><trkseg>
<trkpt lat="50.633696" lon="5.838670"><time>2026-05-07T18:26:14Z</time></trkpt>
<trkpt lat="50.635002" lon="5.840043"><time>2026-05-07T18:36:14Z</time></trkpt>
</trkseg></trk>
<trk>
<name>lhvba194</name>
<cmt>s</cmt>
<desc>Battice Sentier n°194 </desc>
<link href="https://chemins.be/battice/sentier/194"/><trkseg>
<trkpt lat="50.635002" lon="5.840043"><time>2026-05-07T18:36:14Z</time></trkpt>
<trkpt lat="50.636529" lon="5.841540"><time>2026-05-07T18:46:14Z</time></trkpt>
<trkpt lat="50.636910" lon="5.840753"><time>2026-05-07T18:56:14Z</time></trkpt>
<trkpt lat="50.638326" lon="5.842135"><time>2026-05-07T19:06:14Z</time></trkpt>
</trkseg></trk>
<trk>
<name>lhvba194</name>
<cmt>q</cmt>
<desc>Battice Sentier n°194 </desc>
<link href="https://chemins.be/battice/sentier/194"/><trkseg>
<trkpt lat="50.638326" lon="5.842135"><time>2026-05-07T19:06:14Z</time></trkpt>
<trkpt lat="50.638933" lon="5.842727"><time>2026-05-07T19:16:14Z</time></trkpt>
<trkpt lat="50.641047" lon="5.842742"><time>2026-05-07T19:26:14Z</time></trkpt>
</trkseg>
</trk>
<trk>
<name>lhvba195</name>
<cmt>s</cmt>
<desc>Battice Sentier n°195 </desc>
<link href="https://chemins.be/battice/sentier/195"/><trkseg>
<trkpt lat="50.637269" lon="5.841226"><time>2026-05-07T18:26:14Z</time></trkpt>
<trkpt lat="50.638195" lon="5.840118"><time>2026-05-07T18:36:14Z</time></trkpt>
<trkpt lat="50.638519" lon="5.839456"><time>2026-05-07T18:46:14Z</time></trkpt>
<trkpt lat="50.638465" lon="5.837975"><time>2026-05-07T18:56:14Z</time></trkpt>
</trkseg>
</trk>
<trk>
<name>lhvba198</name>
<cmt>d</cmt>
<desc>Battice Sentier n°198 </desc>
<link href="https://chemins.be/battice/sentier/198"/><trkseg>
<trkpt lat="50.643163" lon="5.830538"><time>2026-05-07T18:26:14Z</time></trkpt>
<trkpt lat="50.641362" lon="5.830409"><time>2026-05-07T18:36:14Z</time></trkpt>
</trkseg></trk>
<trk>
<name>lhvba198</name>
<cmt>v</cmt>
<desc>Battice Sentier n°198 </desc>
<link href="https://chemins.be/battice/sentier/198"/><trkseg>
<trkpt lat="50.641362" lon="5.830409"><time>2026-05-07T18:36:14Z</time></trkpt>
<trkpt lat="50.641113" lon="5.830967"><time>2026-05-07T18:46:14Z</time></trkpt>
<trkpt lat="50.640528" lon="5.831432"><time>2026-05-07T18:56:14Z</time></trkpt>
<trkpt lat="50.639580" lon="5.831854"><time>2026-05-07T19:06:14Z</time></trkpt>
<trkpt lat="50.639267" lon="5.831346"><time>2026-05-07T19:16:14Z</time></trkpt>
<trkpt lat="50.638069" lon="5.831231"><time>2026-05-07T19:26:14Z</time></trkpt>
<trkpt lat="50.637053" lon="5.831417"><time>2026-05-07T19:36:14Z</time></trkpt>
</trkseg>
</trk>
<trk>
<name>lhvba199</name>
<cmt>r</cmt>
<desc>Battice Chemin n°199 </desc>
<link href="https://chemins.be/battice/chemin/199"/><trkseg>
<trkpt lat="50.642967" lon="5.831434"><time>2026-05-07T18:26:14Z</time></trkpt>
<trkpt lat="50.642552" lon="5.831459"><time>2026-05-07T18:36:14Z</time></trkpt>
<trkpt lat="50.642032" lon="5.831338"><time>2026-05-07T18:46:14Z</time></trkpt>
<trkpt lat="50.641733" lon="5.831020"><time>2026-05-07T18:56:14Z</time></trkpt>
<trkpt lat="50.641504" lon="5.830891"><time>2026-05-07T19:06:14Z</time></trkpt>
<trkpt lat="50.641343" lon="5.830430"><time>2026-05-07T19:16:14Z</time></trkpt>
</trkseg>
</trk>
<trk>
<name>lhvba20</name>
<cmt>v</cmt>
<desc>Battice Chemin n°20 Hauzeur</desc>
<link href="https://chemins.be/battice/chemin/20"/><trkseg>
<trkpt lat="50.630877" lon="5.852714"><time>2026-05-07T18:26:14Z</time></trkpt>
<trkpt lat="50.631870" lon="5.852572"><time>2026-05-07T18:36:14Z</time></trkpt>
<trkpt lat="50.632488" lon="5.852149"><time>2026-05-07T18:46:14Z</time></trkpt>
<trkpt lat="50.634007" lon="5.852213"><time>2026-05-07T18:56:14Z</time></trkpt>
</trkseg></trk>
<trk>
<name>lhvba20</name>
<cmt>r</cmt>
<desc>Battice Chemin n°20 Hauzeur</desc>
<link href="https://chemins.be/battice/chemin/20"/><trkseg>
<trkpt lat="50.634007" lon="5.852213"><time>2026-05-07T18:56:14Z</time></trkpt>
<trkpt lat="50.634556" lon="5.850833"><time>2026-05-07T19:06:14Z</time></trkpt>
<trkpt lat="50.634860" lon="5.849181"><time>2026-05-07T19:16:14Z</time></trkpt>
<trkpt lat="50.634624" lon="5.848179"><time>2026-05-07T19:26:14Z</time></trkpt>
<trkpt lat="50.634955" lon="5.847521"><time>2026-05-07T19:36:14Z</time></trkpt>
<trkpt lat="50.635368" lon="5.847049"><time>2026-05-07T19:46:14Z</time></trkpt>
<trkpt lat="50.635949" lon="5.845354"><time>2026-05-07T19:56:14Z</time></trkpt>
<trkpt lat="50.635749" lon="5.844045"><time>2026-05-07T20:06:14Z</time></trkpt>
<trkpt lat="50.636407" lon="5.841942"><time>2026-05-07T20:16:14Z</time></trkpt>
</trkseg></trk>
<trk>
<name>lhvba20</name>
<cmt>s</cmt>
<desc>Battice Chemin n°20 Hauzeur</desc>
<link href="https://chemins.be/battice/chemin/20"/><trkseg>
<trkpt lat="50.636407" lon="5.841942"><time>2026-05-07T20:16:14Z</time></trkpt>
<trkpt lat="50.637508" lon="5.839570"><time>2026-05-07T20:26:14Z</time></trkpt>
<trkpt lat="50.637664" lon="5.838365"><time>2026-05-07T20:36:14Z</time></trkpt>
</trkseg>
</trk>
<trk>
<name>lhvba200</name>
<cmt>q</cmt>
<desc>Battice Sentier n°200 </desc>
<link href="https://chemins.be/battice/sentier/200"/><trkseg>
<trkpt lat="50.641801" lon="5.831105"><time>2026-05-07T18:26:14Z</time></trkpt>
<trkpt lat="50.641949" lon="5.832747"><time>2026-05-07T18:36:14Z</time></trkpt>
<trkpt lat="50.642150" lon="5.833580"><time>2026-05-07T18:46:14Z</time></trkpt>
</trkseg>
</trk>
<trk>
<name>lhvba202</name>
<cmt>v</cmt>
<desc>Battice Sentier n°202 </desc>
<link href="https://chemins.be/battice/sentier/202"/><trkseg>
<trkpt lat="50.654627" lon="5.819840"><time>2026-05-07T18:26:14Z</time></trkpt>
<trkpt lat="50.652983" lon="5.819351"><time>2026-05-07T18:36:14Z</time></trkpt>
</trkseg></trk>
<trk>
<name>lhvba202</name>
<cmt>q</cmt>
<desc>Battice Sentier n°202 </desc>
<link href="https://chemins.be/battice/sentier/202"/><trkseg>
<trkpt lat="50.652983" lon="5.819351"><time>2026-05-07T18:36:14Z</time></trkpt>
<trkpt lat="50.652240" lon="5.819171"><time>2026-05-07T18:46:14Z</time></trkpt>
<trkpt lat="50.651700" lon="5.819379"><time>2026-05-07T18:56:14Z</time></trkpt>
<trkpt lat="50.650961" lon="5.819665"><time>2026-05-07T19:06:14Z</time></trkpt>
<trkpt lat="50.650061" lon="5.820270"><time>2026-05-07T19:16:14Z</time></trkpt>
</trkseg>
</trk>
<trk>
<name>lhvba203</name>
<cmt>r</cmt>
<desc>Battice Sentier n°203 Rue de Forges-les-Eaux / Val de Bouxhmont</desc>
<link href="https://chemins.be/battice/sentier/203"/><trkseg>
<trkpt lat="50.650096" lon="5.820270"><time>2026-05-07T18:26:14Z</time></trkpt>
<trkpt lat="50.650915" lon="5.820866"><time>2026-05-07T18:36:14Z</time></trkpt>
<trkpt lat="50.651310" lon="5.821355"><time>2026-05-07T18:46:14Z</time></trkpt>
</trkseg>
</trk>
<trk>
<name>lhvba204</name>
<cmt>q</cmt>
<desc>Battice Sentier n°204 </desc>
<link href="https://chemins.be/battice/sentier/204"/><trkseg>
<trkpt lat="50.655036" lon="5.821327"><time>2026-05-07T18:26:14Z</time></trkpt>
<trkpt lat="50.654883" lon="5.821318"><time>2026-05-07T18:36:14Z</time></trkpt>
<trkpt lat="50.654813" lon="5.820855"><time>2026-05-07T18:46:14Z</time></trkpt>
<trkpt lat="50.654606" lon="5.820263"><time>2026-05-07T18:56:14Z</time></trkpt>
<trkpt lat="50.654600" lon="5.819872"><time>2026-05-07T19:06:14Z</time></trkpt>
</trkseg>
</trk>
<trk>
<name>lhvba205</name>
<cmt>r</cmt>
<desc>Battice Sentier n°205 Bouxhmont</desc>
<link href="https://chemins.be/battice/sentier/205"/><trkseg>
<trkpt lat="50.655237" lon="5.822962"><time>2026-05-07T18:26:14Z</time></trkpt>
<trkpt lat="50.655602" lon="5.823147"><time>2026-05-07T18:36:14Z</time></trkpt>
<trkpt lat="50.655678" lon="5.823524"><time>2026-05-07T18:46:14Z</time></trkpt>
<trkpt lat="50.655977" lon="5.824001"><time>2026-05-07T18:56:14Z</time></trkpt>
<trkpt lat="50.656935" lon="5.823799"><time>2026-05-07T19:06:14Z</time></trkpt>
<trkpt lat="50.657348" lon="5.824550"><time>2026-05-07T19:16:14Z</time></trkpt>
</trkseg></trk>
<trk>
<name>lhvba205</name>
<cmt>v</cmt>
<desc>Battice Sentier n°205 Bouxhmont</desc>
<link href="https://chemins.be/battice/sentier/205"/><trkseg>
<trkpt lat="50.657348" lon="5.824550"><time>2026-05-07T19:16:14Z</time></trkpt>
<trkpt lat="50.657906" lon="5.824829"><time>2026-05-07T19:26:14Z</time></trkpt>
<trkpt lat="50.658211" lon="5.825101"><time>2026-05-07T19:36:14Z</time></trkpt>
<trkpt lat="50.659658" lon="5.826904"><time>2026-05-07T19:46:14Z</time></trkpt>
<trkpt lat="50.659832" lon="5.828117"><time>2026-05-07T19:56:14Z</time></trkpt>
<trkpt lat="50.660817" lon="5.830225"><time>2026-05-07T20:06:14Z</time></trkpt>
</trkseg>
</trk>
<trk>
<name>lhvba206</name>
<cmt>q</cmt>
<desc>Battice Sentier n°206 Bouxhmont</desc>
<link href="https://chemins.be/battice/sentier/206"/><trkseg>
<trkpt lat="50.655708" lon="5.823445"><time>2026-05-07T18:26:14Z</time></trkpt>
<trkpt lat="50.656986" lon="5.823799"><time>2026-05-07T18:36:14Z</time></trkpt>
<trkpt lat="50.657405" lon="5.824458"><time>2026-05-07T18:46:14Z</time></trkpt>
<trkpt lat="50.657999" lon="5.824784"><time>2026-05-07T18:56:14Z</time></trkpt>
<trkpt lat="50.659723" lon="5.826938"><time>2026-05-07T19:06:14Z</time></trkpt>
<trkpt lat="50.660202" lon="5.827342"><time>2026-05-07T19:16:14Z</time></trkpt>
<trkpt lat="50.662972" lon="5.827796"><time>2026-05-07T19:26:14Z</time></trkpt>
</trkseg>
</trk>
<trk>
<name>lhvba207</name>
<cmt>q</cmt>
<desc>Battice Sentier n°207 </desc>
<link href="https://chemins.be/battice/sentier/207"/><trkseg>
<trkpt lat="50.657623" lon="5.819582"><time>2026-05-07T18:26:14Z</time></trkpt>
<trkpt lat="50.659647" lon="5.825900"><time>2026-05-07T18:36:14Z</time></trkpt>
<trkpt lat="50.659669" lon="5.826964"><time>2026-05-07T18:46:14Z</time></trkpt>
</trkseg>
</trk>
<trk>
<name>lhvba208</name>
<cmt>q</cmt>
<desc>Battice Sentier n°208 </desc>
<link href="https://chemins.be/battice/sentier/208"/><trkseg>
<trkpt lat="50.663608" lon="5.828617"><time>2026-05-07T18:26:14Z</time></trkpt>
<trkpt lat="50.663296" lon="5.826783"><time>2026-05-07T18:36:14Z</time></trkpt>
</trkseg>
</trk>
<trk>
<name>lhvba209</name>
<cmt>q</cmt>
<desc>Battice Sentier n°209 </desc>
<link href="https://chemins.be/battice/sentier/209"/><trkseg>
<trkpt lat="50.665491" lon="5.827206"><time>2026-05-07T18:26:14Z</time></trkpt>
<trkpt lat="50.666503" lon="5.823266"><time>2026-05-07T18:36:14Z</time></trkpt>
</trkseg>
</trk>
<trk>
<name>lhvba21</name>
<cmt>q</cmt>
<desc>Battice Chemin n°21 </desc>
<link href="https://chemins.be/battice/chemin/21"/><trkseg>
<trkpt lat="50.632370" lon="5.845095"><time>2026-05-07T18:26:14Z</time></trkpt>
<trkpt lat="50.633087" lon="5.844895"><time>2026-05-07T18:36:14Z</time></trkpt>
<trkpt lat="50.633468" lon="5.845810"><time>2026-05-07T18:46:14Z</time></trkpt>
<trkpt lat="50.634747" lon="5.846840"><time>2026-05-07T18:56:14Z</time></trkpt>
<trkpt lat="50.635319" lon="5.846955"><time>2026-05-07T19:06:14Z</time></trkpt>
<trkpt lat="50.636662" lon="5.848366"><time>2026-05-07T19:16:14Z</time></trkpt>
<trkpt lat="50.637822" lon="5.849947"><time>2026-05-07T19:26:14Z</time></trkpt>
</trkseg>
</trk>
<trk>
<name>lhvba210</name>
<cmt>q</cmt>
<desc>Battice Sentier n°210 </desc>
<link href="https://chemins.be/battice/sentier/210"/><trkseg>
<trkpt lat="50.652953" lon="5.832016"><time>2026-05-07T18:26:14Z</time></trkpt>
<trkpt lat="50.653057" lon="5.830325"><time>2026-05-07T18:36:14Z</time></trkpt>
<trkpt lat="50.653149" lon="5.829865"><time>2026-05-07T18:46:14Z</time></trkpt>
<trkpt lat="50.653078" lon="5.829342"><time>2026-05-07T18:56:14Z</time></trkpt>
<trkpt lat="50.653174" lon="5.828664"><time>2026-05-07T19:06:14Z</time></trkpt>
<trkpt lat="50.653467" lon="5.828514"><time>2026-05-07T19:16:14Z</time></trkpt>
<trkpt lat="50.653930" lon="5.827020"><time>2026-05-07T19:26:14Z</time></trkpt>
<trkpt lat="50.654137" lon="5.826737"><time>2026-05-07T19:36:14Z</time></trkpt>
</trkseg>
</trk>
<trk>
<name>lhvba211</name>
<cmt>q</cmt>
<desc>Battice Chemin n°211 </desc>
<link href="https://chemins.be/battice/chemin/211"/><trkseg>
<trkpt lat="50.654776" lon="5.827960"><time>2026-05-07T18:26:14Z</time></trkpt>
<trkpt lat="50.653465" lon="5.828544"><time>2026-05-07T18:36:14Z</time></trkpt>
</trkseg>
</trk>
<trk>
<name>lhvba212</name>
<cmt>q</cmt>
<desc>Battice Sentier n°212 </desc>
<link href="https://chemins.be/battice/sentier/212"/><trkseg>
<trkpt lat="50.638426" lon="5.817014"><time>2026-05-07T18:26:14Z</time></trkpt>
<trkpt lat="50.638671" lon="5.814568"><time>2026-05-07T18:36:14Z</time></trkpt>
<trkpt lat="50.638181" lon="5.813752"><time>2026-05-07T18:46:14Z</time></trkpt>
<trkpt lat="50.637922" lon="5.810443"><time>2026-05-07T18:56:14Z</time></trkpt>
</trkseg></trk>
<trk>
<name>lhvba212</name>
<cmt>v</cmt>
<desc>Battice Sentier n°212 </desc>
<link href="https://chemins.be/battice/sentier/212"/><trkseg>
<trkpt lat="50.637922" lon="5.810443"><time>2026-05-07T18:56:14Z</time></trkpt>
<trkpt lat="50.637854" lon="5.809568"><time>2026-05-07T19:06:14Z</time></trkpt>
<trkpt lat="50.637936" lon="5.807465"><time>2026-05-07T19:16:14Z</time></trkpt>
<trkpt lat="50.638453" lon="5.805320"><time>2026-05-07T19:26:14Z</time></trkpt>
</trkseg>
</trk>
<trk>
<name>lhvba213</name>
<cmt>q</cmt>
<desc>Battice Chemin n°213 </desc>
<link href="https://chemins.be/battice/chemin/213"/><trkseg>
<trkpt lat="50.638573" lon="5.817473"><time>2026-05-07T18:26:14Z</time></trkpt>
<trkpt lat="50.639185" lon="5.817029"><time>2026-05-07T18:36:14Z</time></trkpt>
<trkpt lat="50.640462" lon="5.815878"><time>2026-05-07T18:46:14Z</time></trkpt>
</trkseg>
</trk>
<trk>
<name>lhvba217</name>
<cmt>q</cmt>
<desc>Battice Sentier n°217 </desc>
<link href="https://chemins.be/battice/sentier/217"/><trkseg>
<trkpt lat="50.635875" lon="5.845798"><time>2026-05-07T18:26:14Z</time></trkpt>
<trkpt lat="50.636364" lon="5.847707"><time>2026-05-07T18:36:14Z</time></trkpt>
<trkpt lat="50.636655" lon="5.848258"><time>2026-05-07T18:46:14Z</time></trkpt>
<trkpt lat="50.636637" lon="5.850890"><time>2026-05-07T18:56:14Z</time></trkpt>
</trkseg>
</trk>
<trk>
<name>lhvba218</name>
<cmt>q</cmt>
<desc>Battice Sentier n°218 </desc>
<link href="https://chemins.be/battice/sentier/218"/><trkseg>
<trkpt lat="50.634831" lon="5.848952"><time>2026-05-07T18:26:14Z</time></trkpt>
<trkpt lat="50.635430" lon="5.850762"><time>2026-05-07T18:36:14Z</time></trkpt>
</trkseg>
</trk>
<trk>
<name>lhvba219</name>
<cmt>v</cmt>
<desc>Battice Sentier n°219 </desc>
<link href="https://chemins.be/battice/sentier/219"/><trkseg>
<trkpt lat="50.633938" lon="5.852150"><time>2026-05-07T18:26:14Z</time></trkpt>
<trkpt lat="50.634430" lon="5.852407"><time>2026-05-07T18:36:14Z</time></trkpt>
</trkseg></trk>
<trk>
<name>lhvba219</name>
<cmt>q</cmt>
<desc>Battice Sentier n°219 </desc>
<link href="https://chemins.be/battice/sentier/219"/><trkseg>
<trkpt lat="50.634430" lon="5.852407"><time>2026-05-07T18:36:14Z</time></trkpt>
<trkpt lat="50.635070" lon="5.852644"><time>2026-05-07T18:46:14Z</time></trkpt>
</trkseg>
</trk>
<trk>
<name>lhvba22</name>
<cmt>q</cmt>
<desc>Battice Chemin n°22 Hauzeur / Rue du Coteau</desc>
<link href="https://chemins.be/battice/chemin/22"/><trkseg>
<trkpt lat="50.631991" lon="5.854037"><time>2026-05-07T18:26:14Z</time></trkpt>
<trkpt lat="50.631449" lon="5.854627"><time>2026-05-07T18:36:14Z</time></trkpt>
</trkseg></trk>
<trk>
<name>lhvba22</name>
<cmt>r</cmt>
<desc>Battice Chemin n°22 Hauzeur / Rue du Coteau</desc>
<link href="https://chemins.be/battice/chemin/22"/><trkseg>
<trkpt lat="50.631449" lon="5.854627"><time>2026-05-07T18:36:14Z</time></trkpt>
<trkpt lat="50.631248" lon="5.854842"><time>2026-05-07T18:46:14Z</time></trkpt>
</trkseg></trk>
<trk>
<name>lhvba22</name>
<cmt>v</cmt>
<desc>Battice Chemin n°22 Hauzeur / Rue du Coteau</desc>
<link href="https://chemins.be/battice/chemin/22"/><trkseg>
<trkpt lat="50.631248" lon="5.854842"><time>2026-05-07T18:46:14Z</time></trkpt>
<trkpt lat="50.630740" lon="5.855169"><time>2026-05-07T18:56:14Z</time></trkpt>
<trkpt lat="50.630340" lon="5.854838"><time>2026-05-07T19:06:14Z</time></trkpt>
<trkpt lat="50.629929" lon="5.855029"><time>2026-05-07T19:16:14Z</time></trkpt>
<trkpt lat="50.629602" lon="5.855283"><time>2026-05-07T19:26:14Z</time></trkpt>
</trkseg></trk>
<trk>
<name>lhvba22</name>
<cmt>r</cmt>
<desc>Battice Chemin n°22 Hauzeur / Rue du Coteau</desc>
<link href="https://chemins.be/battice/chemin/22"/><trkseg>
<trkpt lat="50.629602" lon="5.855283"><time>2026-05-07T19:26:14Z</time></trkpt>
<trkpt lat="50.629794" lon="5.855519"><time>2026-05-07T19:36:14Z</time></trkpt>
<trkpt lat="50.628442" lon="5.856381"><time>2026-05-07T19:46:14Z</time></trkpt>
<trkpt lat="50.627925" lon="5.856370"><time>2026-05-07T19:56:14Z</time></trkpt>
<trkpt lat="50.627481" lon="5.856073"><time>2026-05-07T20:06:14Z</time></trkpt>
</trkseg></trk>
<trk>
<name>lhvba22</name>
<cmt>v</cmt>
<desc>Battice Chemin n°22 Hauzeur / Rue du Coteau</desc>
<link href="https://chemins.be/battice/chemin/22"/><trkseg>
<trkpt lat="50.627481" lon="5.856073"><time>2026-05-07T20:06:14Z</time></trkpt>
<trkpt lat="50.626597" lon="5.855572"><time>2026-05-07T20:16:14Z</time></trkpt>
<trkpt lat="50.625800" lon="5.855377"><time>2026-05-07T20:26:14Z</time></trkpt>
</trkseg>
</trk>
<trk>
<name>lhvba220</name>
<cmt>q</cmt>
<desc>Battice Sentier n°220 </desc>
<link href="https://chemins.be/battice/sentier/220"/><trkseg>
<trkpt lat="50.639118" lon="5.842701"><time>2026-05-07T18:26:14Z</time></trkpt>
<trkpt lat="50.638392" lon="5.844021"><time>2026-05-07T18:36:14Z</time></trkpt>
</trkseg></trk>
<trk>
<name>lhvba220</name>
<cmt>s</cmt>
<desc>Battice Sentier n°220 </desc>
<link href="https://chemins.be/battice/sentier/220"/><trkseg>
<trkpt lat="50.638392" lon="5.844021"><time>2026-05-07T18:36:14Z</time></trkpt>
<trkpt lat="50.638010" lon="5.848859"><time>2026-05-07T18:46:14Z</time></trkpt>
</trkseg></trk>
<trk>
<name>lhvba220</name>
<cmt>q</cmt>
<desc>Battice Sentier n°220 </desc>
<link href="https://chemins.be/battice/sentier/220"/><trkseg>
<trkpt lat="50.638010" lon="5.848859"><time>2026-05-07T18:46:14Z</time></trkpt>
<trkpt lat="50.637652" lon="5.849817"><time>2026-05-07T18:56:14Z</time></trkpt>
</trkseg>
</trk>
<trk>
<name>lhvba221</name>
<cmt>q</cmt>
<desc>Battice Sentier n°221 </desc>
<link href="https://chemins.be/battice/sentier/221"/><trkseg>
<trkpt lat="50.633129" lon="5.788829"><time>2026-05-07T18:26:14Z</time></trkpt>
<trkpt lat="50.633167" lon="5.788786"><time>2026-05-07T18:36:14Z</time></trkpt>
<trkpt lat="50.633731" lon="5.788969"><time>2026-05-07T18:46:14Z</time></trkpt>
<trkpt lat="50.633755" lon="5.789076"><time>2026-05-07T18:56:14Z</time></trkpt>
</trkseg>
</trk>
<trk>
<name>lhvba222</name>
<cmt>r</cmt>
<desc>Battice Sentier n°222 Xhéneumont</desc>
<link href="https://chemins.be/battice/sentier/222"/><trkseg>
<trkpt lat="50.637387" lon="5.814902"><time>2026-05-07T18:26:14Z</time></trkpt>
<trkpt lat="50.636813" lon="5.818023"><time>2026-05-07T18:36:14Z</time></trkpt>
<trkpt lat="50.636742" lon="5.818152"><time>2026-05-07T18:46:14Z</time></trkpt>
</trkseg></trk>
<trk>
<name>lhvba222</name>
<cmt>d</cmt>
<desc>Battice Sentier n°222 Xhéneumont</desc>
<link href="https://chemins.be/battice/sentier/222"/><trkseg>
<trkpt lat="50.636742" lon="5.818152"><time>2026-05-07T18:46:14Z</time></trkpt>
<trkpt lat="50.636085" lon="5.818603"><time>2026-05-07T18:56:14Z</time></trkpt>
<trkpt lat="50.635881" lon="5.819001"><time>2026-05-07T19:06:14Z</time></trkpt>
<trkpt lat="50.635967" lon="5.820553"><time>2026-05-07T19:16:14Z</time></trkpt>
</trkseg>
</trk>
<trk>
<name>lhvba225</name>
<cmt>q</cmt>
<desc>Battice Chemin n°225 </desc>
<link href="https://chemins.be/battice/chemin/225"/><trkseg>
<trkpt lat="50.634368" lon="5.827127"><time>2026-05-07T18:26:14Z</time></trkpt>
<trkpt lat="50.634018" lon="5.826254"><time>2026-05-07T18:36:14Z</time></trkpt>
<trkpt lat="50.633758" lon="5.826416"><time>2026-05-07T18:46:14Z</time></trkpt>
</trkseg></trk>
<trk>
<name>lhvba225</name>
<cmt>v</cmt>
<desc>Battice Chemin n°225 </desc>
<link href="https://chemins.be/battice/chemin/225"/><trkseg>
<trkpt lat="50.633758" lon="5.826416"><time>2026-05-07T18:46:14Z</time></trkpt>
<trkpt lat="50.633358" lon="5.826665"><time>2026-05-07T18:56:14Z</time></trkpt>
<trkpt lat="50.633193" lon="5.827198"><time>2026-05-07T19:06:14Z</time></trkpt>
</trkseg>
</trk>
<trk>
<name>lhvba226</name>
<cmt>s</cmt>
<desc>Battice Chemin n°226 </desc>
<link href="https://chemins.be/battice/chemin/226"/><trkseg>
<trkpt lat="50.630311" lon="5.837184"><time>2026-05-07T18:26:14Z</time></trkpt>
<trkpt lat="50.630055" lon="5.837275"><time>2026-05-07T18:36:14Z</time></trkpt>
</trkseg>
</trk>
<trk>
<name>lhvba227</name>
<cmt>r</cmt>
<desc>Battice Chemin n°227 </desc>
<link href="https://chemins.be/battice/chemin/227"/><trkseg>
<trkpt lat="50.617214" lon="5.792955"><time>2026-05-07T18:26:14Z</time></trkpt>
<trkpt lat="50.616542" lon="5.793975"><time>2026-05-07T18:36:14Z</time></trkpt>
<trkpt lat="50.616261" lon="5.794068"><time>2026-05-07T18:46:14Z</time></trkpt>
<trkpt lat="50.616115" lon="5.794708"><time>2026-05-07T18:56:14Z</time></trkpt>
</trkseg>
</trk>
<trk>
<name>lhvba23</name>
<cmt>v</cmt>
<desc>Battice Chemin n°23 Hauzeur</desc>
<link href="https://chemins.be/battice/chemin/23"/><trkseg>
<trkpt lat="50.632529" lon="5.852182"><time>2026-05-07T18:26:14Z</time></trkpt>
<trkpt lat="50.632754" lon="5.853627"><time>2026-05-07T18:36:14Z</time></trkpt>
<trkpt lat="50.633253" lon="5.854718"><time>2026-05-07T18:46:14Z</time></trkpt>
<trkpt lat="50.634270" lon="5.855490"><time>2026-05-07T18:56:14Z</time></trkpt>
</trkseg>
</trk>
<trk>
<name>lhvba230</name>
<cmt>q</cmt>
<desc>Battice Sentier n°230 </desc>
<link href="https://chemins.be/battice/sentier/230"/><trkseg>
<trkpt lat="50.618798" lon="5.781204"><time>2026-05-07T18:26:14Z</time></trkpt>
<trkpt lat="50.619118" lon="5.781112"><time>2026-05-07T18:36:14Z</time></trkpt>
</trkseg>
</trk>
<trk>
<name>lhvba232</name>
<cmt>q</cmt>
<desc>Battice Sentier n°232 </desc>
<link href="https://chemins.be/battice/sentier/232"/><trkseg>
<trkpt lat="50.632569" lon="5.765131"><time>2026-05-07T18:26:14Z</time></trkpt>
<trkpt lat="50.632819" lon="5.767799"><time>2026-05-07T18:36:14Z</time></trkpt>
<trkpt lat="50.632991" lon="5.769787"><time>2026-05-07T18:46:14Z</time></trkpt>
<trkpt lat="50.633486" lon="5.771754"><time>2026-05-07T18:56:14Z</time></trkpt>
</trkseg>
</trk>
<trk>
<name>lhvba233</name>
<cmt>s</cmt>
<desc>Battice Chemin n°233 </desc>
<link href="https://chemins.be/battice/chemin/233"/><trkseg>
<trkpt lat="50.632933" lon="5.773873"><time>2026-05-07T18:26:14Z</time></trkpt>
<trkpt lat="50.632673" lon="5.774543"><time>2026-05-07T18:36:14Z</time></trkpt>
</trkseg>
</trk>
<trk>
<name>lhvba234</name>
<cmt>v</cmt>
<desc>Battice Sentier n°234 </desc>
<link href="https://chemins.be/battice/sentier/234"/><trkseg>
<trkpt lat="50.622150" lon="5.803942"><time>2026-05-07T18:26:14Z</time></trkpt>
<trkpt lat="50.621201" lon="5.804847"><time>2026-05-07T18:36:14Z</time></trkpt>
</trkseg></trk>
<trk>
<name>lhvba234</name>
<cmt>q</cmt>
<desc>Battice Sentier n°234 </desc>
<link href="https://chemins.be/battice/sentier/234"/><trkseg>
<trkpt lat="50.621201" lon="5.804847"><time>2026-05-07T18:36:14Z</time></trkpt>
<trkpt lat="50.620985" lon="5.804551"><time>2026-05-07T18:46:14Z</time></trkpt>
<trkpt lat="50.620381" lon="5.805315"><time>2026-05-07T18:56:14Z</time></trkpt>
</trkseg>
</trk>
<trk>
<name>lhvba236</name>
<cmt>r</cmt>
<desc>Battice Sentier n°236 Thier Martin</desc>
<link href="https://chemins.be/battice/sentier/236"/><trkseg>
<trkpt lat="50.630284" lon="5.814624"><time>2026-05-07T18:26:14Z</time></trkpt>
<trkpt lat="50.630425" lon="5.814971"><time>2026-05-07T18:36:14Z</time></trkpt>
</trkseg></trk>
<trk>
<name>lhvba236</name>
<cmt>v</cmt>
<desc>Battice Sentier n°236 Thier Martin</desc>
<link href="https://chemins.be/battice/sentier/236"/><trkseg>
<trkpt lat="50.630425" lon="5.814971"><time>2026-05-07T18:36:14Z</time></trkpt>
<trkpt lat="50.630846" lon="5.816172"><time>2026-05-07T18:46:14Z</time></trkpt>
</trkseg>
</trk>
<trk>
<name>lhvba237</name>
<cmt>q</cmt>
<desc>Battice Chemin n°237 </desc>
<link href="https://chemins.be/battice/chemin/237"/><trkseg>
<trkpt lat="50.627298" lon="5.819527"><time>2026-05-07T18:26:14Z</time></trkpt>
<trkpt lat="50.627607" lon="5.819352"><time>2026-05-07T18:36:14Z</time></trkpt>
<trkpt lat="50.627892" lon="5.818800"><time>2026-05-07T18:46:14Z</time></trkpt>
<trkpt lat="50.628314" lon="5.817982"><time>2026-05-07T18:56:14Z</time></trkpt>
<trkpt lat="50.628063" lon="5.817589"><time>2026-05-07T19:06:14Z</time></trkpt>
</trkseg>
</trk>
<trk>
<name>lhvba238</name>
<cmt>q</cmt>
<desc>Battice Chemin n°238 </desc>
<link href="https://chemins.be/battice/chemin/238"/><trkseg>
<trkpt lat="50.628296" lon="5.818061"><time>2026-05-07T18:26:14Z</time></trkpt>
<trkpt lat="50.628727" lon="5.818354"><time>2026-05-07T18:36:14Z</time></trkpt>
</trkseg>
</trk>
<trk>
<name>lhvba24</name>
<cmt>v</cmt>
<desc>Battice Chemin n°24 </desc>
<link href="https://chemins.be/battice/chemin/24"/><trkseg>
<trkpt lat="50.615860" lon="5.807855"><time>2026-05-07T18:26:14Z</time></trkpt>
<trkpt lat="50.615571" lon="5.808026"><time>2026-05-07T18:36:14Z</time></trkpt>
</trkseg>
</trk>
<trk>
<name>lhvba240</name>
<cmt>q</cmt>
<desc>Battice Sentier n°240 </desc>
<link href="https://chemins.be/battice/sentier/240"/><trkseg>
<trkpt lat="50.626936" lon="5.848823"><time>2026-05-07T18:26:14Z</time></trkpt>
<trkpt lat="50.626509" lon="5.850025"><time>2026-05-07T18:36:14Z</time></trkpt>
<trkpt lat="50.626194" lon="5.850538"><time>2026-05-07T18:46:14Z</time></trkpt>
</trkseg></trk>
<trk>
<name>lhvba240</name>
<cmt>s</cmt>
<desc>Battice Sentier n°240 </desc>
<link href="https://chemins.be/battice/sentier/240"/><trkseg>
<trkpt lat="50.626194" lon="5.850538"><time>2026-05-07T18:46:14Z</time></trkpt>
<trkpt lat="50.625793" lon="5.851189"><time>2026-05-07T18:56:14Z</time></trkpt>
</trkseg></trk>
<trk>
<name>lhvba240</name>
<cmt>q</cmt>
<desc>Battice Sentier n°240 </desc>
<link href="https://chemins.be/battice/sentier/240"/><trkseg>
<trkpt lat="50.625793" lon="5.851189"><time>2026-05-07T18:56:14Z</time></trkpt>
<trkpt lat="50.625189" lon="5.852171"><time>2026-05-07T19:06:14Z</time></trkpt>
</trkseg>
</trk>
<trk>
<name>lhvba244</name>
<cmt>v</cmt>
<desc>Battice Chemin n°244 Outre-Cour</desc>
<link href="https://chemins.be/battice/chemin/244"/><trkseg>
<trkpt lat="50.639088" lon="5.781713"><time>2026-05-07T18:26:14Z</time></trkpt>
<trkpt lat="50.639269" lon="5.782275"><time>2026-05-07T18:36:14Z</time></trkpt>
</trkseg>
</trk>
<trk>
<name>lhvba245</name>
<cmt>q</cmt>
<desc>Battice Sentier n°245 </desc>
<link href="https://chemins.be/battice/sentier/245"/><trkseg>
<trkpt lat="50.628078" lon="5.799805"><time>2026-05-07T18:26:14Z</time></trkpt>
<trkpt lat="50.627854" lon="5.800037"><time>2026-05-07T18:36:14Z</time></trkpt>
<trkpt lat="50.627395" lon="5.801743"><time>2026-05-07T18:46:14Z</time></trkpt>
</trkseg>
</trk>
<trk>
<name>lhvba246</name>
<cmt>d</cmt>
<desc>Battice Chemin n°246 </desc>
<link href="https://chemins.be/battice/chemin/246"/><trkseg>
<trkpt lat="50.626991" lon="5.849373"><time>2026-05-07T18:26:14Z</time></trkpt>
<trkpt lat="50.627297" lon="5.849241"><time>2026-05-07T18:36:14Z</time></trkpt>
</trkseg>
</trk>
<trk>
<name>lhvba29</name>
<cmt>d</cmt>
<desc>Battice Chemin n°29 </desc>
<link href="https://chemins.be/battice/chemin/29"/><trkseg>
<trkpt lat="50.629047" lon="5.854667"><time>2026-05-07T18:26:14Z</time></trkpt>
<trkpt lat="50.629860" lon="5.855032"><time>2026-05-07T18:36:14Z</time></trkpt>
</trkseg>
</trk>
<trk>
<name>lhvba33</name>
<cmt>v</cmt>
<desc>Battice Chemin n°33 Rue Houlteau</desc>
<link href="https://chemins.be/battice/chemin/33"/><trkseg>
<trkpt lat="50.626918" lon="5.848458"><time>2026-05-07T18:26:14Z</time></trkpt>
<trkpt lat="50.626963" lon="5.850404"><time>2026-05-07T18:36:14Z</time></trkpt>
</trkseg></trk>
<trk>
<name>lhvba33</name>
<cmt>q</cmt>
<desc>Battice Chemin n°33 Rue Houlteau</desc>
<link href="https://chemins.be/battice/chemin/33"/><trkseg>
<trkpt lat="50.626963" lon="5.850404"><time>2026-05-07T18:36:14Z</time></trkpt>
<trkpt lat="50.627969" lon="5.851872"><time>2026-05-07T18:46:14Z</time></trkpt>
</trkseg></trk>
<trk>
<name>lhvba33</name>
<cmt>r</cmt>
<desc>Battice Chemin n°33 Rue Houlteau</desc>
<link href="https://chemins.be/battice/chemin/33"/><trkseg>
<trkpt lat="50.627969" lon="5.851872"><time>2026-05-07T18:46:14Z</time></trkpt>
<trkpt lat="50.628240" lon="5.852872"><time>2026-05-07T18:56:14Z</time></trkpt>
<trkpt lat="50.628445" lon="5.853368"><time>2026-05-07T19:06:14Z</time></trkpt>
<trkpt lat="50.628657" lon="5.853636"><time>2026-05-07T19:16:14Z</time></trkpt>
</trkseg></trk>
<trk>
<name>lhvba33</name>
<cmt>d</cmt>
<desc>Battice Chemin n°33 Rue Houlteau</desc>
<link href="https://chemins.be/battice/chemin/33"/><trkseg>
<trkpt lat="50.628657" lon="5.853636"><time>2026-05-07T19:16:14Z</time></trkpt>
<trkpt lat="50.628853" lon="5.853855"><time>2026-05-07T19:26:14Z</time></trkpt>
</trkseg>
</trk>
<trk>
<name>lhvba35</name>
<cmt>v</cmt>
<desc>Battice Chemin n°35 </desc>
<link href="https://chemins.be/battice/chemin/35"/><trkseg>
<trkpt lat="50.627507" lon="5.843430"><time>2026-05-07T18:26:14Z</time></trkpt>
<trkpt lat="50.628108" lon="5.842812"><time>2026-05-07T18:36:14Z</time></trkpt>
<trkpt lat="50.628491" lon="5.842400"><time>2026-05-07T18:46:14Z</time></trkpt>
<trkpt lat="50.628960" lon="5.841609"><time>2026-05-07T18:56:14Z</time></trkpt>
<trkpt lat="50.629226" lon="5.841122"><time>2026-05-07T19:06:14Z</time></trkpt>
<trkpt lat="50.629501" lon="5.840749"><time>2026-05-07T19:16:14Z</time></trkpt>
<trkpt lat="50.629967" lon="5.840863"><time>2026-05-07T19:26:14Z</time></trkpt>
</trkseg>
</trk>
<trk>
<name>lhvba36</name>
<cmt>r</cmt>
<desc>Battice Chemin n°36 Rue Gelée</desc>
<link href="https://chemins.be/battice/chemin/36"/><trkseg>
<trkpt lat="50.628729" lon="5.845805"><time>2026-05-07T18:26:14Z</time></trkpt>
<trkpt lat="50.627132" lon="5.847021"><time>2026-05-07T18:36:14Z</time></trkpt>
</trkseg>
</trk>
<trk>
<name>lhvba38</name>
<cmt>q</cmt>
<desc>Battice Chemin n°38 </desc>
<link href="https://chemins.be/battice/chemin/38"/><trkseg>
<trkpt lat="50.630324" lon="5.837083"><time>2026-05-07T18:26:14Z</time></trkpt>
<trkpt lat="50.630649" lon="5.836014"><time>2026-05-07T18:36:14Z</time></trkpt>
<trkpt lat="50.630633" lon="5.835123"><time>2026-05-07T18:46:14Z</time></trkpt>
<trkpt lat="50.630388" lon="5.834784"><time>2026-05-07T18:56:14Z</time></trkpt>
<trkpt lat="50.630231" lon="5.834301"><time>2026-05-07T19:06:14Z</time></trkpt>
</trkseg>
</trk>
<trk>
<name>lhvba39</name>
<cmt>q</cmt>
<desc>Battice Chemin n°39 </desc>
<link href="https://chemins.be/battice/chemin/39"/><trkseg>
<trkpt lat="50.627455" lon="5.834506"><time>2026-05-07T18:26:14Z</time></trkpt>
<trkpt lat="50.627666" lon="5.834352"><time>2026-05-07T18:36:14Z</time></trkpt>
<trkpt lat="50.628519" lon="5.832535"><time>2026-05-07T18:46:14Z</time></trkpt>
</trkseg>
</trk>
<trk>
<name>lhvba4</name>
<cmt>v</cmt>
<desc>Battice Chemin n°4 </desc>
<link href="https://chemins.be/battice/chemin/4"/><trkseg>
<trkpt lat="50.664064" lon="5.823375"><time>2026-05-07T18:26:14Z</time></trkpt>
<trkpt lat="50.663740" lon="5.824803"><time>2026-05-07T18:36:14Z</time></trkpt>
</trkseg></trk>
<trk>
<name>lhvba4</name>
<cmt>q</cmt>
<desc>Battice Chemin n°4 </desc>
<link href="https://chemins.be/battice/chemin/4"/><trkseg>
<trkpt lat="50.663740" lon="5.824803"><time>2026-05-07T18:36:14Z</time></trkpt>
<trkpt lat="50.663296" lon="5.826815"><time>2026-05-07T18:46:14Z</time></trkpt>
<trkpt lat="50.662738" lon="5.828810"><time>2026-05-07T18:56:14Z</time></trkpt>
</trkseg>
</trk>
<trk>
<name>lhvba40</name>
<cmt>v</cmt>
<desc>Battice Chemin n°40 </desc>
<link href="https://chemins.be/battice/chemin/40"/><trkseg>
<trkpt lat="50.620984" lon="5.793618"><time>2026-05-07T18:26:14Z</time></trkpt>
<trkpt lat="50.621732" lon="5.791955"><time>2026-05-07T18:36:14Z</time></trkpt>
</trkseg></trk>
<trk>
<name>lhvba40</name>
<cmt>r</cmt>
<desc>Battice Chemin n°40 </desc>
<link href="https://chemins.be/battice/chemin/40"/><trkseg>
<trkpt lat="50.621732" lon="5.791955"><time>2026-05-07T18:36:14Z</time></trkpt>
<trkpt lat="50.621319" lon="5.791297"><time>2026-05-07T18:46:14Z</time></trkpt>
<trkpt lat="50.620814" lon="5.790796"><time>2026-05-07T18:56:14Z</time></trkpt>
<trkpt lat="50.620569" lon="5.790739"><time>2026-05-07T19:06:14Z</time></trkpt>
</trkseg></trk>
<trk>
<name>lhvba40</name>
<cmt>q</cmt>
<desc>Battice Chemin n°40 </desc>
<link href="https://chemins.be/battice/chemin/40"/><trkseg>
<trkpt lat="50.620569" lon="5.790739"><time>2026-05-07T19:06:14Z</time></trkpt>
<trkpt lat="50.620115" lon="5.789151"><time>2026-05-07T19:16:14Z</time></trkpt>
<trkpt lat="50.620142" lon="5.787678"><time>2026-05-07T19:26:14Z</time></trkpt>
</trkseg></trk>
<trk>
<name>lhvba40</name>
<cmt>r</cmt>
<desc>Battice Chemin n°40 </desc>
<link href="https://chemins.be/battice/chemin/40"/><trkseg>
<trkpt lat="50.620142" lon="5.787678"><time>2026-05-07T19:26:14Z</time></trkpt>
<trkpt lat="50.620686" lon="5.787363"><time>2026-05-07T19:36:14Z</time></trkpt>
</trkseg>
</trk>
<trk>
<name>lhvba41</name>
<cmt>v</cmt>
<desc>Battice Chemin n°41 Vinâve</desc>
<link href="https://chemins.be/battice/chemin/41"/><trkseg>
<trkpt lat="50.622212" lon="5.807240"><time>2026-05-07T18:26:14Z</time></trkpt>
<trkpt lat="50.619511" lon="5.806588"><time>2026-05-07T18:36:14Z</time></trkpt>
<trkpt lat="50.618944" lon="5.806742"><time>2026-05-07T18:46:14Z</time></trkpt>
<trkpt lat="50.618448" lon="5.807036"><time>2026-05-07T18:56:14Z</time></trkpt>
<trkpt lat="50.617984" lon="5.807126"><time>2026-05-07T19:06:14Z</time></trkpt>
<trkpt lat="50.616830" lon="5.807667"><time>2026-05-07T19:16:14Z</time></trkpt>
<trkpt lat="50.616280" lon="5.807633"><time>2026-05-07T19:26:14Z</time></trkpt>
<trkpt lat="50.615877" lon="5.807864"><time>2026-05-07T19:36:14Z</time></trkpt>
</trkseg>
</trk>
<trk>
<name>lhvba42</name>
<cmt>q</cmt>
<desc>Battice Chemin n°42 </desc>
<link href="https://chemins.be/battice/chemin/42"/><trkseg>
<trkpt lat="50.630363" lon="5.801046"><time>2026-05-07T18:26:14Z</time></trkpt>
<trkpt lat="50.630440" lon="5.801715"><time>2026-05-07T18:36:14Z</time></trkpt>
<trkpt lat="50.630340" lon="5.802598"><time>2026-05-07T18:46:14Z</time></trkpt>
<trkpt lat="50.630674" lon="5.803732"><time>2026-05-07T18:56:14Z</time></trkpt>
</trkseg>
</trk>
<trk>
<name>lhvba43</name>
<cmt>d</cmt>
<desc>Battice Chemin n°43 </desc>
<link href="https://chemins.be/battice/chemin/43"/><trkseg>
<trkpt lat="50.631539" lon="5.806119"><time>2026-05-07T18:26:14Z</time></trkpt>
<trkpt lat="50.632155" lon="5.806708"><time>2026-05-07T18:36:14Z</time></trkpt>
<trkpt lat="50.632655" lon="5.806999"><time>2026-05-07T18:46:14Z</time></trkpt>
<trkpt lat="50.633277" lon="5.806956"><time>2026-05-07T18:56:14Z</time></trkpt>
<trkpt lat="50.633762" lon="5.807399"><time>2026-05-07T19:06:14Z</time></trkpt>
</trkseg></trk>
<trk>
<name>lhvba43</name>
<cmt>s</cmt>
<desc>Battice Chemin n°43 </desc>
<link href="https://chemins.be/battice/chemin/43"/><trkseg>
<trkpt lat="50.633762" lon="5.807399"><time>2026-05-07T19:06:14Z</time></trkpt>
<trkpt lat="50.635291" lon="5.809445"><time>2026-05-07T19:16:14Z</time></trkpt>
</trkseg></trk>
<trk>
<name>lhvba43</name>
<cmt>r</cmt>
<desc>Battice Chemin n°43 </desc>
<link href="https://chemins.be/battice/chemin/43"/><trkseg>
<trkpt lat="50.635291" lon="5.809445"><time>2026-05-07T19:16:14Z</time></trkpt>
<trkpt lat="50.635777" lon="5.809895"><time>2026-05-07T19:26:14Z</time></trkpt>
<trkpt lat="50.636466" lon="5.811154"><time>2026-05-07T19:36:14Z</time></trkpt>
<trkpt lat="50.637114" lon="5.813710"><time>2026-05-07T19:46:14Z</time></trkpt>
</trkseg>
</trk>
<trk>
<name>lhvba44</name>
<cmt>v</cmt>
<desc>Battice Chemin n°44 Hac</desc>
<link href="https://chemins.be/battice/chemin/44"/><trkseg>
<trkpt lat="50.637337" lon="5.814632"><time>2026-05-07T18:26:14Z</time></trkpt>
<trkpt lat="50.638086" lon="5.814117"><time>2026-05-07T18:36:14Z</time></trkpt>
<trkpt lat="50.639582" lon="5.812551"><time>2026-05-07T18:46:14Z</time></trkpt>
<trkpt lat="50.640179" lon="5.811038"><time>2026-05-07T18:56:14Z</time></trkpt>
<trkpt lat="50.640916" lon="5.809740"><time>2026-05-07T19:06:14Z</time></trkpt>
<trkpt lat="50.641072" lon="5.808855"><time>2026-05-07T19:16:14Z</time></trkpt>
</trkseg></trk>
<trk>
<name>lhvba44</name>
<cmt>r</cmt>
<desc>Battice Chemin n°44 Hac</desc>
<link href="https://chemins.be/battice/chemin/44"/><trkseg>
<trkpt lat="50.641072" lon="5.808855"><time>2026-05-07T19:16:14Z</time></trkpt>
<trkpt lat="50.641896" lon="5.806993"><time>2026-05-07T19:26:14Z</time></trkpt>
<trkpt lat="50.641882" lon="5.805641"><time>2026-05-07T19:36:14Z</time></trkpt>
</trkseg>
</trk>
<trk>
<name>lhvba45</name>
<cmt>r</cmt>
<desc>Battice Chemin n°45 Sur l'Agaux</desc>
<link href="https://chemins.be/battice/chemin/45"/><trkseg>
<trkpt lat="50.631587" lon="5.806032"><time>2026-05-07T18:26:14Z</time></trkpt>
<trkpt lat="50.631698" lon="5.805535"><time>2026-05-07T18:36:14Z</time></trkpt>
<trkpt lat="50.631795" lon="5.805449"><time>2026-05-07T18:46:14Z</time></trkpt>
<trkpt lat="50.632258" lon="5.805210"><time>2026-05-07T18:56:14Z</time></trkpt>
</trkseg></trk>
<trk>
<name>lhvba45</name>
<cmt>q</cmt>
<desc>Battice Chemin n°45 Sur l'Agaux</desc>
<link href="https://chemins.be/battice/chemin/45"/><trkseg>
<trkpt lat="50.632258" lon="5.805210"><time>2026-05-07T18:56:14Z</time></trkpt>
<trkpt lat="50.632780" lon="5.804451"><time>2026-05-07T19:06:14Z</time></trkpt>
<trkpt lat="50.632757" lon="5.802134"><time>2026-05-07T19:16:14Z</time></trkpt>
</trkseg>
</trk>
<trk>
<name>lhvba46</name>
<cmt>r</cmt>
<desc>Battice Chemin n°46 Thier Martin</desc>
<link href="https://chemins.be/battice/chemin/46"/><trkseg>
<trkpt lat="50.629613" lon="5.812641"><time>2026-05-07T18:26:14Z</time></trkpt>
<trkpt lat="50.630017" lon="5.813431"><time>2026-05-07T18:36:14Z</time></trkpt>
<trkpt lat="50.630280" lon="5.814629"><time>2026-05-07T18:46:14Z</time></trkpt>
</trkseg></trk>
<trk>
<name>lhvba46</name>
<cmt>s</cmt>
<desc>Battice Chemin n°46 Thier Martin</desc>
<link href="https://chemins.be/battice/chemin/46"/><trkseg>
<trkpt lat="50.630280" lon="5.814629"><time>2026-05-07T18:46:14Z</time></trkpt>
<trkpt lat="50.630446" lon="5.814773"><time>2026-05-07T18:56:14Z</time></trkpt>
<trkpt lat="50.630849" lon="5.816074"><time>2026-05-07T19:06:14Z</time></trkpt>
<trkpt lat="50.630846" lon="5.816184"><time>2026-05-07T19:16:14Z</time></trkpt>
</trkseg></trk>
<trk>
<name>lhvba46</name>
<cmt>v</cmt>
<desc>Battice Chemin n°46 Thier Martin</desc>
<link href="https://chemins.be/battice/chemin/46"/><trkseg>
<trkpt lat="50.630846" lon="5.816184"><time>2026-05-07T19:16:14Z</time></trkpt>
<trkpt lat="50.630854" lon="5.816600"><time>2026-05-07T19:26:14Z</time></trkpt>
</trkseg></trk>
<trk>
<name>lhvba46</name>
<cmt>d</cmt>
<desc>Battice Chemin n°46 Thier Martin</desc>
<link href="https://chemins.be/battice/chemin/46"/><trkseg>
<trkpt lat="50.630854" lon="5.816600"><time>2026-05-07T19:26:14Z</time></trkpt>
<trkpt lat="50.630972" lon="5.817011"><time>2026-05-07T19:36:14Z</time></trkpt>
<trkpt lat="50.631412" lon="5.817763"><time>2026-05-07T19:46:14Z</time></trkpt>
<trkpt lat="50.631913" lon="5.819420"><time>2026-05-07T19:56:14Z</time></trkpt>
<trkpt lat="50.632365" lon="5.821633"><time>2026-05-07T20:06:14Z</time></trkpt>
</trkseg>
</trk>
<trk>
<name>lhvba47</name>
<cmt>v</cmt>
<desc>Battice Chemin n°47 Ruelle de France</desc>
<link href="https://chemins.be/battice/chemin/47"/><trkseg>
<trkpt lat="50.626106" lon="5.823925"><time>2026-05-07T18:26:14Z</time></trkpt>
<trkpt lat="50.626482" lon="5.821183"><time>2026-05-07T18:36:14Z</time></trkpt>
<trkpt lat="50.626936" lon="5.819863"><time>2026-05-07T18:46:14Z</time></trkpt>
<trkpt lat="50.627468" lon="5.817860"><time>2026-05-07T18:56:14Z</time></trkpt>
</trkseg></trk>
<trk>
<name>lhvba47</name>
<cmt>q</cmt>
<desc>Battice Chemin n°47 Ruelle de France</desc>
<link href="https://chemins.be/battice/chemin/47"/><trkseg>
<trkpt lat="50.627468" lon="5.817860"><time>2026-05-07T18:56:14Z</time></trkpt>
<trkpt lat="50.628086" lon="5.816366"><time>2026-05-07T19:06:14Z</time></trkpt>
<trkpt lat="50.628073" lon="5.815769"><time>2026-05-07T19:16:14Z</time></trkpt>
<trkpt lat="50.627977" lon="5.815554"><time>2026-05-07T19:26:14Z</time></trkpt>
</trkseg>
</trk>
<trk>
<name>lhvba48</name>
<cmt>q</cmt>
<desc>Battice Chemin n°48 </desc>
<link href="https://chemins.be/battice/chemin/48"/><trkseg>
<trkpt lat="50.625417" lon="5.826025"><time>2026-05-07T18:26:14Z</time></trkpt>
<trkpt lat="50.625331" lon="5.825739"><time>2026-05-07T18:36:14Z</time></trkpt>
<trkpt lat="50.623441" lon="5.823762"><time>2026-05-07T18:46:14Z</time></trkpt>
</trkseg>
</trk>
<trk>
<name>lhvba49</name>
<cmt>q</cmt>
<desc>Battice Chemin n°49 </desc>
<link href="https://chemins.be/battice/chemin/49"/><trkseg>
<trkpt lat="50.626435" lon="5.821479"><time>2026-05-07T18:26:14Z</time></trkpt>
<trkpt lat="50.627214" lon="5.821379"><time>2026-05-07T18:36:14Z</time></trkpt>
<trkpt lat="50.627413" lon="5.820256"><time>2026-05-07T18:46:14Z</time></trkpt>
<trkpt lat="50.627123" lon="5.818976"><time>2026-05-07T18:56:14Z</time></trkpt>
</trkseg>
</trk>
<trk>
<name>lhvba51</name>
<cmt>v</cmt>
<desc>Battice Chemin n°51 Voie de la Chocolaterie</desc>
<link href="https://chemins.be/battice/chemin/51"/><trkseg>
<trkpt lat="50.627946" lon="5.815510"><time>2026-05-07T18:26:14Z</time></trkpt>
<trkpt lat="50.627327" lon="5.813950"><time>2026-05-07T18:36:14Z</time></trkpt>
<trkpt lat="50.626817" lon="5.812418"><time>2026-05-07T18:46:14Z</time></trkpt>
<trkpt lat="50.626796" lon="5.811856"><time>2026-05-07T18:56:14Z</time></trkpt>
<trkpt lat="50.626164" lon="5.809137"><time>2026-05-07T19:06:14Z</time></trkpt>
<trkpt lat="50.625462" lon="5.809186"><time>2026-05-07T19:16:14Z</time></trkpt>
<trkpt lat="50.625225" lon="5.809476"><time>2026-05-07T19:26:14Z</time></trkpt>
<trkpt lat="50.625067" lon="5.809103"><time>2026-05-07T19:36:14Z</time></trkpt>
<trkpt lat="50.625378" lon="5.807968"><time>2026-05-07T19:46:14Z</time></trkpt>
<trkpt lat="50.624375" lon="5.806905"><time>2026-05-07T19:56:14Z</time></trkpt>
</trkseg>
</trk>
<trk>
<name>lhvba52</name>
<cmt>v</cmt>
<desc>Battice Chemin n°52 Voie de la Chocolaterie</desc>
<link href="https://chemins.be/battice/chemin/52"/><trkseg>
<trkpt lat="50.629334" lon="5.813064"><time>2026-05-07T18:26:14Z</time></trkpt>
<trkpt lat="50.627654" lon="5.810765"><time>2026-05-07T18:36:14Z</time></trkpt>
<trkpt lat="50.626226" lon="5.809195"><time>2026-05-07T18:46:14Z</time></trkpt>
</trkseg>
</trk>
<trk>
<name>lhvba53</name>
<cmt>r</cmt>
<desc>Battice Chemin n°53 Thier Martin</desc>
<link href="https://chemins.be/battice/chemin/53"/><trkseg>
<trkpt lat="50.629922" lon="5.810623"><time>2026-05-07T18:26:14Z</time></trkpt>
<trkpt lat="50.629020" lon="5.809365"><time>2026-05-07T18:36:14Z</time></trkpt>
</trkseg></trk>
<trk>
<name>lhvba53</name>
<cmt>v</cmt>
<desc>Battice Chemin n°53 Thier Martin</desc>
<link href="https://chemins.be/battice/chemin/53"/><trkseg>
<trkpt lat="50.629020" lon="5.809365"><time>2026-05-07T18:36:14Z</time></trkpt>
<trkpt lat="50.628170" lon="5.809777"><time>2026-05-07T18:46:14Z</time></trkpt>
<trkpt lat="50.627674" lon="5.810639"><time>2026-05-07T18:56:14Z</time></trkpt>
</trkseg>
</trk>
<trk>
<name>lhvba57</name>
<cmt>q</cmt>
<desc>Battice Sentier n°57 </desc>
<link href="https://chemins.be/battice/sentier/57"/><trkseg>
<trkpt lat="50.637251" lon="5.779291"><time>2026-05-07T18:26:14Z</time></trkpt>
<trkpt lat="50.636693" lon="5.780203"><time>2026-05-07T18:36:14Z</time></trkpt>
<trkpt lat="50.636467" lon="5.781893"><time>2026-05-07T18:46:14Z</time></trkpt>
</trkseg></trk>
<trk>
<name>lhvba57</name>
<cmt>s</cmt>
<desc>Battice Sentier n°57 </desc>
<link href="https://chemins.be/battice/sentier/57"/><trkseg>
<trkpt lat="50.636467" lon="5.781893"><time>2026-05-07T18:46:14Z</time></trkpt>
<trkpt lat="50.636081" lon="5.784398"><time>2026-05-07T18:56:14Z</time></trkpt>
</trkseg>
</trk>
<trk>
<name>lhvba58</name>
<cmt>v</cmt>
<desc>Battice Chemin n°58 Vinâve</desc>
<link href="https://chemins.be/battice/chemin/58"/><trkseg>
<trkpt lat="50.618741" lon="5.807658"><time>2026-05-07T18:26:14Z</time></trkpt>
<trkpt lat="50.617996" lon="5.808866"><time>2026-05-07T18:36:14Z</time></trkpt>
</trkseg></trk>
<trk>
<name>lhvba58</name>
<cmt>s</cmt>
<desc>Battice Chemin n°58 Vinâve</desc>
<link href="https://chemins.be/battice/chemin/58"/><trkseg>
<trkpt lat="50.617996" lon="5.808866"><time>2026-05-07T18:36:14Z</time></trkpt>
<trkpt lat="50.617767" lon="5.809238"><time>2026-05-07T18:46:14Z</time></trkpt>
<trkpt lat="50.618061" lon="5.811255"><time>2026-05-07T18:56:14Z</time></trkpt>
<trkpt lat="50.617064" lon="5.812980"><time>2026-05-07T19:06:14Z</time></trkpt>
</trkseg>
</trk>
<trk>
<name>lhvba59</name>
<cmt>d</cmt>
<desc>Battice Chemin n°59 </desc>
<link href="https://chemins.be/battice/chemin/59"/><trkseg>
<trkpt lat="50.619255" lon="5.810176"><time>2026-05-07T18:26:14Z</time></trkpt>
<trkpt lat="50.618368" lon="5.810279"><time>2026-05-07T18:36:14Z</time></trkpt>
<trkpt lat="50.617913" lon="5.810026"><time>2026-05-07T18:46:14Z</time></trkpt>
</trkseg>
</trk>
<trk>
<name>lhvba6</name>
<cmt>v</cmt>
<desc>Battice Chemin n°6 Bouxhmont</desc>
<link href="https://chemins.be/battice/chemin/6"/><trkseg>
<trkpt lat="50.654303" lon="5.823033"><time>2026-05-07T18:26:14Z</time></trkpt>
<trkpt lat="50.653434" lon="5.823370"><time>2026-05-07T18:36:14Z</time></trkpt>
<trkpt lat="50.652605" lon="5.823593"><time>2026-05-07T18:46:14Z</time></trkpt>
<trkpt lat="50.652404" lon="5.823634"><time>2026-05-07T18:56:14Z</time></trkpt>
</trkseg>
</trk>
<trk>
<name>lhvba61</name>
<cmt>v</cmt>
<desc>Battice Chemin n°61 Vinâve</desc>
<link href="https://chemins.be/battice/chemin/61"/><trkseg>
<trkpt lat="50.621584" lon="5.799856"><time>2026-05-07T18:26:14Z</time></trkpt>
<trkpt lat="50.621388" lon="5.800002"><time>2026-05-07T18:36:14Z</time></trkpt>
<trkpt lat="50.621293" lon="5.800898"><time>2026-05-07T18:46:14Z</time></trkpt>
</trkseg></trk>
<trk>
<name>lhvba61</name>
<cmt>q</cmt>
<desc>Battice Chemin n°61 Vinâve</desc>
<link href="https://chemins.be/battice/chemin/61"/><trkseg>
<trkpt lat="50.621293" lon="5.800898"><time>2026-05-07T18:46:14Z</time></trkpt>
<trkpt lat="50.620724" lon="5.801097"><time>2026-05-07T18:56:14Z</time></trkpt>
<trkpt lat="50.619651" lon="5.801161"><time>2026-05-07T19:06:14Z</time></trkpt>
<trkpt lat="50.619210" lon="5.801582"><time>2026-05-07T19:16:14Z</time></trkpt>
</trkseg></trk>
<trk>
<name>lhvba61</name>
<cmt>v</cmt>
<desc>Battice Chemin n°61 Vinâve</desc>
<link href="https://chemins.be/battice/chemin/61"/><trkseg>
<trkpt lat="50.619210" lon="5.801582"><time>2026-05-07T19:16:14Z</time></trkpt>
<trkpt lat="50.618965" lon="5.803478"><time>2026-05-07T19:26:14Z</time></trkpt>
<trkpt lat="50.618573" lon="5.804036"><time>2026-05-07T19:36:14Z</time></trkpt>
<trkpt lat="50.618692" lon="5.804800"><time>2026-05-07T19:46:14Z</time></trkpt>
</trkseg>
</trk>
<trk>
<name>lhvba64</name>
<cmt>v</cmt>
<desc>Battice Chemin n°64 </desc>
<link href="https://chemins.be/battice/chemin/64"/><trkseg>
<trkpt lat="50.619133" lon="5.801340"><time>2026-05-07T18:26:14Z</time></trkpt>
<trkpt lat="50.617513" lon="5.802409"><time>2026-05-07T18:36:14Z</time></trkpt>
</trkseg>
</trk>
<trk>
<name>lhvba66</name>
<cmt>v</cmt>
<desc>Battice Chemin n°66 Bois de Herve</desc>
<link href="https://chemins.be/battice/chemin/66"/><trkseg>
<trkpt lat="50.617162" lon="5.789926"><time>2026-05-07T18:26:14Z</time></trkpt>
<trkpt lat="50.617445" lon="5.789188"><time>2026-05-07T18:36:14Z</time></trkpt>
<trkpt lat="50.618556" lon="5.787806"><time>2026-05-07T18:46:14Z</time></trkpt>
<trkpt lat="50.619101" lon="5.786432"><time>2026-05-07T18:56:14Z</time></trkpt>
<trkpt lat="50.619626" lon="5.782869"><time>2026-05-07T19:06:14Z</time></trkpt>
<trkpt lat="50.619792" lon="5.782132"><time>2026-05-07T19:16:14Z</time></trkpt>
<trkpt lat="50.620288" lon="5.781248"><time>2026-05-07T19:26:14Z</time></trkpt>
<trkpt lat="50.620647" lon="5.781283"><time>2026-05-07T19:36:14Z</time></trkpt>
</trkseg>
</trk>
<trk>
<name>lhvba67</name>
<cmt>v</cmt>
<desc>Battice Chemin n°67 </desc>
<link href="https://chemins.be/battice/chemin/67"/><trkseg>
<trkpt lat="50.618213" lon="5.793943"><time>2026-05-07T18:26:14Z</time></trkpt>
<trkpt lat="50.618289" lon="5.794998"><time>2026-05-07T18:36:14Z</time></trkpt>
<trkpt lat="50.618458" lon="5.795702"><time>2026-05-07T18:46:14Z</time></trkpt>
<trkpt lat="50.619302" lon="5.796919"><time>2026-05-07T18:56:14Z</time></trkpt>
<trkpt lat="50.619547" lon="5.797273"><time>2026-05-07T19:06:14Z</time></trkpt>
<trkpt lat="50.619477" lon="5.798269"><time>2026-05-07T19:16:14Z</time></trkpt>
</trkseg>
</trk>
<trk>
<name>lhvba68</name>
<cmt>q</cmt>
<desc>Battice Chemin n°68 Bois de Herve</desc>
<link href="https://chemins.be/battice/chemin/68"/><trkseg>
<trkpt lat="50.620119" lon="5.794123"><time>2026-05-07T18:26:14Z</time></trkpt>
<trkpt lat="50.619199" lon="5.790913"><time>2026-05-07T18:36:14Z</time></trkpt>
</trkseg></trk>
<trk>
<name>lhvba68</name>
<cmt>r</cmt>
<desc>Battice Chemin n°68 Bois de Herve</desc>
<link href="https://chemins.be/battice/chemin/68"/><trkseg>
<trkpt lat="50.619199" lon="5.790913"><time>2026-05-07T18:36:14Z</time></trkpt>
<trkpt lat="50.619068" lon="5.790492"><time>2026-05-07T18:46:14Z</time></trkpt>
<trkpt lat="50.618496" lon="5.790097"><time>2026-05-07T18:56:14Z</time></trkpt>
</trkseg></trk>
<trk>
<name>lhvba68</name>
<cmt>q</cmt>
<desc>Battice Chemin n°68 Bois de Herve</desc>
<link href="https://chemins.be/battice/chemin/68"/><trkseg>
<trkpt lat="50.618496" lon="5.790097"><time>2026-05-07T18:56:14Z</time></trkpt>
<trkpt lat="50.617979" lon="5.788553"><time>2026-05-07T19:06:14Z</time></trkpt>
</trkseg>
</trk>
<trk>
<name>lhvba69</name>
<cmt>q</cmt>
<desc>Battice Chemin n°69 </desc>
<link href="https://chemins.be/battice/chemin/69"/><trkseg>
<trkpt lat="50.620059" lon="5.794089"><time>2026-05-07T18:26:14Z</time></trkpt>
<trkpt lat="50.620081" lon="5.795067"><time>2026-05-07T18:36:14Z</time></trkpt>
<trkpt lat="50.619357" lon="5.796063"><time>2026-05-07T18:46:14Z</time></trkpt>
<trkpt lat="50.619183" lon="5.796732"><time>2026-05-07T18:56:14Z</time></trkpt>
</trkseg>
</trk>
<trk>
<name>lhvba76</name>
<cmt>v</cmt>
<desc>Battice Chemin n°76 Bois de Herve</desc>
<link href="https://chemins.be/battice/chemin/76"/><trkseg>
<trkpt lat="50.611648" lon="5.779230"><time>2026-05-07T18:26:14Z</time></trkpt>
<trkpt lat="50.612389" lon="5.778913"><time>2026-05-07T18:36:14Z</time></trkpt>
<trkpt lat="50.612541" lon="5.778974"><time>2026-05-07T18:46:14Z</time></trkpt>
<trkpt lat="50.612963" lon="5.778970"><time>2026-05-07T18:56:14Z</time></trkpt>
<trkpt lat="50.613233" lon="5.779023"><time>2026-05-07T19:06:14Z</time></trkpt>
<trkpt lat="50.613520" lon="5.779074"><time>2026-05-07T19:16:14Z</time></trkpt>
<trkpt lat="50.614792" lon="5.779494"><time>2026-05-07T19:26:14Z</time></trkpt>
</trkseg>
</trk>
<trk>
<name>lhvba77</name>
<cmt>v</cmt>
<desc>Battice Chemin n°77 </desc>
<link href="https://chemins.be/battice/chemin/77"/><trkseg>
<trkpt lat="50.611652" lon="5.779269"><time>2026-05-07T18:26:14Z</time></trkpt>
<trkpt lat="50.611713" lon="5.780946"><time>2026-05-07T18:36:14Z</time></trkpt>
<trkpt lat="50.611872" lon="5.781923"><time>2026-05-07T18:46:14Z</time></trkpt>
</trkseg>
</trk>
<trk>
<name>lhvba79</name>
<cmt>q</cmt>
<desc>Battice Chemin n°79 </desc>
<link href="https://chemins.be/battice/chemin/79"/><trkseg>
<trkpt lat="50.613178" lon="5.784772"><time>2026-05-07T18:26:14Z</time></trkpt>
<trkpt lat="50.612156" lon="5.786403"><time>2026-05-07T18:36:14Z</time></trkpt>
<trkpt lat="50.611067" lon="5.787047"><time>2026-05-07T18:46:14Z</time></trkpt>
</trkseg>
</trk>
<trk>
<name>lhvba8</name>
<cmt>q</cmt>
<desc>Battice Chemin n°8 </desc>
<link href="https://chemins.be/battice/chemin/8"/><trkseg>
<trkpt lat="50.650495" lon="5.834337"><time>2026-05-07T18:26:14Z</time></trkpt>
<trkpt lat="50.651659" lon="5.834663"><time>2026-05-07T18:36:14Z</time></trkpt>
<trkpt lat="50.652791" lon="5.833633"><time>2026-05-07T18:46:14Z</time></trkpt>
<trkpt lat="50.653005" lon="5.833216"><time>2026-05-07T18:56:14Z</time></trkpt>
</trkseg></trk>
<trk>
<name>lhvba8</name>
<cmt>v</cmt>
<desc>Battice Chemin n°8 </desc>
<link href="https://chemins.be/battice/chemin/8"/><trkseg>
<trkpt lat="50.653005" lon="5.833216"><time>2026-05-07T18:56:14Z</time></trkpt>
<trkpt lat="50.653368" lon="5.832173"><time>2026-05-07T19:06:14Z</time></trkpt>
</trkseg>
</trk>
<trk>
<name>lhvba84</name>
<cmt>v</cmt>
<desc>Battice Chemin n°84 </desc>
<link href="https://chemins.be/battice/chemin/84"/><trkseg>
<trkpt lat="50.618187" lon="5.784264"><time>2026-05-07T18:26:14Z</time></trkpt>
<trkpt lat="50.618460" lon="5.784216"><time>2026-05-07T18:36:14Z</time></trkpt>
<trkpt lat="50.618732" lon="5.784060"><time>2026-05-07T18:46:14Z</time></trkpt>
<trkpt lat="50.619174" lon="5.784216"><time>2026-05-07T18:56:14Z</time></trkpt>
<trkpt lat="50.619402" lon="5.784189"><time>2026-05-07T19:06:14Z</time></trkpt>
</trkseg>
</trk>
<trk>
<name>lhvba85</name>
<cmt>v</cmt>
<desc>Battice Chemin n°85 </desc>
<link href="https://chemins.be/battice/chemin/85"/><trkseg>
<trkpt lat="50.618651" lon="5.780612"><time>2026-05-07T18:26:14Z</time></trkpt>
<trkpt lat="50.618904" lon="5.781565"><time>2026-05-07T18:36:14Z</time></trkpt>
<trkpt lat="50.618907" lon="5.782067"><time>2026-05-07T18:46:14Z</time></trkpt>
<trkpt lat="50.619286" lon="5.782309"><time>2026-05-07T18:56:14Z</time></trkpt>
<trkpt lat="50.619637" lon="5.782882"><time>2026-05-07T19:06:14Z</time></trkpt>
</trkseg></trk>
<trk>
<name>lhvba85</name>
<cmt>q</cmt>
<desc>Battice Chemin n°85 </desc>
<link href="https://chemins.be/battice/chemin/85"/><trkseg>
<trkpt lat="50.619637" lon="5.782882"><time>2026-05-07T19:06:14Z</time></trkpt>
<trkpt lat="50.619942" lon="5.783196"><time>2026-05-07T19:16:14Z</time></trkpt>
<trkpt lat="50.620541" lon="5.784693"><time>2026-05-07T19:26:14Z</time></trkpt>
</trkseg>
</trk>
<trk>
<name>lhvba87</name>
<cmt>v</cmt>
<desc>Battice Chemin n°87 </desc>
<link href="https://chemins.be/battice/chemin/87"/><trkseg>
<trkpt lat="50.631569" lon="5.788696"><time>2026-05-07T18:26:14Z</time></trkpt>
<trkpt lat="50.632215" lon="5.788503"><time>2026-05-07T18:36:14Z</time></trkpt>
<trkpt lat="50.633366" lon="5.788953"><time>2026-05-07T18:46:14Z</time></trkpt>
</trkseg></trk>
<trk>
<name>lhvba87</name>
<cmt>d</cmt>
<desc>Battice Chemin n°87 </desc>
<link href="https://chemins.be/battice/chemin/87"/><trkseg>
<trkpt lat="50.633366" lon="5.788953"><time>2026-05-07T18:46:14Z</time></trkpt>
<trkpt lat="50.633908" lon="5.789136"><time>2026-05-07T18:56:14Z</time></trkpt>
</trkseg>
</trk>
<trk>
<name>lhvba89</name>
<cmt>q</cmt>
<desc>Battice Chemin n°89 </desc>
<link href="https://chemins.be/battice/chemin/89"/><trkseg>
<trkpt lat="50.620807" lon="5.790757"><time>2026-05-07T18:26:14Z</time></trkpt>
<trkpt lat="50.621254" lon="5.790095"><time>2026-05-07T18:36:14Z</time></trkpt>
<trkpt lat="50.622366" lon="5.789452"><time>2026-05-07T18:46:14Z</time></trkpt>
<trkpt lat="50.622611" lon="5.788221"><time>2026-05-07T18:56:14Z</time></trkpt>
<trkpt lat="50.623092" lon="5.786977"><time>2026-05-07T19:06:14Z</time></trkpt>
<trkpt lat="50.623691" lon="5.786791"><time>2026-05-07T19:16:14Z</time></trkpt>
<trkpt lat="50.625378" lon="5.785518"><time>2026-05-07T19:26:14Z</time></trkpt>
<trkpt lat="50.625832" lon="5.784559"><time>2026-05-07T19:36:14Z</time></trkpt>
</trkseg>
</trk>
<trk>
<name>lhvba91</name>
<cmt>q</cmt>
<desc>Battice Chemin n°91 </desc>
<link href="https://chemins.be/battice/chemin/91"/><trkseg>
<trkpt lat="50.629151" lon="5.789752"><time>2026-05-07T18:26:14Z</time></trkpt>
<trkpt lat="50.628465" lon="5.788329"><time>2026-05-07T18:36:14Z</time></trkpt>
<trkpt lat="50.628406" lon="5.787599"><time>2026-05-07T18:46:14Z</time></trkpt>
<trkpt lat="50.628406" lon="5.786841"><time>2026-05-07T18:56:14Z</time></trkpt>
</trkseg>
</trk>
<trk>
<name>lhvba92</name>
<cmt>q</cmt>
<desc>Battice Chemin n°92 </desc>
<link href="https://chemins.be/battice/chemin/92"/><trkseg>
<trkpt lat="50.627287" lon="5.791558"><time>2026-05-07T18:26:14Z</time></trkpt>
<trkpt lat="50.627543" lon="5.792001"><time>2026-05-07T18:36:14Z</time></trkpt>
<trkpt lat="50.628448" lon="5.792867"><time>2026-05-07T18:46:14Z</time></trkpt>
<trkpt lat="50.629086" lon="5.793117"><time>2026-05-07T18:56:14Z</time></trkpt>
<trkpt lat="50.629716" lon="5.793053"><time>2026-05-07T19:06:14Z</time></trkpt>
<trkpt lat="50.630601" lon="5.793471"><time>2026-05-07T19:16:14Z</time></trkpt>
<trkpt lat="50.632779" lon="5.793364"><time>2026-05-07T19:26:14Z</time></trkpt>
</trkseg>
</trk>
<trk>
<name>lhvba93</name>
<cmt>q</cmt>
<desc>Battice Chemin n°93 </desc>
<link href="https://chemins.be/battice/chemin/93"/><trkseg>
<trkpt lat="50.628364" lon="5.792871"><time>2026-05-07T18:26:14Z</time></trkpt>
<trkpt lat="50.628582" lon="5.793672"><time>2026-05-07T18:36:14Z</time></trkpt>
<trkpt lat="50.627847" lon="5.794845"><time>2026-05-07T18:46:14Z</time></trkpt>
<trkpt lat="50.625496" lon="5.796590"><time>2026-05-07T18:56:14Z</time></trkpt>
<trkpt lat="50.624743" lon="5.798110"><time>2026-05-07T19:06:14Z</time></trkpt>
</trkseg>
</trk>
<trk>
<name>lhvba94</name>
<cmt>v</cmt>
<desc>Battice Chemin n°94 Trou du Chat</desc>
<link href="https://chemins.be/battice/chemin/94"/><trkseg>
<trkpt lat="50.621646" lon="5.799953"><time>2026-05-07T18:26:14Z</time></trkpt>
<trkpt lat="50.622508" lon="5.799371"><time>2026-05-07T18:36:14Z</time></trkpt>
<trkpt lat="50.622633" lon="5.799432"><time>2026-05-07T18:46:14Z</time></trkpt>
<trkpt lat="50.622833" lon="5.799989"><time>2026-05-07T18:56:14Z</time></trkpt>
<trkpt lat="50.622922" lon="5.800020"><time>2026-05-07T19:06:14Z</time></trkpt>
<trkpt lat="50.623083" lon="5.800124"><time>2026-05-07T19:16:14Z</time></trkpt>
<trkpt lat="50.623715" lon="5.800638"><time>2026-05-07T19:26:14Z</time></trkpt>
<trkpt lat="50.623939" lon="5.800701"><time>2026-05-07T19:36:14Z</time></trkpt>
<trkpt lat="50.624637" lon="5.800976"><time>2026-05-07T19:46:14Z</time></trkpt>
<trkpt lat="50.625118" lon="5.801316"><time>2026-05-07T19:56:14Z</time></trkpt>
<trkpt lat="50.625249" lon="5.801674"><time>2026-05-07T20:06:14Z</time></trkpt>
<trkpt lat="50.625398" lon="5.802710"><time>2026-05-07T20:16:14Z</time></trkpt>
<trkpt lat="50.625597" lon="5.803338"><time>2026-05-07T20:26:14Z</time></trkpt>
<trkpt lat="50.625648" lon="5.803580"><time>2026-05-07T20:36:14Z</time></trkpt>
<trkpt lat="50.625663" lon="5.803849"><time>2026-05-07T20:46:14Z</time></trkpt>
</trkseg>
</trk>
<trk>
<name>lhvba95</name>
<cmt>q</cmt>
<desc>Battice Chemin n°95 </desc>
<link href="https://chemins.be/battice/chemin/95"/><trkseg>
<trkpt lat="50.623474" lon="5.800372"><time>2026-05-07T18:26:14Z</time></trkpt>
<trkpt lat="50.624753" lon="5.798233"><time>2026-05-07T18:36:14Z</time></trkpt>
</trkseg>
</trk>
<trk>
<name>lhvba96</name>
<cmt>v</cmt>
<desc>Battice Chemin n°96 Rue des deux Tilleuls / Fays de José / Rue de José</desc>
<link href="https://chemins.be/battice/chemin/96"/><trkseg>
<trkpt lat="50.620236" lon="5.775416"><time>2026-05-07T18:26:14Z</time></trkpt>
<trkpt lat="50.620301" lon="5.775291"><time>2026-05-07T18:36:14Z</time></trkpt>
<trkpt lat="50.620283" lon="5.774499"><time>2026-05-07T18:46:14Z</time></trkpt>
<trkpt lat="50.620429" lon="5.773641"><time>2026-05-07T18:56:14Z</time></trkpt>
<trkpt lat="50.620817" lon="5.772706"><time>2026-05-07T19:06:14Z</time></trkpt>
<trkpt lat="50.621724" lon="5.772817"><time>2026-05-07T19:16:14Z</time></trkpt>
<trkpt lat="50.622687" lon="5.772747"><time>2026-05-07T19:26:14Z</time></trkpt>
</trkseg></trk>
<trk>
<name>lhvba96</name>
<cmt>q</cmt>
<desc>Battice Chemin n°96 Rue des deux Tilleuls / Fays de José / Rue de José</desc>
<link href="https://chemins.be/battice/chemin/96"/><trkseg>
<trkpt lat="50.622687" lon="5.772747"><time>2026-05-07T19:26:14Z</time></trkpt>
<trkpt lat="50.625018" lon="5.772548"><time>2026-05-07T19:36:14Z</time></trkpt>
<trkpt lat="50.626691" lon="5.772499"><time>2026-05-07T19:46:14Z</time></trkpt>
</trkseg></trk>
<trk>
<name>lhvba96</name>
<cmt>r</cmt>
<desc>Battice Chemin n°96 Rue des deux Tilleuls / Fays de José / Rue de José</desc>
<link href="https://chemins.be/battice/chemin/96"/><trkseg>
<trkpt lat="50.626691" lon="5.772499"><time>2026-05-07T19:46:14Z</time></trkpt>
<trkpt lat="50.626838" lon="5.772263"><time>2026-05-07T19:56:14Z</time></trkpt>
<trkpt lat="50.628730" lon="5.772729"><time>2026-05-07T20:06:14Z</time></trkpt>
<trkpt lat="50.629789" lon="5.771417"><time>2026-05-07T20:16:14Z</time></trkpt>
<trkpt lat="50.629805" lon="5.770768"><time>2026-05-07T20:26:14Z</time></trkpt>
</trkseg></trk>
<trk>
<name>lhvba96</name>
<cmt>v</cmt>
<desc>Battice Chemin n°96 Rue des deux Tilleuls / Fays de José / Rue de José</desc>
<link href="https://chemins.be/battice/chemin/96"/><trkseg>
<trkpt lat="50.629805" lon="5.770768"><time>2026-05-07T20:26:14Z</time></trkpt>
<trkpt lat="50.631387" lon="5.768553"><time>2026-05-07T20:36:14Z</time></trkpt>
<trkpt lat="50.631613" lon="5.767782"><time>2026-05-07T20:46:14Z</time></trkpt>
<trkpt lat="50.631705" lon="5.766809"><time>2026-05-07T20:56:14Z</time></trkpt>
<trkpt lat="50.632235" lon="5.765326"><time>2026-05-07T21:06:14Z</time></trkpt>
<trkpt lat="50.633582" lon="5.764023"><time>2026-05-07T21:16:14Z</time></trkpt>
</trkseg>
</trk>
<trk>
<name>lhvba97</name>
<cmt>v</cmt>
<desc>Battice Chemin n°97 </desc>
<link href="https://chemins.be/battice/chemin/97"/><trkseg>
<trkpt lat="50.621149" lon="5.777281"><time>2026-05-07T18:26:14Z</time></trkpt>
<trkpt lat="50.621787" lon="5.776537"><time>2026-05-07T18:36:14Z</time></trkpt>
<trkpt lat="50.622010" lon="5.776713"><time>2026-05-07T18:46:14Z</time></trkpt>
<trkpt lat="50.622212" lon="5.776380"><time>2026-05-07T18:56:14Z</time></trkpt>
<trkpt lat="50.622155" lon="5.775912"><time>2026-05-07T19:06:14Z</time></trkpt>
<trkpt lat="50.622420" lon="5.775538"><time>2026-05-07T19:16:14Z</time></trkpt>
<trkpt lat="50.622674" lon="5.775362"><time>2026-05-07T19:26:14Z</time></trkpt>
<trkpt lat="50.622777" lon="5.772778"><time>2026-05-07T19:36:14Z</time></trkpt>
</trkseg>
</trk>
<trk>
<name>lhvba98</name>
<cmt>v</cmt>
<desc>Battice Chemin n°98 Rue des deux Tilleuls</desc>
<link href="https://chemins.be/battice/chemin/98"/><trkseg>
<trkpt lat="50.619638" lon="5.774296"><time>2026-05-07T18:26:14Z</time></trkpt>
<trkpt lat="50.620411" lon="5.773598"><time>2026-05-07T18:36:14Z</time></trkpt>
</trkseg>
</trk>
<trk>
<name>lhvba99</name>
<cmt>q</cmt>
<desc>Battice Chemin n°99 </desc>
<link href="https://chemins.be/battice/chemin/99"/><trkseg>
<trkpt lat="50.620750" lon="5.772526"><time>2026-05-07T18:26:14Z</time></trkpt>
<trkpt lat="50.620052" lon="5.771976"><time>2026-05-07T18:36:14Z</time></trkpt>
</trkseg>
</trk>
<trk>
<name>lhvbai10</name>
<cmt>v</cmt>
<desc>Battice Chemin n°i10 </desc>
<link href="https://chemins.be/battice/chemin/i10"/><trkseg>
<trkpt lat="50.634091" lon="5.816631"><time>2026-05-07T18:26:14Z</time></trkpt>
<trkpt lat="50.634001" lon="5.816967"><time>2026-05-07T18:36:14Z</time></trkpt>
<trkpt lat="50.634368" lon="5.817533"><time>2026-05-07T18:46:14Z</time></trkpt>
<trkpt lat="50.634422" lon="5.818198"><time>2026-05-07T18:56:14Z</time></trkpt>
<trkpt lat="50.634164" lon="5.818849"><time>2026-05-07T19:06:14Z</time></trkpt>
<trkpt lat="50.633987" lon="5.819457"><time>2026-05-07T19:16:14Z</time></trkpt>
<trkpt lat="50.634078" lon="5.820608"><time>2026-05-07T19:26:14Z</time></trkpt>
</trkseg>
</trk>
<trk>
<name>lhvbai11</name>
<cmt>v</cmt>
<desc>Battice Sentier n°i11 </desc>
<link href="https://chemins.be/battice/sentier/i11"/><trkseg>
<trkpt lat="50.635530" lon="5.831524"><time>2026-05-07T18:26:14Z</time></trkpt>
<trkpt lat="50.635743" lon="5.831999"><time>2026-05-07T18:36:14Z</time></trkpt>
<trkpt lat="50.635625" lon="5.832672"><time>2026-05-07T18:46:14Z</time></trkpt>
<trkpt lat="50.635736" lon="5.832801"><time>2026-05-07T18:56:14Z</time></trkpt>
<trkpt lat="50.635141" lon="5.833930"><time>2026-05-07T19:06:14Z</time></trkpt>
<trkpt lat="50.632310" lon="5.838164"><time>2026-05-07T19:16:14Z</time></trkpt>
<trkpt lat="50.631390" lon="5.839377"><time>2026-05-07T19:26:14Z</time></trkpt>
<trkpt lat="50.631283" lon="5.839710"><time>2026-05-07T19:36:14Z</time></trkpt>
</trkseg>
</trk>
<trk>
<name>lhvbai12</name>
<cmt>v</cmt>
<desc>Battice Chemin n°i12 </desc>
<link href="https://chemins.be/battice/chemin/i12"/><trkseg>
<trkpt lat="50.634354" lon="5.822055"><time>2026-05-07T18:26:14Z</time></trkpt>
<trkpt lat="50.634871" lon="5.823013"><time>2026-05-07T18:36:14Z</time></trkpt>
<trkpt lat="50.635193" lon="5.825688"><time>2026-05-07T18:46:14Z</time></trkpt>
<trkpt lat="50.635302" lon="5.829436"><time>2026-05-07T18:56:14Z</time></trkpt>
</trkseg>
</trk>
<trk>
<name>lhvbai13</name>
<cmt>v</cmt>
<desc>Battice Sentier n°i13 </desc>
<link href="https://chemins.be/battice/sentier/i13"/><trkseg>
<trkpt lat="50.635230" lon="5.826925"><time>2026-05-07T18:26:14Z</time></trkpt>
<trkpt lat="50.635593" lon="5.829718"><time>2026-05-07T18:36:14Z</time></trkpt>
<trkpt lat="50.635738" lon="5.830977"><time>2026-05-07T18:46:14Z</time></trkpt>
<trkpt lat="50.635850" lon="5.831116"><time>2026-05-07T18:56:14Z</time></trkpt>
<trkpt lat="50.635859" lon="5.831517"><time>2026-05-07T19:06:14Z</time></trkpt>
<trkpt lat="50.635797" lon="5.831735"><time>2026-05-07T19:16:14Z</time></trkpt>
<trkpt lat="50.635713" lon="5.831899"><time>2026-05-07T19:26:14Z</time></trkpt>
</trkseg>
</trk>
<trk>
<name>lhvbai14</name>
<cmt>v</cmt>
<desc>Battice Sentier n°i14 </desc>
<link href="https://chemins.be/battice/sentier/i14"/><trkseg>
<trkpt lat="50.625270" lon="5.853048"><time>2026-05-07T18:26:14Z</time></trkpt>
<trkpt lat="50.625173" lon="5.853738"><time>2026-05-07T18:36:14Z</time></trkpt>
<trkpt lat="50.625025" lon="5.853876"><time>2026-05-07T18:46:14Z</time></trkpt>
</trkseg>
</trk>
<trk>
<name>lhvbai15</name>
<cmt>v</cmt>
<desc>Battice Chemin n°i15 </desc>
<link href="https://chemins.be/battice/chemin/i15"/><trkseg>
<trkpt lat="50.636475" lon="5.841971"><time>2026-05-07T18:26:14Z</time></trkpt>
<trkpt lat="50.636983" lon="5.842207"><time>2026-05-07T18:36:14Z</time></trkpt>
<trkpt lat="50.637206" lon="5.842593"><time>2026-05-07T18:46:14Z</time></trkpt>
<trkpt lat="50.637305" lon="5.844725"><time>2026-05-07T18:56:14Z</time></trkpt>
<trkpt lat="50.637895" lon="5.846863"><time>2026-05-07T19:06:14Z</time></trkpt>
<trkpt lat="50.637895" lon="5.848159"><time>2026-05-07T19:16:14Z</time></trkpt>
<trkpt lat="50.638267" lon="5.850566"><time>2026-05-07T19:26:14Z</time></trkpt>
</trkseg>
</trk>
<trk>
<name>lhvbai2</name>
<cmt>v</cmt>
<desc>Battice Sentier n°i2 </desc>
<link href="https://chemins.be/battice/sentier/i2"/><trkseg>
<trkpt lat="50.637442" lon="5.783405"><time>2026-05-07T18:26:14Z</time></trkpt>
<trkpt lat="50.637468" lon="5.783606"><time>2026-05-07T18:36:14Z</time></trkpt>
<trkpt lat="50.637234" lon="5.783861"><time>2026-05-07T18:46:14Z</time></trkpt>
<trkpt lat="50.636913" lon="5.784317"><time>2026-05-07T18:56:14Z</time></trkpt>
</trkseg>
</trk>
<trk>
<name>lhvbai4</name>
<cmt>v</cmt>
<desc>Battice Chemin n°i4 </desc>
<link href="https://chemins.be/battice/chemin/i4"/><trkseg>
<trkpt lat="50.633694" lon="5.781746"><time>2026-05-07T18:26:14Z</time></trkpt>
<trkpt lat="50.633717" lon="5.782653"><time>2026-05-07T18:36:14Z</time></trkpt>
<trkpt lat="50.633794" lon="5.784381"><time>2026-05-07T18:46:14Z</time></trkpt>
<trkpt lat="50.633591" lon="5.785238"><time>2026-05-07T18:56:14Z</time></trkpt>
<trkpt lat="50.633500" lon="5.786053"><time>2026-05-07T19:06:14Z</time></trkpt>
<trkpt lat="50.633444" lon="5.787198"><time>2026-05-07T19:16:14Z</time></trkpt>
<trkpt lat="50.633394" lon="5.789061"><time>2026-05-07T19:26:14Z</time></trkpt>
<trkpt lat="50.633548" lon="5.790068"><time>2026-05-07T19:36:14Z</time></trkpt>
</trkseg>
</trk>
<trk>
<name>lhvbai5</name>
<cmt>v</cmt>
<desc>Battice Chemin n°i5 </desc>
<link href="https://chemins.be/battice/chemin/i5"/><trkseg>
<trkpt lat="50.653023" lon="5.819373"><time>2026-05-07T18:26:14Z</time></trkpt>
<trkpt lat="50.651544" lon="5.820716"><time>2026-05-07T18:36:14Z</time></trkpt>
<trkpt lat="50.651281" lon="5.821279"><time>2026-05-07T18:46:14Z</time></trkpt>
</trkseg>
</trk>
<trk>
<name>lhvbai6</name>
<cmt>v</cmt>
<desc>Battice Chemin n°i6 </desc>
<link href="https://chemins.be/battice/chemin/i6"/><trkseg>
<trkpt lat="50.636678" lon="5.811918"><time>2026-05-07T18:26:14Z</time></trkpt>
<trkpt lat="50.637920" lon="5.810432"><time>2026-05-07T18:36:14Z</time></trkpt>
</trkseg>
</trk>
<trk>
<name>lhvbai7</name>
<cmt>v</cmt>
<desc>Battice Chemin n°i7 </desc>
<link href="https://chemins.be/battice/chemin/i7"/><trkseg>
<trkpt lat="50.630840" lon="5.816593"><time>2026-05-07T18:26:14Z</time></trkpt>
<trkpt lat="50.630908" lon="5.817083"><time>2026-05-07T18:36:14Z</time></trkpt>
<trkpt lat="50.630940" lon="5.817204"><time>2026-05-07T18:46:14Z</time></trkpt>
<trkpt lat="50.630915" lon="5.817612"><time>2026-05-07T18:56:14Z</time></trkpt>
<trkpt lat="50.631900" lon="5.819779"><time>2026-05-07T19:06:14Z</time></trkpt>
<trkpt lat="50.632850" lon="5.821299"><time>2026-05-07T19:16:14Z</time></trkpt>
</trkseg>
</trk>
<trk>
<name>lhvbai8</name>
<cmt>v</cmt>
<desc>Battice Chemin n°i8 </desc>
<link href="https://chemins.be/battice/chemin/i8"/><trkseg>
<trkpt lat="50.632302" lon="5.821683"><time>2026-05-07T18:26:14Z</time></trkpt>
<trkpt lat="50.633174" lon="5.821196"><time>2026-05-07T18:36:14Z</time></trkpt>
<trkpt lat="50.634043" lon="5.820630"><time>2026-05-07T18:46:14Z</time></trkpt>
<trkpt lat="50.634692" lon="5.820520"><time>2026-05-07T18:56:14Z</time></trkpt>
</trkseg></trk>
<trk>
<name>lhvbai8</name>
<cmt>s</cmt>
<desc>Battice Chemin n°i8 </desc>
<link href="https://chemins.be/battice/chemin/i8"/><trkseg>
<trkpt lat="50.634692" lon="5.820520"><time>2026-05-07T18:56:14Z</time></trkpt>
<trkpt lat="50.635751" lon="5.820576"><time>2026-05-07T19:06:14Z</time></trkpt>
</trkseg></trk>
<trk>
<name>lhvbai8</name>
<cmt>d</cmt>
<desc>Battice Chemin n°i8 </desc>
<link href="https://chemins.be/battice/chemin/i8"/><trkseg>
<trkpt lat="50.635751" lon="5.820576"><time>2026-05-07T19:06:14Z</time></trkpt>
<trkpt lat="50.636666" lon="5.820624"><time>2026-05-07T19:16:14Z</time></trkpt>
</trkseg>
</trk>
<trk>
<name>lhvbai9</name>
<cmt>v</cmt>
<desc>Battice Chemin n°i9 Xhéneumont</desc>
<link href="https://chemins.be/battice/chemin/i9"/><trkseg>
<trkpt lat="50.635024" lon="5.804572"><time>2026-05-07T18:26:14Z</time></trkpt>
<trkpt lat="50.634734" lon="5.803943"><time>2026-05-07T18:36:14Z</time></trkpt>
<trkpt lat="50.634253" lon="5.803857"><time>2026-05-07T18:46:14Z</time></trkpt>
<trkpt lat="50.633772" lon="5.804000"><time>2026-05-07T18:56:14Z</time></trkpt>
<trkpt lat="50.633520" lon="5.804386"><time>2026-05-07T19:06:14Z</time></trkpt>
<trkpt lat="50.633836" lon="5.805716"><time>2026-05-07T19:16:14Z</time></trkpt>
<trkpt lat="50.633718" lon="5.807347"><time>2026-05-07T19:26:14Z</time></trkpt>
<trkpt lat="50.633935" lon="5.810995"><time>2026-05-07T19:36:14Z</time></trkpt>
<trkpt lat="50.633754" lon="5.813756"><time>2026-05-07T19:46:14Z</time></trkpt>
<trkpt lat="50.634099" lon="5.816689"><time>2026-05-07T19:56:14Z</time></trkpt>
<trkpt lat="50.634298" lon="5.817132"><time>2026-05-07T20:06:14Z</time></trkpt>
<trkpt lat="50.635296" lon="5.816957"><time>2026-05-07T20:16:14Z</time></trkpt>
<trkpt lat="50.635505" lon="5.817157"><time>2026-05-07T20:26:14Z</time></trkpt>
<trkpt lat="50.635842" lon="5.817590"><time>2026-05-07T20:36:14Z</time></trkpt>
<trkpt lat="50.636641" lon="5.818205"><time>2026-05-07T20:46:14Z</time></trkpt>
</trkseg>
</trk>
<trk>
<name>lhvbaL38</name>
<cmt>v</cmt>
<desc>Battice Chemin n°L38 RAVeL5 L38</desc>
<link href="https://chemins.be/battice/chemin/L38"/><trkseg>
<trkpt lat="50.637792" lon="5.762366"><time>2026-05-07T18:26:14Z</time></trkpt>
<trkpt lat="50.638510" lon="5.769174"><time>2026-05-07T18:36:14Z</time></trkpt>
<trkpt lat="50.639486" lon="5.777800"><time>2026-05-07T18:46:14Z</time></trkpt>
<trkpt lat="50.640005" lon="5.782397"><time>2026-05-07T18:56:14Z</time></trkpt>
<trkpt lat="50.640479" lon="5.784108"><time>2026-05-07T19:06:14Z</time></trkpt>
<trkpt lat="50.641471" lon="5.787616"><time>2026-05-07T19:16:14Z</time></trkpt>
<trkpt lat="50.642394" lon="5.790811"><time>2026-05-07T19:26:14Z</time></trkpt>
<trkpt lat="50.642593" lon="5.791468"><time>2026-05-07T19:36:14Z</time></trkpt>
<trkpt lat="50.643242" lon="5.792788"><time>2026-05-07T19:46:14Z</time></trkpt>
<trkpt lat="50.643749" lon="5.793242"><time>2026-05-07T19:56:14Z</time></trkpt>
<trkpt lat="50.645626" lon="5.794854"><time>2026-05-07T20:06:14Z</time></trkpt>
<trkpt lat="50.647002" lon="5.797045"><time>2026-05-07T20:16:14Z</time></trkpt>
<trkpt lat="50.650756" lon="5.809873"><time>2026-05-07T20:26:14Z</time></trkpt>
<trkpt lat="50.652064" lon="5.814623"><time>2026-05-07T20:36:14Z</time></trkpt>
<trkpt lat="50.652114" lon="5.817863"><time>2026-05-07T20:46:14Z</time></trkpt>
<trkpt lat="50.651551" lon="5.819752"><time>2026-05-07T20:56:14Z</time></trkpt>
<trkpt lat="50.651077" lon="5.821000"><time>2026-05-07T21:06:14Z</time></trkpt>
<trkpt lat="50.649297" lon="5.825980"><time>2026-05-07T21:16:14Z</time></trkpt>
<trkpt lat="50.649106" lon="5.828293"><time>2026-05-07T21:26:14Z</time></trkpt>
<trkpt lat="50.649410" lon="5.832065"><time>2026-05-07T21:36:14Z</time></trkpt>
<trkpt lat="50.648918" lon="5.834694"><time>2026-05-07T21:46:14Z</time></trkpt>
</trkseg>
</trk>
<trk>
<name>lhvbo1</name>
<cmt>r</cmt>
<desc>Bolland Chemin n°1 Sarémont</desc>
<link href="https://chemins.be/bolland/chemin/1"/><trkseg>
<trkpt lat="50.656365" lon="5.768677"><time>2026-05-07T18:26:14Z</time></trkpt>
<trkpt lat="50.656978" lon="5.767879"><time>2026-05-07T18:36:14Z</time></trkpt>
</trkseg></trk>
<trk>
<name>lhvbo1</name>
<cmt>s</cmt>
<desc>Bolland Chemin n°1 Sarémont</desc>
<link href="https://chemins.be/bolland/chemin/1"/><trkseg>
<trkpt lat="50.656978" lon="5.767879"><time>2026-05-07T18:36:14Z</time></trkpt>
<trkpt lat="50.659367" lon="5.763942"><time>2026-05-07T18:46:14Z</time></trkpt>
<trkpt lat="50.660653" lon="5.762543"><time>2026-05-07T18:56:14Z</time></trkpt>
<trkpt lat="50.661147" lon="5.762232"><time>2026-05-07T19:06:14Z</time></trkpt>
</trkseg>
</trk>
<trk>
<name>lhvbo11</name>
<cmt>v</cmt>
<desc>Bolland Chemin n°11 Barbothez</desc>
<link href="https://chemins.be/bolland/chemin/11"/><trkseg>
<trkpt lat="50.666193" lon="5.730346"><time>2026-05-07T18:26:14Z</time></trkpt>
<trkpt lat="50.665214" lon="5.730089"><time>2026-05-07T18:36:14Z</time></trkpt>
<trkpt lat="50.664452" lon="5.730625"><time>2026-05-07T18:46:14Z</time></trkpt>
<trkpt lat="50.664085" lon="5.731162"><time>2026-05-07T18:56:14Z</time></trkpt>
<trkpt lat="50.663650" lon="5.730943"><time>2026-05-07T19:06:14Z</time></trkpt>
<trkpt lat="50.663466" lon="5.730972"><time>2026-05-07T19:16:14Z</time></trkpt>
<trkpt lat="50.663225" lon="5.731099"><time>2026-05-07T19:26:14Z</time></trkpt>
<trkpt lat="50.663129" lon="5.731401"><time>2026-05-07T19:36:14Z</time></trkpt>
<trkpt lat="50.663084" lon="5.732052"><time>2026-05-07T19:46:14Z</time></trkpt>
<trkpt lat="50.662922" lon="5.732473"><time>2026-05-07T19:56:14Z</time></trkpt>
</trkseg>
</trk>
<trk>
<name>lhvbo12</name>
<cmt>v</cmt>
<desc>Bolland Chemin n°12 </desc>
<link href="https://chemins.be/bolland/chemin/12"/><trkseg>
<trkpt lat="50.675867" lon="5.746766"><time>2026-05-07T18:26:14Z</time></trkpt>
<trkpt lat="50.675719" lon="5.747087"><time>2026-05-07T18:36:14Z</time></trkpt>
<trkpt lat="50.675305" lon="5.747938"><time>2026-05-07T18:46:14Z</time></trkpt>
<trkpt lat="50.675059" lon="5.748185"><time>2026-05-07T18:56:14Z</time></trkpt>
<trkpt lat="50.674471" lon="5.748493"><time>2026-05-07T19:06:14Z</time></trkpt>
<trkpt lat="50.674300" lon="5.748517"><time>2026-05-07T19:16:14Z</time></trkpt>
<trkpt lat="50.674005" lon="5.748353"><time>2026-05-07T19:26:14Z</time></trkpt>
<trkpt lat="50.673496" lon="5.748083"><time>2026-05-07T19:36:14Z</time></trkpt>
<trkpt lat="50.672640" lon="5.748171"><time>2026-05-07T19:46:14Z</time></trkpt>
</trkseg>
</trk>
<trk>
<name>lhvbo16</name>
<cmt>q</cmt>
<desc>Bolland Chemin n°16 </desc>
<link href="https://chemins.be/bolland/chemin/16"/><trkseg>
<trkpt lat="50.652900" lon="5.767163"><time>2026-05-07T18:26:14Z</time></trkpt>
<trkpt lat="50.653154" lon="5.767496"><time>2026-05-07T18:36:14Z</time></trkpt>
<trkpt lat="50.653435" lon="5.768411"><time>2026-05-07T18:46:14Z</time></trkpt>
</trkseg>
</trk>
<trk>
<name>lhvbo18</name>
<cmt>s</cmt>
<desc>Bolland Chemin n°18 </desc>
<link href="https://chemins.be/bolland/chemin/18"/><trkseg>
<trkpt lat="50.657909" lon="5.762714"><time>2026-05-07T18:26:14Z</time></trkpt>
<trkpt lat="50.658714" lon="5.761696"><time>2026-05-07T18:36:14Z</time></trkpt>
<trkpt lat="50.659249" lon="5.760609"><time>2026-05-07T18:46:14Z</time></trkpt>
<trkpt lat="50.659576" lon="5.760237"><time>2026-05-07T18:56:14Z</time></trkpt>
</trkseg>
</trk>
<trk>
<name>lhvbo2</name>
<cmt>q</cmt>
<desc>Bolland Chemin n°2 </desc>
<link href="https://chemins.be/bolland/chemin/2"/><trkseg>
<trkpt lat="50.642288" lon="5.774521"><time>2026-05-07T18:26:14Z</time></trkpt>
<trkpt lat="50.640664" lon="5.771102"><time>2026-05-07T18:36:14Z</time></trkpt>
</trkseg>
</trk>
<trk>
<name>lhvbo20</name>
<cmt>q</cmt>
<desc>Bolland Chemin n°20 </desc>
<link href="https://chemins.be/bolland/chemin/20"/><trkseg>
<trkpt lat="50.652852" lon="5.760109"><time>2026-05-07T18:26:14Z</time></trkpt>
<trkpt lat="50.652268" lon="5.760135"><time>2026-05-07T18:36:14Z</time></trkpt>
<trkpt lat="50.651951" lon="5.760309"><time>2026-05-07T18:46:14Z</time></trkpt>
</trkseg>
</trk>
<trk>
<name>lhvbo21</name>
<cmt>v</cmt>
<desc>Bolland Chemin n°21 Noblehaye</desc>
<link href="https://chemins.be/bolland/chemin/21"/><trkseg>
<trkpt lat="50.660997" lon="5.760355"><time>2026-05-07T18:26:14Z</time></trkpt>
<trkpt lat="50.659604" lon="5.760140"><time>2026-05-07T18:36:14Z</time></trkpt>
<trkpt lat="50.658964" lon="5.759003"><time>2026-05-07T18:46:14Z</time></trkpt>
<trkpt lat="50.657286" lon="5.758059"><time>2026-05-07T18:56:14Z</time></trkpt>
<trkpt lat="50.656489" lon="5.757501"><time>2026-05-07T19:06:14Z</time></trkpt>
<trkpt lat="50.655654" lon="5.757512"><time>2026-05-07T19:16:14Z</time></trkpt>
</trkseg></trk>
<trk>
<name>lhvbo21</name>
<cmt>r</cmt>
<desc>Bolland Chemin n°21 Noblehaye</desc>
<link href="https://chemins.be/bolland/chemin/21"/><trkseg>
<trkpt lat="50.655654" lon="5.757512"><time>2026-05-07T19:16:14Z</time></trkpt>
<trkpt lat="50.654781" lon="5.758016"><time>2026-05-07T19:26:14Z</time></trkpt>
<trkpt lat="50.653850" lon="5.758982"><time>2026-05-07T19:36:14Z</time></trkpt>
<trkpt lat="50.652346" lon="5.760870"><time>2026-05-07T19:46:14Z</time></trkpt>
<trkpt lat="50.650918" lon="5.763434"><time>2026-05-07T19:56:14Z</time></trkpt>
</trkseg>
</trk>
<trk>
<name>lhvbo22</name>
<cmt>v</cmt>
<desc>Bolland Chemin n°22 Fosse Moray</desc>
<link href="https://chemins.be/bolland/chemin/22"/><trkseg>
<trkpt lat="50.665140" lon="5.760458"><time>2026-05-07T18:26:14Z</time></trkpt>
<trkpt lat="50.665258" lon="5.761084"><time>2026-05-07T18:36:14Z</time></trkpt>
<trkpt lat="50.665381" lon="5.763563"><time>2026-05-07T18:46:14Z</time></trkpt>
<trkpt lat="50.665501" lon="5.764076"><time>2026-05-07T18:56:14Z</time></trkpt>
</trkseg>
</trk>
<trk>
<name>lhvbo23</name>
<cmt>v</cmt>
<desc>Bolland Chemin n°23 </desc>
<link href="https://chemins.be/bolland/chemin/23"/><trkseg>
<trkpt lat="50.660587" lon="5.755138"><time>2026-05-07T18:26:14Z</time></trkpt>
<trkpt lat="50.660793" lon="5.755410"><time>2026-05-07T18:36:14Z</time></trkpt>
<trkpt lat="50.661390" lon="5.755571"><time>2026-05-07T18:46:14Z</time></trkpt>
<trkpt lat="50.661444" lon="5.755585"><time>2026-05-07T18:56:14Z</time></trkpt>
</trkseg>
</trk>
<trk>
<name>lhvbo24</name>
<cmt>d</cmt>
<desc>Bolland Chemin n°24 </desc>
<link href="https://chemins.be/bolland/chemin/24"/><trkseg>
<trkpt lat="50.658684" lon="5.772312"><time>2026-05-07T18:26:14Z</time></trkpt>
<trkpt lat="50.658453" lon="5.773063"><time>2026-05-07T18:36:14Z</time></trkpt>
<trkpt lat="50.658575" lon="5.773321"><time>2026-05-07T18:46:14Z</time></trkpt>
<trkpt lat="50.658031" lon="5.774673"><time>2026-05-07T18:56:14Z</time></trkpt>
<trkpt lat="50.657752" lon="5.774876"><time>2026-05-07T19:06:14Z</time></trkpt>
<trkpt lat="50.657718" lon="5.775853"><time>2026-05-07T19:16:14Z</time></trkpt>
</trkseg>
</trk>
<trk>
<name>lhvbo25</name>
<cmt>v</cmt>
<desc>Bolland Chemin n°25 Noblehaye</desc>
<link href="https://chemins.be/bolland/chemin/25"/><trkseg>
<trkpt lat="50.650943" lon="5.763377"><time>2026-05-07T18:26:14Z</time></trkpt>
<trkpt lat="50.650075" lon="5.762290"><time>2026-05-07T18:36:14Z</time></trkpt>
<trkpt lat="50.649367" lon="5.761308"><time>2026-05-07T18:46:14Z</time></trkpt>
<trkpt lat="50.649117" lon="5.760452"><time>2026-05-07T18:56:14Z</time></trkpt>
<trkpt lat="50.648992" lon="5.759571"><time>2026-05-07T19:06:14Z</time></trkpt>
<trkpt lat="50.648480" lon="5.759528"><time>2026-05-07T19:16:14Z</time></trkpt>
</trkseg>
</trk>
<trk>
<name>lhvbo26</name>
<cmt>v</cmt>
<desc>Bolland Chemin n°26 </desc>
<link href="https://chemins.be/bolland/chemin/26"/><trkseg>
<trkpt lat="50.652340" lon="5.760858"><time>2026-05-07T18:26:14Z</time></trkpt>
<trkpt lat="50.651896" lon="5.760364"><time>2026-05-07T18:36:14Z</time></trkpt>
<trkpt lat="50.651655" lon="5.760258"><time>2026-05-07T18:46:14Z</time></trkpt>
</trkseg>
</trk>
<trk>
<name>lhvbo27</name>
<cmt>v</cmt>
<desc>Bolland Chemin n°27 </desc>
<link href="https://chemins.be/bolland/chemin/27"/><trkseg>
<trkpt lat="50.654190" lon="5.758627"><time>2026-05-07T18:26:14Z</time></trkpt>
<trkpt lat="50.653695" lon="5.756932"><time>2026-05-07T18:36:14Z</time></trkpt>
</trkseg>
</trk>
<trk>
<name>lhvbo28</name>
<cmt>s</cmt>
<desc>Bolland Chemin n°28 </desc>
<link href="https://chemins.be/bolland/chemin/28"/><trkseg>
<trkpt lat="50.647711" lon="5.769968"><time>2026-05-07T18:26:14Z</time></trkpt>
<trkpt lat="50.645276" lon="5.770376"><time>2026-05-07T18:36:14Z</time></trkpt>
<trkpt lat="50.642840" lon="5.768101"><time>2026-05-07T18:46:14Z</time></trkpt>
<trkpt lat="50.642323" lon="5.768144"><time>2026-05-07T18:56:14Z</time></trkpt>
<trkpt lat="50.642146" lon="5.768230"><time>2026-05-07T19:06:14Z</time></trkpt>
</trkseg>
</trk>
<trk>
<name>lhvbo29</name>
<cmt>q</cmt>
<desc>Bolland Chemin n°29 </desc>
<link href="https://chemins.be/bolland/chemin/29"/><trkseg>
<trkpt lat="50.657273" lon="5.763408"><time>2026-05-07T18:26:14Z</time></trkpt>
<trkpt lat="50.657420" lon="5.763879"><time>2026-05-07T18:36:14Z</time></trkpt>
<trkpt lat="50.657340" lon="5.764598"><time>2026-05-07T18:46:14Z</time></trkpt>
<trkpt lat="50.656381" lon="5.765772"><time>2026-05-07T18:56:14Z</time></trkpt>
<trkpt lat="50.655571" lon="5.767347"><time>2026-05-07T19:06:14Z</time></trkpt>
</trkseg>
</trk>
<trk>
<name>lhvbo3</name>
<cmt>r</cmt>
<desc>Bolland Chemin n°3 Rue Haute-Hez / Chemin de Faschamps</desc>
<link href="https://chemins.be/bolland/chemin/3"/><trkseg>
<trkpt lat="50.663365" lon="5.754293"><time>2026-05-07T18:26:14Z</time></trkpt>
<trkpt lat="50.663705" lon="5.752040"><time>2026-05-07T18:36:14Z</time></trkpt>
<trkpt lat="50.664194" lon="5.750012"><time>2026-05-07T18:46:14Z</time></trkpt>
<trkpt lat="50.664256" lon="5.748167"><time>2026-05-07T18:56:14Z</time></trkpt>
<trkpt lat="50.664344" lon="5.747625"><time>2026-05-07T19:06:14Z</time></trkpt>
<trkpt lat="50.664677" lon="5.747159"><time>2026-05-07T19:16:14Z</time></trkpt>
<trkpt lat="50.665126" lon="5.746214"><time>2026-05-07T19:26:14Z</time></trkpt>
</trkseg></trk>
<trk>
<name>lhvbo3</name>
<cmt>v</cmt>
<desc>Bolland Chemin n°3 Rue Haute-Hez / Chemin de Faschamps</desc>
<link href="https://chemins.be/bolland/chemin/3"/><trkseg>
<trkpt lat="50.665126" lon="5.746214"><time>2026-05-07T19:26:14Z</time></trkpt>
<trkpt lat="50.665842" lon="5.744476"><time>2026-05-07T19:36:14Z</time></trkpt>
<trkpt lat="50.666280" lon="5.742435"><time>2026-05-07T19:46:14Z</time></trkpt>
<trkpt lat="50.666348" lon="5.742336"><time>2026-05-07T19:56:14Z</time></trkpt>
</trkseg></trk>
<trk>
<name>lhvbo3</name>
<cmt>s</cmt>
<desc>Bolland Chemin n°3 Rue Haute-Hez / Chemin de Faschamps</desc>
<link href="https://chemins.be/bolland/chemin/3"/><trkseg>
<trkpt lat="50.666348" lon="5.742336"><time>2026-05-07T19:56:14Z</time></trkpt>
<trkpt lat="50.666500" lon="5.741054"><time>2026-05-07T20:06:14Z</time></trkpt>
</trkseg>
</trk>
<trk>
<name>lhvbo30</name>
<cmt>q</cmt>
<desc>Bolland Chemin n°30 </desc>
<link href="https://chemins.be/bolland/chemin/30"/><trkseg>
<trkpt lat="50.654886" lon="5.771584"><time>2026-05-07T18:26:14Z</time></trkpt>
<trkpt lat="50.654539" lon="5.771033"><time>2026-05-07T18:36:14Z</time></trkpt>
<trkpt lat="50.652424" lon="5.773247"><time>2026-05-07T18:46:14Z</time></trkpt>
<trkpt lat="50.650960" lon="5.774397"><time>2026-05-07T18:56:14Z</time></trkpt>
<trkpt lat="50.648407" lon="5.775749"><time>2026-05-07T19:06:14Z</time></trkpt>
<trkpt lat="50.646611" lon="5.775749"><time>2026-05-07T19:16:14Z</time></trkpt>
</trkseg>
</trk>
<trk>
<name>lhvbo31</name>
<cmt>v</cmt>
<desc>Bolland Chemin n°31 Sarémont / sentier 140</desc>
<link href="https://chemins.be/bolland/chemin/31"/><trkseg>
<trkpt lat="50.654216" lon="5.772403"><time>2026-05-07T18:26:14Z</time></trkpt>
<trkpt lat="50.655563" lon="5.773365"><time>2026-05-07T18:36:14Z</time></trkpt>
<trkpt lat="50.656300" lon="5.773970"><time>2026-05-07T18:46:14Z</time></trkpt>
<trkpt lat="50.657370" lon="5.775389"><time>2026-05-07T18:56:14Z</time></trkpt>
<trkpt lat="50.657733" lon="5.775744"><time>2026-05-07T19:06:14Z</time></trkpt>
</trkseg>
</trk>
<trk>
<name>lhvbo32</name>
<cmt>q</cmt>
<desc>Bolland Chemin n°32 </desc>
<link href="https://chemins.be/bolland/chemin/32"/><trkseg>
<trkpt lat="50.655497" lon="5.757569"><time>2026-05-07T18:26:14Z</time></trkpt>
<trkpt lat="50.657689" lon="5.753157"><time>2026-05-07T18:36:14Z</time></trkpt>
</trkseg>
</trk>
<trk>
<name>lhvbo33</name>
<cmt>v</cmt>
<desc>Bolland Chemin n°33 Bois de Lescours</desc>
<link href="https://chemins.be/bolland/chemin/33"/><trkseg>
<trkpt lat="50.655442" lon="5.768375"><time>2026-05-07T18:26:14Z</time></trkpt>
<trkpt lat="50.655146" lon="5.768338"><time>2026-05-07T18:36:14Z</time></trkpt>
<trkpt lat="50.655085" lon="5.768124"><time>2026-05-07T18:46:14Z</time></trkpt>
<trkpt lat="50.655534" lon="5.767430"><time>2026-05-07T18:56:14Z</time></trkpt>
</trkseg>
</trk>
<trk>
<name>lhvbo33bis</name>
<cmt>q</cmt>
<desc>Bolland Sentier n°33bis </desc>
<link href="https://chemins.be/bolland/sentier/33bis"/><trkseg>
<trkpt lat="50.654319" lon="5.769049"><time>2026-05-07T18:26:14Z</time></trkpt>
<trkpt lat="50.654849" lon="5.768372"><time>2026-05-07T18:36:14Z</time></trkpt>
</trkseg>
</trk>
<trk>
<name>lhvbo34</name>
<cmt>v</cmt>
<desc>Bolland Chemin n°34 </desc>
<link href="https://chemins.be/bolland/chemin/34"/><trkseg>
<trkpt lat="50.665893" lon="5.751724"><time>2026-05-07T18:26:14Z</time></trkpt>
<trkpt lat="50.666240" lon="5.748462"><time>2026-05-07T18:36:14Z</time></trkpt>
</trkseg>
</trk>
<trk>
<name>lhvbo35</name>
<cmt>q</cmt>
<desc>Bolland Sentier n°35 </desc>
<link href="https://chemins.be/bolland/sentier/35"/><trkseg>
<trkpt lat="50.661402" lon="5.758893"><time>2026-05-07T18:26:14Z</time></trkpt>
<trkpt lat="50.661726" lon="5.758722"><time>2026-05-07T18:36:14Z</time></trkpt>
</trkseg>
</trk>
<trk>
<name>lhvbo37</name>
<cmt>q</cmt>
<desc>Bolland Chemin n°37 </desc>
<link href="https://chemins.be/bolland/chemin/37"/><trkseg>
<trkpt lat="50.649186" lon="5.760670"><time>2026-05-07T18:26:14Z</time></trkpt>
<trkpt lat="50.649510" lon="5.759902"><time>2026-05-07T18:36:14Z</time></trkpt>
<trkpt lat="50.649883" lon="5.758237"><time>2026-05-07T18:46:14Z</time></trkpt>
</trkseg>
</trk>
<trk>
<name>lhvbo38</name>
<cmt>q</cmt>
<desc>Bolland Sentier n°38 </desc>
<link href="https://chemins.be/bolland/sentier/38"/><trkseg>
<trkpt lat="50.659099" lon="5.750522"><time>2026-05-07T18:26:14Z</time></trkpt>
<trkpt lat="50.658663" lon="5.751389"><time>2026-05-07T18:36:14Z</time></trkpt>
<trkpt lat="50.658625" lon="5.751852"><time>2026-05-07T18:46:14Z</time></trkpt>
<trkpt lat="50.657831" lon="5.749810"><time>2026-05-07T18:56:14Z</time></trkpt>
<trkpt lat="50.657031" lon="5.750204"><time>2026-05-07T19:06:14Z</time></trkpt>
</trkseg>
</trk>
<trk>
<name>lhvbo39</name>
<cmt>q</cmt>
<desc>Bolland Chemin n°39 </desc>
<link href="https://chemins.be/bolland/chemin/39"/><trkseg>
<trkpt lat="50.654503" lon="5.771051"><time>2026-05-07T18:26:14Z</time></trkpt>
<trkpt lat="50.654287" lon="5.770289"><time>2026-05-07T18:36:14Z</time></trkpt>
<trkpt lat="50.654285" lon="5.769556"><time>2026-05-07T18:46:14Z</time></trkpt>
<trkpt lat="50.654020" lon="5.769595"><time>2026-05-07T18:56:14Z</time></trkpt>
<trkpt lat="50.653911" lon="5.769356"><time>2026-05-07T19:06:14Z</time></trkpt>
</trkseg>
</trk>
<trk>
<name>lhvbo4</name>
<cmt>s</cmt>
<desc>Bolland Chemin n°4 </desc>
<link href="https://chemins.be/bolland/chemin/4"/><trkseg>
<trkpt lat="50.660977" lon="5.750851"><time>2026-05-07T18:26:14Z</time></trkpt>
<trkpt lat="50.661704" lon="5.748250"><time>2026-05-07T18:36:14Z</time></trkpt>
<trkpt lat="50.661783" lon="5.747409"><time>2026-05-07T18:46:14Z</time></trkpt>
<trkpt lat="50.661460" lon="5.746963"><time>2026-05-07T18:56:14Z</time></trkpt>
</trkseg>
</trk>
<trk>
<name>lhvbo41</name>
<cmt>q</cmt>
<desc>Bolland Sentier n°41 </desc>
<link href="https://chemins.be/bolland/sentier/41"/><trkseg>
<trkpt lat="50.673815" lon="5.743952"><time>2026-05-07T18:26:14Z</time></trkpt>
<trkpt lat="50.672877" lon="5.741985"><time>2026-05-07T18:36:14Z</time></trkpt>
<trkpt lat="50.671902" lon="5.740433"><time>2026-05-07T18:46:14Z</time></trkpt>
</trkseg>
</trk>
<trk>
<name>lhvbo42</name>
<cmt>v</cmt>
<desc>Bolland Chemin n°42 </desc>
<link href="https://chemins.be/bolland/chemin/42"/><trkseg>
<trkpt lat="50.673779" lon="5.744087"><time>2026-05-07T18:26:14Z</time></trkpt>
<trkpt lat="50.674081" lon="5.744312"><time>2026-05-07T18:36:14Z</time></trkpt>
<trkpt lat="50.674214" lon="5.744682"><time>2026-05-07T18:46:14Z</time></trkpt>
<trkpt lat="50.674282" lon="5.744945"><time>2026-05-07T18:56:14Z</time></trkpt>
</trkseg>
</trk>
<trk>
<name>lhvbo43</name>
<cmt>q</cmt>
<desc>Bolland Sentier n°43 </desc>
<link href="https://chemins.be/bolland/sentier/43"/><trkseg>
<trkpt lat="50.670029" lon="5.743302"><time>2026-05-07T18:26:14Z</time></trkpt>
<trkpt lat="50.671509" lon="5.741532"><time>2026-05-07T18:36:14Z</time></trkpt>
<trkpt lat="50.672458" lon="5.740198"><time>2026-05-07T18:46:14Z</time></trkpt>
</trkseg>
</trk>
<trk>
<name>lhvbo44</name>
<cmt>q</cmt>
<desc>Bolland Sentier n°44 </desc>
<link href="https://chemins.be/bolland/sentier/44"/><trkseg>
<trkpt lat="50.667911" lon="5.736564"><time>2026-05-07T18:26:14Z</time></trkpt>
<trkpt lat="50.668582" lon="5.735620"><time>2026-05-07T18:36:14Z</time></trkpt>
</trkseg>
</trk>
<trk>
<name>lhvbo45</name>
<cmt>q</cmt>
<desc>Bolland Sentier n°45 </desc>
<link href="https://chemins.be/bolland/sentier/45"/><trkseg>
<trkpt lat="50.668782" lon="5.750635"><time>2026-05-07T18:26:14Z</time></trkpt>
<trkpt lat="50.670482" lon="5.748446"><time>2026-05-07T18:36:14Z</time></trkpt>
<trkpt lat="50.671248" lon="5.748113"><time>2026-05-07T18:46:14Z</time></trkpt>
<trkpt lat="50.672621" lon="5.748167"><time>2026-05-07T18:56:14Z</time></trkpt>
</trkseg></trk>
<trk>
<name>lhvbo45</name>
<cmt>r</cmt>
<desc>Bolland Sentier n°45 </desc>
<link href="https://chemins.be/bolland/sentier/45"/><trkseg>
<trkpt lat="50.672621" lon="5.748167"><time>2026-05-07T18:56:14Z</time></trkpt>
<trkpt lat="50.673311" lon="5.748103"><time>2026-05-07T19:06:14Z</time></trkpt>
</trkseg></trk>
<trk>
<name>lhvbo45</name>
<cmt>q</cmt>
<desc>Bolland Sentier n°45 </desc>
<link href="https://chemins.be/bolland/sentier/45"/><trkseg>
<trkpt lat="50.673311" lon="5.748103"><time>2026-05-07T19:06:14Z</time></trkpt>
<trkpt lat="50.673284" lon="5.747716"><time>2026-05-07T19:16:14Z</time></trkpt>
<trkpt lat="50.674071" lon="5.745645"><time>2026-05-07T19:26:14Z</time></trkpt>
<trkpt lat="50.674121" lon="5.745655"><time>2026-05-07T19:36:14Z</time></trkpt>
<trkpt lat="50.674301" lon="5.744965"><time>2026-05-07T19:46:14Z</time></trkpt>
<trkpt lat="50.674411" lon="5.744585"><time>2026-05-07T19:56:14Z</time></trkpt>
<trkpt lat="50.674751" lon="5.743845"><time>2026-05-07T20:06:14Z</time></trkpt>
<trkpt lat="50.674852" lon="5.743203"><time>2026-05-07T20:16:14Z</time></trkpt>
<trkpt lat="50.675593" lon="5.740483"><time>2026-05-07T20:26:14Z</time></trkpt>
</trkseg>
</trk>
<trk>
<name>lhvbo46</name>
<cmt>v</cmt>
<desc>Bolland Sentier n°46 </desc>
<link href="https://chemins.be/bolland/sentier/46"/><trkseg>
<trkpt lat="50.664717" lon="5.753009"><time>2026-05-07T18:26:14Z</time></trkpt>
<trkpt lat="50.664670" lon="5.752910"><time>2026-05-07T18:36:14Z</time></trkpt>
<trkpt lat="50.664610" lon="5.752759"><time>2026-05-07T18:46:14Z</time></trkpt>
<trkpt lat="50.664483" lon="5.752451"><time>2026-05-07T18:56:14Z</time></trkpt>
<trkpt lat="50.664386" lon="5.752120"><time>2026-05-07T19:06:14Z</time></trkpt>
<trkpt lat="50.664063" lon="5.751270"><time>2026-05-07T19:16:14Z</time></trkpt>
<trkpt lat="50.664024" lon="5.751220"><time>2026-05-07T19:26:14Z</time></trkpt>
<trkpt lat="50.663961" lon="5.751159"><time>2026-05-07T19:36:14Z</time></trkpt>
</trkseg>
</trk>
<trk>
<name>lhvbo47</name>
<cmt>q</cmt>
<desc>Bolland Sentier n°47 </desc>
<link href="https://chemins.be/bolland/sentier/47"/><trkseg>
<trkpt lat="50.664809" lon="5.753017"><time>2026-05-07T18:26:14Z</time></trkpt>
<trkpt lat="50.665529" lon="5.753072"><time>2026-05-07T18:36:14Z</time></trkpt>
<trkpt lat="50.666340" lon="5.753597"><time>2026-05-07T18:46:14Z</time></trkpt>
<trkpt lat="50.666648" lon="5.754177"><time>2026-05-07T18:56:14Z</time></trkpt>
<trkpt lat="50.667947" lon="5.756355"><time>2026-05-07T19:06:14Z</time></trkpt>
</trkseg>
</trk>
<trk>
<name>lhvbo47bis</name>
<cmt>q</cmt>
<desc>Bolland Sentier n°47bis </desc>
<link href="https://chemins.be/bolland/sentier/47bis"/><trkseg>
<trkpt lat="50.666361" lon="5.753621"><time>2026-05-07T18:26:14Z</time></trkpt>
<trkpt lat="50.668139" lon="5.753541"><time>2026-05-07T18:36:14Z</time></trkpt>
</trkseg>
</trk>
<trk>
<name>lhvbo48</name>
<cmt>q</cmt>
<desc>Bolland Sentier n°48 </desc>
<link href="https://chemins.be/bolland/sentier/48"/><trkseg>
<trkpt lat="50.665281" lon="5.761626"><time>2026-05-07T18:26:14Z</time></trkpt>
<trkpt lat="50.666301" lon="5.761530"><time>2026-05-07T18:36:14Z</time></trkpt>
<trkpt lat="50.668062" lon="5.762292"><time>2026-05-07T18:46:14Z</time></trkpt>
</trkseg>
</trk>
<trk>
<name>lhvbo49</name>
<cmt>v</cmt>
<desc>Bolland Sentier n°49 Fosse Moray</desc>
<link href="https://chemins.be/bolland/sentier/49"/><trkseg>
<trkpt lat="50.665510" lon="5.764090"><time>2026-05-07T18:26:14Z</time></trkpt>
<trkpt lat="50.665473" lon="5.764938"><time>2026-05-07T18:36:14Z</time></trkpt>
<trkpt lat="50.665548" lon="5.765379"><time>2026-05-07T18:46:14Z</time></trkpt>
<trkpt lat="50.665483" lon="5.766311"><time>2026-05-07T18:56:14Z</time></trkpt>
<trkpt lat="50.665312" lon="5.767098"><time>2026-05-07T19:06:14Z</time></trkpt>
<trkpt lat="50.665461" lon="5.767442"><time>2026-05-07T19:16:14Z</time></trkpt>
<trkpt lat="50.665733" lon="5.767959"><time>2026-05-07T19:26:14Z</time></trkpt>
</trkseg>
</trk>
<trk>
<name>lhvbo5</name>
<cmt>v</cmt>
<desc>Bolland Chemin n°5 Basse Hez</desc>
<link href="https://chemins.be/bolland/chemin/5"/><trkseg>
<trkpt lat="50.661457" lon="5.755858"><time>2026-05-07T18:26:14Z</time></trkpt>
<trkpt lat="50.661430" lon="5.755747"><time>2026-05-07T18:36:14Z</time></trkpt>
<trkpt lat="50.661444" lon="5.755590"><time>2026-05-07T18:46:14Z</time></trkpt>
<trkpt lat="50.661517" lon="5.755262"><time>2026-05-07T18:56:14Z</time></trkpt>
<trkpt lat="50.661601" lon="5.755095"><time>2026-05-07T19:06:14Z</time></trkpt>
</trkseg></trk>
<trk>
<name>lhvbo5</name>
<cmt>s</cmt>
<desc>Bolland Chemin n°5 Basse Hez</desc>
<link href="https://chemins.be/bolland/chemin/5"/><trkseg>
<trkpt lat="50.661601" lon="5.755095"><time>2026-05-07T19:06:14Z</time></trkpt>
<trkpt lat="50.661571" lon="5.752198"><time>2026-05-07T19:16:14Z</time></trkpt>
<trkpt lat="50.662091" lon="5.749048"><time>2026-05-07T19:26:14Z</time></trkpt>
<trkpt lat="50.661688" lon="5.748409"><time>2026-05-07T19:36:14Z</time></trkpt>
</trkseg>
</trk>
<trk>
<name>lhvbo50</name>
<cmt>q</cmt>
<desc>Bolland Sentier n°50 </desc>
<link href="https://chemins.be/bolland/sentier/50"/><trkseg>
<trkpt lat="50.668289" lon="5.758012"><time>2026-05-07T18:26:14Z</time></trkpt>
<trkpt lat="50.669203" lon="5.758564"><time>2026-05-07T18:36:14Z</time></trkpt>
</trkseg>
</trk>
<trk>
<name>lhvbo51</name>
<cmt>v</cmt>
<desc>Bolland Sentier n°51 </desc>
<link href="https://chemins.be/bolland/sentier/51"/><trkseg>
<trkpt lat="50.664104" lon="5.750831"><time>2026-05-07T18:26:15Z</time></trkpt>
<trkpt lat="50.663549" lon="5.750634"><time>2026-05-07T18:36:15Z</time></trkpt>
<trkpt lat="50.663342" lon="5.750250"><time>2026-05-07T18:46:15Z</time></trkpt>
<trkpt lat="50.662097" lon="5.749097"><time>2026-05-07T18:56:15Z</time></trkpt>
</trkseg>
</trk>
<trk>
<name>lhvbo52</name>
<cmt>v</cmt>
<desc>Bolland Sentier n°52 sentier 52</desc>
<link href="https://chemins.be/bolland/sentier/52"/><trkseg>
<trkpt lat="50.661146" lon="5.762094"><time>2026-05-07T18:26:15Z</time></trkpt>
<trkpt lat="50.661265" lon="5.763399"><time>2026-05-07T18:36:15Z</time></trkpt>
<trkpt lat="50.661272" lon="5.764333"><time>2026-05-07T18:46:15Z</time></trkpt>
<trkpt lat="50.661181" lon="5.767442"><time>2026-05-07T18:56:15Z</time></trkpt>
<trkpt lat="50.660980" lon="5.769968"><time>2026-05-07T19:06:15Z</time></trkpt>
<trkpt lat="50.660875" lon="5.771196"><time>2026-05-07T19:16:15Z</time></trkpt>
<trkpt lat="50.660953" lon="5.771425"><time>2026-05-07T19:26:15Z</time></trkpt>
<trkpt lat="50.660531" lon="5.773392"><time>2026-05-07T19:36:15Z</time></trkpt>
</trkseg></trk>
<trk>
<name>lhvbo52</name>
<cmt>r</cmt>
<desc>Bolland Sentier n°52 sentier 52</desc>
<link href="https://chemins.be/bolland/sentier/52"/><trkseg>
<trkpt lat="50.660531" lon="5.773392"><time>2026-05-07T19:36:15Z</time></trkpt>
<trkpt lat="50.660934" lon="5.773528"><time>2026-05-07T19:46:15Z</time></trkpt>
</trkseg></trk>
<trk>
<name>lhvbo52</name>
<cmt>d</cmt>
<desc>Bolland Sentier n°52 sentier 52</desc>
<link href="https://chemins.be/bolland/sentier/52"/><trkseg>
<trkpt lat="50.660934" lon="5.773528"><time>2026-05-07T19:46:15Z</time></trkpt>
<trkpt lat="50.660649" lon="5.777137"><time>2026-05-07T19:56:15Z</time></trkpt>
</trkseg></trk>
<trk>
<name>lhvbo52</name>
<cmt>v</cmt>
<desc>Bolland Sentier n°52 sentier 52</desc>
<link href="https://chemins.be/bolland/sentier/52"/><trkseg>
<trkpt lat="50.660649" lon="5.777137"><time>2026-05-07T19:56:15Z</time></trkpt>
<trkpt lat="50.659869" lon="5.779372"><time>2026-05-07T20:06:15Z</time></trkpt>
</trkseg>
</trk>
<trk>
<name>lhvbo53</name>
<cmt>v</cmt>
<desc>Bolland Sentier n°53 Sur le Thier / sentier 53</desc>
<link href="https://chemins.be/bolland/sentier/53"/><trkseg>
<trkpt lat="50.661783" lon="5.758311"><time>2026-05-07T18:26:15Z</time></trkpt>
<trkpt lat="50.661815" lon="5.758341"><time>2026-05-07T18:36:15Z</time></trkpt>
<trkpt lat="50.661902" lon="5.758340"><time>2026-05-07T18:46:15Z</time></trkpt>
<trkpt lat="50.662018" lon="5.758496"><time>2026-05-07T18:56:15Z</time></trkpt>
<trkpt lat="50.662266" lon="5.758362"><time>2026-05-07T19:06:15Z</time></trkpt>
<trkpt lat="50.662468" lon="5.758226"><time>2026-05-07T19:16:15Z</time></trkpt>
<trkpt lat="50.662841" lon="5.758083"><time>2026-05-07T19:26:15Z</time></trkpt>
<trkpt lat="50.663038" lon="5.758036"><time>2026-05-07T19:36:15Z</time></trkpt>
<trkpt lat="50.663237" lon="5.758461"><time>2026-05-07T19:46:15Z</time></trkpt>
<trkpt lat="50.663857" lon="5.758675"><time>2026-05-07T19:56:15Z</time></trkpt>
</trkseg></trk>
<trk>
<name>lhvbo53</name>
<cmt>q</cmt>
<desc>Bolland Sentier n°53 Sur le Thier / sentier 53</desc>
<link href="https://chemins.be/bolland/sentier/53"/><trkseg>
<trkpt lat="50.663857" lon="5.758675"><time>2026-05-07T19:56:15Z</time></trkpt>
<trkpt lat="50.665126" lon="5.760440"><time>2026-05-07T20:06:15Z</time></trkpt>
</trkseg>
</trk>
<trk>
<name>lhvbo54</name>
<cmt>v</cmt>
<desc>Bolland Sentier n°54 sentier 53</desc>
<link href="https://chemins.be/bolland/sentier/54"/><trkseg>
<trkpt lat="50.661808" lon="5.759009"><time>2026-05-07T18:26:15Z</time></trkpt>
<trkpt lat="50.663253" lon="5.758500"><time>2026-05-07T18:36:15Z</time></trkpt>
<trkpt lat="50.663892" lon="5.758675"><time>2026-05-07T18:46:15Z</time></trkpt>
<trkpt lat="50.664831" lon="5.758352"><time>2026-05-07T18:56:15Z</time></trkpt>
</trkseg>
</trk>
<trk>
<name>lhvbo55</name>
<cmt>v</cmt>
<desc>Bolland Sentier n°55 Vieux Couvent</desc>
<link href="https://chemins.be/bolland/sentier/55"/><trkseg>
<trkpt lat="50.662828" lon="5.771200"><time>2026-05-07T18:26:15Z</time></trkpt>
<trkpt lat="50.661920" lon="5.774665"><time>2026-05-07T18:36:15Z</time></trkpt>
</trkseg></trk>
<trk>
<name>lhvbo55</name>
<cmt>q</cmt>
<desc>Bolland Sentier n°55 Vieux Couvent</desc>
<link href="https://chemins.be/bolland/sentier/55"/><trkseg>
<trkpt lat="50.661920" lon="5.774665"><time>2026-05-07T18:36:15Z</time></trkpt>
<trkpt lat="50.660659" lon="5.777116"><time>2026-05-07T18:46:15Z</time></trkpt>
</trkseg></trk>
<trk>
<name>lhvbo55</name>
<cmt>v</cmt>
<desc>Bolland Sentier n°55 Vieux Couvent</desc>
<link href="https://chemins.be/bolland/sentier/55"/><trkseg>
<trkpt lat="50.660659" lon="5.777116"><time>2026-05-07T18:46:15Z</time></trkpt>
<trkpt lat="50.659186" lon="5.778168"><time>2026-05-07T18:56:15Z</time></trkpt>
</trkseg>
</trk>
<trk>
<name>lhvbo56</name>
<cmt>v</cmt>
<desc>Bolland Sentier n°56 sentier 140</desc>
<link href="https://chemins.be/bolland/sentier/56"/><trkseg>
<trkpt lat="50.660148" lon="5.779436"><time>2026-05-07T18:26:15Z</time></trkpt>
<trkpt lat="50.660008" lon="5.779169"><time>2026-05-07T18:36:15Z</time></trkpt>
<trkpt lat="50.659616" lon="5.778903"><time>2026-05-07T18:46:15Z</time></trkpt>
<trkpt lat="50.659181" lon="5.778162"><time>2026-05-07T18:56:15Z</time></trkpt>
<trkpt lat="50.659100" lon="5.777848"><time>2026-05-07T19:06:15Z</time></trkpt>
<trkpt lat="50.658167" lon="5.775923"><time>2026-05-07T19:16:15Z</time></trkpt>
<trkpt lat="50.657630" lon="5.775711"><time>2026-05-07T19:26:15Z</time></trkpt>
</trkseg></trk>
<trk>
<name>lhvbo56</name>
<cmt>q</cmt>
<desc>Bolland Sentier n°56 sentier 140</desc>
<link href="https://chemins.be/bolland/sentier/56"/><trkseg>
<trkpt lat="50.657630" lon="5.775711"><time>2026-05-07T19:26:15Z</time></trkpt>
<trkpt lat="50.657307" lon="5.773790"><time>2026-05-07T19:36:15Z</time></trkpt>
<trkpt lat="50.657521" lon="5.771424"><time>2026-05-07T19:46:15Z</time></trkpt>
</trkseg>
</trk>
<trk>
<name>lhvbo57</name>
<cmt>d</cmt>
<desc>Bolland Sentier n°57 </desc>
<link href="https://chemins.be/bolland/sentier/57"/><trkseg>
<trkpt lat="50.659712" lon="5.773011"><time>2026-05-07T18:26:15Z</time></trkpt>
<trkpt lat="50.658587" lon="5.773441"><time>2026-05-07T18:36:15Z</time></trkpt>
<trkpt lat="50.658052" lon="5.774614"><time>2026-05-07T18:46:15Z</time></trkpt>
<trkpt lat="50.657771" lon="5.774900"><time>2026-05-07T18:56:15Z</time></trkpt>
<trkpt lat="50.657735" lon="5.775701"><time>2026-05-07T19:06:15Z</time></trkpt>
<trkpt lat="50.654896" lon="5.776969"><time>2026-05-07T19:16:15Z</time></trkpt>
</trkseg>
</trk>
<trk>
<name>lhvbo58</name>
<cmt>q</cmt>
<desc>Bolland Sentier n°58 </desc>
<link href="https://chemins.be/bolland/sentier/58"/><trkseg>
<trkpt lat="50.662596" lon="5.778597"><time>2026-05-07T18:26:15Z</time></trkpt>
<trkpt lat="50.661429" lon="5.777746"><time>2026-05-07T18:36:15Z</time></trkpt>
<trkpt lat="50.661316" lon="5.775703"><time>2026-05-07T18:46:15Z</time></trkpt>
</trkseg>
</trk>
<trk>
<name>lhvbo59</name>
<cmt>v</cmt>
<desc>Bolland Sentier n°59 Rue Lescours / Bois de Lescours</desc>
<link href="https://chemins.be/bolland/sentier/59"/><trkseg>
<trkpt lat="50.651729" lon="5.762339"><time>2026-05-07T18:26:15Z</time></trkpt>
<trkpt lat="50.654577" lon="5.764036"><time>2026-05-07T18:36:15Z</time></trkpt>
<trkpt lat="50.655663" lon="5.764917"><time>2026-05-07T18:46:15Z</time></trkpt>
<trkpt lat="50.655400" lon="5.765163"><time>2026-05-07T18:56:15Z</time></trkpt>
<trkpt lat="50.655468" lon="5.765462"><time>2026-05-07T19:06:15Z</time></trkpt>
<trkpt lat="50.655376" lon="5.766407"><time>2026-05-07T19:16:15Z</time></trkpt>
<trkpt lat="50.655474" lon="5.767188"><time>2026-05-07T19:26:15Z</time></trkpt>
</trkseg></trk>
<trk>
<name>lhvbo59</name>
<cmt>d</cmt>
<desc>Bolland Sentier n°59 Rue Lescours / Bois de Lescours</desc>
<link href="https://chemins.be/bolland/sentier/59"/><trkseg>
<trkpt lat="50.655474" lon="5.767188"><time>2026-05-07T19:26:15Z</time></trkpt>
<trkpt lat="50.655894" lon="5.767720"><time>2026-05-07T19:36:15Z</time></trkpt>
<trkpt lat="50.655948" lon="5.768049"><time>2026-05-07T19:46:15Z</time></trkpt>
</trkseg>
</trk>
<trk>
<name>lhvbo6</name>
<cmt>v</cmt>
<desc>Bolland Chemin n°6 </desc>
<link href="https://chemins.be/bolland/chemin/6"/><trkseg>
<trkpt lat="50.676207" lon="5.744858"><time>2026-05-07T18:26:15Z</time></trkpt>
<trkpt lat="50.676321" lon="5.745373"><time>2026-05-07T18:36:15Z</time></trkpt>
<trkpt lat="50.676271" lon="5.745510"><time>2026-05-07T18:46:15Z</time></trkpt>
<trkpt lat="50.676220" lon="5.745617"><time>2026-05-07T18:56:15Z</time></trkpt>
<trkpt lat="50.675867" lon="5.746174"><time>2026-05-07T19:06:15Z</time></trkpt>
<trkpt lat="50.675761" lon="5.746610"><time>2026-05-07T19:16:15Z</time></trkpt>
</trkseg>
</trk>
<trk>
<name>lhvbo60</name>
<cmt>q</cmt>
<desc>Bolland Sentier n°60 </desc>
<link href="https://chemins.be/bolland/sentier/60"/><trkseg>
<trkpt lat="50.654275" lon="5.772366"><time>2026-05-07T18:26:15Z</time></trkpt>
<trkpt lat="50.652081" lon="5.770592"><time>2026-05-07T18:36:15Z</time></trkpt>
</trkseg>
</trk>
<trk>
<name>lhvbo61</name>
<cmt>q</cmt>
<desc>Bolland Sentier n°61 </desc>
<link href="https://chemins.be/bolland/sentier/61"/><trkseg>
<trkpt lat="50.655781" lon="5.770175"><time>2026-05-07T18:26:15Z</time></trkpt>
<trkpt lat="50.655049" lon="5.769803"><time>2026-05-07T18:36:15Z</time></trkpt>
<trkpt lat="50.654339" lon="5.770496"><time>2026-05-07T18:46:15Z</time></trkpt>
<trkpt lat="50.654292" lon="5.770302"><time>2026-05-07T18:56:15Z</time></trkpt>
<trkpt lat="50.654294" lon="5.769563"><time>2026-05-07T19:06:15Z</time></trkpt>
<trkpt lat="50.654002" lon="5.769572"><time>2026-05-07T19:16:15Z</time></trkpt>
<trkpt lat="50.653890" lon="5.769335"><time>2026-05-07T19:26:15Z</time></trkpt>
<trkpt lat="50.653409" lon="5.768478"><time>2026-05-07T19:36:15Z</time></trkpt>
</trkseg>
</trk>
<trk>
<name>lhvbo62</name>
<cmt>q</cmt>
<desc>Bolland Sentier n°62 Rue Lescours</desc>
<link href="https://chemins.be/bolland/sentier/62"/><trkseg>
<trkpt lat="50.660947" lon="5.761709"><time>2026-05-07T18:26:15Z</time></trkpt>
<trkpt lat="50.660009" lon="5.762027"><time>2026-05-07T18:36:15Z</time></trkpt>
<trkpt lat="50.658223" lon="5.763057"><time>2026-05-07T18:46:15Z</time></trkpt>
<trkpt lat="50.657884" lon="5.762783"><time>2026-05-07T18:56:15Z</time></trkpt>
<trkpt lat="50.656741" lon="5.763971"><time>2026-05-07T19:06:15Z</time></trkpt>
<trkpt lat="50.654501" lon="5.765043"><time>2026-05-07T19:16:15Z</time></trkpt>
<trkpt lat="50.653168" lon="5.766646"><time>2026-05-07T19:26:15Z</time></trkpt>
</trkseg>
</trk>
<trk>
<name>lhvbo63</name>
<cmt>q</cmt>
<desc>Bolland Sentier n°63 </desc>
<link href="https://chemins.be/bolland/sentier/63"/><trkseg>
<trkpt lat="50.650330" lon="5.764977"><time>2026-05-07T18:26:15Z</time></trkpt>
<trkpt lat="50.651015" lon="5.765836"><time>2026-05-07T18:36:15Z</time></trkpt>
<trkpt lat="50.651151" lon="5.768117"><time>2026-05-07T18:46:15Z</time></trkpt>
</trkseg></trk>
<trk>
<name>lhvbo63</name>
<cmt>r</cmt>
<desc>Bolland Sentier n°63 </desc>
<link href="https://chemins.be/bolland/sentier/63"/><trkseg>
<trkpt lat="50.651151" lon="5.768117"><time>2026-05-07T18:46:15Z</time></trkpt>
<trkpt lat="50.651645" lon="5.767953"><time>2026-05-07T18:56:15Z</time></trkpt>
</trkseg></trk>
<trk>
<name>lhvbo63</name>
<cmt>q</cmt>
<desc>Bolland Sentier n°63 </desc>
<link href="https://chemins.be/bolland/sentier/63"/><trkseg>
<trkpt lat="50.651645" lon="5.767953"><time>2026-05-07T18:56:15Z</time></trkpt>
<trkpt lat="50.652004" lon="5.769762"><time>2026-05-07T19:06:15Z</time></trkpt>
<trkpt lat="50.652094" lon="5.770685"><time>2026-05-07T19:16:15Z</time></trkpt>
<trkpt lat="50.650974" lon="5.774412"><time>2026-05-07T19:26:15Z</time></trkpt>
</trkseg>
</trk>
<trk>
<name>lhvbo64</name>
<cmt>v</cmt>
<desc>Bolland Sentier n°64 </desc>
<link href="https://chemins.be/bolland/sentier/64"/><trkseg>
<trkpt lat="50.647950" lon="5.756486"><time>2026-05-07T18:26:15Z</time></trkpt>
<trkpt lat="50.648108" lon="5.758357"><time>2026-05-07T18:36:15Z</time></trkpt>
<trkpt lat="50.648428" lon="5.759442"><time>2026-05-07T18:46:15Z</time></trkpt>
<trkpt lat="50.648993" lon="5.759529"><time>2026-05-07T18:56:15Z</time></trkpt>
</trkseg></trk>
<trk>
<name>lhvbo64</name>
<cmt>d</cmt>
<desc>Bolland Sentier n°64 </desc>
<link href="https://chemins.be/bolland/sentier/64"/><trkseg>
<trkpt lat="50.648993" lon="5.759529"><time>2026-05-07T18:56:15Z</time></trkpt>
<trkpt lat="50.649501" lon="5.759898"><time>2026-05-07T19:06:15Z</time></trkpt>
<trkpt lat="50.650250" lon="5.760457"><time>2026-05-07T19:16:15Z</time></trkpt>
</trkseg></trk>
<trk>
<name>lhvbo64</name>
<cmt>q</cmt>
<desc>Bolland Sentier n°64 </desc>
<link href="https://chemins.be/bolland/sentier/64"/><trkseg>
<trkpt lat="50.650250" lon="5.760457"><time>2026-05-07T19:16:15Z</time></trkpt>
<trkpt lat="50.651057" lon="5.760580"><time>2026-05-07T19:26:15Z</time></trkpt>
<trkpt lat="50.651360" lon="5.760108"><time>2026-05-07T19:36:15Z</time></trkpt>
<trkpt lat="50.651619" lon="5.760229"><time>2026-05-07T19:46:15Z</time></trkpt>
</trkseg>
</trk>
<trk>
<name>lhvbo64bis</name>
<cmt>v</cmt>
<desc>Bolland Sentier n°64bis </desc>
<link href="https://chemins.be/bolland/sentier/64bis"/><trkseg>
<trkpt lat="50.648445" lon="5.759513"><time>2026-05-07T18:26:15Z</time></trkpt>
<trkpt lat="50.646524" lon="5.759994"><time>2026-05-07T18:36:15Z</time></trkpt>
</trkseg>
</trk>
<trk>
<name>lhvbo64ter</name>
<cmt>d</cmt>
<desc>Bolland Sentier n°64ter </desc>
<link href="https://chemins.be/bolland/sentier/64ter"/><trkseg>
<trkpt lat="50.649462" lon="5.761431"><time>2026-05-07T18:26:15Z</time></trkpt>
<trkpt lat="50.649962" lon="5.760272"><time>2026-05-07T18:36:15Z</time></trkpt>
</trkseg>
</trk>
<trk>
<name>lhvbo65</name>
<cmt>q</cmt>
<desc>Bolland Sentier n°65 </desc>
<link href="https://chemins.be/bolland/sentier/65"/><trkseg>
<trkpt lat="50.651633" lon="5.760187"><time>2026-05-07T18:26:15Z</time></trkpt>
<trkpt lat="50.651519" lon="5.759320"><time>2026-05-07T18:36:15Z</time></trkpt>
<trkpt lat="50.651785" lon="5.754513"><time>2026-05-07T18:46:15Z</time></trkpt>
</trkseg>
</trk>
<trk>
<name>lhvbo66</name>
<cmt>q</cmt>
<desc>Bolland Sentier n°66 </desc>
<link href="https://chemins.be/bolland/sentier/66"/><trkseg>
<trkpt lat="50.658863" lon="5.759059"><time>2026-05-07T18:26:15Z</time></trkpt>
<trkpt lat="50.659951" lon="5.759123"><time>2026-05-07T18:36:15Z</time></trkpt>
<trkpt lat="50.660736" lon="5.758651"><time>2026-05-07T18:46:15Z</time></trkpt>
</trkseg>
</trk>
<trk>
<name>lhvbo67</name>
<cmt>q</cmt>
<desc>Bolland Sentier n°67 </desc>
<link href="https://chemins.be/bolland/sentier/67"/><trkseg>
<trkpt lat="50.661188" lon="5.759740"><time>2026-05-07T18:26:15Z</time></trkpt>
<trkpt lat="50.660050" lon="5.756768"><time>2026-05-07T18:36:15Z</time></trkpt>
<trkpt lat="50.659115" lon="5.754324"><time>2026-05-07T18:46:15Z</time></trkpt>
<trkpt lat="50.658638" lon="5.751791"><time>2026-05-07T18:56:15Z</time></trkpt>
</trkseg>
</trk>
<trk>
<name>lhvbo68</name>
<cmt>q</cmt>
<desc>Bolland Sentier n°68 </desc>
<link href="https://chemins.be/bolland/sentier/68"/><trkseg>
<trkpt lat="50.660437" lon="5.754932"><time>2026-05-07T18:26:15Z</time></trkpt>
<trkpt lat="50.659924" lon="5.757385"><time>2026-05-07T18:36:15Z</time></trkpt>
<trkpt lat="50.659348" lon="5.759016"><time>2026-05-07T18:46:15Z</time></trkpt>
</trkseg>
</trk>
<trk>
<name>lhvbo9</name>
<cmt>v</cmt>
<desc>Bolland Chemin n°9 </desc>
<link href="https://chemins.be/bolland/chemin/9"/><trkseg>
<trkpt lat="50.668328" lon="5.732192"><time>2026-05-07T18:26:15Z</time></trkpt>
<trkpt lat="50.668550" lon="5.735374"><time>2026-05-07T18:36:15Z</time></trkpt>
<trkpt lat="50.668763" lon="5.736784"><time>2026-05-07T18:46:15Z</time></trkpt>
<trkpt lat="50.669742" lon="5.738608"><time>2026-05-07T18:56:15Z</time></trkpt>
<trkpt lat="50.670081" lon="5.739832"><time>2026-05-07T19:06:15Z</time></trkpt>
<trkpt lat="50.670245" lon="5.741633"><time>2026-05-07T19:16:15Z</time></trkpt>
</trkseg>
</trk>
<trk>
<name>lhvboi1</name>
<cmt>v</cmt>
<desc>Bolland Chemin n°i1 </desc>
<link href="https://chemins.be/bolland/chemin/i1"/><trkseg>
<trkpt lat="50.661186" lon="5.776992"><time>2026-05-07T18:26:15Z</time></trkpt>
<trkpt lat="50.660806" lon="5.777085"><time>2026-05-07T18:36:15Z</time></trkpt>
<trkpt lat="50.660629" lon="5.777153"><time>2026-05-07T18:46:15Z</time></trkpt>
</trkseg>
</trk>
<trk>
<name>lhvboi2</name>
<cmt>q</cmt>
<desc>Bolland Sentier n°i2 </desc>
<link href="https://chemins.be/bolland/sentier/i2"/><trkseg>
<trkpt lat="50.662925" lon="5.770899"><time>2026-05-07T18:26:15Z</time></trkpt>
<trkpt lat="50.663238" lon="5.770026"><time>2026-05-07T18:36:15Z</time></trkpt>
<trkpt lat="50.663614" lon="5.768689"><time>2026-05-07T18:46:15Z</time></trkpt>
<trkpt lat="50.663649" lon="5.768414"><time>2026-05-07T18:56:15Z</time></trkpt>
<trkpt lat="50.663532" lon="5.767853"><time>2026-05-07T19:06:15Z</time></trkpt>
<trkpt lat="50.663173" lon="5.766811"><time>2026-05-07T19:16:15Z</time></trkpt>
<trkpt lat="50.662817" lon="5.765614"><time>2026-05-07T19:26:15Z</time></trkpt>
<trkpt lat="50.662587" lon="5.764574"><time>2026-05-07T19:36:15Z</time></trkpt>
<trkpt lat="50.662642" lon="5.763271"><time>2026-05-07T19:46:15Z</time></trkpt>
</trkseg>
</trk>
<trk>
<name>lhvboi3</name>
<cmt>v</cmt>
<desc>Bolland Sentier n°i3 </desc>
<link href="https://chemins.be/bolland/sentier/i3"/><trkseg>
<trkpt lat="50.663084" lon="5.753222"><time>2026-05-07T18:26:15Z</time></trkpt>
<trkpt lat="50.663216" lon="5.753565"><time>2026-05-07T18:36:15Z</time></trkpt>
<trkpt lat="50.663420" lon="5.753751"><time>2026-05-07T18:46:15Z</time></trkpt>
</trkseg>
</trk>
<trk>
<name>lhvboi4</name>
<cmt>v</cmt>
<desc>Bolland Chemin n°i4 Vieux Couvent / sentier 140</desc>
<link href="https://chemins.be/bolland/chemin/i4"/><trkseg>
<trkpt lat="50.661884" lon="5.774673"><time>2026-05-07T18:26:15Z</time></trkpt>
<trkpt lat="50.661184" lon="5.776994"><time>2026-05-07T18:36:15Z</time></trkpt>
<trkpt lat="50.661079" lon="5.777407"><time>2026-05-07T18:46:15Z</time></trkpt>
</trkseg></trk>
<trk>
<name>lhvboi4</name>
<cmt>q</cmt>
<desc>Bolland Chemin n°i4 Vieux Couvent / sentier 140</desc>
<link href="https://chemins.be/bolland/chemin/i4"/><trkseg>
<trkpt lat="50.661079" lon="5.777407"><time>2026-05-07T18:46:15Z</time></trkpt>
<trkpt lat="50.660878" lon="5.778032"><time>2026-05-07T18:56:15Z</time></trkpt>
</trkseg></trk>
<trk>
<name>lhvboi4</name>
<cmt>v</cmt>
<desc>Bolland Chemin n°i4 Vieux Couvent / sentier 140</desc>
<link href="https://chemins.be/bolland/chemin/i4"/><trkseg>
<trkpt lat="50.660878" lon="5.778032"><time>2026-05-07T18:56:15Z</time></trkpt>
<trkpt lat="50.660577" lon="5.779087"><time>2026-05-07T19:06:15Z</time></trkpt>
<trkpt lat="50.660214" lon="5.779519"><time>2026-05-07T19:16:15Z</time></trkpt>
</trkseg>
</trk>
<trk>
<name>lhvboi5</name>
<cmt>v</cmt>
<desc>Bolland Chemin n°i5 </desc>
<link href="https://chemins.be/bolland/chemin/i5"/><trkseg>
<trkpt lat="50.661122" lon="5.748899"><time>2026-05-07T18:26:15Z</time></trkpt>
<trkpt lat="50.662060" lon="5.749071"><time>2026-05-07T18:36:15Z</time></trkpt>
</trkseg>
</trk>
<trk>
<name>lhvcx100</name>
<cmt>s</cmt>
<desc>Charneux Sentier n°100 </desc>
<link href="https://chemins.be/charneux/sentier/100"/><trkseg>
<trkpt lat="50.667330" lon="5.821741"><time>2026-05-07T18:26:15Z</time></trkpt>
<trkpt lat="50.666527" lon="5.823200"><time>2026-05-07T18:36:15Z</time></trkpt>
</trkseg>
</trk>
<trk>
<name>lhvcx101</name>
<cmt>q</cmt>
<desc>Charneux Sentier n°101 Bouxhmont</desc>
<link href="https://chemins.be/charneux/sentier/101"/><trkseg>
<trkpt lat="50.659267" lon="5.815488"><time>2026-05-07T18:26:15Z</time></trkpt>
<trkpt lat="50.660651" lon="5.817698"><time>2026-05-07T18:36:15Z</time></trkpt>
</trkseg></trk>
<trk>
<name>lhvcx101</name>
<cmt>r</cmt>
<desc>Charneux Sentier n°101 Bouxhmont</desc>
<link href="https://chemins.be/charneux/sentier/101"/><trkseg>
<trkpt lat="50.660651" lon="5.817698"><time>2026-05-07T18:36:15Z</time></trkpt>
<trkpt lat="50.659957" lon="5.818256"><time>2026-05-07T18:46:15Z</time></trkpt>
</trkseg></trk>
<trk>
<name>lhvcx101</name>
<cmt>q</cmt>
<desc>Charneux Sentier n°101 Bouxhmont</desc>
<link href="https://chemins.be/charneux/sentier/101"/><trkseg>
<trkpt lat="50.659957" lon="5.818256"><time>2026-05-07T18:46:15Z</time></trkpt>
<trkpt lat="50.661741" lon="5.821118"><time>2026-05-07T18:56:15Z</time></trkpt>
<trkpt lat="50.662571" lon="5.822051"><time>2026-05-07T19:06:15Z</time></trkpt>
</trkseg>
</trk>
<trk>
<name>lhvcx102</name>
<cmt>q</cmt>
<desc>Charneux Sentier n°102 </desc>
<link href="https://chemins.be/charneux/sentier/102"/><trkseg>
<trkpt lat="50.663614" lon="5.822946"><time>2026-05-07T18:26:15Z</time></trkpt>
<trkpt lat="50.664064" lon="5.820741"><time>2026-05-07T18:36:15Z</time></trkpt>
<trkpt lat="50.664369" lon="5.819805"><time>2026-05-07T18:46:15Z</time></trkpt>
</trkseg>
</trk>
<trk>
<name>lhvcx103</name>
<cmt>q</cmt>
<desc>Charneux Sentier n°103 </desc>
<link href="https://chemins.be/charneux/sentier/103"/><trkseg>
<trkpt lat="50.672261" lon="5.833717"><time>2026-05-07T18:26:15Z</time></trkpt>
<trkpt lat="50.672163" lon="5.834974"><time>2026-05-07T18:36:15Z</time></trkpt>
<trkpt lat="50.671600" lon="5.836789"><time>2026-05-07T18:46:15Z</time></trkpt>
</trkseg>
</trk>
<trk>
<name>lhvcx105</name>
<cmt>v</cmt>
<desc>Charneux Sentier n°105 </desc>
<link href="https://chemins.be/charneux/sentier/105"/><trkseg>
<trkpt lat="50.696991" lon="5.799220"><time>2026-05-07T18:26:15Z</time></trkpt>
<trkpt lat="50.696660" lon="5.798340"><time>2026-05-07T18:36:15Z</time></trkpt>
<trkpt lat="50.695993" lon="5.796633"><time>2026-05-07T18:46:15Z</time></trkpt>
<trkpt lat="50.694313" lon="5.794128"><time>2026-05-07T18:56:15Z</time></trkpt>
</trkseg></trk>
<trk>
<name>lhvcx105</name>
<cmt>q</cmt>
<desc>Charneux Sentier n°105 </desc>
<link href="https://chemins.be/charneux/sentier/105"/><trkseg>
<trkpt lat="50.694313" lon="5.794128"><time>2026-05-07T18:56:15Z</time></trkpt>
<trkpt lat="50.693887" lon="5.792354"><time>2026-05-07T19:06:15Z</time></trkpt>
<trkpt lat="50.694200" lon="5.790101"><time>2026-05-07T19:16:15Z</time></trkpt>
<trkpt lat="50.693869" lon="5.789192"><time>2026-05-07T19:26:15Z</time></trkpt>
</trkseg>
</trk>
<trk>
<name>lhvcx106</name>
<cmt>q</cmt>
<desc>Charneux Sentier n°106 </desc>
<link href="https://chemins.be/charneux/sentier/106"/><trkseg>
<trkpt lat="50.694744" lon="5.794740"><time>2026-05-07T18:26:15Z</time></trkpt>
<trkpt lat="50.695564" lon="5.794685"><time>2026-05-07T18:36:15Z</time></trkpt>
</trkseg>
</trk>
<trk>
<name>lhvcx107</name>
<cmt>v</cmt>
<desc>Charneux Sentier n°107 </desc>
<link href="https://chemins.be/charneux/sentier/107"/><trkseg>
<trkpt lat="50.698231" lon="5.802501"><time>2026-05-07T18:26:15Z</time></trkpt>
<trkpt lat="50.698331" lon="5.801230"><time>2026-05-07T18:36:15Z</time></trkpt>
<trkpt lat="50.698369" lon="5.800784"><time>2026-05-07T18:46:15Z</time></trkpt>
<trkpt lat="50.698599" lon="5.799356"><time>2026-05-07T18:56:15Z</time></trkpt>
<trkpt lat="50.698726" lon="5.795172"><time>2026-05-07T19:06:15Z</time></trkpt>
<trkpt lat="50.699265" lon="5.794485"><time>2026-05-07T19:16:15Z</time></trkpt>
<trkpt lat="50.699455" lon="5.793827"><time>2026-05-07T19:26:15Z</time></trkpt>
</trkseg>
</trk>
<trk>
<name>lhvcx109</name>
<cmt>q</cmt>
<desc>Charneux Sentier n°109 </desc>
<link href="https://chemins.be/charneux/sentier/109"/><trkseg>
<trkpt lat="50.688841" lon="5.812160"><time>2026-05-07T18:26:15Z</time></trkpt>
<trkpt lat="50.687824" lon="5.813023"><time>2026-05-07T18:36:15Z</time></trkpt>
</trkseg>
</trk>
<trk>
<name>lhvcx11</name>
<cmt>v</cmt>
<desc>Charneux Chemin n°11 </desc>
<link href="https://chemins.be/charneux/chemin/11"/><trkseg>
<trkpt lat="50.668022" lon="5.790265"><time>2026-05-07T18:26:15Z</time></trkpt>
<trkpt lat="50.666708" lon="5.789478"><time>2026-05-07T18:36:15Z</time></trkpt>
</trkseg></trk>
<trk>
<name>lhvcx11</name>
<cmt>q</cmt>
<desc>Charneux Chemin n°11 </desc>
<link href="https://chemins.be/charneux/chemin/11"/><trkseg>
<trkpt lat="50.666708" lon="5.789478"><time>2026-05-07T18:36:15Z</time></trkpt>
<trkpt lat="50.665964" lon="5.789449"><time>2026-05-07T18:46:15Z</time></trkpt>
<trkpt lat="50.664196" lon="5.789821"><time>2026-05-07T18:56:15Z</time></trkpt>
<trkpt lat="50.663489" lon="5.789635"><time>2026-05-07T19:06:15Z</time></trkpt>
<trkpt lat="50.662700" lon="5.789850"><time>2026-05-07T19:16:15Z</time></trkpt>
<trkpt lat="50.662040" lon="5.789350"><time>2026-05-07T19:26:15Z</time></trkpt>
<trkpt lat="50.661632" lon="5.789765"><time>2026-05-07T19:36:15Z</time></trkpt>
<trkpt lat="50.659542" lon="5.792161"><time>2026-05-07T19:46:15Z</time></trkpt>
</trkseg>
</trk>
<trk>
<name>lhvcx110</name>
<cmt>q</cmt>
<desc>Charneux Sentier n°110 </desc>
<link href="https://chemins.be/charneux/sentier/110"/><trkseg>
<trkpt lat="50.685055" lon="5.820046"><time>2026-05-07T18:26:15Z</time></trkpt>
<trkpt lat="50.685605" lon="5.819625"><time>2026-05-07T18:36:15Z</time></trkpt>
<trkpt lat="50.686360" lon="5.819638"><time>2026-05-07T18:46:15Z</time></trkpt>
<trkpt lat="50.688103" lon="5.816570"><time>2026-05-07T18:56:15Z</time></trkpt>
</trkseg>
</trk>
<trk>
<name>lhvcx111</name>
<cmt>v</cmt>
<desc>Charneux Sentier n°111 </desc>
<link href="https://chemins.be/charneux/sentier/111"/><trkseg>
<trkpt lat="50.681622" lon="5.821080"><time>2026-05-07T18:26:15Z</time></trkpt>
<trkpt lat="50.683221" lon="5.821509"><time>2026-05-07T18:36:15Z</time></trkpt>
<trkpt lat="50.684700" lon="5.821449"><time>2026-05-07T18:46:15Z</time></trkpt>
<trkpt lat="50.685054" lon="5.820737"><time>2026-05-07T18:56:15Z</time></trkpt>
</trkseg>
</trk>
<trk>
<name>lhvcx113</name>
<cmt>q</cmt>
<desc>Charneux Sentier n°113 </desc>
<link href="https://chemins.be/charneux/sentier/113"/><trkseg>
<trkpt lat="50.684290" lon="5.815924"><time>2026-05-07T18:26:15Z</time></trkpt>
<trkpt lat="50.684823" lon="5.819074"><time>2026-05-07T18:36:15Z</time></trkpt>
</trkseg>
</trk>
<trk>
<name>lhvcx114</name>
<cmt>q</cmt>
<desc>Charneux Sentier n°114 </desc>
<link href="https://chemins.be/charneux/sentier/114"/><trkseg>
<trkpt lat="50.678647" lon="5.828177"><time>2026-05-07T18:26:15Z</time></trkpt>
<trkpt lat="50.679201" lon="5.829990"><time>2026-05-07T18:36:15Z</time></trkpt>
<trkpt lat="50.680228" lon="5.830656"><time>2026-05-07T18:46:15Z</time></trkpt>
<trkpt lat="50.680883" lon="5.831602"><time>2026-05-07T18:56:15Z</time></trkpt>
</trkseg>
</trk>
<trk>
<name>lhvcx115</name>
<cmt>q</cmt>
<desc>Charneux Sentier n°115 </desc>
<link href="https://chemins.be/charneux/sentier/115"/><trkseg>
<trkpt lat="50.680640" lon="5.833333"><time>2026-05-07T18:26:15Z</time></trkpt>
<trkpt lat="50.681164" lon="5.833402"><time>2026-05-07T18:36:15Z</time></trkpt>
<trkpt lat="50.681402" lon="5.833161"><time>2026-05-07T18:46:15Z</time></trkpt>
<trkpt lat="50.682897" lon="5.833118"><time>2026-05-07T18:56:15Z</time></trkpt>
</trkseg>
</trk>
<trk>
<name>lhvcx116</name>
<cmt>r</cmt>
<desc>Charneux Sentier n°116 Bois de Halleux</desc>
<link href="https://chemins.be/charneux/sentier/116"/><trkseg>
<trkpt lat="50.683067" lon="5.829056"><time>2026-05-07T18:26:15Z</time></trkpt>
<trkpt lat="50.683169" lon="5.829190"><time>2026-05-07T18:36:15Z</time></trkpt>
</trkseg></trk>
<trk>
<name>lhvcx116</name>
<cmt>q</cmt>
<desc>Charneux Sentier n°116 Bois de Halleux</desc>
<link href="https://chemins.be/charneux/sentier/116"/><trkseg>
<trkpt lat="50.683169" lon="5.829190"><time>2026-05-07T18:36:15Z</time></trkpt>
<trkpt lat="50.683417" lon="5.829315"><time>2026-05-07T18:46:15Z</time></trkpt>
<trkpt lat="50.683495" lon="5.830843"><time>2026-05-07T18:56:15Z</time></trkpt>
<trkpt lat="50.683835" lon="5.834212"><time>2026-05-07T19:06:15Z</time></trkpt>
<trkpt lat="50.683794" lon="5.836637"><time>2026-05-07T19:16:15Z</time></trkpt>
</trkseg>
</trk>
<trk>
<name>lhvcx118</name>
<cmt>v</cmt>
<desc>Charneux Sentier n°118 </desc>
<link href="https://chemins.be/charneux/sentier/118"/><trkseg>
<trkpt lat="50.682521" lon="5.806472"><time>2026-05-07T18:26:15Z</time></trkpt>
<trkpt lat="50.682907" lon="5.807455"><time>2026-05-07T18:36:15Z</time></trkpt>
<trkpt lat="50.683046" lon="5.808884"><time>2026-05-07T18:46:15Z</time></trkpt>
<trkpt lat="50.683148" lon="5.811062"><time>2026-05-07T18:56:15Z</time></trkpt>
</trkseg></trk>
<trk>
<name>lhvcx118</name>
<cmt>d</cmt>
<desc>Charneux Sentier n°118 </desc>
<link href="https://chemins.be/charneux/sentier/118"/><trkseg>
<trkpt lat="50.683148" lon="5.811062"><time>2026-05-07T18:56:15Z</time></trkpt>
<trkpt lat="50.683125" lon="5.812006"><time>2026-05-07T19:06:15Z</time></trkpt>
</trkseg></trk>
<trk>
<name>lhvcx118</name>
<cmt>r</cmt>
<desc>Charneux Sentier n°118 </desc>
<link href="https://chemins.be/charneux/sentier/118"/><trkseg>
<trkpt lat="50.683125" lon="5.812006"><time>2026-05-07T19:06:15Z</time></trkpt>
<trkpt lat="50.682931" lon="5.813772"><time>2026-05-07T19:16:15Z</time></trkpt>
</trkseg></trk>
<trk>
<name>lhvcx118</name>
<cmt>q</cmt>
<desc>Charneux Sentier n°118 </desc>
<link href="https://chemins.be/charneux/sentier/118"/><trkseg>
<trkpt lat="50.682931" lon="5.813772"><time>2026-05-07T19:16:15Z</time></trkpt>
<trkpt lat="50.682793" lon="5.815033"><time>2026-05-07T19:26:15Z</time></trkpt>
</trkseg>
</trk>
<trk>
<name>lhvcx119</name>
<cmt>q</cmt>
<desc>Charneux Sentier n°119 Cerfontaine</desc>
<link href="https://chemins.be/charneux/sentier/119"/><trkseg>
<trkpt lat="50.682956" lon="5.813845"><time>2026-05-07T18:26:15Z</time></trkpt>
<trkpt lat="50.683468" lon="5.812696"><time>2026-05-07T18:36:15Z</time></trkpt>
<trkpt lat="50.684017" lon="5.811467"><time>2026-05-07T18:46:15Z</time></trkpt>
</trkseg>
</trk>
<trk>
<name>lhvcx120</name>
<cmt>q</cmt>
<desc>Charneux Sentier n°120 </desc>
<link href="https://chemins.be/charneux/sentier/120"/><trkseg>
<trkpt lat="50.681692" lon="5.812463"><time>2026-05-07T18:26:15Z</time></trkpt>
<trkpt lat="50.683206" lon="5.811107"><time>2026-05-07T18:36:15Z</time></trkpt>
</trkseg>
</trk>
<trk>
<name>lhvcx121</name>
<cmt>q</cmt>
<desc>Charneux Sentier n°121 </desc>
<link href="https://chemins.be/charneux/sentier/121"/><trkseg>
<trkpt lat="50.682268" lon="5.811952"><time>2026-05-07T18:26:15Z</time></trkpt>
<trkpt lat="50.683938" lon="5.811506"><time>2026-05-07T18:36:15Z</time></trkpt>
</trkseg>
</trk>
<trk>
<name>lhvcx122</name>
<cmt>q</cmt>
<desc>Charneux Sentier n°122 </desc>
<link href="https://chemins.be/charneux/sentier/122"/><trkseg>
<trkpt lat="50.688614" lon="5.821093"><time>2026-05-07T18:26:15Z</time></trkpt>
<trkpt lat="50.688559" lon="5.821200"><time>2026-05-07T18:36:15Z</time></trkpt>
<trkpt lat="50.688471" lon="5.821928"><time>2026-05-07T18:46:15Z</time></trkpt>
<trkpt lat="50.688492" lon="5.822028"><time>2026-05-07T18:56:15Z</time></trkpt>
</trkseg>
</trk>
<trk>
<name>lhvcx127</name>
<cmt>q</cmt>
<desc>Charneux Sentier n°127 </desc>
<link href="https://chemins.be/charneux/sentier/127"/><trkseg>
<trkpt lat="50.689356" lon="5.790237"><time>2026-05-07T18:26:15Z</time></trkpt>
<trkpt lat="50.689120" lon="5.789736"><time>2026-05-07T18:36:15Z</time></trkpt>
<trkpt lat="50.689202" lon="5.788949"><time>2026-05-07T18:46:15Z</time></trkpt>
<trkpt lat="50.689977" lon="5.787483"><time>2026-05-07T18:56:15Z</time></trkpt>
</trkseg>
</trk>
<trk>
<name>lhvcx128</name>
<cmt>q</cmt>
<desc>Charneux Sentier n°128 </desc>
<link href="https://chemins.be/charneux/sentier/128"/><trkseg>
<trkpt lat="50.694549" lon="5.796831"><time>2026-05-07T18:26:15Z</time></trkpt>
<trkpt lat="50.695958" lon="5.796567"><time>2026-05-07T18:36:15Z</time></trkpt>
</trkseg>
</trk>
<trk>
<name>lhvcx129</name>
<cmt>q</cmt>
<desc>Charneux Sentier n°129 </desc>
<link href="https://chemins.be/charneux/sentier/129"/><trkseg>
<trkpt lat="50.680175" lon="5.788145"><time>2026-05-07T18:26:15Z</time></trkpt>
<trkpt lat="50.678961" lon="5.786804"><time>2026-05-07T18:36:15Z</time></trkpt>
</trkseg>
</trk>
<trk>
<name>lhvcx13</name>
<cmt>v</cmt>
<desc>Charneux Chemin n°13 </desc>
<link href="https://chemins.be/charneux/chemin/13"/><trkseg>
<trkpt lat="50.673884" lon="5.790765"><time>2026-05-07T18:26:15Z</time></trkpt>
<trkpt lat="50.673797" lon="5.789889"><time>2026-05-07T18:36:15Z</time></trkpt>
<trkpt lat="50.674336" lon="5.787589"><time>2026-05-07T18:46:15Z</time></trkpt>
<trkpt lat="50.674004" lon="5.786057"><time>2026-05-07T18:56:15Z</time></trkpt>
<trkpt lat="50.674230" lon="5.785315"><time>2026-05-07T19:06:15Z</time></trkpt>
</trkseg>
</trk>
<trk>
<name>lhvcx130</name>
<cmt>q</cmt>
<desc>Charneux Sentier n°130 </desc>
<link href="https://chemins.be/charneux/sentier/130"/><trkseg>
<trkpt lat="50.661207" lon="5.804779"><time>2026-05-07T18:26:15Z</time></trkpt>
<trkpt lat="50.660889" lon="5.804187"><time>2026-05-07T18:36:15Z</time></trkpt>
<trkpt lat="50.660750" lon="5.804165"><time>2026-05-07T18:46:15Z</time></trkpt>
<trkpt lat="50.660821" lon="5.803848"><time>2026-05-07T18:56:15Z</time></trkpt>
</trkseg>
</trk>
<trk>
<name>lhvcx15</name>
<cmt>v</cmt>
<desc>Charneux Chemin n°15 </desc>
<link href="https://chemins.be/charneux/chemin/15"/><trkseg>
<trkpt lat="50.682162" lon="5.793544"><time>2026-05-07T18:26:15Z</time></trkpt>
<trkpt lat="50.681827" lon="5.792775"><time>2026-05-07T18:36:15Z</time></trkpt>
<trkpt lat="50.680884" lon="5.790576"><time>2026-05-07T18:46:15Z</time></trkpt>
<trkpt lat="50.680315" lon="5.788690"><time>2026-05-07T18:56:15Z</time></trkpt>
</trkseg></trk>
<trk>
<name>lhvcx15</name>
<cmt>q</cmt>
<desc>Charneux Chemin n°15 </desc>
<link href="https://chemins.be/charneux/chemin/15"/><trkseg>
<trkpt lat="50.680315" lon="5.788690"><time>2026-05-07T18:56:15Z</time></trkpt>
<trkpt lat="50.680246" lon="5.788572"><time>2026-05-07T19:06:15Z</time></trkpt>
<trkpt lat="50.679934" lon="5.786015"><time>2026-05-07T19:16:15Z</time></trkpt>
<trkpt lat="50.680968" lon="5.783640"><time>2026-05-07T19:26:15Z</time></trkpt>
<trkpt lat="50.680850" lon="5.782739"><time>2026-05-07T19:36:15Z</time></trkpt>
<trkpt lat="50.680327" lon="5.782183"><time>2026-05-07T19:46:15Z</time></trkpt>
</trkseg>
</trk>
<trk>
<name>lhvcx16</name>
<cmt>r</cmt>
<desc>Charneux Chemin n°16 Miranze / Rouaux / Holliguette</desc>
<link href="https://chemins.be/charneux/chemin/16"/><trkseg>
<trkpt lat="50.678388" lon="5.822973"><time>2026-05-07T18:26:15Z</time></trkpt>
<trkpt lat="50.678698" lon="5.822522"><time>2026-05-07T18:36:15Z</time></trkpt>
<trkpt lat="50.679886" lon="5.822041"><time>2026-05-07T18:46:15Z</time></trkpt>
<trkpt lat="50.680544" lon="5.821363"><time>2026-05-07T18:56:15Z</time></trkpt>
<trkpt lat="50.681118" lon="5.821381"><time>2026-05-07T19:06:15Z</time></trkpt>
<trkpt lat="50.681703" lon="5.821003"><time>2026-05-07T19:16:15Z</time></trkpt>
</trkseg></trk>
<trk>
<name>lhvcx16</name>
<cmt>v</cmt>
<desc>Charneux Chemin n°16 Miranze / Rouaux / Holliguette</desc>
<link href="https://chemins.be/charneux/chemin/16"/><trkseg>
<trkpt lat="50.681703" lon="5.821003"><time>2026-05-07T19:16:15Z</time></trkpt>
<trkpt lat="50.682548" lon="5.818625"><time>2026-05-07T19:26:15Z</time></trkpt>
</trkseg></trk>
<trk>
<name>lhvcx16</name>
<cmt>r</cmt>
<desc>Charneux Chemin n°16 Miranze / Rouaux / Holliguette</desc>
<link href="https://chemins.be/charneux/chemin/16"/><trkseg>
<trkpt lat="50.682548" lon="5.818625"><time>2026-05-07T19:26:15Z</time></trkpt>
<trkpt lat="50.683206" lon="5.817261"><time>2026-05-07T19:36:15Z</time></trkpt>
</trkseg></trk>
<trk>
<name>lhvcx16</name>
<cmt>v</cmt>
<desc>Charneux Chemin n°16 Miranze / Rouaux / Holliguette</desc>
<link href="https://chemins.be/charneux/chemin/16"/><trkseg>
<trkpt lat="50.683206" lon="5.817261"><time>2026-05-07T19:36:15Z</time></trkpt>
<trkpt lat="50.684313" lon="5.815900"><time>2026-05-07T19:46:15Z</time></trkpt>
<trkpt lat="50.684691" lon="5.815145"><time>2026-05-07T19:56:15Z</time></trkpt>
<trkpt lat="50.684816" lon="5.814471"><time>2026-05-07T20:06:15Z</time></trkpt>
<trkpt lat="50.685341" lon="5.813506"><time>2026-05-07T20:16:15Z</time></trkpt>
<trkpt lat="50.686452" lon="5.812061"><time>2026-05-07T20:26:15Z</time></trkpt>
<trkpt lat="50.686336" lon="5.811213"><time>2026-05-07T20:36:15Z</time></trkpt>
</trkseg></trk>
<trk>
<name>lhvcx16</name>
<cmt>d</cmt>
<desc>Charneux Chemin n°16 Miranze / Rouaux / Holliguette</desc>
<link href="https://chemins.be/charneux/chemin/16"/><trkseg>
<trkpt lat="50.686336" lon="5.811213"><time>2026-05-07T20:36:15Z</time></trkpt>
<trkpt lat="50.686831" lon="5.809092"><time>2026-05-07T20:46:15Z</time></trkpt>
<trkpt lat="50.686838" lon="5.808793"><time>2026-05-07T20:56:15Z</time></trkpt>
</trkseg></trk>
<trk>
<name>lhvcx16</name>
<cmt>r</cmt>
<desc>Charneux Chemin n°16 Miranze / Rouaux / Holliguette</desc>
<link href="https://chemins.be/charneux/chemin/16"/><trkseg>
<trkpt lat="50.686838" lon="5.808793"><time>2026-05-07T20:56:15Z</time></trkpt>
<trkpt lat="50.687969" lon="5.804942"><time>2026-05-07T21:06:15Z</time></trkpt>
<trkpt lat="50.689537" lon="5.801130"><time>2026-05-07T21:16:15Z</time></trkpt>
<trkpt lat="50.690339" lon="5.800293"><time>2026-05-07T21:26:15Z</time></trkpt>
<trkpt lat="50.695147" lon="5.799715"><time>2026-05-07T21:36:15Z</time></trkpt>
<trkpt lat="50.695877" lon="5.800312"><time>2026-05-07T21:46:15Z</time></trkpt>
</trkseg></trk>
<trk>
<name>lhvcx16</name>
<cmt>v</cmt>
<desc>Charneux Chemin n°16 Miranze / Rouaux / Holliguette</desc>
<link href="https://chemins.be/charneux/chemin/16"/><trkseg>
<trkpt lat="50.695877" lon="5.800312"><time>2026-05-07T21:46:15Z</time></trkpt>
<trkpt lat="50.696982" lon="5.800858"><time>2026-05-07T21:56:15Z</time></trkpt>
</trkseg></trk>
<trk>
<name>lhvcx16</name>
<cmt>r</cmt>
<desc>Charneux Chemin n°16 Miranze / Rouaux / Holliguette</desc>
<link href="https://chemins.be/charneux/chemin/16"/><trkseg>
<trkpt lat="50.696982" lon="5.800858"><time>2026-05-07T21:56:15Z</time></trkpt>
<trkpt lat="50.697068" lon="5.801108"><time>2026-05-07T22:06:15Z</time></trkpt>
<trkpt lat="50.698282" lon="5.802553"><time>2026-05-07T22:16:15Z</time></trkpt>
<trkpt lat="50.698345" lon="5.803161"><time>2026-05-07T22:26:15Z</time></trkpt>
</trkseg>
</trk>
<trk>
<name>lhvcx16bis</name>
<cmt>v</cmt>
<desc>Charneux Chemin n°16bis Faweux</desc>
<link href="https://chemins.be/charneux/chemin/16bis"/><trkseg>
<trkpt lat="50.672187" lon="5.833753"><time>2026-05-07T18:26:15Z</time></trkpt>
<trkpt lat="50.670368" lon="5.835317"><time>2026-05-07T18:36:15Z</time></trkpt>
</trkseg>
</trk>
<trk>
<name>lhvcx17</name>
<cmt>r</cmt>
<desc>Charneux Chemin n°17 Houyeux</desc>
<link href="https://chemins.be/charneux/chemin/17"/><trkseg>
<trkpt lat="50.683208" lon="5.817158"><time>2026-05-07T18:26:15Z</time></trkpt>
<trkpt lat="50.684829" lon="5.819132"><time>2026-05-07T18:36:15Z</time></trkpt>
<trkpt lat="50.685101" lon="5.820694"><time>2026-05-07T18:46:15Z</time></trkpt>
<trkpt lat="50.685471" lon="5.821518"><time>2026-05-07T18:56:15Z</time></trkpt>
<trkpt lat="50.685482" lon="5.822136"><time>2026-05-07T19:06:15Z</time></trkpt>
</trkseg></trk>
<trk>
<name>lhvcx17</name>
<cmt>v</cmt>
<desc>Charneux Chemin n°17 Houyeux</desc>
<link href="https://chemins.be/charneux/chemin/17"/><trkseg>
<trkpt lat="50.685482" lon="5.822136"><time>2026-05-07T19:06:15Z</time></trkpt>
<trkpt lat="50.685843" lon="5.822908"><time>2026-05-07T19:16:15Z</time></trkpt>
<trkpt lat="50.686493" lon="5.823329"><time>2026-05-07T19:26:15Z</time></trkpt>
<trkpt lat="50.687249" lon="5.823256"><time>2026-05-07T19:36:15Z</time></trkpt>
</trkseg>
</trk>
<trk>
<name>lhvcx18</name>
<cmt>v</cmt>
<desc>Charneux Chemin n°18 </desc>
<link href="https://chemins.be/charneux/chemin/18"/><trkseg>
<trkpt lat="50.672557" lon="5.814420"><time>2026-05-07T18:26:15Z</time></trkpt>
<trkpt lat="50.670941" lon="5.818934"><time>2026-05-07T18:36:15Z</time></trkpt>
<trkpt lat="50.669979" lon="5.821861"><time>2026-05-07T18:46:15Z</time></trkpt>
<trkpt lat="50.669859" lon="5.823097"><time>2026-05-07T18:56:15Z</time></trkpt>
</trkseg>
</trk>
<trk>
<name>lhvcx19</name>
<cmt>q</cmt>
<desc>Charneux Chemin n°19 </desc>
<link href="https://chemins.be/charneux/chemin/19"/><trkseg>
<trkpt lat="50.672238" lon="5.829805"><time>2026-05-07T18:26:15Z</time></trkpt>
<trkpt lat="50.673223" lon="5.830423"><time>2026-05-07T18:36:15Z</time></trkpt>
<trkpt lat="50.675007" lon="5.830775"><time>2026-05-07T18:46:15Z</time></trkpt>
</trkseg>
</trk>
<trk>
<name>lhvcx22</name>
<cmt>v</cmt>
<desc>Charneux Chemin n°22 </desc>
<link href="https://chemins.be/charneux/chemin/22"/><trkseg>
<trkpt lat="50.680390" lon="5.841948"><time>2026-05-07T18:26:15Z</time></trkpt>
<trkpt lat="50.680319" lon="5.841798"><time>2026-05-07T18:36:15Z</time></trkpt>
<trkpt lat="50.680256" lon="5.841336"><time>2026-05-07T18:46:15Z</time></trkpt>
<trkpt lat="50.680092" lon="5.840741"><time>2026-05-07T18:56:15Z</time></trkpt>
</trkseg></trk>
<trk>
<name>lhvcx22</name>
<cmt>q</cmt>
<desc>Charneux Chemin n°22 </desc>
<link href="https://chemins.be/charneux/chemin/22"/><trkseg>
<trkpt lat="50.680092" lon="5.840741"><time>2026-05-07T18:56:15Z</time></trkpt>
<trkpt lat="50.679372" lon="5.840403"><time>2026-05-07T19:06:15Z</time></trkpt>
<trkpt lat="50.678509" lon="5.840617"><time>2026-05-07T19:16:15Z</time></trkpt>
<trkpt lat="50.678278" lon="5.840049"><time>2026-05-07T19:26:15Z</time></trkpt>
<trkpt lat="50.677578" lon="5.840489"><time>2026-05-07T19:36:15Z</time></trkpt>
<trkpt lat="50.677027" lon="5.840145"><time>2026-05-07T19:46:15Z</time></trkpt>
<trkpt lat="50.676245" lon="5.840939"><time>2026-05-07T19:56:15Z</time></trkpt>
<trkpt lat="50.675484" lon="5.840650"><time>2026-05-07T20:06:15Z</time></trkpt>
<trkpt lat="50.674443" lon="5.840896"><time>2026-05-07T20:16:15Z</time></trkpt>
<trkpt lat="50.673696" lon="5.839832"><time>2026-05-07T20:26:15Z</time></trkpt>
<trkpt lat="50.672911" lon="5.840025"><time>2026-05-07T20:36:15Z</time></trkpt>
</trkseg>
</trk>
<trk>
<name>lhvcx24</name>
<cmt>q</cmt>
<desc>Charneux Chemin n°24 </desc>
<link href="https://chemins.be/charneux/chemin/24"/><trkseg>
<trkpt lat="50.672668" lon="5.830024"><time>2026-05-07T18:26:15Z</time></trkpt>
<trkpt lat="50.673003" lon="5.831213"><time>2026-05-07T18:36:15Z</time></trkpt>
</trkseg>
</trk>
<trk>
<name>lhvcx26</name>
<cmt>v</cmt>
<desc>Charneux Chemin n°26 Renouprez</desc>
<link href="https://chemins.be/charneux/chemin/26"/><trkseg>
<trkpt lat="50.680102" lon="5.840362"><time>2026-05-07T18:26:15Z</time></trkpt>
<trkpt lat="50.680008" lon="5.840019"><time>2026-05-07T18:36:15Z</time></trkpt>
<trkpt lat="50.679648" lon="5.839272"><time>2026-05-07T18:46:15Z</time></trkpt>
<trkpt lat="50.679544" lon="5.839000"><time>2026-05-07T18:56:15Z</time></trkpt>
<trkpt lat="50.679323" lon="5.838696"><time>2026-05-07T19:06:15Z</time></trkpt>
<trkpt lat="50.678968" lon="5.838345"><time>2026-05-07T19:16:15Z</time></trkpt>
<trkpt lat="50.678674" lon="5.838096"><time>2026-05-07T19:26:15Z</time></trkpt>
<trkpt lat="50.678568" lon="5.837951"><time>2026-05-07T19:36:15Z</time></trkpt>
<trkpt lat="50.678228" lon="5.837134"><time>2026-05-07T19:46:15Z</time></trkpt>
<trkpt lat="50.677850" lon="5.836414"><time>2026-05-07T19:56:15Z</time></trkpt>
<trkpt lat="50.677463" lon="5.835751"><time>2026-05-07T20:06:15Z</time></trkpt>
<trkpt lat="50.677234" lon="5.835376"><time>2026-05-07T20:16:15Z</time></trkpt>
<trkpt lat="50.676703" lon="5.834652"><time>2026-05-07T20:26:15Z</time></trkpt>
<trkpt lat="50.676570" lon="5.834506"><time>2026-05-07T20:36:15Z</time></trkpt>
<trkpt lat="50.676276" lon="5.834299"><time>2026-05-07T20:46:15Z</time></trkpt>
<trkpt lat="50.676170" lon="5.834169"><time>2026-05-07T20:56:15Z</time></trkpt>
<trkpt lat="50.675890" lon="5.833495"><time>2026-05-07T21:06:15Z</time></trkpt>
</trkseg>
</trk>
<trk>
<name>lhvcx27</name>
<cmt>q</cmt>
<desc>Charneux Chemin n°27 </desc>
<link href="https://chemins.be/charneux/chemin/27"/><trkseg>
<trkpt lat="50.678834" lon="5.833831"><time>2026-05-07T18:26:15Z</time></trkpt>
<trkpt lat="50.679079" lon="5.834899"><time>2026-05-07T18:36:15Z</time></trkpt>
<trkpt lat="50.678865" lon="5.838257"><time>2026-05-07T18:46:15Z</time></trkpt>
</trkseg>
</trk>
<trk>
<name>lhvcx29</name>
<cmt>q</cmt>
<desc>Charneux Chemin n°29 </desc>
<link href="https://chemins.be/charneux/chemin/29"/><trkseg>
<trkpt lat="50.680771" lon="5.838359"><time>2026-05-07T18:26:15Z</time></trkpt>
<trkpt lat="50.679680" lon="5.839266"><time>2026-05-07T18:36:15Z</time></trkpt>
</trkseg>
</trk>
<trk>
<name>lhvcx3</name>
<cmt>r</cmt>
<desc>Charneux Chemin n°3 Privôt / Sauvenière</desc>
<link href="https://chemins.be/charneux/chemin/3"/><trkseg>
<trkpt lat="50.657023" lon="5.792046"><time>2026-05-07T18:26:15Z</time></trkpt>
<trkpt lat="50.659526" lon="5.792296"><time>2026-05-07T18:36:15Z</time></trkpt>
<trkpt lat="50.660791" lon="5.792633"><time>2026-05-07T18:46:15Z</time></trkpt>
<trkpt lat="50.662174" lon="5.792096"><time>2026-05-07T18:56:15Z</time></trkpt>
<trkpt lat="50.662569" lon="5.792711"><time>2026-05-07T19:06:15Z</time></trkpt>
<trkpt lat="50.665915" lon="5.791295"><time>2026-05-07T19:16:15Z</time></trkpt>
<trkpt lat="50.666373" lon="5.791338"><time>2026-05-07T19:26:15Z</time></trkpt>
<trkpt lat="50.668127" lon="5.790365"><time>2026-05-07T19:36:15Z</time></trkpt>
<trkpt lat="50.669510" lon="5.790315"><time>2026-05-07T19:46:15Z</time></trkpt>
<trkpt lat="50.670348" lon="5.790566"><time>2026-05-07T19:56:15Z</time></trkpt>
<trkpt lat="50.671414" lon="5.790144"><time>2026-05-07T20:06:15Z</time></trkpt>
<trkpt lat="50.672563" lon="5.791222"><time>2026-05-07T20:16:15Z</time></trkpt>
<trkpt lat="50.673847" lon="5.790895"><time>2026-05-07T20:26:15Z</time></trkpt>
<trkpt lat="50.677336" lon="5.788507"><time>2026-05-07T20:36:15Z</time></trkpt>
<trkpt lat="50.678838" lon="5.788956"><time>2026-05-07T20:46:15Z</time></trkpt>
<trkpt lat="50.680338" lon="5.788692"><time>2026-05-07T20:56:15Z</time></trkpt>
<trkpt lat="50.682903" lon="5.787519"><time>2026-05-07T21:06:15Z</time></trkpt>
<trkpt lat="50.684385" lon="5.786403"><time>2026-05-07T21:16:15Z</time></trkpt>
<trkpt lat="50.687332" lon="5.785707"><time>2026-05-07T21:26:15Z</time></trkpt>
</trkseg></trk>
<trk>
<name>lhvcx3</name>
<cmt>v</cmt>
<desc>Charneux Chemin n°3 Privôt / Sauvenière</desc>
<link href="https://chemins.be/charneux/chemin/3"/><trkseg>
<trkpt lat="50.687332" lon="5.785707"><time>2026-05-07T21:26:15Z</time></trkpt>
<trkpt lat="50.688456" lon="5.784931"><time>2026-05-07T21:36:15Z</time></trkpt>
<trkpt lat="50.689240" lon="5.784162"><time>2026-05-07T21:46:15Z</time></trkpt>
<trkpt lat="50.689494" lon="5.783683"><time>2026-05-07T21:56:15Z</time></trkpt>
</trkseg>
</trk>
<trk>
<name>lhvcx31</name>
<cmt>v</cmt>
<desc>Charneux Chemin n°31 </desc>
<link href="https://chemins.be/charneux/chemin/31"/><trkseg>
<trkpt lat="50.682762" lon="5.830656"><time>2026-05-07T18:26:15Z</time></trkpt>
<trkpt lat="50.682591" lon="5.830382"><time>2026-05-07T18:36:15Z</time></trkpt>
<trkpt lat="50.682599" lon="5.830382"><time>2026-05-07T18:46:15Z</time></trkpt>
<trkpt lat="50.682378" lon="5.830079"><time>2026-05-07T18:56:15Z</time></trkpt>
<trkpt lat="50.682007" lon="5.829744"><time>2026-05-07T19:06:15Z</time></trkpt>
<trkpt lat="50.682054" lon="5.829325"><time>2026-05-07T19:16:15Z</time></trkpt>
</trkseg>
</trk>
<trk>
<name>lhvcx32</name>
<cmt>v</cmt>
<desc>Charneux Chemin n°32 </desc>
<link href="https://chemins.be/charneux/chemin/32"/><trkseg>
<trkpt lat="50.682013" lon="5.829722"><time>2026-05-07T18:26:15Z</time></trkpt>
<trkpt lat="50.681473" lon="5.830076"><time>2026-05-07T18:36:15Z</time></trkpt>
<trkpt lat="50.681021" lon="5.830725"><time>2026-05-07T18:46:15Z</time></trkpt>
<trkpt lat="50.680963" lon="5.831573"><time>2026-05-07T18:56:15Z</time></trkpt>
<trkpt lat="50.680161" lon="5.831889"><time>2026-05-07T19:06:15Z</time></trkpt>
<trkpt lat="50.680117" lon="5.832442"><time>2026-05-07T19:16:15Z</time></trkpt>
</trkseg>
</trk>
<trk>
<name>lhvcx34</name>
<cmt>v</cmt>
<desc>Charneux Chemin n°34 </desc>
<link href="https://chemins.be/charneux/chemin/34"/><trkseg>
<trkpt lat="50.669519" lon="5.806120"><time>2026-05-07T18:26:15Z</time></trkpt>
<trkpt lat="50.669872" lon="5.806472"><time>2026-05-07T18:36:15Z</time></trkpt>
<trkpt lat="50.670490" lon="5.808137"><time>2026-05-07T18:46:15Z</time></trkpt>
<trkpt lat="50.670463" lon="5.808502"><time>2026-05-07T18:56:15Z</time></trkpt>
<trkpt lat="50.670604" lon="5.808888"><time>2026-05-07T19:06:15Z</time></trkpt>
<trkpt lat="50.671885" lon="5.809515"><time>2026-05-07T19:16:15Z</time></trkpt>
<trkpt lat="50.672241" lon="5.809420"><time>2026-05-07T19:26:15Z</time></trkpt>
</trkseg>
</trk>
<trk>
<name>lhvcx35</name>
<cmt>v</cmt>
<desc>Charneux Chemin n°35 </desc>
<link href="https://chemins.be/charneux/chemin/35"/><trkseg>
<trkpt lat="50.686374" lon="5.811471"><time>2026-05-07T18:26:15Z</time></trkpt>
<trkpt lat="50.686872" lon="5.811210"><time>2026-05-07T18:36:15Z</time></trkpt>
</trkseg></trk>
<trk>
<name>lhvcx35</name>
<cmt>q</cmt>
<desc>Charneux Chemin n°35 </desc>
<link href="https://chemins.be/charneux/chemin/35"/><trkseg>
<trkpt lat="50.686872" lon="5.811210"><time>2026-05-07T18:36:15Z</time></trkpt>
<trkpt lat="50.688005" lon="5.811360"><time>2026-05-07T18:46:15Z</time></trkpt>
<trkpt lat="50.688230" lon="5.810798"><time>2026-05-07T18:56:15Z</time></trkpt>
</trkseg></trk>
<trk>
<name>lhvcx35</name>
<cmt>v</cmt>
<desc>Charneux Chemin n°35 </desc>
<link href="https://chemins.be/charneux/chemin/35"/><trkseg>
<trkpt lat="50.688230" lon="5.810798"><time>2026-05-07T18:56:15Z</time></trkpt>
<trkpt lat="50.688774" lon="5.810300"><time>2026-05-07T19:06:15Z</time></trkpt>
<trkpt lat="50.689253" lon="5.810197"><time>2026-05-07T19:16:15Z</time></trkpt>
<trkpt lat="50.690190" lon="5.810526"><time>2026-05-07T19:26:15Z</time></trkpt>
<trkpt lat="50.691112" lon="5.810849"><time>2026-05-07T19:36:15Z</time></trkpt>
<trkpt lat="50.693853" lon="5.808824"><time>2026-05-07T19:46:15Z</time></trkpt>
</trkseg>
</trk>
<trk>
<name>lhvcx36</name>
<cmt>r</cmt>
<desc>Charneux Chemin n°36 Bois del Fiesse</desc>
<link href="https://chemins.be/charneux/chemin/36"/><trkseg>
<trkpt lat="50.679991" lon="5.810411"><time>2026-05-07T18:26:15Z</time></trkpt>
<trkpt lat="50.681132" lon="5.807410"><time>2026-05-07T18:36:15Z</time></trkpt>
<trkpt lat="50.681444" lon="5.806384"><time>2026-05-07T18:46:15Z</time></trkpt>
<trkpt lat="50.681298" lon="5.805468"><time>2026-05-07T18:56:15Z</time></trkpt>
</trkseg></trk>
<trk>
<name>lhvcx36</name>
<cmt>q</cmt>
<desc>Charneux Chemin n°36 Bois del Fiesse</desc>
<link href="https://chemins.be/charneux/chemin/36"/><trkseg>
<trkpt lat="50.681298" lon="5.805468"><time>2026-05-07T18:56:15Z</time></trkpt>
<trkpt lat="50.680566" lon="5.802322"><time>2026-05-07T19:06:15Z</time></trkpt>
<trkpt lat="50.681104" lon="5.799039"><time>2026-05-07T19:16:15Z</time></trkpt>
</trkseg>
</trk>
<trk>
<name>lhvcx37</name>
<cmt>v</cmt>
<desc>Charneux Chemin n°37 </desc>
<link href="https://chemins.be/charneux/chemin/37"/><trkseg>
<trkpt lat="50.681335" lon="5.805586"><time>2026-05-07T18:26:15Z</time></trkpt>
<trkpt lat="50.681408" lon="5.805517"><time>2026-05-07T18:36:15Z</time></trkpt>
<trkpt lat="50.681553" lon="5.805423"><time>2026-05-07T18:46:15Z</time></trkpt>
<trkpt lat="50.681672" lon="5.805256"><time>2026-05-07T18:56:15Z</time></trkpt>
<trkpt lat="50.682492" lon="5.804362"><time>2026-05-07T19:06:15Z</time></trkpt>
<trkpt lat="50.682611" lon="5.804181"><time>2026-05-07T19:16:15Z</time></trkpt>
<trkpt lat="50.683070" lon="5.803307"><time>2026-05-07T19:26:15Z</time></trkpt>
<trkpt lat="50.683878" lon="5.801543"><time>2026-05-07T19:36:15Z</time></trkpt>
<trkpt lat="50.684079" lon="5.800466"><time>2026-05-07T19:46:15Z</time></trkpt>
</trkseg>
</trk>
<trk>
<name>lhvcx38</name>
<cmt>q</cmt>
<desc>Charneux Chemin n°38 </desc>
<link href="https://chemins.be/charneux/chemin/38"/><trkseg>
<trkpt lat="50.676874" lon="5.787300"><time>2026-05-07T18:26:15Z</time></trkpt>
<trkpt lat="50.678220" lon="5.787418"><time>2026-05-07T18:36:15Z</time></trkpt>
<trkpt lat="50.679917" lon="5.786032"><time>2026-05-07T18:46:15Z</time></trkpt>
</trkseg>
</trk>
<trk>
<name>lhvcx39</name>
<cmt>v</cmt>
<desc>Charneux Chemin n°39 </desc>
<link href="https://chemins.be/charneux/chemin/39"/><trkseg>
<trkpt lat="50.687551" lon="5.785507"><time>2026-05-07T18:26:15Z</time></trkpt>
<trkpt lat="50.687736" lon="5.785074"><time>2026-05-07T18:36:15Z</time></trkpt>
<trkpt lat="50.687636" lon="5.784448"><time>2026-05-07T18:46:15Z</time></trkpt>
<trkpt lat="50.686518" lon="5.783919"><time>2026-05-07T18:56:15Z</time></trkpt>
<trkpt lat="50.686250" lon="5.783783"><time>2026-05-07T19:06:15Z</time></trkpt>
</trkseg>
</trk>
<trk>
<name>lhvcx4</name>
<cmt>r</cmt>
<desc>Charneux Chemin n°4 Les Fawes / Wadeleux</desc>
<link href="https://chemins.be/charneux/chemin/4"/><trkseg>
<trkpt lat="50.677327" lon="5.800987"><time>2026-05-07T18:26:15Z</time></trkpt>
<trkpt lat="50.677697" lon="5.800395"><time>2026-05-07T18:36:15Z</time></trkpt>
<trkpt lat="50.678437" lon="5.799932"><time>2026-05-07T18:46:15Z</time></trkpt>
<trkpt lat="50.678768" lon="5.799503"><time>2026-05-07T18:56:15Z</time></trkpt>
</trkseg></trk>
<trk>
<name>lhvcx4</name>
<cmt>v</cmt>
<desc>Charneux Chemin n°4 Les Fawes / Wadeleux</desc>
<link href="https://chemins.be/charneux/chemin/4"/><trkseg>
<trkpt lat="50.678768" lon="5.799503"><time>2026-05-07T18:56:15Z</time></trkpt>
<trkpt lat="50.679160" lon="5.798996"><time>2026-05-07T19:06:15Z</time></trkpt>
<trkpt lat="50.680879" lon="5.798781"><time>2026-05-07T19:16:15Z</time></trkpt>
<trkpt lat="50.682059" lon="5.799726"><time>2026-05-07T19:26:15Z</time></trkpt>
<trkpt lat="50.683068" lon="5.800043"><time>2026-05-07T19:36:15Z</time></trkpt>
</trkseg></trk>
<trk>
<name>lhvcx4</name>
<cmt>r</cmt>
<desc>Charneux Chemin n°4 Les Fawes / Wadeleux</desc>
<link href="https://chemins.be/charneux/chemin/4"/><trkseg>
<trkpt lat="50.683068" lon="5.800043"><time>2026-05-07T19:36:15Z</time></trkpt>
<trkpt lat="50.683533" lon="5.800189"><time>2026-05-07T19:46:15Z</time></trkpt>
<trkpt lat="50.684044" lon="5.800464"><time>2026-05-07T19:56:15Z</time></trkpt>
<trkpt lat="50.684316" lon="5.800404"><time>2026-05-07T20:06:15Z</time></trkpt>
</trkseg>
</trk>
<trk>
<name>lhvcx40</name>
<cmt>q</cmt>
<desc>Charneux Chemin n°40 </desc>
<link href="https://chemins.be/charneux/chemin/40"/><trkseg>
<trkpt lat="50.694005" lon="5.794321"><time>2026-05-07T18:26:15Z</time></trkpt>
<trkpt lat="50.693760" lon="5.792769"><time>2026-05-07T18:36:15Z</time></trkpt>
<trkpt lat="50.693452" lon="5.792440"><time>2026-05-07T18:46:15Z</time></trkpt>
</trkseg></trk>
<trk>
<name>lhvcx40</name>
<cmt>r</cmt>
<desc>Charneux Chemin n°40 </desc>
<link href="https://chemins.be/charneux/chemin/40"/><trkseg>
<trkpt lat="50.693452" lon="5.792440"><time>2026-05-07T18:46:15Z</time></trkpt>
<trkpt lat="50.693851" lon="5.788992"><time>2026-05-07T18:56:15Z</time></trkpt>
</trkseg></trk>
<trk>
<name>lhvcx40</name>
<cmt>q</cmt>
<desc>Charneux Chemin n°40 </desc>
<link href="https://chemins.be/charneux/chemin/40"/><trkseg>
<trkpt lat="50.693851" lon="5.788992"><time>2026-05-07T18:56:15Z</time></trkpt>
<trkpt lat="50.692710" lon="5.786940"><time>2026-05-07T19:06:15Z</time></trkpt>
</trkseg></trk>
<trk>
<name>lhvcx40</name>
<cmt>v</cmt>
<desc>Charneux Chemin n°40 </desc>
<link href="https://chemins.be/charneux/chemin/40"/><trkseg>
<trkpt lat="50.692710" lon="5.786940"><time>2026-05-07T19:06:15Z</time></trkpt>
<trkpt lat="50.692762" lon="5.786121"><time>2026-05-07T19:16:15Z</time></trkpt>
<trkpt lat="50.692583" lon="5.785041"><time>2026-05-07T19:26:15Z</time></trkpt>
<trkpt lat="50.692486" lon="5.784519"><time>2026-05-07T19:36:15Z</time></trkpt>
<trkpt lat="50.692551" lon="5.783954"><time>2026-05-07T19:46:15Z</time></trkpt>
</trkseg>
</trk>
<trk>
<name>lhvcx41</name>
<cmt>v</cmt>
<desc>Charneux Chemin n°41 </desc>
<link href="https://chemins.be/charneux/chemin/41"/><trkseg>
<trkpt lat="50.693946" lon="5.786310"><time>2026-05-07T18:26:15Z</time></trkpt>
<trkpt lat="50.692945" lon="5.784894"><time>2026-05-07T18:36:15Z</time></trkpt>
<trkpt lat="50.692597" lon="5.785048"><time>2026-05-07T18:46:15Z</time></trkpt>
</trkseg>
</trk>
<trk>
<name>lhvcx43</name>
<cmt>v</cmt>
<desc>Charneux Chemin n°43 </desc>
<link href="https://chemins.be/charneux/chemin/43"/><trkseg>
<trkpt lat="50.691539" lon="5.787899"><time>2026-05-07T18:26:15Z</time></trkpt>
<trkpt lat="50.691629" lon="5.787444"><time>2026-05-07T18:36:15Z</time></trkpt>
<trkpt lat="50.691912" lon="5.787237"><time>2026-05-07T18:46:15Z</time></trkpt>
<trkpt lat="50.692363" lon="5.787305"><time>2026-05-07T18:56:15Z</time></trkpt>
<trkpt lat="50.692705" lon="5.786976"><time>2026-05-07T19:06:15Z</time></trkpt>
</trkseg>
</trk>
<trk>
<name>lhvcx44</name>
<cmt>q</cmt>
<desc>Charneux Chemin n°44 </desc>
<link href="https://chemins.be/charneux/chemin/44"/><trkseg>
<trkpt lat="50.682975" lon="5.787648"><time>2026-05-07T18:26:15Z</time></trkpt>
<trkpt lat="50.683385" lon="5.788679"><time>2026-05-07T18:36:15Z</time></trkpt>
</trkseg></trk>
<trk>
<name>lhvcx44</name>
<cmt>d</cmt>
<desc>Charneux Chemin n°44 </desc>
<link href="https://chemins.be/charneux/chemin/44"/><trkseg>
<trkpt lat="50.683385" lon="5.788679"><time>2026-05-07T18:36:15Z</time></trkpt>
<trkpt lat="50.684331" lon="5.788594"><time>2026-05-07T18:46:15Z</time></trkpt>
</trkseg></trk>
<trk>
<name>lhvcx44</name>
<cmt>v</cmt>
<desc>Charneux Chemin n°44 </desc>
<link href="https://chemins.be/charneux/chemin/44"/><trkseg>
<trkpt lat="50.684331" lon="5.788594"><time>2026-05-07T18:46:15Z</time></trkpt>
<trkpt lat="50.685302" lon="5.789331"><time>2026-05-07T18:56:15Z</time></trkpt>
<trkpt lat="50.686769" lon="5.790663"><time>2026-05-07T19:06:15Z</time></trkpt>
</trkseg></trk>
<trk>
<name>lhvcx44</name>
<cmt>q</cmt>
<desc>Charneux Chemin n°44 </desc>
<link href="https://chemins.be/charneux/chemin/44"/><trkseg>
<trkpt lat="50.686769" lon="5.790663"><time>2026-05-07T19:06:15Z</time></trkpt>
<trkpt lat="50.688046" lon="5.789909"><time>2026-05-07T19:16:15Z</time></trkpt>
<trkpt lat="50.688987" lon="5.790035"><time>2026-05-07T19:26:15Z</time></trkpt>
<trkpt lat="50.689432" lon="5.790235"><time>2026-05-07T19:36:15Z</time></trkpt>
<trkpt lat="50.690483" lon="5.790135"><time>2026-05-07T19:46:15Z</time></trkpt>
<trkpt lat="50.691688" lon="5.790821"><time>2026-05-07T19:56:15Z</time></trkpt>
</trkseg>
</trk>
<trk>
<name>lhvcx45</name>
<cmt>v</cmt>
<desc>Charneux Chemin/sentier n°45 </desc>
<link href="https://chemins.be/charneux/chemin/45"/><trkseg>
<trkpt lat="50.691590" lon="5.793305"><time>2026-05-07T18:26:15Z</time></trkpt>
<trkpt lat="50.690557" lon="5.793126"><time>2026-05-07T18:36:15Z</time></trkpt>
<trkpt lat="50.690371" lon="5.792440"><time>2026-05-07T18:46:15Z</time></trkpt>
<trkpt lat="50.690004" lon="5.792118"><time>2026-05-07T18:56:15Z</time></trkpt>
</trkseg></trk>
<trk>
<name>lhvcx45</name>
<cmt>q</cmt>
<desc>Charneux Chemin/sentier n°45 </desc>
<link href="https://chemins.be/charneux/chemin/45"/><trkseg>
<trkpt lat="50.690004" lon="5.792118"><time>2026-05-07T18:56:15Z</time></trkpt>
<trkpt lat="50.689075" lon="5.790966"><time>2026-05-07T19:06:15Z</time></trkpt>
<trkpt lat="50.688926" lon="5.790051"><time>2026-05-07T19:16:15Z</time></trkpt>
</trkseg>
</trk>
<trk>
<name>lhvcx47</name>
<cmt>q</cmt>
<desc>Charneux Chemin n°47 </desc>
<link href="https://chemins.be/charneux/chemin/47"/><trkseg>
<trkpt lat="50.690500" lon="5.798376"><time>2026-05-07T18:26:15Z</time></trkpt>
<trkpt lat="50.690886" lon="5.799307"><time>2026-05-07T18:36:15Z</time></trkpt>
</trkseg>
</trk>
<trk>
<name>lhvcx48</name>
<cmt>q</cmt>
<desc>Charneux Chemin n°48 </desc>
<link href="https://chemins.be/charneux/chemin/48"/><trkseg>
<trkpt lat="50.684332" lon="5.800391"><time>2026-05-07T18:26:15Z</time></trkpt>
<trkpt lat="50.685137" lon="5.799910"><time>2026-05-07T18:36:15Z</time></trkpt>
<trkpt lat="50.685450" lon="5.799627"><time>2026-05-07T18:46:15Z</time></trkpt>
</trkseg>
</trk>
<trk>
<name>lhvcx49</name>
<cmt>q</cmt>
<desc>Charneux Chemin n°49 </desc>
<link href="https://chemins.be/charneux/chemin/49"/><trkseg>
<trkpt lat="50.688704" lon="5.800011"><time>2026-05-07T18:26:15Z</time></trkpt>
<trkpt lat="50.689470" lon="5.801399"><time>2026-05-07T18:36:15Z</time></trkpt>
<trkpt lat="50.690637" lon="5.802709"><time>2026-05-07T18:46:15Z</time></trkpt>
<trkpt lat="50.691761" lon="5.803238"><time>2026-05-07T18:56:15Z</time></trkpt>
</trkseg>
</trk>
<trk>
<name>lhvcx5</name>
<cmt>q</cmt>
<desc>Charneux Chemin n°5 Hesselles / Halleux</desc>
<link href="https://chemins.be/charneux/chemin/5"/><trkseg>
<trkpt lat="50.669035" lon="5.812201"><time>2026-05-07T18:26:15Z</time></trkpt>
<trkpt lat="50.669832" lon="5.811677"><time>2026-05-07T18:36:15Z</time></trkpt>
<trkpt lat="50.670587" lon="5.812137"><time>2026-05-07T18:46:15Z</time></trkpt>
</trkseg></trk>
<trk>
<name>lhvcx5</name>
<cmt>r</cmt>
<desc>Charneux Chemin n°5 Hesselles / Halleux</desc>
<link href="https://chemins.be/charneux/chemin/5"/><trkseg>
<trkpt lat="50.670587" lon="5.812137"><time>2026-05-07T18:46:15Z</time></trkpt>
<trkpt lat="50.671507" lon="5.812592"><time>2026-05-07T18:56:15Z</time></trkpt>
<trkpt lat="50.672203" lon="5.812386"><time>2026-05-07T19:06:15Z</time></trkpt>
<trkpt lat="50.672301" lon="5.814188"><time>2026-05-07T19:16:15Z</time></trkpt>
<trkpt lat="50.672900" lon="5.814583"><time>2026-05-07T19:26:15Z</time></trkpt>
<trkpt lat="50.674183" lon="5.818531"><time>2026-05-07T19:36:15Z</time></trkpt>
<trkpt lat="50.673444" lon="5.823132"><time>2026-05-07T19:46:15Z</time></trkpt>
<trkpt lat="50.673998" lon="5.827732"><time>2026-05-07T19:56:15Z</time></trkpt>
<trkpt lat="50.673691" lon="5.828166"><time>2026-05-07T20:06:15Z</time></trkpt>
<trkpt lat="50.673218" lon="5.830304"><time>2026-05-07T20:16:15Z</time></trkpt>
</trkseg></trk>
<trk>
<name>lhvcx5</name>
<cmt>v</cmt>
<desc>Charneux Chemin n°5 Hesselles / Halleux</desc>
<link href="https://chemins.be/charneux/chemin/5"/><trkseg>
<trkpt lat="50.673218" lon="5.830304"><time>2026-05-07T20:16:15Z</time></trkpt>
<trkpt lat="50.672976" lon="5.831478"><time>2026-05-07T20:26:15Z</time></trkpt>
<trkpt lat="50.672301" lon="5.833260"><time>2026-05-07T20:36:15Z</time></trkpt>
</trkseg>
</trk>
<trk>
<name>lhvcx50</name>
<cmt>v</cmt>
<desc>Charneux Chemin n°50 </desc>
<link href="https://chemins.be/charneux/chemin/50"/><trkseg>
<trkpt lat="50.691274" lon="5.811621"><time>2026-05-07T18:26:15Z</time></trkpt>
<trkpt lat="50.691149" lon="5.810831"><time>2026-05-07T18:36:15Z</time></trkpt>
</trkseg>
</trk>
<trk>
<name>lhvcx51</name>
<cmt>v</cmt>
<desc>Charneux Sentier n°51 </desc>
<link href="https://chemins.be/charneux/sentier/51"/><trkseg>
<trkpt lat="50.690757" lon="5.810605"><time>2026-05-07T18:26:15Z</time></trkpt>
<trkpt lat="50.690737" lon="5.808982"><time>2026-05-07T18:36:15Z</time></trkpt>
<trkpt lat="50.690724" lon="5.807841"><time>2026-05-07T18:46:15Z</time></trkpt>
<trkpt lat="50.690528" lon="5.806691"><time>2026-05-07T18:56:15Z</time></trkpt>
</trkseg>
</trk>
<trk>
<name>lhvcx52</name>
<cmt>v</cmt>
<desc>Charneux Chemin n°52 Groumette</desc>
<link href="https://chemins.be/charneux/chemin/52"/><trkseg>
<trkpt lat="50.692479" lon="5.800258"><time>2026-05-07T18:26:15Z</time></trkpt>
<trkpt lat="50.692418" lon="5.801957"><time>2026-05-07T18:36:15Z</time></trkpt>
<trkpt lat="50.691756" lon="5.803255"><time>2026-05-07T18:46:15Z</time></trkpt>
<trkpt lat="50.692427" lon="5.804968"><time>2026-05-07T18:56:15Z</time></trkpt>
<trkpt lat="50.692336" lon="5.805415"><time>2026-05-07T19:06:15Z</time></trkpt>
</trkseg>
</trk>
<trk>
<name>lhvcx53</name>
<cmt>q</cmt>
<desc>Charneux Chemin n°53 </desc>
<link href="https://chemins.be/charneux/chemin/53"/><trkseg>
<trkpt lat="50.686441" lon="5.804410"><time>2026-05-07T18:26:15Z</time></trkpt>
<trkpt lat="50.686908" lon="5.807268"><time>2026-05-07T18:36:15Z</time></trkpt>
<trkpt lat="50.687256" lon="5.807791"><time>2026-05-07T18:46:15Z</time></trkpt>
</trkseg></trk>
<trk>
<name>lhvcx53</name>
<cmt>r</cmt>
<desc>Charneux Chemin n°53 </desc>
<link href="https://chemins.be/charneux/chemin/53"/><trkseg>
<trkpt lat="50.687256" lon="5.807791"><time>2026-05-07T18:46:15Z</time></trkpt>
<trkpt lat="50.688852" lon="5.812597"><time>2026-05-07T18:56:15Z</time></trkpt>
<trkpt lat="50.688033" lon="5.816553"><time>2026-05-07T19:06:15Z</time></trkpt>
<trkpt lat="50.689107" lon="5.819099"><time>2026-05-07T19:16:15Z</time></trkpt>
</trkseg></trk>
<trk>
<name>lhvcx53</name>
<cmt>q</cmt>
<desc>Charneux Chemin n°53 </desc>
<link href="https://chemins.be/charneux/chemin/53"/><trkseg>
<trkpt lat="50.689107" lon="5.819099"><time>2026-05-07T19:16:15Z</time></trkpt>
<trkpt lat="50.689422" lon="5.819907"><time>2026-05-07T19:26:15Z</time></trkpt>
<trkpt lat="50.689821" lon="5.820508"><time>2026-05-07T19:36:15Z</time></trkpt>
</trkseg>
</trk>
<trk>
<name>lhvcx54</name>
<cmt>v</cmt>
<desc>Charneux Chemin n°54 </desc>
<link href="https://chemins.be/charneux/chemin/54"/><trkseg>
<trkpt lat="50.688043" lon="5.816278"><time>2026-05-07T18:26:15Z</time></trkpt>
<trkpt lat="50.687583" lon="5.816121"><time>2026-05-07T18:36:15Z</time></trkpt>
<trkpt lat="50.687070" lon="5.815299"><time>2026-05-07T18:46:15Z</time></trkpt>
<trkpt lat="50.687067" lon="5.815003"><time>2026-05-07T18:56:15Z</time></trkpt>
<trkpt lat="50.687152" lon="5.814557"><time>2026-05-07T19:06:15Z</time></trkpt>
<trkpt lat="50.687100" lon="5.814295"><time>2026-05-07T19:16:15Z</time></trkpt>
<trkpt lat="50.686850" lon="5.813519"><time>2026-05-07T19:26:15Z</time></trkpt>
<trkpt lat="50.686513" lon="5.812609"><time>2026-05-07T19:36:15Z</time></trkpt>
<trkpt lat="50.686459" lon="5.811990"><time>2026-05-07T19:46:15Z</time></trkpt>
<trkpt lat="50.686418" lon="5.811510"><time>2026-05-07T19:56:15Z</time></trkpt>
<trkpt lat="50.686019" lon="5.810396"><time>2026-05-07T20:06:15Z</time></trkpt>
</trkseg>
</trk>
<trk>
<name>lhvcx55</name>
<cmt>q</cmt>
<desc>Charneux Chemin n°55 </desc>
<link href="https://chemins.be/charneux/chemin/55"/><trkseg>
<trkpt lat="50.686834" lon="5.813364"><time>2026-05-07T18:26:15Z</time></trkpt>
<trkpt lat="50.687573" lon="5.813313"><time>2026-05-07T18:36:15Z</time></trkpt>
<trkpt lat="50.687943" lon="5.812780"><time>2026-05-07T18:46:15Z</time></trkpt>
<trkpt lat="50.687997" lon="5.811424"><time>2026-05-07T18:56:15Z</time></trkpt>
</trkseg>
</trk>
<trk>
<name>lhvcx56</name>
<cmt>v</cmt>
<desc>Charneux Chemin n°56 </desc>
<link href="https://chemins.be/charneux/chemin/56"/><trkseg>
<trkpt lat="50.688375" lon="5.815317"><time>2026-05-07T18:26:15Z</time></trkpt>
<trkpt lat="50.688598" lon="5.815317"><time>2026-05-07T18:36:15Z</time></trkpt>
<trkpt lat="50.689756" lon="5.813480"><time>2026-05-07T18:46:15Z</time></trkpt>
<trkpt lat="50.690142" lon="5.813119"><time>2026-05-07T18:56:15Z</time></trkpt>
</trkseg>
</trk>
<trk>
<name>lhvcx57</name>
<cmt>q</cmt>
<desc>Charneux Sentier n°57 </desc>
<link href="https://chemins.be/charneux/sentier/57"/><trkseg>
<trkpt lat="50.688651" lon="5.811864"><time>2026-05-07T18:26:15Z</time></trkpt>
<trkpt lat="50.689249" lon="5.812984"><time>2026-05-07T18:36:15Z</time></trkpt>
<trkpt lat="50.689793" lon="5.813439"><time>2026-05-07T18:46:15Z</time></trkpt>
</trkseg>
</trk>
<trk>
<name>lhvcx58</name>
<cmt>q</cmt>
<desc>Charneux Chemin n°58 </desc>
<link href="https://chemins.be/charneux/chemin/58"/><trkseg>
<trkpt lat="50.688636" lon="5.820893"><time>2026-05-07T18:26:15Z</time></trkpt>
<trkpt lat="50.688452" lon="5.822225"><time>2026-05-07T18:36:15Z</time></trkpt>
<trkpt lat="50.688191" lon="5.822629"><time>2026-05-07T18:46:15Z</time></trkpt>
</trkseg>
</trk>
<trk>
<name>lhvcx59</name>
<cmt>d</cmt>
<desc>Charneux Chemin n°59 </desc>
<link href="https://chemins.be/charneux/chemin/59"/><trkseg>
<trkpt lat="50.689216" lon="5.805572"><time>2026-05-07T18:26:15Z</time></trkpt>
<trkpt lat="50.688652" lon="5.806216"><time>2026-05-07T18:36:15Z</time></trkpt>
</trkseg></trk>
<trk>
<name>lhvcx59</name>
<cmt>q</cmt>
<desc>Charneux Chemin n°59 </desc>
<link href="https://chemins.be/charneux/chemin/59"/><trkseg>
<trkpt lat="50.688652" lon="5.806216"><time>2026-05-07T18:36:15Z</time></trkpt>
<trkpt lat="50.687909" lon="5.807228"><time>2026-05-07T18:46:15Z</time></trkpt>
<trkpt lat="50.687324" lon="5.807332"><time>2026-05-07T18:56:15Z</time></trkpt>
</trkseg>
</trk>
<trk>
<name>lhvcx6</name>
<cmt>r</cmt>
<desc>Charneux Chemin n°6 Val de Bouxhmont</desc>
<link href="https://chemins.be/charneux/chemin/6"/><trkseg>
<trkpt lat="50.650671" lon="5.810946"><time>2026-05-07T18:26:15Z</time></trkpt>
<trkpt lat="50.655536" lon="5.815113"><time>2026-05-07T18:36:15Z</time></trkpt>
<trkpt lat="50.656216" lon="5.815185"><time>2026-05-07T18:46:15Z</time></trkpt>
<trkpt lat="50.656588" lon="5.815900"><time>2026-05-07T18:56:15Z</time></trkpt>
</trkseg>
</trk>
<trk>
<name>lhvcx60</name>
<cmt>q</cmt>
<desc>Charneux Chemin n°60 </desc>
<link href="https://chemins.be/charneux/chemin/60"/><trkseg>
<trkpt lat="50.674834" lon="5.839239"><time>2026-05-07T18:26:15Z</time></trkpt>
<trkpt lat="50.675487" lon="5.840612"><time>2026-05-07T18:36:15Z</time></trkpt>
</trkseg>
</trk>
<trk>
<name>lhvcx62</name>
<cmt>d</cmt>
<desc>Charneux Sentier n°62 </desc>
<link href="https://chemins.be/charneux/sentier/62"/><trkseg>
<trkpt lat="50.677991" lon="5.798567"><time>2026-05-07T18:26:15Z</time></trkpt>
<trkpt lat="50.678190" lon="5.797819"><time>2026-05-07T18:36:15Z</time></trkpt>
</trkseg></trk>
<trk>
<name>lhvcx62</name>
<cmt>q</cmt>
<desc>Charneux Sentier n°62 </desc>
<link href="https://chemins.be/charneux/sentier/62"/><trkseg>
<trkpt lat="50.678190" lon="5.797819"><time>2026-05-07T18:36:15Z</time></trkpt>
<trkpt lat="50.678584" lon="5.796344"><time>2026-05-07T18:46:15Z</time></trkpt>
<trkpt lat="50.679378" lon="5.795125"><time>2026-05-07T18:56:15Z</time></trkpt>
<trkpt lat="50.679867" lon="5.795164"><time>2026-05-07T19:06:15Z</time></trkpt>
</trkseg>
</trk>
<trk>
<name>lhvcx63</name>
<cmt>r</cmt>
<desc>Charneux Chemin n°63 Warrimont</desc>
<link href="https://chemins.be/charneux/chemin/63"/><trkseg>
<trkpt lat="50.661252" lon="5.804961"><time>2026-05-07T18:26:15Z</time></trkpt>
<trkpt lat="50.663080" lon="5.806197"><time>2026-05-07T18:36:15Z</time></trkpt>
<trkpt lat="50.664820" lon="5.807594"><time>2026-05-07T18:46:15Z</time></trkpt>
<trkpt lat="50.665214" lon="5.808002"><time>2026-05-07T18:56:15Z</time></trkpt>
<trkpt lat="50.665222" lon="5.808251"><time>2026-05-07T19:06:15Z</time></trkpt>
</trkseg></trk>
<trk>
<name>lhvcx63</name>
<cmt>q</cmt>
<desc>Charneux Chemin n°63 Warrimont</desc>
<link href="https://chemins.be/charneux/chemin/63"/><trkseg>
<trkpt lat="50.665222" lon="5.808251"><time>2026-05-07T19:06:15Z</time></trkpt>
<trkpt lat="50.666170" lon="5.809064"><time>2026-05-07T19:16:15Z</time></trkpt>
<trkpt lat="50.667029" lon="5.811072"><time>2026-05-07T19:26:15Z</time></trkpt>
<trkpt lat="50.667376" lon="5.811396"><time>2026-05-07T19:36:15Z</time></trkpt>
</trkseg></trk>
<trk>
<name>lhvcx63</name>
<cmt>v</cmt>
<desc>Charneux Chemin n°63 Warrimont</desc>
<link href="https://chemins.be/charneux/chemin/63"/><trkseg>
<trkpt lat="50.667376" lon="5.811396"><time>2026-05-07T19:36:15Z</time></trkpt>
<trkpt lat="50.668020" lon="5.811999"><time>2026-05-07T19:46:15Z</time></trkpt>
</trkseg>
</trk>
<trk>
<name>lhvcx64</name>
<cmt>r</cmt>
<desc>Charneux Chemin n°64 Warrimont</desc>
<link href="https://chemins.be/charneux/chemin/64"/><trkseg>
<trkpt lat="50.665259" lon="5.808227"><time>2026-05-07T18:26:15Z</time></trkpt>
<trkpt lat="50.663915" lon="5.809918"><time>2026-05-07T18:36:15Z</time></trkpt>
<trkpt lat="50.663795" lon="5.809918"><time>2026-05-07T18:46:15Z</time></trkpt>
</trkseg>
</trk>
<trk>
<name>lhvcx65</name>
<cmt>r</cmt>
<desc>Charneux Sentier n°65 </desc>
<link href="https://chemins.be/charneux/sentier/65"/><trkseg>
<trkpt lat="50.661246" lon="5.805030"><time>2026-05-07T18:26:15Z</time></trkpt>
<trkpt lat="50.660883" lon="5.806492"><time>2026-05-07T18:36:15Z</time></trkpt>
</trkseg></trk>
<trk>
<name>lhvcx65</name>
<cmt>v</cmt>
<desc>Charneux Sentier n°65 </desc>
<link href="https://chemins.be/charneux/sentier/65"/><trkseg>
<trkpt lat="50.660883" lon="5.806492"><time>2026-05-07T18:36:15Z</time></trkpt>
<trkpt lat="50.660688" lon="5.807277"><time>2026-05-07T18:46:15Z</time></trkpt>
<trkpt lat="50.660131" lon="5.808689"><time>2026-05-07T18:56:15Z</time></trkpt>
<trkpt lat="50.659621" lon="5.812153"><time>2026-05-07T19:06:15Z</time></trkpt>
<trkpt lat="50.659255" lon="5.814122"><time>2026-05-07T19:16:15Z</time></trkpt>
<trkpt lat="50.659363" lon="5.814819"><time>2026-05-07T19:26:15Z</time></trkpt>
<trkpt lat="50.659218" lon="5.815635"><time>2026-05-07T19:36:15Z</time></trkpt>
</trkseg>
</trk>
<trk>
<name>lhvcx66</name>
<cmt>v</cmt>
<desc>Charneux Chemin n°66 </desc>
<link href="https://chemins.be/charneux/chemin/66"/><trkseg>
<trkpt lat="50.662881" lon="5.817078"><time>2026-05-07T18:26:15Z</time></trkpt>
<trkpt lat="50.662889" lon="5.818637"><time>2026-05-07T18:36:15Z</time></trkpt>
</trkseg>
</trk>
<trk>
<name>lhvcx67</name>
<cmt>q</cmt>
<desc>Charneux Chemin n°67 </desc>
<link href="https://chemins.be/charneux/chemin/67"/><trkseg>
<trkpt lat="50.690317" lon="5.790036"><time>2026-05-07T18:26:15Z</time></trkpt>
<trkpt lat="50.690217" lon="5.789285"><time>2026-05-07T18:36:15Z</time></trkpt>
</trkseg>
</trk>
<trk>
<name>lhvcx68</name>
<cmt>q</cmt>
<desc>Charneux Chemin n°68 </desc>
<link href="https://chemins.be/charneux/chemin/68"/><trkseg>
<trkpt lat="50.676460" lon="5.834438"><time>2026-05-07T18:26:15Z</time></trkpt>
<trkpt lat="50.676409" lon="5.834746"><time>2026-05-07T18:36:15Z</time></trkpt>
<trkpt lat="50.676792" lon="5.835650"><time>2026-05-07T18:46:15Z</time></trkpt>
<trkpt lat="50.676938" lon="5.836294"><time>2026-05-07T18:56:15Z</time></trkpt>
</trkseg>
</trk>
<trk>
<name>lhvcx69</name>
<cmt>d</cmt>
<desc>Charneux Chemin n°69 </desc>
<link href="https://chemins.be/charneux/chemin/69"/><trkseg>
<trkpt lat="50.674632" lon="5.837924"><time>2026-05-07T18:26:15Z</time></trkpt>
<trkpt lat="50.674809" lon="5.837683"><time>2026-05-07T18:36:15Z</time></trkpt>
<trkpt lat="50.674911" lon="5.837066"><time>2026-05-07T18:46:15Z</time></trkpt>
<trkpt lat="50.675347" lon="5.836176"><time>2026-05-07T18:56:15Z</time></trkpt>
</trkseg></trk>
<trk>
<name>lhvcx69</name>
<cmt>q</cmt>
<desc>Charneux Chemin n°69 </desc>
<link href="https://chemins.be/charneux/chemin/69"/><trkseg>
<trkpt lat="50.675347" lon="5.836176"><time>2026-05-07T18:56:15Z</time></trkpt>
<trkpt lat="50.675537" lon="5.835687"><time>2026-05-07T19:06:15Z</time></trkpt>
<trkpt lat="50.676135" lon="5.835103"><time>2026-05-07T19:16:15Z</time></trkpt>
<trkpt lat="50.676411" lon="5.834743"><time>2026-05-07T19:26:15Z</time></trkpt>
</trkseg>
</trk>
<trk>
<name>lhvcx70</name>
<cmt>q</cmt>
<desc>Charneux Sentier n°70 </desc>
<link href="https://chemins.be/charneux/sentier/70"/><trkseg>
<trkpt lat="50.673036" lon="5.827003"><time>2026-05-07T18:26:15Z</time></trkpt>
<trkpt lat="50.672677" lon="5.827895"><time>2026-05-07T18:36:15Z</time></trkpt>
<trkpt lat="50.671121" lon="5.828264"><time>2026-05-07T18:46:15Z</time></trkpt>
</trkseg>
</trk>
<trk>
<name>lhvcx71</name>
<cmt>v</cmt>
<desc>Charneux Sentier n°71 </desc>
<link href="https://chemins.be/charneux/sentier/71"/><trkseg>
<trkpt lat="50.665743" lon="5.822530"><time>2026-05-07T18:26:15Z</time></trkpt>
<trkpt lat="50.666143" lon="5.821662"><time>2026-05-07T18:36:15Z</time></trkpt>
</trkseg></trk>
<trk>
<name>lhvcx71</name>
<cmt>q</cmt>
<desc>Charneux Sentier n°71 </desc>
<link href="https://chemins.be/charneux/sentier/71"/><trkseg>
<trkpt lat="50.666143" lon="5.821662"><time>2026-05-07T18:36:15Z</time></trkpt>
<trkpt lat="50.665480" lon="5.820133"><time>2026-05-07T18:46:15Z</time></trkpt>
<trkpt lat="50.664929" lon="5.820219"><time>2026-05-07T18:56:15Z</time></trkpt>
<trkpt lat="50.664371" lon="5.819769"><time>2026-05-07T19:06:15Z</time></trkpt>
<trkpt lat="50.665330" lon="5.817253"><time>2026-05-07T19:16:15Z</time></trkpt>
<trkpt lat="50.666707" lon="5.813015"><time>2026-05-07T19:26:15Z</time></trkpt>
</trkseg>
</trk>
<trk>
<name>lhvcx72</name>
<cmt>q</cmt>
<desc>Charneux Sentier n°72 </desc>
<link href="https://chemins.be/charneux/sentier/72"/><trkseg>
<trkpt lat="50.676100" lon="5.802718"><time>2026-05-07T18:26:15Z</time></trkpt>
<trkpt lat="50.675411" lon="5.804434"><time>2026-05-07T18:36:15Z</time></trkpt>
<trkpt lat="50.675243" lon="5.804992"><time>2026-05-07T18:46:15Z</time></trkpt>
<trkpt lat="50.675629" lon="5.806587"><time>2026-05-07T18:56:15Z</time></trkpt>
<trkpt lat="50.675837" lon="5.808690"><time>2026-05-07T19:06:15Z</time></trkpt>
<trkpt lat="50.676309" lon="5.811337"><time>2026-05-07T19:16:15Z</time></trkpt>
<trkpt lat="50.676467" lon="5.811480"><time>2026-05-07T19:26:15Z</time></trkpt>
</trkseg></trk>
<trk>
<name>lhvcx72</name>
<cmt>b</cmt>
<desc>Charneux Sentier n°72 </desc>
<link href="https://chemins.be/charneux/sentier/72"/><trkseg>
<trkpt lat="50.676467" lon="5.811480"><time>2026-05-07T19:26:15Z</time></trkpt>
<trkpt lat="50.676131" lon="5.813699"><time>2026-05-07T19:36:15Z</time></trkpt>
<trkpt lat="50.675886" lon="5.814317"><time>2026-05-07T19:46:15Z</time></trkpt>
<trkpt lat="50.675146" lon="5.815055"><time>2026-05-07T19:56:15Z</time></trkpt>
<trkpt lat="50.674156" lon="5.818866"><time>2026-05-07T20:06:15Z</time></trkpt>
</trkseg>
</trk>
<trk>
<name>lhvcx73</name>
<cmt>v</cmt>
<desc>Charneux Chemin n°73 </desc>
<link href="https://chemins.be/charneux/chemin/73"/><trkseg>
<trkpt lat="50.689495" lon="5.799850"><time>2026-05-07T18:26:15Z</time></trkpt>
<trkpt lat="50.689419" lon="5.798193"><time>2026-05-07T18:36:15Z</time></trkpt>
<trkpt lat="50.689326" lon="5.798116"><time>2026-05-07T18:46:15Z</time></trkpt>
<trkpt lat="50.688661" lon="5.796170"><time>2026-05-07T18:56:15Z</time></trkpt>
<trkpt lat="50.689107" lon="5.795655"><time>2026-05-07T19:06:15Z</time></trkpt>
<trkpt lat="50.688886" lon="5.795131"><time>2026-05-07T19:16:15Z</time></trkpt>
</trkseg>
</trk>
<trk>
<name>lhvcx74</name>
<cmt>q</cmt>
<desc>Charneux Chemin n°74 </desc>
<link href="https://chemins.be/charneux/chemin/74"/><trkseg>
<trkpt lat="50.659940" lon="5.803859"><time>2026-05-07T18:26:15Z</time></trkpt>
<trkpt lat="50.659668" lon="5.804535"><time>2026-05-07T18:36:15Z</time></trkpt>
<trkpt lat="50.659770" lon="5.804876"><time>2026-05-07T18:46:15Z</time></trkpt>
</trkseg>
</trk>
<trk>
<name>lhvcx75</name>
<cmt>d</cmt>
<desc>Charneux Chemin n°75 </desc>
<link href="https://chemins.be/charneux/chemin/75"/><trkseg>
<trkpt lat="50.672523" lon="5.796938"><time>2026-05-07T18:26:15Z</time></trkpt>
<trkpt lat="50.672591" lon="5.797453"><time>2026-05-07T18:36:15Z</time></trkpt>
</trkseg>
</trk>
<trk>
<name>lhvcx76</name>
<cmt>v</cmt>
<desc>Charneux Chemin n°76 </desc>
<link href="https://chemins.be/charneux/chemin/76"/><trkseg>
<trkpt lat="50.687222" lon="5.804687"><time>2026-05-07T18:26:15Z</time></trkpt>
<trkpt lat="50.686820" lon="5.805789"><time>2026-05-07T18:36:15Z</time></trkpt>
<trkpt lat="50.686420" lon="5.806167"><time>2026-05-07T18:46:15Z</time></trkpt>
</trkseg>
</trk>
<trk>
<name>lhvcx77</name>
<cmt>q</cmt>
<desc>Charneux Sentier n°77 Bebronne / Cour Beaupré</desc>
<link href="https://chemins.be/charneux/sentier/77"/><trkseg>
<trkpt lat="50.669859" lon="5.796337"><time>2026-05-07T18:26:15Z</time></trkpt>
<trkpt lat="50.669789" lon="5.793915"><time>2026-05-07T18:36:15Z</time></trkpt>
</trkseg></trk>
<trk>
<name>lhvcx77</name>
<cmt>r</cmt>
<desc>Charneux Sentier n°77 Bebronne / Cour Beaupré</desc>
<link href="https://chemins.be/charneux/sentier/77"/><trkseg>
<trkpt lat="50.669789" lon="5.793915"><time>2026-05-07T18:36:15Z</time></trkpt>
<trkpt lat="50.670288" lon="5.793548"><time>2026-05-07T18:46:15Z</time></trkpt>
</trkseg></trk>
<trk>
<name>lhvcx77</name>
<cmt>v</cmt>
<desc>Charneux Sentier n°77 Bebronne / Cour Beaupré</desc>
<link href="https://chemins.be/charneux/sentier/77"/><trkseg>
<trkpt lat="50.670288" lon="5.793548"><time>2026-05-07T18:46:15Z</time></trkpt>
<trkpt lat="50.670073" lon="5.792735"><time>2026-05-07T18:56:15Z</time></trkpt>
<trkpt lat="50.670079" lon="5.792297"><time>2026-05-07T19:06:15Z</time></trkpt>
<trkpt lat="50.670145" lon="5.790587"><time>2026-05-07T19:16:15Z</time></trkpt>
</trkseg></trk>
<trk>
<name>lhvcx77</name>
<cmt>q</cmt>
<desc>Charneux Sentier n°77 Bebronne / Cour Beaupré</desc>
<link href="https://chemins.be/charneux/sentier/77"/><trkseg>
<trkpt lat="50.670145" lon="5.790587"><time>2026-05-07T19:16:15Z</time></trkpt>
<trkpt lat="50.670407" lon="5.790439"><time>2026-05-07T19:26:15Z</time></trkpt>
<trkpt lat="50.670273" lon="5.789671"><time>2026-05-07T19:36:15Z</time></trkpt>
<trkpt lat="50.670508" lon="5.786551"><time>2026-05-07T19:46:15Z</time></trkpt>
</trkseg>
</trk>
<trk>
<name>lhvcx78</name>
<cmt>q</cmt>
<desc>Charneux Sentier n°78 </desc>
<link href="https://chemins.be/charneux/sentier/78"/><trkseg>
<trkpt lat="50.670286" lon="5.801043"><time>2026-05-07T18:26:15Z</time></trkpt>
<trkpt lat="50.671050" lon="5.799738"><time>2026-05-07T18:36:15Z</time></trkpt>
</trkseg>
</trk>
<trk>
<name>lhvcx79</name>
<cmt>d</cmt>
<desc>Charneux Sentier n°79 </desc>
<link href="https://chemins.be/charneux/sentier/79"/><trkseg>
<trkpt lat="50.673813" lon="5.789709"><time>2026-05-07T18:26:15Z</time></trkpt>
<trkpt lat="50.672832" lon="5.785924"><time>2026-05-07T18:36:15Z</time></trkpt>
</trkseg>
</trk>
<trk>
<name>lhvcx8</name>
<cmt>q</cmt>
<desc>Charneux Chemin n°8 </desc>
<link href="https://chemins.be/charneux/chemin/8"/><trkseg>
<trkpt lat="50.656655" lon="5.796713"><time>2026-05-07T18:26:15Z</time></trkpt>
<trkpt lat="50.657045" lon="5.796073"><time>2026-05-07T18:36:15Z</time></trkpt>
<trkpt lat="50.658369" lon="5.794945"><time>2026-05-07T18:46:15Z</time></trkpt>
<trkpt lat="50.660164" lon="5.793503"><time>2026-05-07T18:56:15Z</time></trkpt>
<trkpt lat="50.660757" lon="5.792739"><time>2026-05-07T19:06:15Z</time></trkpt>
</trkseg>
</trk>
<trk>
<name>lhvcx80</name>
<cmt>v</cmt>
<desc>Charneux Sentier n°80 </desc>
<link href="https://chemins.be/charneux/sentier/80"/><trkseg>
<trkpt lat="50.660763" lon="5.792696"><time>2026-05-07T18:26:15Z</time></trkpt>
<trkpt lat="50.661660" lon="5.794400"><time>2026-05-07T18:36:15Z</time></trkpt>
<trkpt lat="50.662359" lon="5.797138"><time>2026-05-07T18:46:15Z</time></trkpt>
<trkpt lat="50.662727" lon="5.798326"><time>2026-05-07T18:56:15Z</time></trkpt>
<trkpt lat="50.663059" lon="5.798979"><time>2026-05-07T19:06:15Z</time></trkpt>
<trkpt lat="50.664294" lon="5.800481"><time>2026-05-07T19:16:15Z</time></trkpt>
<trkpt lat="50.665833" lon="5.803365"><time>2026-05-07T19:26:15Z</time></trkpt>
<trkpt lat="50.665972" lon="5.804096"><time>2026-05-07T19:36:15Z</time></trkpt>
</trkseg>
</trk>
<trk>
<name>lhvcx81</name>
<cmt>q</cmt>
<desc>Charneux Sentier n°81 </desc>
<link href="https://chemins.be/charneux/sentier/81"/><trkseg>
<trkpt lat="50.661848" lon="5.797232"><time>2026-05-07T18:26:15Z</time></trkpt>
<trkpt lat="50.662221" lon="5.797893"><time>2026-05-07T18:36:15Z</time></trkpt>
<trkpt lat="50.662700" lon="5.798301"><time>2026-05-07T18:46:15Z</time></trkpt>
</trkseg>
</trk>
<trk>
<name>lhvcx82</name>
<cmt>v</cmt>
<desc>Charneux Sentier n°82 </desc>
<link href="https://chemins.be/charneux/sentier/82"/><trkseg>
<trkpt lat="50.660676" lon="5.803807"><time>2026-05-07T18:26:15Z</time></trkpt>
<trkpt lat="50.660806" lon="5.803086"><time>2026-05-07T18:36:15Z</time></trkpt>
<trkpt lat="50.660676" lon="5.802185"><time>2026-05-07T18:46:15Z</time></trkpt>
</trkseg></trk>
<trk>
<name>lhvcx82</name>
<cmt>d</cmt>
<desc>Charneux Sentier n°82 </desc>
<link href="https://chemins.be/charneux/sentier/82"/><trkseg>
<trkpt lat="50.660676" lon="5.802185"><time>2026-05-07T18:46:15Z</time></trkpt>
<trkpt lat="50.660102" lon="5.801348"><time>2026-05-07T18:56:15Z</time></trkpt>
<trkpt lat="50.660269" lon="5.797631"><time>2026-05-07T19:06:15Z</time></trkpt>
<trkpt lat="50.659688" lon="5.793983"><time>2026-05-07T19:16:15Z</time></trkpt>
<trkpt lat="50.659679" lon="5.792295"><time>2026-05-07T19:26:15Z</time></trkpt>
<trkpt lat="50.660149" lon="5.788403"><time>2026-05-07T19:36:15Z</time></trkpt>
</trkseg>
</trk>
<trk>
<name>lhvcx83</name>
<cmt>q</cmt>
<desc>Charneux Sentier n°83 </desc>
<link href="https://chemins.be/charneux/sentier/83"/><trkseg>
<trkpt lat="50.656228" lon="5.792930"><time>2026-05-07T18:26:15Z</time></trkpt>
<trkpt lat="50.657568" lon="5.795713"><time>2026-05-07T18:36:15Z</time></trkpt>
</trkseg>
</trk>
<trk>
<name>lhvcx84</name>
<cmt>q</cmt>
<desc>Charneux Sentier n°84 </desc>
<link href="https://chemins.be/charneux/sentier/84"/><trkseg>
<trkpt lat="50.674113" lon="5.792207"><time>2026-05-07T18:26:15Z</time></trkpt>
<trkpt lat="50.674616" lon="5.791597"><time>2026-05-07T18:36:15Z</time></trkpt>
<trkpt lat="50.674827" lon="5.790127"><time>2026-05-07T18:46:15Z</time></trkpt>
</trkseg></trk>
<trk>
<name>lhvcx84</name>
<cmt>r</cmt>
<desc>Charneux Sentier n°84 </desc>
<link href="https://chemins.be/charneux/sentier/84"/><trkseg>
<trkpt lat="50.674827" lon="5.790127"><time>2026-05-07T18:46:15Z</time></trkpt>
<trkpt lat="50.676418" lon="5.789076"><time>2026-05-07T18:56:15Z</time></trkpt>
</trkseg></trk>
<trk>
<name>lhvcx84</name>
<cmt>q</cmt>
<desc>Charneux Sentier n°84 </desc>
<link href="https://chemins.be/charneux/sentier/84"/><trkseg>
<trkpt lat="50.676418" lon="5.789076"><time>2026-05-07T18:56:15Z</time></trkpt>
<trkpt lat="50.676880" lon="5.787209"><time>2026-05-07T19:06:15Z</time></trkpt>
</trkseg></trk>
<trk>
<name>lhvcx84</name>
<cmt>r</cmt>
<desc>Charneux Sentier n°84 </desc>
<link href="https://chemins.be/charneux/sentier/84"/><trkseg>
<trkpt lat="50.676880" lon="5.787209"><time>2026-05-07T19:06:15Z</time></trkpt>
<trkpt lat="50.676690" lon="5.786866"><time>2026-05-07T19:16:15Z</time></trkpt>
</trkseg></trk>
<trk>
<name>lhvcx84</name>
<cmt>q</cmt>
<desc>Charneux Sentier n°84 </desc>
<link href="https://chemins.be/charneux/sentier/84"/><trkseg>
<trkpt lat="50.676690" lon="5.786866"><time>2026-05-07T19:16:15Z</time></trkpt>
<trkpt lat="50.677275" lon="5.783561"><time>2026-05-07T19:26:15Z</time></trkpt>
</trkseg>
</trk>
<trk>
<name>lhvcx85</name>
<cmt>q</cmt>
<desc>Charneux Sentier n°85 </desc>
<link href="https://chemins.be/charneux/sentier/85"/><trkseg>
<trkpt lat="50.677591" lon="5.788580"><time>2026-05-07T18:26:15Z</time></trkpt>
<trkpt lat="50.678205" lon="5.787397"><time>2026-05-07T18:36:15Z</time></trkpt>
<trkpt lat="50.678567" lon="5.787129"><time>2026-05-07T18:46:15Z</time></trkpt>
<trkpt lat="50.679593" lon="5.784908"><time>2026-05-07T18:56:15Z</time></trkpt>
<trkpt lat="50.679607" lon="5.783631"><time>2026-05-07T19:06:15Z</time></trkpt>
<trkpt lat="50.680518" lon="5.782354"><time>2026-05-07T19:16:15Z</time></trkpt>
</trkseg>
</trk>
<trk>
<name>lhvcx86</name>
<cmt>q</cmt>
<desc>Charneux Sentier n°86 </desc>
<link href="https://chemins.be/charneux/sentier/86"/><trkseg>
<trkpt lat="50.679944" lon="5.785908"><time>2026-05-07T18:26:15Z</time></trkpt>
<trkpt lat="50.679597" lon="5.784927"><time>2026-05-07T18:36:15Z</time></trkpt>
<trkpt lat="50.679628" lon="5.783602"><time>2026-05-07T18:46:15Z</time></trkpt>
<trkpt lat="50.679305" lon="5.782175"><time>2026-05-07T18:56:15Z</time></trkpt>
</trkseg>
</trk>
<trk>
<name>lhvcx87</name>
<cmt>q</cmt>
<desc>Charneux Sentier n°87 </desc>
<link href="https://chemins.be/charneux/sentier/87"/><trkseg>
<trkpt lat="50.683098" lon="5.796773"><time>2026-05-07T18:26:15Z</time></trkpt>
<trkpt lat="50.680323" lon="5.794709"><time>2026-05-07T18:36:15Z</time></trkpt>
<trkpt lat="50.679323" lon="5.793966"><time>2026-05-07T18:46:15Z</time></trkpt>
<trkpt lat="50.676832" lon="5.793262"><time>2026-05-07T18:56:15Z</time></trkpt>
<trkpt lat="50.675440" lon="5.791941"><time>2026-05-07T19:06:15Z</time></trkpt>
<trkpt lat="50.674624" lon="5.791589"><time>2026-05-07T19:16:15Z</time></trkpt>
</trkseg>
</trk>
<trk>
<name>lhvcx88</name>
<cmt>q</cmt>
<desc>Charneux Sentier n°88 </desc>
<link href="https://chemins.be/charneux/sentier/88"/><trkseg>
<trkpt lat="50.679864" lon="5.795169"><time>2026-05-07T18:26:15Z</time></trkpt>
<trkpt lat="50.680552" lon="5.794550"><time>2026-05-07T18:36:15Z</time></trkpt>
<trkpt lat="50.682217" lon="5.793632"><time>2026-05-07T18:46:15Z</time></trkpt>
</trkseg>
</trk>
<trk>
<name>lhvcx89</name>
<cmt>v</cmt>
<desc>Charneux Sentier n°89 </desc>
<link href="https://chemins.be/charneux/sentier/89"/><trkseg>
<trkpt lat="50.678333" lon="5.800086"><time>2026-05-07T18:26:15Z</time></trkpt>
<trkpt lat="50.678687" lon="5.801554"><time>2026-05-07T18:36:15Z</time></trkpt>
<trkpt lat="50.680661" lon="5.802970"><time>2026-05-07T18:46:15Z</time></trkpt>
<trkpt lat="50.681308" lon="5.805596"><time>2026-05-07T18:56:15Z</time></trkpt>
<trkpt lat="50.681597" lon="5.805339"><time>2026-05-07T19:06:15Z</time></trkpt>
<trkpt lat="50.682554" lon="5.806506"><time>2026-05-07T19:16:15Z</time></trkpt>
</trkseg></trk>
<trk>
<name>lhvcx89</name>
<cmt>d</cmt>
<desc>Charneux Sentier n°89 </desc>
<link href="https://chemins.be/charneux/sentier/89"/><trkseg>
<trkpt lat="50.682554" lon="5.806506"><time>2026-05-07T19:16:15Z</time></trkpt>
<trkpt lat="50.684242" lon="5.808347"><time>2026-05-07T19:26:15Z</time></trkpt>
<trkpt lat="50.685458" lon="5.810523"><time>2026-05-07T19:36:15Z</time></trkpt>
</trkseg>
</trk>
<trk>
<name>lhvcx9</name>
<cmt>v</cmt>
<desc>Charneux Chemin n°9 </desc>
<link href="https://chemins.be/charneux/chemin/9"/><trkseg>
<trkpt lat="50.660262" lon="5.797636"><time>2026-05-07T18:26:15Z</time></trkpt>
<trkpt lat="50.660034" lon="5.796550"><time>2026-05-07T18:36:15Z</time></trkpt>
</trkseg></trk>
<trk>
<name>lhvcx9</name>
<cmt>q</cmt>
<desc>Charneux Chemin n°9 </desc>
<link href="https://chemins.be/charneux/chemin/9"/><trkseg>
<trkpt lat="50.660034" lon="5.796550"><time>2026-05-07T18:36:15Z</time></trkpt>
<trkpt lat="50.659587" lon="5.794056"><time>2026-05-07T18:46:15Z</time></trkpt>
</trkseg>
</trk>
<trk>
<name>lhvcx90</name>
<cmt>q</cmt>
<desc>Charneux Sentier n°90 Grosoneux</desc>
<link href="https://chemins.be/charneux/sentier/90"/><trkseg>
<trkpt lat="50.681646" lon="5.799391"><time>2026-05-07T18:26:15Z</time></trkpt>
<trkpt lat="50.683647" lon="5.798086"><time>2026-05-07T18:36:15Z</time></trkpt>
<trkpt lat="50.683729" lon="5.796251"><time>2026-05-07T18:46:15Z</time></trkpt>
<trkpt lat="50.683919" lon="5.792026"><time>2026-05-07T18:56:15Z</time></trkpt>
</trkseg></trk>
<trk>
<name>lhvcx90</name>
<cmt>r</cmt>
<desc>Charneux Sentier n°90 Grosoneux</desc>
<link href="https://chemins.be/charneux/sentier/90"/><trkseg>
<trkpt lat="50.683919" lon="5.792026"><time>2026-05-07T18:56:15Z</time></trkpt>
<trkpt lat="50.685681" lon="5.788387"><time>2026-05-07T19:06:15Z</time></trkpt>
</trkseg></trk>
<trk>
<name>lhvcx90</name>
<cmt>q</cmt>
<desc>Charneux Sentier n°90 Grosoneux</desc>
<link href="https://chemins.be/charneux/sentier/90"/><trkseg>
<trkpt lat="50.685681" lon="5.788387"><time>2026-05-07T19:06:15Z</time></trkpt>
<trkpt lat="50.685699" lon="5.786215"><time>2026-05-07T19:16:15Z</time></trkpt>
<trkpt lat="50.685506" lon="5.784355"><time>2026-05-07T19:26:15Z</time></trkpt>
<trkpt lat="50.685266" lon="5.784079"><time>2026-05-07T19:36:15Z</time></trkpt>
<trkpt lat="50.685692" lon="5.783548"><time>2026-05-07T19:46:15Z</time></trkpt>
</trkseg>
</trk>
<trk>
<name>lhvcx92</name>
<cmt>v</cmt>
<desc>Charneux Sentier n°92 </desc>
<link href="https://chemins.be/charneux/sentier/92"/><trkseg>
<trkpt lat="50.680025" lon="5.810635"><time>2026-05-07T18:26:15Z</time></trkpt>
<trkpt lat="50.681988" lon="5.810008"><time>2026-05-07T18:36:15Z</time></trkpt>
<trkpt lat="50.682608" lon="5.809081"><time>2026-05-07T18:46:15Z</time></trkpt>
<trkpt lat="50.683051" lon="5.808889"><time>2026-05-07T18:56:15Z</time></trkpt>
<trkpt lat="50.684212" lon="5.808386"><time>2026-05-07T19:06:15Z</time></trkpt>
<trkpt lat="50.686116" lon="5.806729"><time>2026-05-07T19:16:15Z</time></trkpt>
<trkpt lat="50.686447" lon="5.806111"><time>2026-05-07T19:26:15Z</time></trkpt>
</trkseg>
</trk>
<trk>
<name>lhvcx93</name>
<cmt>v</cmt>
<desc>Charneux Sentier n°93 </desc>
<link href="https://chemins.be/charneux/sentier/93"/><trkseg>
<trkpt lat="50.677339" lon="5.811122"><time>2026-05-07T18:26:15Z</time></trkpt>
<trkpt lat="50.677366" lon="5.810388"><time>2026-05-07T18:36:15Z</time></trkpt>
<trkpt lat="50.677649" lon="5.810336"><time>2026-05-07T18:46:15Z</time></trkpt>
<trkpt lat="50.678413" lon="5.808331"><time>2026-05-07T18:56:15Z</time></trkpt>
<trkpt lat="50.679206" lon="5.806395"><time>2026-05-07T19:06:15Z</time></trkpt>
<trkpt lat="50.679575" lon="5.802258"><time>2026-05-07T19:16:15Z</time></trkpt>
</trkseg>
</trk>
<trk>
<name>lhvcx94</name>
<cmt>v</cmt>
<desc>Charneux Sentier n°94 </desc>
<link href="https://chemins.be/charneux/sentier/94"/><trkseg>
<trkpt lat="50.665254" lon="5.808296"><time>2026-05-07T18:26:15Z</time></trkpt>
<trkpt lat="50.665672" lon="5.808330"><time>2026-05-07T18:36:15Z</time></trkpt>
<trkpt lat="50.668023" lon="5.809746"><time>2026-05-07T18:46:15Z</time></trkpt>
<trkpt lat="50.668512" lon="5.809652"><time>2026-05-07T18:56:15Z</time></trkpt>
<trkpt lat="50.668427" lon="5.810137"><time>2026-05-07T19:06:15Z</time></trkpt>
</trkseg></trk>
<trk>
<name>lhvcx94</name>
<cmt>d</cmt>
<desc>Charneux Sentier n°94 </desc>
<link href="https://chemins.be/charneux/sentier/94"/><trkseg>
<trkpt lat="50.668427" lon="5.810137"><time>2026-05-07T19:06:15Z</time></trkpt>
<trkpt lat="50.669410" lon="5.810725"><time>2026-05-07T19:16:15Z</time></trkpt>
</trkseg></trk>
<trk>
<name>lhvcx94</name>
<cmt>q</cmt>
<desc>Charneux Sentier n°94 </desc>
<link href="https://chemins.be/charneux/sentier/94"/><trkseg>
<trkpt lat="50.669410" lon="5.810725"><time>2026-05-07T19:16:15Z</time></trkpt>
<trkpt lat="50.669689" lon="5.810892"><time>2026-05-07T19:26:15Z</time></trkpt>
<trkpt lat="50.669860" lon="5.812319"><time>2026-05-07T19:36:15Z</time></trkpt>
<trkpt lat="50.670030" lon="5.813731"><time>2026-05-07T19:46:15Z</time></trkpt>
</trkseg></trk>
<trk>
<name>lhvcx94</name>
<cmt>d</cmt>
<desc>Charneux Sentier n°94 </desc>
<link href="https://chemins.be/charneux/sentier/94"/><trkseg>
<trkpt lat="50.670030" lon="5.813731"><time>2026-05-07T19:46:15Z</time></trkpt>
<trkpt lat="50.670233" lon="5.815424"><time>2026-05-07T19:56:15Z</time></trkpt>
<trkpt lat="50.670951" lon="5.819132"><time>2026-05-07T20:06:15Z</time></trkpt>
</trkseg></trk>
<trk>
<name>lhvcx94</name>
<cmt>v</cmt>
<desc>Charneux Sentier n°94 </desc>
<link href="https://chemins.be/charneux/sentier/94"/><trkseg>
<trkpt lat="50.670951" lon="5.819132"><time>2026-05-07T20:06:15Z</time></trkpt>
<trkpt lat="50.670090" lon="5.821325"><time>2026-05-07T20:16:15Z</time></trkpt>
<trkpt lat="50.669920" lon="5.822511"><time>2026-05-07T20:26:15Z</time></trkpt>
<trkpt lat="50.670442" lon="5.822988"><time>2026-05-07T20:36:15Z</time></trkpt>
<trkpt lat="50.670892" lon="5.823904"><time>2026-05-07T20:46:15Z</time></trkpt>
<trkpt lat="50.670615" lon="5.827878"><time>2026-05-07T20:56:15Z</time></trkpt>
</trkseg>
</trk>
<trk>
<name>lhvcx95</name>
<cmt>v</cmt>
<desc>Charneux Sentier n°95 </desc>
<link href="https://chemins.be/charneux/sentier/95"/><trkseg>
<trkpt lat="50.670735" lon="5.809004"><time>2026-05-07T18:26:15Z</time></trkpt>
<trkpt lat="50.671099" lon="5.810403"><time>2026-05-07T18:36:15Z</time></trkpt>
<trkpt lat="50.671649" lon="5.811793"><time>2026-05-07T18:46:15Z</time></trkpt>
<trkpt lat="50.671839" lon="5.812119"><time>2026-05-07T18:56:15Z</time></trkpt>
<trkpt lat="50.671970" lon="5.812514"><time>2026-05-07T19:06:15Z</time></trkpt>
</trkseg>
</trk>
<trk>
<name>lhvcx96</name>
<cmt>q</cmt>
<desc>Charneux Sentier n°96 </desc>
<link href="https://chemins.be/charneux/sentier/96"/><trkseg>
<trkpt lat="50.673971" lon="5.819767"><time>2026-05-07T18:26:15Z</time></trkpt>
<trkpt lat="50.672329" lon="5.819029"><time>2026-05-07T18:36:15Z</time></trkpt>
<trkpt lat="50.671328" lon="5.817956"><time>2026-05-07T18:46:15Z</time></trkpt>
</trkseg>
</trk>
<trk>
<name>lhvcx97</name>
<cmt>q</cmt>
<desc>Charneux Sentier n°97 </desc>
<link href="https://chemins.be/charneux/sentier/97"/><trkseg>
<trkpt lat="50.659894" lon="5.803884"><time>2026-05-07T18:26:15Z</time></trkpt>
<trkpt lat="50.659884" lon="5.804193"><time>2026-05-07T18:36:15Z</time></trkpt>
<trkpt lat="50.661238" lon="5.805111"><time>2026-05-07T18:46:15Z</time></trkpt>
</trkseg></trk>
<trk>
<name>lhvcx97</name>
<cmt>r</cmt>
<desc>Charneux Sentier n°97 </desc>
<link href="https://chemins.be/charneux/sentier/97"/><trkseg>
<trkpt lat="50.661238" lon="5.805111"><time>2026-05-07T18:46:15Z</time></trkpt>
<trkpt lat="50.660896" lon="5.806502"><time>2026-05-07T18:56:15Z</time></trkpt>
</trkseg></trk>
<trk>
<name>lhvcx97</name>
<cmt>v</cmt>
<desc>Charneux Sentier n°97 </desc>
<link href="https://chemins.be/charneux/sentier/97"/><trkseg>
<trkpt lat="50.660896" lon="5.806502"><time>2026-05-07T18:56:15Z</time></trkpt>
<trkpt lat="50.662489" lon="5.813178"><time>2026-05-07T19:06:15Z</time></trkpt>
<trkpt lat="50.662886" lon="5.814443"><time>2026-05-07T19:16:15Z</time></trkpt>
<trkpt lat="50.663917" lon="5.816579"><time>2026-05-07T19:26:15Z</time></trkpt>
<trkpt lat="50.664837" lon="5.818481"><time>2026-05-07T19:36:15Z</time></trkpt>
</trkseg></trk>
<trk>
<name>lhvcx97</name>
<cmt>q</cmt>
<desc>Charneux Sentier n°97 </desc>
<link href="https://chemins.be/charneux/sentier/97"/><trkseg>
<trkpt lat="50.664837" lon="5.818481"><time>2026-05-07T19:36:15Z</time></trkpt>
<trkpt lat="50.665462" lon="5.820153"><time>2026-05-07T19:46:15Z</time></trkpt>
</trkseg>
</trk>
<trk>
<name>lhvcx98</name>
<cmt>r</cmt>
<desc>Charneux Sentier n°98 Fastré</desc>
<link href="https://chemins.be/charneux/sentier/98"/><trkseg>
<trkpt lat="50.667748" lon="5.824162"><time>2026-05-07T18:26:15Z</time></trkpt>
<trkpt lat="50.667574" lon="5.823191"><time>2026-05-07T18:36:15Z</time></trkpt>
<trkpt lat="50.666882" lon="5.817481"><time>2026-05-07T18:46:15Z</time></trkpt>
<trkpt lat="50.667950" lon="5.812524"><time>2026-05-07T18:56:15Z</time></trkpt>
</trkseg>
</trk>
<trk>
<name>lhvcx99</name>
<cmt>q</cmt>
<desc>Charneux Sentier n°99 </desc>
<link href="https://chemins.be/charneux/sentier/99"/><trkseg>
<trkpt lat="50.667093" lon="5.820345"><time>2026-05-07T18:26:15Z</time></trkpt>
<trkpt lat="50.666508" lon="5.821021"><time>2026-05-07T18:36:15Z</time></trkpt>
<trkpt lat="50.666195" lon="5.821665"><time>2026-05-07T18:46:15Z</time></trkpt>
</trkseg>
</trk>
<trk>
<name>lhvcxi1</name>
<cmt>v</cmt>
<desc>Charneux Sentier n°i1 </desc>
<link href="https://chemins.be/charneux/sentier/i1"/><trkseg>
<trkpt lat="50.669500" lon="5.812370"><time>2026-05-07T18:26:15Z</time></trkpt>
<trkpt lat="50.669489" lon="5.812497"><time>2026-05-07T18:36:15Z</time></trkpt>
<trkpt lat="50.669414" lon="5.812750"><time>2026-05-07T18:46:15Z</time></trkpt>
<trkpt lat="50.669339" lon="5.813016"><time>2026-05-07T18:56:15Z</time></trkpt>
<trkpt lat="50.669264" lon="5.813283"><time>2026-05-07T19:06:15Z</time></trkpt>
<trkpt lat="50.669197" lon="5.813564"><time>2026-05-07T19:16:15Z</time></trkpt>
<trkpt lat="50.669084" lon="5.813985"><time>2026-05-07T19:26:15Z</time></trkpt>
<trkpt lat="50.669036" lon="5.814210"><time>2026-05-07T19:36:15Z</time></trkpt>
<trkpt lat="50.668990" lon="5.814321"><time>2026-05-07T19:46:15Z</time></trkpt>
<trkpt lat="50.669043" lon="5.814436"><time>2026-05-07T19:56:15Z</time></trkpt>
<trkpt lat="50.669130" lon="5.814609"><time>2026-05-07T20:06:15Z</time></trkpt>
<trkpt lat="50.669253" lon="5.814881"><time>2026-05-07T20:16:15Z</time></trkpt>
<trkpt lat="50.669314" lon="5.815053"><time>2026-05-07T20:26:15Z</time></trkpt>
<trkpt lat="50.669625" lon="5.815303"><time>2026-05-07T20:36:15Z</time></trkpt>
<trkpt lat="50.669991" lon="5.815512"><time>2026-05-07T20:46:15Z</time></trkpt>
<trkpt lat="50.670231" lon="5.815760"><time>2026-05-07T20:56:15Z</time></trkpt>
<trkpt lat="50.670798" lon="5.816428"><time>2026-05-07T21:06:15Z</time></trkpt>
<trkpt lat="50.671550" lon="5.817414"><time>2026-05-07T21:16:15Z</time></trkpt>
</trkseg>
</trk>
<trk>
<name>lhvcxi2</name>
<cmt>q</cmt>
<desc>Charneux Sentier n°i2 </desc>
<link href="https://chemins.be/charneux/sentier/i2"/><trkseg>
<trkpt lat="50.683394" lon="5.787264"><time>2026-05-07T18:26:15Z</time></trkpt>
<trkpt lat="50.684231" lon="5.788620"><time>2026-05-07T18:36:15Z</time></trkpt>
</trkseg>
</trk>
<trk>
<name>lhvcxi3</name>
<cmt>q</cmt>
<desc>Charneux Chemin n°i3 </desc>
<link href="https://chemins.be/charneux/chemin/i3"/><trkseg>
<trkpt lat="50.669294" lon="5.813066"><time>2026-05-07T18:26:15Z</time></trkpt>
<trkpt lat="50.670042" lon="5.813735"><time>2026-05-07T18:36:15Z</time></trkpt>
</trkseg>
</trk>
<trk>
<name>lhvcxi4</name>
<cmt>v</cmt>
<desc>Charneux Chemin n°i4 </desc>
<link href="https://chemins.be/charneux/chemin/i4"/><trkseg>
<trkpt lat="50.685747" lon="5.824877"><time>2026-05-07T18:26:15Z</time></trkpt>
<trkpt lat="50.685981" lon="5.826819"><time>2026-05-07T18:36:15Z</time></trkpt>
<trkpt lat="50.686053" lon="5.826855"><time>2026-05-07T18:46:15Z</time></trkpt>
</trkseg>
</trk>
<trk>
<name>lhvcxi5</name>
<cmt>v</cmt>
<desc>Charneux Sentier n°i5 </desc>
<link href="https://chemins.be/charneux/sentier/i5"/><trkseg>
<trkpt lat="50.685566" lon="5.826472"><time>2026-05-07T18:26:15Z</time></trkpt>
<trkpt lat="50.685639" lon="5.826733"><time>2026-05-07T18:36:15Z</time></trkpt>
<trkpt lat="50.685979" lon="5.826830"><time>2026-05-07T18:46:15Z</time></trkpt>
</trkseg>
</trk>
<trk>
<name>lhvgr10</name>
<cmt>v</cmt>
<desc>Grand-Rechain Chemin n°10 </desc>
<link href="https://chemins.be/grandrechain/chemin/10"/><trkseg>
<trkpt lat="50.607463" lon="5.819909"><time>2026-05-07T18:26:15Z</time></trkpt>
<trkpt lat="50.604304" lon="5.823016"><time>2026-05-07T18:36:15Z</time></trkpt>
<trkpt lat="50.604108" lon="5.824852"><time>2026-05-07T18:46:15Z</time></trkpt>
</trkseg>
</trk>
<trk>
<name>lhvgr11</name>
<cmt>v</cmt>
<desc>Grand-Rechain Sentier n°11 </desc>
<link href="https://chemins.be/grandrechain/sentier/11"/><trkseg>
<trkpt lat="50.609257" lon="5.815178"><time>2026-05-07T18:26:15Z</time></trkpt>
<trkpt lat="50.608535" lon="5.816809"><time>2026-05-07T18:36:15Z</time></trkpt>
<trkpt lat="50.607584" lon="5.818051"><time>2026-05-07T18:46:15Z</time></trkpt>
<trkpt lat="50.607494" lon="5.818840"><time>2026-05-07T18:56:15Z</time></trkpt>
<trkpt lat="50.607500" lon="5.819958"><time>2026-05-07T19:06:15Z</time></trkpt>
<trkpt lat="50.607391" lon="5.820164"><time>2026-05-07T19:16:15Z</time></trkpt>
<trkpt lat="50.607685" lon="5.820979"><time>2026-05-07T19:26:15Z</time></trkpt>
<trkpt lat="50.607587" lon="5.821426"><time>2026-05-07T19:36:15Z</time></trkpt>
</trkseg>
</trk>
<trk>
<name>lhvgr13</name>
<cmt>v</cmt>
<desc>Grand-Rechain Chemin n°13 </desc>
<link href="https://chemins.be/grandrechain/chemin/13"/><trkseg>
<trkpt lat="50.609756" lon="5.815504"><time>2026-05-07T18:26:15Z</time></trkpt>
<trkpt lat="50.610562" lon="5.814610"><time>2026-05-07T18:36:15Z</time></trkpt>
<trkpt lat="50.610872" lon="5.814440"><time>2026-05-07T18:46:15Z</time></trkpt>
</trkseg>
</trk>
<trk>
<name>lhvgr14</name>
<cmt>r</cmt>
<desc>Grand-Rechain Chemin n°14 Chemin des Bouleaux</desc>
<link href="https://chemins.be/grandrechain/chemin/14"/><trkseg>
<trkpt lat="50.606639" lon="5.807498"><time>2026-05-07T18:26:15Z</time></trkpt>
<trkpt lat="50.607709" lon="5.806528"><time>2026-05-07T18:36:15Z</time></trkpt>
<trkpt lat="50.607769" lon="5.806388"><time>2026-05-07T18:46:15Z</time></trkpt>
</trkseg></trk>
<trk>
<name>lhvgr14</name>
<cmt>q</cmt>
<desc>Grand-Rechain Chemin n°14 Chemin des Bouleaux</desc>
<link href="https://chemins.be/grandrechain/chemin/14"/><trkseg>
<trkpt lat="50.607769" lon="5.806388"><time>2026-05-07T18:46:15Z</time></trkpt>
<trkpt lat="50.607769" lon="5.806388"><time>2026-05-07T18:56:15Z</time></trkpt>
<trkpt lat="50.607769" lon="5.806388"><time>2026-05-07T19:06:15Z</time></trkpt>
<trkpt lat="50.607779" lon="5.806138"><time>2026-05-07T19:16:15Z</time></trkpt>
<trkpt lat="50.607775" lon="5.805559"><time>2026-05-07T19:26:15Z</time></trkpt>
<trkpt lat="50.608190" lon="5.804942"><time>2026-05-07T19:36:15Z</time></trkpt>
<trkpt lat="50.608309" lon="5.803960"><time>2026-05-07T19:46:15Z</time></trkpt>
<trkpt lat="50.608459" lon="5.803161"><time>2026-05-07T19:56:15Z</time></trkpt>
<trkpt lat="50.608769" lon="5.802778"><time>2026-05-07T20:06:15Z</time></trkpt>
<trkpt lat="50.610579" lon="5.800758"><time>2026-05-07T20:16:15Z</time></trkpt>
<trkpt lat="50.611899" lon="5.799108"><time>2026-05-07T20:26:15Z</time></trkpt>
</trkseg></trk>
<trk>
<name>lhvgr14</name>
<cmt>v</cmt>
<desc>Grand-Rechain Chemin n°14 Chemin des Bouleaux</desc>
<link href="https://chemins.be/grandrechain/chemin/14"/><trkseg>
<trkpt lat="50.611899" lon="5.799108"><time>2026-05-07T20:26:15Z</time></trkpt>
<trkpt lat="50.611859" lon="5.796358"><time>2026-05-07T20:36:15Z</time></trkpt>
</trkseg>
</trk>
<trk>
<name>lhvgr15</name>
<cmt>q</cmt>
<desc>Grand-Rechain Chemin n°15 </desc>
<link href="https://chemins.be/grandrechain/chemin/15"/><trkseg>
<trkpt lat="50.608524" lon="5.807813"><time>2026-05-07T18:26:15Z</time></trkpt>
<trkpt lat="50.608001" lon="5.807341"><time>2026-05-07T18:36:15Z</time></trkpt>
<trkpt lat="50.607811" lon="5.806405"><time>2026-05-07T18:46:15Z</time></trkpt>
</trkseg>
</trk>
<trk>
<name>lhvgr17</name>
<cmt>v</cmt>
<desc>Grand-Rechain Chemin n°17 Chemin de l'Epinaie</desc>
<link href="https://chemins.be/grandrechain/chemin/17"/><trkseg>
<trkpt lat="50.608230" lon="5.797320"><time>2026-05-07T18:26:15Z</time></trkpt>
<trkpt lat="50.608139" lon="5.798395"><time>2026-05-07T18:36:15Z</time></trkpt>
<trkpt lat="50.608365" lon="5.799211"><time>2026-05-07T18:46:15Z</time></trkpt>
<trkpt lat="50.608258" lon="5.799424"><time>2026-05-07T18:56:15Z</time></trkpt>
</trkseg></trk>
<trk>
<name>lhvgr17</name>
<cmt>q</cmt>
<desc>Grand-Rechain Chemin n°17 Chemin de l'Epinaie</desc>
<link href="https://chemins.be/grandrechain/chemin/17"/><trkseg>
<trkpt lat="50.608258" lon="5.799424"><time>2026-05-07T18:56:15Z</time></trkpt>
<trkpt lat="50.607997" lon="5.800395"><time>2026-05-07T19:06:15Z</time></trkpt>
<trkpt lat="50.608778" lon="5.802772"><time>2026-05-07T19:16:15Z</time></trkpt>
</trkseg>
</trk>
<trk>
<name>lhvgr18</name>
<cmt>v</cmt>
<desc>Grand-Rechain Chemin n°18 </desc>
<link href="https://chemins.be/grandrechain/chemin/18"/><trkseg>
<trkpt lat="50.606131" lon="5.794200"><time>2026-05-07T18:26:15Z</time></trkpt>
<trkpt lat="50.606815" lon="5.793076"><time>2026-05-07T18:36:15Z</time></trkpt>
</trkseg></trk>
<trk>
<name>lhvgr18</name>
<cmt>q</cmt>
<desc>Grand-Rechain Chemin n°18 </desc>
<link href="https://chemins.be/grandrechain/chemin/18"/><trkseg>
<trkpt lat="50.606815" lon="5.793076"><time>2026-05-07T18:36:15Z</time></trkpt>
<trkpt lat="50.606716" lon="5.792524"><time>2026-05-07T18:46:15Z</time></trkpt>
</trkseg>
</trk>
<trk>
<name>lhvgr19</name>
<cmt>q</cmt>
<desc>Grand-Rechain Chemin n°19 </desc>
<link href="https://chemins.be/grandrechain/chemin/19"/><trkseg>
<trkpt lat="50.605955" lon="5.797166"><time>2026-05-07T18:26:15Z</time></trkpt>
<trkpt lat="50.606202" lon="5.796259"><time>2026-05-07T18:36:15Z</time></trkpt>
<trkpt lat="50.607359" lon="5.795370"><time>2026-05-07T18:46:15Z</time></trkpt>
</trkseg>
</trk>
<trk>
<name>lhvgr19bis</name>
<cmt>q</cmt>
<desc>Grand-Rechain Chemin n°19bis </desc>
<link href="https://chemins.be/grandrechain/chemin/19bis"/><trkseg>
<trkpt lat="50.605725" lon="5.795867"><time>2026-05-07T18:26:15Z</time></trkpt>
<trkpt lat="50.606189" lon="5.796232"><time>2026-05-07T18:36:15Z</time></trkpt>
</trkseg>
</trk>
<trk>
<name>lhvgr20</name>
<cmt>r</cmt>
<desc>Grand-Rechain Chemin n°20 </desc>
<link href="https://chemins.be/grandrechain/chemin/20"/><trkseg>
<trkpt lat="50.606305" lon="5.798234"><time>2026-05-07T18:26:15Z</time></trkpt>
<trkpt lat="50.606631" lon="5.798663"><time>2026-05-07T18:36:15Z</time></trkpt>
<trkpt lat="50.606762" lon="5.799593"><time>2026-05-07T18:46:15Z</time></trkpt>
<trkpt lat="50.606691" lon="5.800129"><time>2026-05-07T18:56:15Z</time></trkpt>
</trkseg>
</trk>
<trk>
<name>lhvgr21</name>
<cmt>q</cmt>
<desc>Grand-Rechain Chemin n°21 </desc>
<link href="https://chemins.be/grandrechain/chemin/21"/><trkseg>
<trkpt lat="50.607191" lon="5.793660"><time>2026-05-07T18:26:15Z</time></trkpt>
<trkpt lat="50.607765" lon="5.792619"><time>2026-05-07T18:36:15Z</time></trkpt>
<trkpt lat="50.607661" lon="5.792483"><time>2026-05-07T18:46:15Z</time></trkpt>
<trkpt lat="50.608306" lon="5.790992"><time>2026-05-07T18:56:15Z</time></trkpt>
</trkseg>
</trk>
<trk>
<name>lhvgr22</name>
<cmt>q</cmt>
<desc>Grand-Rechain Chemin n°22 </desc>
<link href="https://chemins.be/grandrechain/chemin/22"/><trkseg>
<trkpt lat="50.607749" lon="5.792719"><time>2026-05-07T18:26:15Z</time></trkpt>
<trkpt lat="50.609506" lon="5.794013"><time>2026-05-07T18:36:15Z</time></trkpt>
<trkpt lat="50.610409" lon="5.795079"><time>2026-05-07T18:46:15Z</time></trkpt>
<trkpt lat="50.610500" lon="5.795436"><time>2026-05-07T18:56:15Z</time></trkpt>
</trkseg>
</trk>
<trk>
<name>lhvgr23</name>
<cmt>v</cmt>
<desc>Grand-Rechain Chemin n°23 </desc>
<link href="https://chemins.be/grandrechain/chemin/23"/><trkseg>
<trkpt lat="50.607096" lon="5.789833"><time>2026-05-07T18:26:15Z</time></trkpt>
<trkpt lat="50.607581" lon="5.789127"><time>2026-05-07T18:36:15Z</time></trkpt>
</trkseg>
</trk>
<trk>
<name>lhvgr24</name>
<cmt>q</cmt>
<desc>Grand-Rechain Sentier n°24 </desc>
<link href="https://chemins.be/grandrechain/sentier/24"/><trkseg>
<trkpt lat="50.611215" lon="5.794994"><time>2026-05-07T18:26:15Z</time></trkpt>
<trkpt lat="50.611957" lon="5.796056"><time>2026-05-07T18:36:15Z</time></trkpt>
</trkseg>
</trk>
<trk>
<name>lhvgr25</name>
<cmt>q</cmt>
<desc>Grand-Rechain Sentier n°25 </desc>
<link href="https://chemins.be/grandrechain/sentier/25"/><trkseg>
<trkpt lat="50.612052" lon="5.794542"><time>2026-05-07T18:26:15Z</time></trkpt>
<trkpt lat="50.612472" lon="5.795099"><time>2026-05-07T18:36:15Z</time></trkpt>
<trkpt lat="50.612549" lon="5.795021"><time>2026-05-07T18:46:15Z</time></trkpt>
<trkpt lat="50.612957" lon="5.795400"><time>2026-05-07T18:56:15Z</time></trkpt>
<trkpt lat="50.613573" lon="5.795965"><time>2026-05-07T19:06:15Z</time></trkpt>
</trkseg>
</trk>
<trk>
<name>lhvgr26</name>
<cmt>q</cmt>
<desc>Grand-Rechain Sentier n°26 </desc>
<link href="https://chemins.be/grandrechain/sentier/26"/><trkseg>
<trkpt lat="50.612543" lon="5.794339"><time>2026-05-07T18:26:15Z</time></trkpt>
<trkpt lat="50.612518" lon="5.793853"><time>2026-05-07T18:36:15Z</time></trkpt>
<trkpt lat="50.612436" lon="5.793317"><time>2026-05-07T18:46:15Z</time></trkpt>
<trkpt lat="50.612443" lon="5.792845"><time>2026-05-07T18:56:15Z</time></trkpt>
</trkseg>
</trk>
<trk>
<name>lhvgr27</name>
<cmt>v</cmt>
<desc>Grand-Rechain Sentier n°27 </desc>
<link href="https://chemins.be/grandrechain/sentier/27"/><trkseg>
<trkpt lat="50.611896" lon="5.799110"><time>2026-05-07T18:26:15Z</time></trkpt>
<trkpt lat="50.611422" lon="5.802225"><time>2026-05-07T18:36:15Z</time></trkpt>
<trkpt lat="50.611438" lon="5.803281"><time>2026-05-07T18:46:15Z</time></trkpt>
</trkseg></trk>
<trk>
<name>lhvgr27</name>
<cmt>q</cmt>
<desc>Grand-Rechain Sentier n°27 </desc>
<link href="https://chemins.be/grandrechain/sentier/27"/><trkseg>
<trkpt lat="50.611438" lon="5.803281"><time>2026-05-07T18:46:15Z</time></trkpt>
<trkpt lat="50.610964" lon="5.806028"><time>2026-05-07T18:56:15Z</time></trkpt>
</trkseg>
</trk>
<trk>
<name>lhvgr28</name>
<cmt>q</cmt>
<desc>Grand-Rechain Sentier n°28 </desc>
<link href="https://chemins.be/grandrechain/sentier/28"/><trkseg>
<trkpt lat="50.606908" lon="5.808473"><time>2026-05-07T18:26:15Z</time></trkpt>
<trkpt lat="50.607791" lon="5.806383"><time>2026-05-07T18:36:15Z</time></trkpt>
<trkpt lat="50.610343" lon="5.804388"><time>2026-05-07T18:46:15Z</time></trkpt>
<trkpt lat="50.610627" lon="5.803890"><time>2026-05-07T18:56:15Z</time></trkpt>
<trkpt lat="50.611438" lon="5.803230"><time>2026-05-07T19:06:15Z</time></trkpt>
</trkseg>
</trk>
<trk>
<name>lhvgr29</name>
<cmt>q</cmt>
<desc>Grand-Rechain Sentier n°29 Rue de l'Agolina</desc>
<link href="https://chemins.be/grandrechain/sentier/29"/><trkseg>
<trkpt lat="50.609036" lon="5.802543"><time>2026-05-07T18:26:15Z</time></trkpt>
<trkpt lat="50.610316" lon="5.804397"><time>2026-05-07T18:36:15Z</time></trkpt>
<trkpt lat="50.610991" lon="5.806071"><time>2026-05-07T18:46:15Z</time></trkpt>
</trkseg></trk>
<trk>
<name>lhvgr29</name>
<cmt>r</cmt>
<desc>Grand-Rechain Sentier n°29 Rue de l'Agolina</desc>
<link href="https://chemins.be/grandrechain/sentier/29"/><trkseg>
<trkpt lat="50.610991" lon="5.806071"><time>2026-05-07T18:46:15Z</time></trkpt>
<trkpt lat="50.610610" lon="5.806534"><time>2026-05-07T18:56:15Z</time></trkpt>
</trkseg></trk>
<trk>
<name>lhvgr29</name>
<cmt>v</cmt>
<desc>Grand-Rechain Sentier n°29 Rue de l'Agolina</desc>
<link href="https://chemins.be/grandrechain/sentier/29"/><trkseg>
<trkpt lat="50.610610" lon="5.806534"><time>2026-05-07T18:56:15Z</time></trkpt>
<trkpt lat="50.610760" lon="5.807748"><time>2026-05-07T19:06:15Z</time></trkpt>
<trkpt lat="50.611076" lon="5.809115"><time>2026-05-07T19:16:15Z</time></trkpt>
</trkseg>
</trk>
<trk>
<name>lhvgr30</name>
<cmt>q</cmt>
<desc>Grand-Rechain Sentier n°30 </desc>
<link href="https://chemins.be/grandrechain/sentier/30"/><trkseg>
<trkpt lat="50.613366" lon="5.803032"><time>2026-05-07T18:26:15Z</time></trkpt>
<trkpt lat="50.614254" lon="5.802337"><time>2026-05-07T18:36:15Z</time></trkpt>
</trkseg>
</trk>
<trk>
<name>lhvgr31</name>
<cmt>q</cmt>
<desc>Grand-Rechain Sentier n°31 </desc>
<link href="https://chemins.be/grandrechain/sentier/31"/><trkseg>
<trkpt lat="50.613355" lon="5.803642"><time>2026-05-07T18:26:15Z</time></trkpt>
<trkpt lat="50.614515" lon="5.806337"><time>2026-05-07T18:36:15Z</time></trkpt>
<trkpt lat="50.614820" lon="5.808328"><time>2026-05-07T18:46:15Z</time></trkpt>
</trkseg>
</trk>
<trk>
<name>lhvgr32</name>
<cmt>v</cmt>
<desc>Grand-Rechain Sentier n°32 Sentier vicinal N°32</desc>
<link href="https://chemins.be/grandrechain/sentier/32"/><trkseg>
<trkpt lat="50.608043" lon="5.812244"><time>2026-05-07T18:26:15Z</time></trkpt>
<trkpt lat="50.608273" lon="5.811869"><time>2026-05-07T18:36:15Z</time></trkpt>
<trkpt lat="50.608445" lon="5.811747"><time>2026-05-07T18:46:15Z</time></trkpt>
<trkpt lat="50.608609" lon="5.811583"><time>2026-05-07T18:56:15Z</time></trkpt>
<trkpt lat="50.609294" lon="5.810685"><time>2026-05-07T19:06:15Z</time></trkpt>
<trkpt lat="50.609767" lon="5.810290"><time>2026-05-07T19:16:15Z</time></trkpt>
<trkpt lat="50.610431" lon="5.809688"><time>2026-05-07T19:26:15Z</time></trkpt>
<trkpt lat="50.610747" lon="5.809585"><time>2026-05-07T19:36:15Z</time></trkpt>
<trkpt lat="50.611133" lon="5.809624"><time>2026-05-07T19:46:15Z</time></trkpt>
</trkseg></trk>
<trk>
<name>lhvgr32</name>
<cmt>q</cmt>
<desc>Grand-Rechain Sentier n°32 Sentier vicinal N°32</desc>
<link href="https://chemins.be/grandrechain/sentier/32"/><trkseg>
<trkpt lat="50.611133" lon="5.809624"><time>2026-05-07T19:46:15Z</time></trkpt>
<trkpt lat="50.611253" lon="5.809435"><time>2026-05-07T19:56:15Z</time></trkpt>
<trkpt lat="50.612310" lon="5.809023"><time>2026-05-07T20:06:15Z</time></trkpt>
<trkpt lat="50.613737" lon="5.808903"><time>2026-05-07T20:16:15Z</time></trkpt>
</trkseg>
</trk>
<trk>
<name>lhvgr33</name>
<cmt>d</cmt>
<desc>Grand-Rechain Sentier n°33 Rue du Vieux Tiège</desc>
<link href="https://chemins.be/grandrechain/sentier/33"/><trkseg>
<trkpt lat="50.608926" lon="5.814496"><time>2026-05-07T18:26:15Z</time></trkpt>
<trkpt lat="50.609165" lon="5.814095"><time>2026-05-07T18:36:15Z</time></trkpt>
</trkseg></trk>
<trk>
<name>lhvgr33</name>
<cmt>q</cmt>
<desc>Grand-Rechain Sentier n°33 Rue du Vieux Tiège</desc>
<link href="https://chemins.be/grandrechain/sentier/33"/><trkseg>
<trkpt lat="50.609165" lon="5.814095"><time>2026-05-07T18:36:15Z</time></trkpt>
<trkpt lat="50.610206" lon="5.812472"><time>2026-05-07T18:46:15Z</time></trkpt>
<trkpt lat="50.610423" lon="5.812679"><time>2026-05-07T18:56:15Z</time></trkpt>
<trkpt lat="50.611184" lon="5.811813"><time>2026-05-07T19:06:15Z</time></trkpt>
</trkseg></trk>
<trk>
<name>lhvgr33</name>
<cmt>r</cmt>
<desc>Grand-Rechain Sentier n°33 Rue du Vieux Tiège</desc>
<link href="https://chemins.be/grandrechain/sentier/33"/><trkseg>
<trkpt lat="50.611184" lon="5.811813"><time>2026-05-07T19:06:15Z</time></trkpt>
<trkpt lat="50.611325" lon="5.810931"><time>2026-05-07T19:16:15Z</time></trkpt>
<trkpt lat="50.611805" lon="5.810715"><time>2026-05-07T19:26:15Z</time></trkpt>
</trkseg></trk>
<trk>
<name>lhvgr33</name>
<cmt>v</cmt>
<desc>Grand-Rechain Sentier n°33 Rue du Vieux Tiège</desc>
<link href="https://chemins.be/grandrechain/sentier/33"/><trkseg>
<trkpt lat="50.611805" lon="5.810715"><time>2026-05-07T19:26:15Z</time></trkpt>
<trkpt lat="50.612002" lon="5.810510"><time>2026-05-07T19:36:15Z</time></trkpt>
<trkpt lat="50.612612" lon="5.810056"><time>2026-05-07T19:46:15Z</time></trkpt>
<trkpt lat="50.612852" lon="5.809806"><time>2026-05-07T19:56:15Z</time></trkpt>
<trkpt lat="50.613674" lon="5.808973"><time>2026-05-07T20:06:15Z</time></trkpt>
<trkpt lat="50.614042" lon="5.808733"><time>2026-05-07T20:16:15Z</time></trkpt>
<trkpt lat="50.614186" lon="5.808620"><time>2026-05-07T20:26:15Z</time></trkpt>
<trkpt lat="50.614300" lon="5.808565"><time>2026-05-07T20:36:15Z</time></trkpt>
<trkpt lat="50.614832" lon="5.808315"><time>2026-05-07T20:46:15Z</time></trkpt>
<trkpt lat="50.615128" lon="5.808209"><time>2026-05-07T20:56:15Z</time></trkpt>
<trkpt lat="50.615265" lon="5.808219"><time>2026-05-07T21:06:15Z</time></trkpt>
<trkpt lat="50.615607" lon="5.808029"><time>2026-05-07T21:16:15Z</time></trkpt>
</trkseg>
</trk>
<trk>
<name>lhvgr34</name>
<cmt>v</cmt>
<desc>Grand-Rechain Sentier n°34 </desc>
<link href="https://chemins.be/grandrechain/sentier/34"/><trkseg>
<trkpt lat="50.608530" lon="5.813573"><time>2026-05-07T18:26:15Z</time></trkpt>
<trkpt lat="50.608686" lon="5.813351"><time>2026-05-07T18:36:15Z</time></trkpt>
<trkpt lat="50.608767" lon="5.813368"><time>2026-05-07T18:46:15Z</time></trkpt>
<trkpt lat="50.608977" lon="5.813078"><time>2026-05-07T18:56:15Z</time></trkpt>
<trkpt lat="50.609678" lon="5.812407"><time>2026-05-07T19:06:15Z</time></trkpt>
<trkpt lat="50.611168" lon="5.811873"><time>2026-05-07T19:16:15Z</time></trkpt>
</trkseg>
</trk>
<trk>
<name>lhvgr35</name>
<cmt>q</cmt>
<desc>Grand-Rechain Sentier n°35 </desc>
<link href="https://chemins.be/grandrechain/sentier/35"/><trkseg>
<trkpt lat="50.610640" lon="5.814530"><time>2026-05-07T18:26:15Z</time></trkpt>
<trkpt lat="50.610411" lon="5.812737"><time>2026-05-07T18:36:15Z</time></trkpt>
</trkseg>
</trk>
<trk>
<name>lhvgr36</name>
<cmt>q</cmt>
<desc>Grand-Rechain Sentier n°36 </desc>
<link href="https://chemins.be/grandrechain/sentier/36"/><trkseg>
<trkpt lat="50.606950" lon="5.814594"><time>2026-05-07T18:26:15Z</time></trkpt>
<trkpt lat="50.606705" lon="5.814928"><time>2026-05-07T18:36:15Z</time></trkpt>
<trkpt lat="50.605525" lon="5.813177"><time>2026-05-07T18:46:15Z</time></trkpt>
<trkpt lat="50.604831" lon="5.812147"><time>2026-05-07T18:56:15Z</time></trkpt>
</trkseg>
</trk>
<trk>
<name>lhvgr37</name>
<cmt>q</cmt>
<desc>Grand-Rechain Sentier n°37 </desc>
<link href="https://chemins.be/grandrechain/sentier/37"/><trkseg>
<trkpt lat="50.607612" lon="5.819962"><time>2026-05-07T18:26:15Z</time></trkpt>
<trkpt lat="50.607705" lon="5.820005"><time>2026-05-07T18:36:15Z</time></trkpt>
<trkpt lat="50.609261" lon="5.818650"><time>2026-05-07T18:46:15Z</time></trkpt>
</trkseg>
</trk>
<trk>
<name>lhvgr39</name>
<cmt>v</cmt>
<desc>Grand-Rechain Chemin n°39 Rue Longue Haie</desc>
<link href="https://chemins.be/grandrechain/chemin/39"/><trkseg>
<trkpt lat="50.602478" lon="5.803855"><time>2026-05-07T18:26:15Z</time></trkpt>
<trkpt lat="50.601685" lon="5.802431"><time>2026-05-07T18:36:15Z</time></trkpt>
</trkseg>
</trk>
<trk>
<name>lhvgr39bis</name>
<cmt>v</cmt>
<desc>Grand-Rechain Chemin n°39bis </desc>
<link href="https://chemins.be/grandrechain/chemin/39bis"/><trkseg>
<trkpt lat="50.602466" lon="5.803857"><time>2026-05-07T18:26:15Z</time></trkpt>
<trkpt lat="50.601836" lon="5.804803"><time>2026-05-07T18:36:15Z</time></trkpt>
</trkseg>
</trk>
<trk>
<name>lhvgr4</name>
<cmt>q</cmt>
<desc>Grand-Rechain Chemin n°4 </desc>
<link href="https://chemins.be/grandrechain/chemin/4"/><trkseg>
<trkpt lat="50.611113" lon="5.809351"><time>2026-05-07T18:26:15Z</time></trkpt>
<trkpt lat="50.612344" lon="5.807257"><time>2026-05-07T18:36:15Z</time></trkpt>
<trkpt lat="50.612845" lon="5.804493"><time>2026-05-07T18:46:15Z</time></trkpt>
</trkseg>
</trk>
<trk>
<name>lhvgr40</name>
<cmt>s</cmt>
<desc>Grand-Rechain Sentier n°40 </desc>
<link href="https://chemins.be/grandrechain/sentier/40"/><trkseg>
<trkpt lat="50.604980" lon="5.811829"><time>2026-05-07T18:26:15Z</time></trkpt>
<trkpt lat="50.604906" lon="5.810786"><time>2026-05-07T18:36:15Z</time></trkpt>
<trkpt lat="50.605282" lon="5.809524"><time>2026-05-07T18:46:15Z</time></trkpt>
</trkseg>
</trk>
<trk>
<name>lhvgr41</name>
<cmt>q</cmt>
<desc>Grand-Rechain Sentier n°41 Rue de la Maye</desc>
<link href="https://chemins.be/grandrechain/sentier/41"/><trkseg>
<trkpt lat="50.605862" lon="5.805043"><time>2026-05-07T18:26:15Z</time></trkpt>
<trkpt lat="50.605154" lon="5.809197"><time>2026-05-07T18:36:15Z</time></trkpt>
</trkseg></trk>
<trk>
<name>lhvgr41</name>
<cmt>s</cmt>
<desc>Grand-Rechain Sentier n°41 Rue de la Maye</desc>
<link href="https://chemins.be/grandrechain/sentier/41"/><trkseg>
<trkpt lat="50.605154" lon="5.809197"><time>2026-05-07T18:36:15Z</time></trkpt>
<trkpt lat="50.605283" lon="5.809598"><time>2026-05-07T18:46:15Z</time></trkpt>
<trkpt lat="50.604929" lon="5.810748"><time>2026-05-07T18:56:15Z</time></trkpt>
<trkpt lat="50.604989" lon="5.811787"><time>2026-05-07T19:06:15Z</time></trkpt>
</trkseg></trk>
<trk>
<name>lhvgr41</name>
<cmt>r</cmt>
<desc>Grand-Rechain Sentier n°41 Rue de la Maye</desc>
<link href="https://chemins.be/grandrechain/sentier/41"/><trkseg>
<trkpt lat="50.604989" lon="5.811787"><time>2026-05-07T19:06:15Z</time></trkpt>
<trkpt lat="50.604511" lon="5.813025"><time>2026-05-07T19:16:15Z</time></trkpt>
<trkpt lat="50.603073" lon="5.814930"><time>2026-05-07T19:26:15Z</time></trkpt>
</trkseg></trk>
<trk>
<name>lhvgr41</name>
<cmt>q</cmt>
<desc>Grand-Rechain Sentier n°41 Rue de la Maye</desc>
<link href="https://chemins.be/grandrechain/sentier/41"/><trkseg>
<trkpt lat="50.603073" lon="5.814930"><time>2026-05-07T19:26:15Z</time></trkpt>
<trkpt lat="50.602539" lon="5.817420"><time>2026-05-07T19:36:15Z</time></trkpt>
<trkpt lat="50.601700" lon="5.818535"><time>2026-05-07T19:46:15Z</time></trkpt>
<trkpt lat="50.601857" lon="5.820904"><time>2026-05-07T19:56:15Z</time></trkpt>
<trkpt lat="50.601513" lon="5.821912"><time>2026-05-07T20:06:15Z</time></trkpt>
</trkseg>
</trk>
<trk>
<name>lhvgr42</name>
<cmt>q</cmt>
<desc>Grand-Rechain Chemin n°42 </desc>
<link href="https://chemins.be/grandrechain/chemin/42"/><trkseg>
<trkpt lat="50.599269" lon="5.810264"><time>2026-05-07T18:26:15Z</time></trkpt>
<trkpt lat="50.600267" lon="5.809191"><time>2026-05-07T18:36:15Z</time></trkpt>
<trkpt lat="50.601075" lon="5.809177"><time>2026-05-07T18:46:15Z</time></trkpt>
</trkseg>
</trk>
<trk>
<name>lhvgr43</name>
<cmt>q</cmt>
<desc>Grand-Rechain Chemin n°43 </desc>
<link href="https://chemins.be/grandrechain/chemin/43"/><trkseg>
<trkpt lat="50.609502" lon="5.801949"><time>2026-05-07T18:26:15Z</time></trkpt>
<trkpt lat="50.609267" lon="5.801170"><time>2026-05-07T18:36:15Z</time></trkpt>
</trkseg>
</trk>
<trk>
<name>lhvgr44</name>
<cmt>v</cmt>
<desc>Grand-Rechain Sentier n°44 </desc>
<link href="https://chemins.be/grandrechain/sentier/44"/><trkseg>
<trkpt lat="50.605579" lon="5.795010"><time>2026-05-07T18:26:15Z</time></trkpt>
<trkpt lat="50.605218" lon="5.795105"><time>2026-05-07T18:36:15Z</time></trkpt>
<trkpt lat="50.605129" lon="5.795068"><time>2026-05-07T18:46:15Z</time></trkpt>
<trkpt lat="50.604957" lon="5.794869"><time>2026-05-07T18:56:15Z</time></trkpt>
<trkpt lat="50.604762" lon="5.794680"><time>2026-05-07T19:06:15Z</time></trkpt>
<trkpt lat="50.604512" lon="5.794488"><time>2026-05-07T19:16:15Z</time></trkpt>
<trkpt lat="50.604208" lon="5.794366"><time>2026-05-07T19:26:15Z</time></trkpt>
<trkpt lat="50.603679" lon="5.794209"><time>2026-05-07T19:36:15Z</time></trkpt>
<trkpt lat="50.603310" lon="5.794268"><time>2026-05-07T19:46:15Z</time></trkpt>
<trkpt lat="50.602967" lon="5.794272"><time>2026-05-07T19:56:15Z</time></trkpt>
<trkpt lat="50.602786" lon="5.794465"><time>2026-05-07T20:06:15Z</time></trkpt>
<trkpt lat="50.602557" lon="5.794825"><time>2026-05-07T20:16:15Z</time></trkpt>
<trkpt lat="50.602460" lon="5.795345"><time>2026-05-07T20:26:15Z</time></trkpt>
<trkpt lat="50.602428" lon="5.795824"><time>2026-05-07T20:36:15Z</time></trkpt>
<trkpt lat="50.602436" lon="5.795867"><time>2026-05-07T20:46:15Z</time></trkpt>
<trkpt lat="50.602440" lon="5.796277"><time>2026-05-07T20:56:15Z</time></trkpt>
<trkpt lat="50.602267" lon="5.796497"><time>2026-05-07T21:06:15Z</time></trkpt>
<trkpt lat="50.602029" lon="5.796767"><time>2026-05-07T21:16:15Z</time></trkpt>
<trkpt lat="50.601901" lon="5.796995"><time>2026-05-07T21:26:15Z</time></trkpt>
<trkpt lat="50.601644" lon="5.797411"><time>2026-05-07T21:36:15Z</time></trkpt>
<trkpt lat="50.601396" lon="5.797842"><time>2026-05-07T21:46:15Z</time></trkpt>
<trkpt lat="50.601221" lon="5.798204"><time>2026-05-07T21:56:15Z</time></trkpt>
<trkpt lat="50.600983" lon="5.798479"><time>2026-05-07T22:06:15Z</time></trkpt>
<trkpt lat="50.600509" lon="5.799030"><time>2026-05-07T22:16:15Z</time></trkpt>
<trkpt lat="50.599961" lon="5.799649"><time>2026-05-07T22:26:15Z</time></trkpt>
<trkpt lat="50.599723" lon="5.800037"><time>2026-05-07T22:36:15Z</time></trkpt>
<trkpt lat="50.599495" lon="5.800313"><time>2026-05-07T22:46:15Z</time></trkpt>
</trkseg></trk>
<trk>
<name>lhvgr44</name>
<cmt>q</cmt>
<desc>Grand-Rechain Sentier n°44 </desc>
<link href="https://chemins.be/grandrechain/sentier/44"/><trkseg>
<trkpt lat="50.599495" lon="5.800313"><time>2026-05-07T22:46:15Z</time></trkpt>
<trkpt lat="50.598678" lon="5.801715"><time>2026-05-07T22:56:15Z</time></trkpt>
<trkpt lat="50.598692" lon="5.802055"><time>2026-05-07T23:06:15Z</time></trkpt>
<trkpt lat="50.597018" lon="5.803322"><time>2026-05-07T23:16:15Z</time></trkpt>
</trkseg>
</trk>
<trk>
<name>lhvgr45</name>
<cmt>v</cmt>
<desc>Grand-Rechain Sentier n°45 </desc>
<link href="https://chemins.be/grandrechain/sentier/45"/><trkseg>
<trkpt lat="50.604049" lon="5.807188"><time>2026-05-07T18:26:15Z</time></trkpt>
<trkpt lat="50.603415" lon="5.806931"><time>2026-05-07T18:36:15Z</time></trkpt>
<trkpt lat="50.603165" lon="5.807393"><time>2026-05-07T18:46:15Z</time></trkpt>
<trkpt lat="50.601841" lon="5.804820"><time>2026-05-07T18:56:15Z</time></trkpt>
<trkpt lat="50.601004" lon="5.803424"><time>2026-05-07T19:06:15Z</time></trkpt>
<trkpt lat="50.600754" lon="5.803219"><time>2026-05-07T19:16:15Z</time></trkpt>
<trkpt lat="50.599810" lon="5.801243"><time>2026-05-07T19:26:15Z</time></trkpt>
<trkpt lat="50.599810" lon="5.801087"><time>2026-05-07T19:36:15Z</time></trkpt>
<trkpt lat="50.599389" lon="5.800168"><time>2026-05-07T19:46:15Z</time></trkpt>
<trkpt lat="50.599268" lon="5.800126"><time>2026-05-07T19:56:15Z</time></trkpt>
<trkpt lat="50.598757" lon="5.799190"><time>2026-05-07T20:06:15Z</time></trkpt>
</trkseg>
</trk>
<trk>
<name>lhvgr45bis</name>
<cmt>q</cmt>
<desc>Grand-Rechain Sentier n°45bis </desc>
<link href="https://chemins.be/grandrechain/sentier/45bis"/><trkseg>
<trkpt lat="50.605631" lon="5.799781"><time>2026-05-07T18:26:15Z</time></trkpt>
<trkpt lat="50.603952" lon="5.795537"><time>2026-05-07T18:36:15Z</time></trkpt>
<trkpt lat="50.604209" lon="5.793963"><time>2026-05-07T18:46:15Z</time></trkpt>
<trkpt lat="50.603425" lon="5.790171"><time>2026-05-07T18:56:15Z</time></trkpt>
</trkseg>
</trk>
<trk>
<name>lhvgr5</name>
<cmt>v</cmt>
<desc>Grand-Rechain Chemin n°5 </desc>
<link href="https://chemins.be/grandrechain/chemin/5"/><trkseg>
<trkpt lat="50.604468" lon="5.813133"><time>2026-05-07T18:26:15Z</time></trkpt>
<trkpt lat="50.604503" lon="5.814489"><time>2026-05-07T18:36:15Z</time></trkpt>
<trkpt lat="50.603703" lon="5.817872"><time>2026-05-07T18:46:15Z</time></trkpt>
<trkpt lat="50.602996" lon="5.819788"><time>2026-05-07T18:56:15Z</time></trkpt>
<trkpt lat="50.602745" lon="5.820670"><time>2026-05-07T19:06:15Z</time></trkpt>
<trkpt lat="50.602336" lon="5.822902"><time>2026-05-07T19:16:15Z</time></trkpt>
</trkseg>
</trk>
<trk>
<name>lhvgr6</name>
<cmt>v</cmt>
<desc>Grand-Rechain Chemin n°6 Rue de Henrister</desc>
<link href="https://chemins.be/grandrechain/chemin/6"/><trkseg>
<trkpt lat="50.605393" lon="5.810718"><time>2026-05-07T18:26:15Z</time></trkpt>
<trkpt lat="50.605094" lon="5.810762"><time>2026-05-07T18:36:15Z</time></trkpt>
<trkpt lat="50.604775" lon="5.810831"><time>2026-05-07T18:46:15Z</time></trkpt>
<trkpt lat="50.604522" lon="5.810870"><time>2026-05-07T18:56:15Z</time></trkpt>
<trkpt lat="50.604320" lon="5.810872"><time>2026-05-07T19:06:15Z</time></trkpt>
<trkpt lat="50.604124" lon="5.810910"><time>2026-05-07T19:16:15Z</time></trkpt>
<trkpt lat="50.603967" lon="5.810882"><time>2026-05-07T19:26:15Z</time></trkpt>
<trkpt lat="50.603503" lon="5.810732"><time>2026-05-07T19:36:15Z</time></trkpt>
<trkpt lat="50.603244" lon="5.810817"><time>2026-05-07T19:46:15Z</time></trkpt>
<trkpt lat="50.603062" lon="5.810780"><time>2026-05-07T19:56:15Z</time></trkpt>
<trkpt lat="50.602857" lon="5.810662"><time>2026-05-07T20:06:15Z</time></trkpt>
<trkpt lat="50.602459" lon="5.810635"><time>2026-05-07T20:16:15Z</time></trkpt>
<trkpt lat="50.602198" lon="5.810706"><time>2026-05-07T20:26:15Z</time></trkpt>
<trkpt lat="50.601847" lon="5.811070"><time>2026-05-07T20:36:15Z</time></trkpt>
<trkpt lat="50.601746" lon="5.811043"><time>2026-05-07T20:46:15Z</time></trkpt>
<trkpt lat="50.601253" lon="5.810736"><time>2026-05-07T20:56:15Z</time></trkpt>
<trkpt lat="50.601015" lon="5.810843"><time>2026-05-07T21:06:15Z</time></trkpt>
<trkpt lat="50.600690" lon="5.811176"><time>2026-05-07T21:16:15Z</time></trkpt>
<trkpt lat="50.600407" lon="5.811262"><time>2026-05-07T21:26:15Z</time></trkpt>
<trkpt lat="50.600194" lon="5.811393"><time>2026-05-07T21:36:15Z</time></trkpt>
<trkpt lat="50.600106" lon="5.811540"><time>2026-05-07T21:46:15Z</time></trkpt>
<trkpt lat="50.599908" lon="5.811549"><time>2026-05-07T21:56:15Z</time></trkpt>
<trkpt lat="50.599604" lon="5.811393"><time>2026-05-07T22:06:15Z</time></trkpt>
<trkpt lat="50.599305" lon="5.811456"><time>2026-05-07T22:16:15Z</time></trkpt>
</trkseg>
</trk>
<trk>
<name>lhvgr7</name>
<cmt>v</cmt>
<desc>Grand-Rechain Chemin n°7 Ruelle Cardol</desc>
<link href="https://chemins.be/grandrechain/chemin/7"/><trkseg>
<trkpt lat="50.605642" lon="5.826745"><time>2026-05-07T18:26:15Z</time></trkpt>
<trkpt lat="50.604225" lon="5.824363"><time>2026-05-07T18:36:15Z</time></trkpt>
<trkpt lat="50.603283" lon="5.823540"><time>2026-05-07T18:46:15Z</time></trkpt>
<trkpt lat="50.602520" lon="5.823049"><time>2026-05-07T18:56:15Z</time></trkpt>
</trkseg></trk>
<trk>
<name>lhvgr7</name>
<cmt>r</cmt>
<desc>Grand-Rechain Chemin n°7 Ruelle Cardol</desc>
<link href="https://chemins.be/grandrechain/chemin/7"/><trkseg>
<trkpt lat="50.602520" lon="5.823049"><time>2026-05-07T18:56:15Z</time></trkpt>
<trkpt lat="50.601597" lon="5.822067"><time>2026-05-07T19:06:15Z</time></trkpt>
<trkpt lat="50.600425" lon="5.820179"><time>2026-05-07T19:16:15Z</time></trkpt>
<trkpt lat="50.599513" lon="5.818269"><time>2026-05-07T19:26:15Z</time></trkpt>
<trkpt lat="50.599717" lon="5.817840"><time>2026-05-07T19:36:15Z</time></trkpt>
</trkseg></trk>
<trk>
<name>lhvgr7</name>
<cmt>v</cmt>
<desc>Grand-Rechain Chemin n°7 Ruelle Cardol</desc>
<link href="https://chemins.be/grandrechain/chemin/7"/><trkseg>
<trkpt lat="50.599717" lon="5.817840"><time>2026-05-07T19:36:15Z</time></trkpt>
<trkpt lat="50.599544" lon="5.815655"><time>2026-05-07T19:46:15Z</time></trkpt>
<trkpt lat="50.599309" lon="5.811451"><time>2026-05-07T19:56:15Z</time></trkpt>
<trkpt lat="50.599250" lon="5.810099"><time>2026-05-07T20:06:15Z</time></trkpt>
<trkpt lat="50.598865" lon="5.808483"><time>2026-05-07T20:16:15Z</time></trkpt>
<trkpt lat="50.598584" lon="5.808014"><time>2026-05-07T20:26:15Z</time></trkpt>
<trkpt lat="50.598043" lon="5.807109"><time>2026-05-07T20:36:15Z</time></trkpt>
<trkpt lat="50.597602" lon="5.805171"><time>2026-05-07T20:46:15Z</time></trkpt>
<trkpt lat="50.597008" lon="5.803311"><time>2026-05-07T20:56:15Z</time></trkpt>
</trkseg>
</trk>
<trk>
<name>lhvgr8</name>
<cmt>r</cmt>
<desc>Grand-Rechain Chemin n°8 Rue Neuve Maye</desc>
<link href="https://chemins.be/grandrechain/chemin/8"/><trkseg>
<trkpt lat="50.607276" lon="5.811740"><time>2026-05-07T18:26:15Z</time></trkpt>
<trkpt lat="50.606704" lon="5.811468"><time>2026-05-07T18:36:15Z</time></trkpt>
<trkpt lat="50.606227" lon="5.812231"><time>2026-05-07T18:46:15Z</time></trkpt>
</trkseg></trk>
<trk>
<name>lhvgr8</name>
<cmt>v</cmt>
<desc>Grand-Rechain Chemin n°8 Rue Neuve Maye</desc>
<link href="https://chemins.be/grandrechain/chemin/8"/><trkseg>
<trkpt lat="50.606227" lon="5.812231"><time>2026-05-07T18:46:15Z</time></trkpt>
<trkpt lat="50.604522" lon="5.814433"><time>2026-05-07T18:56:15Z</time></trkpt>
</trkseg></trk>
<trk>
<name>lhvgr8</name>
<cmt>q</cmt>
<desc>Grand-Rechain Chemin n°8 Rue Neuve Maye</desc>
<link href="https://chemins.be/grandrechain/chemin/8"/><trkseg>
<trkpt lat="50.604522" lon="5.814433"><time>2026-05-07T18:56:15Z</time></trkpt>
<trkpt lat="50.601707" lon="5.818529"><time>2026-05-07T19:06:15Z</time></trkpt>
<trkpt lat="50.601023" lon="5.819477"><time>2026-05-07T19:16:15Z</time></trkpt>
</trkseg></trk>
<trk>
<name>lhvgr8</name>
<cmt>v</cmt>
<desc>Grand-Rechain Chemin n°8 Rue Neuve Maye</desc>
<link href="https://chemins.be/grandrechain/chemin/8"/><trkseg>
<trkpt lat="50.601023" lon="5.819477"><time>2026-05-07T19:16:15Z</time></trkpt>
<trkpt lat="50.600459" lon="5.820260"><time>2026-05-07T19:26:15Z</time></trkpt>
</trkseg>
</trk>
<trk>
<name>lhvgr9</name>
<cmt>q</cmt>
<desc>Grand-Rechain Chemin n°9 </desc>
<link href="https://chemins.be/grandrechain/chemin/9"/><trkseg>
<trkpt lat="50.600730" lon="5.817385"><time>2026-05-07T18:26:15Z</time></trkpt>
<trkpt lat="50.602463" lon="5.817574"><time>2026-05-07T18:36:15Z</time></trkpt>
<trkpt lat="50.603596" lon="5.818226"><time>2026-05-07T18:46:15Z</time></trkpt>
</trkseg>
</trk>
<trk>
<name>lhvgri1</name>
<cmt>v</cmt>
<desc>Grand-Rechain Sentier n°i1 </desc>
<link href="https://chemins.be/grandrechain/sentier/i1"/><trkseg>
<trkpt lat="50.612260" lon="5.803868"><time>2026-05-07T18:26:15Z</time></trkpt>
<trkpt lat="50.611454" lon="5.803173"><time>2026-05-07T18:36:15Z</time></trkpt>
</trkseg>
</trk>
<trk>
<name>lhvgri2</name>
<cmt>v</cmt>
<desc>Grand-Rechain Chemin n°i2 Rue Longue Haie</desc>
<link href="https://chemins.be/grandrechain/chemin/i2"/><trkseg>
<trkpt lat="50.601683" lon="5.802458"><time>2026-05-07T18:26:15Z</time></trkpt>
<trkpt lat="50.599828" lon="5.801058"><time>2026-05-07T18:36:15Z</time></trkpt>
</trkseg>
</trk>
<trk>
<name>lhvgri3</name>
<cmt>v</cmt>
<desc>Grand-Rechain Sentier n°i3 </desc>
<link href="https://chemins.be/grandrechain/sentier/i3"/><trkseg>
<trkpt lat="50.606797" lon="5.793079"><time>2026-05-07T18:26:15Z</time></trkpt>
<trkpt lat="50.607004" lon="5.792972"><time>2026-05-07T18:36:15Z</time></trkpt>
<trkpt lat="50.607389" lon="5.792791"><time>2026-05-07T18:46:15Z</time></trkpt>
<trkpt lat="50.607455" lon="5.792551"><time>2026-05-07T18:56:15Z</time></trkpt>
<trkpt lat="50.607423" lon="5.792265"><time>2026-05-07T19:06:15Z</time></trkpt>
<trkpt lat="50.607500" lon="5.791686"><time>2026-05-07T19:16:15Z</time></trkpt>
</trkseg>
</trk>
<trk>
<name>lhvgri4</name>
<cmt>v</cmt>
<desc>Grand-Rechain Sentier n°i4 </desc>
<link href="https://chemins.be/grandrechain/sentier/i4"/><trkseg>
<trkpt lat="50.606251" lon="5.793155"><time>2026-05-07T18:26:15Z</time></trkpt>
<trkpt lat="50.606224" lon="5.793706"><time>2026-05-07T18:36:15Z</time></trkpt>
<trkpt lat="50.606333" lon="5.793841"><time>2026-05-07T18:46:15Z</time></trkpt>
</trkseg>
</trk>
<trk>
<name>lhvhv10</name>
<cmt>d</cmt>
<desc>Herve Chemin n°10 </desc>
<link href="https://chemins.be/herve/chemin/10"/><trkseg>
<trkpt lat="50.636352" lon="5.789941"><time>2026-05-07T18:26:15Z</time></trkpt>
<trkpt lat="50.634626" lon="5.789343"><time>2026-05-07T18:36:15Z</time></trkpt>
</trkseg></trk>
<trk>
<name>lhvhv10</name>
<cmt>s</cmt>
<desc>Herve Chemin n°10 </desc>
<link href="https://chemins.be/herve/chemin/10"/><trkseg>
<trkpt lat="50.634626" lon="5.789343"><time>2026-05-07T18:36:15Z</time></trkpt>
<trkpt lat="50.633926" lon="5.789099"><time>2026-05-07T18:46:15Z</time></trkpt>
</trkseg>
</trk>
<trk>
<name>lhvhv11</name>
<cmt>s</cmt>
<desc>Herve Chemin n°11 </desc>
<link href="https://chemins.be/herve/chemin/11"/><trkseg>
<trkpt lat="50.636462" lon="5.785396"><time>2026-05-07T18:26:15Z</time></trkpt>
<trkpt lat="50.637190" lon="5.784495"><time>2026-05-07T18:36:15Z</time></trkpt>
</trkseg>
</trk>
<trk>
<name>lhvhv15</name>
<cmt>v</cmt>
<desc>Herve Sentier n°15 </desc>
<link href="https://chemins.be/herve/sentier/15"/><trkseg>
<trkpt lat="50.638943" lon="5.801323"><time>2026-05-07T18:26:15Z</time></trkpt>
<trkpt lat="50.638909" lon="5.803512"><time>2026-05-07T18:36:15Z</time></trkpt>
<trkpt lat="50.638446" lon="5.805325"><time>2026-05-07T18:46:15Z</time></trkpt>
</trkseg>
</trk>
<trk>
<name>lhvhv17</name>
<cmt>v</cmt>
<desc>Herve Sentier n°17 </desc>
<link href="https://chemins.be/herve/sentier/17"/><trkseg>
<trkpt lat="50.639490" lon="5.796927"><time>2026-05-07T18:26:15Z</time></trkpt>
<trkpt lat="50.639429" lon="5.797984"><time>2026-05-07T18:36:15Z</time></trkpt>
<trkpt lat="50.639269" lon="5.798273"><time>2026-05-07T18:46:15Z</time></trkpt>
<trkpt lat="50.638864" lon="5.800360"><time>2026-05-07T18:56:15Z</time></trkpt>
<trkpt lat="50.638915" lon="5.801358"><time>2026-05-07T19:06:15Z</time></trkpt>
</trkseg>
</trk>
<trk>
<name>lhvhv18</name>
<cmt>q</cmt>
<desc>Herve Sentier n°18 </desc>
<link href="https://chemins.be/herve/sentier/18"/><trkseg>
<trkpt lat="50.640183" lon="5.797208"><time>2026-05-07T18:26:15Z</time></trkpt>
<trkpt lat="50.640187" lon="5.797432"><time>2026-05-07T18:36:15Z</time></trkpt>
<trkpt lat="50.639122" lon="5.799196"><time>2026-05-07T18:46:15Z</time></trkpt>
</trkseg>
</trk>
<trk>
<name>lhvhv19</name>
<cmt>v</cmt>
<desc>Herve Sentier n°19 </desc>
<link href="https://chemins.be/herve/sentier/19"/><trkseg>
<trkpt lat="50.637071" lon="5.797960"><time>2026-05-07T18:26:15Z</time></trkpt>
<trkpt lat="50.636534" lon="5.797874"><time>2026-05-07T18:36:15Z</time></trkpt>
<trkpt lat="50.636017" lon="5.798002"><time>2026-05-07T18:46:15Z</time></trkpt>
<trkpt lat="50.635527" lon="5.798346"><time>2026-05-07T18:56:15Z</time></trkpt>
<trkpt lat="50.634866" lon="5.798635"><time>2026-05-07T19:06:15Z</time></trkpt>
<trkpt lat="50.634567" lon="5.799032"><time>2026-05-07T19:16:15Z</time></trkpt>
</trkseg></trk>
<trk>
<name>lhvhv19</name>
<cmt>s</cmt>
<desc>Herve Sentier n°19 </desc>
<link href="https://chemins.be/herve/sentier/19"/><trkseg>
<trkpt lat="50.634567" lon="5.799032"><time>2026-05-07T19:16:15Z</time></trkpt>
<trkpt lat="50.634016" lon="5.800363"><time>2026-05-07T19:26:15Z</time></trkpt>
</trkseg></trk>
<trk>
<name>lhvhv19</name>
<cmt>q</cmt>
<desc>Herve Sentier n°19 </desc>
<link href="https://chemins.be/herve/sentier/19"/><trkseg>
<trkpt lat="50.634016" lon="5.800363"><time>2026-05-07T19:26:15Z</time></trkpt>
<trkpt lat="50.632703" lon="5.802063"><time>2026-05-07T19:36:15Z</time></trkpt>
</trkseg>
</trk>
<trk>
<name>lhvhv20</name>
<cmt>v</cmt>
<desc>Herve Sentier n°20 </desc>
<link href="https://chemins.be/herve/sentier/20"/><trkseg>
<trkpt lat="50.636482" lon="5.792583"><time>2026-05-07T18:26:15Z</time></trkpt>
<trkpt lat="50.636209" lon="5.793288"><time>2026-05-07T18:36:15Z</time></trkpt>
<trkpt lat="50.636133" lon="5.794077"><time>2026-05-07T18:46:15Z</time></trkpt>
<trkpt lat="50.635861" lon="5.794943"><time>2026-05-07T18:56:15Z</time></trkpt>
<trkpt lat="50.635851" lon="5.795858"><time>2026-05-07T19:06:15Z</time></trkpt>
<trkpt lat="50.634976" lon="5.797697"><time>2026-05-07T19:16:15Z</time></trkpt>
<trkpt lat="50.634917" lon="5.798584"><time>2026-05-07T19:26:15Z</time></trkpt>
</trkseg>
</trk>
<trk>
<name>lhvhv21</name>
<cmt>v</cmt>
<desc>Herve Sentier n°21 </desc>
<link href="https://chemins.be/herve/sentier/21"/><trkseg>
<trkpt lat="50.631450" lon="5.798432"><time>2026-05-07T18:26:15Z</time></trkpt>
<trkpt lat="50.631927" lon="5.799097"><time>2026-05-07T18:36:15Z</time></trkpt>
<trkpt lat="50.633730" lon="5.799193"><time>2026-05-07T18:46:15Z</time></trkpt>
<trkpt lat="50.634193" lon="5.799014"><time>2026-05-07T18:56:15Z</time></trkpt>
<trkpt lat="50.634594" lon="5.799032"><time>2026-05-07T19:06:15Z</time></trkpt>
</trkseg>
</trk>
<trk>
<name>lhvhv23</name>
<cmt>v</cmt>
<desc>Herve Sentier n°23 </desc>
<link href="https://chemins.be/herve/sentier/23"/><trkseg>
<trkpt lat="50.637262" lon="5.791535"><time>2026-05-07T18:26:15Z</time></trkpt>
<trkpt lat="50.637308" lon="5.790991"><time>2026-05-07T18:36:15Z</time></trkpt>
<trkpt lat="50.637267" lon="5.790724"><time>2026-05-07T18:46:15Z</time></trkpt>
<trkpt lat="50.637446" lon="5.790288"><time>2026-05-07T18:56:15Z</time></trkpt>
</trkseg>
</trk>
<trk>
<name>lhvhv24</name>
<cmt>q</cmt>
<desc>Herve Sentier n°24 </desc>
<link href="https://chemins.be/herve/sentier/24"/><trkseg>
<trkpt lat="50.638058" lon="5.790970"><time>2026-05-07T18:26:15Z</time></trkpt>
<trkpt lat="50.638537" lon="5.790938"><time>2026-05-07T18:36:15Z</time></trkpt>
<trkpt lat="50.639528" lon="5.790873"><time>2026-05-07T18:46:15Z</time></trkpt>
<trkpt lat="50.641038" lon="5.788180"><time>2026-05-07T18:56:15Z</time></trkpt>
</trkseg>
</trk>
<trk>
<name>lhvhv25</name>
<cmt>q</cmt>
<desc>Herve Sentier n°25 </desc>
<link href="https://chemins.be/herve/sentier/25"/><trkseg>
<trkpt lat="50.641065" lon="5.788084"><time>2026-05-07T18:26:15Z</time></trkpt>
<trkpt lat="50.641566" lon="5.787181"><time>2026-05-07T18:36:15Z</time></trkpt>
<trkpt lat="50.642528" lon="5.785444"><time>2026-05-07T18:46:15Z</time></trkpt>
<trkpt lat="50.644073" lon="5.784543"><time>2026-05-07T18:56:15Z</time></trkpt>
</trkseg>
</trk>
<trk>
<name>lhvhv27</name>
<cmt>q</cmt>
<desc>Herve Sentier n°27 </desc>
<link href="https://chemins.be/herve/sentier/27"/><trkseg>
<trkpt lat="50.638987" lon="5.791911"><time>2026-05-07T18:26:15Z</time></trkpt>
<trkpt lat="50.639538" lon="5.790865"><time>2026-05-07T18:36:15Z</time></trkpt>
</trkseg>
</trk>
<trk>
<name>lhvhv28</name>
<cmt>q</cmt>
<desc>Herve Sentier n°28 </desc>
<link href="https://chemins.be/herve/sentier/28"/><trkseg>
<trkpt lat="50.639950" lon="5.784296"><time>2026-05-07T18:26:15Z</time></trkpt>
<trkpt lat="50.640589" lon="5.782505"><time>2026-05-07T18:36:15Z</time></trkpt>
</trkseg>
</trk>
<trk>
<name>lhvhv29</name>
<cmt>v</cmt>
<desc>Herve Sentier n°29 </desc>
<link href="https://chemins.be/herve/sentier/29"/><trkseg>
<trkpt lat="50.642753" lon="5.791286"><time>2026-05-07T18:26:15Z</time></trkpt>
<trkpt lat="50.645053" lon="5.786887"><time>2026-05-07T18:36:15Z</time></trkpt>
</trkseg>
</trk>
<trk>
<name>lhvhv30</name>
<cmt>q</cmt>
<desc>Herve Sentier n°30 </desc>
<link href="https://chemins.be/herve/sentier/30"/><trkseg>
<trkpt lat="50.643857" lon="5.794539"><time>2026-05-07T18:26:15Z</time></trkpt>
<trkpt lat="50.644739" lon="5.794162"><time>2026-05-07T18:36:15Z</time></trkpt>
<trkpt lat="50.645156" lon="5.794535"><time>2026-05-07T18:46:15Z</time></trkpt>
<trkpt lat="50.646541" lon="5.794501"><time>2026-05-07T18:56:15Z</time></trkpt>
</trkseg>
</trk>
<trk>
<name>lhvhv34</name>
<cmt>v</cmt>
<desc>Herve Sentier n°34 Cours Cerexhe</desc>
<link href="https://chemins.be/herve/sentier/34"/><trkseg>
<trkpt lat="50.641731" lon="5.796475"><time>2026-05-07T18:26:15Z</time></trkpt>
<trkpt lat="50.641824" lon="5.796266"><time>2026-05-07T18:36:15Z</time></trkpt>
<trkpt lat="50.641810" lon="5.795941"><time>2026-05-07T18:46:15Z</time></trkpt>
<trkpt lat="50.641936" lon="5.795930"><time>2026-05-07T18:56:15Z</time></trkpt>
<trkpt lat="50.641974" lon="5.795776"><time>2026-05-07T19:06:15Z</time></trkpt>
</trkseg>
</trk>
<trk>
<name>lhvhv36</name>
<cmt>v</cmt>
<desc>Herve Sentier n°36 Pré de Ville</desc>
<link href="https://chemins.be/herve/sentier/36"/><trkseg>
<trkpt lat="50.639802" lon="5.796941"><time>2026-05-07T18:26:15Z</time></trkpt>
<trkpt lat="50.639937" lon="5.796703"><time>2026-05-07T18:36:15Z</time></trkpt>
</trkseg></trk>
<trk>
<name>lhvhv36</name>
<cmt>r</cmt>
<desc>Herve Sentier n°36 Pré de Ville</desc>
<link href="https://chemins.be/herve/sentier/36"/><trkseg>
<trkpt lat="50.639937" lon="5.796703"><time>2026-05-07T18:36:15Z</time></trkpt>
<trkpt lat="50.640207" lon="5.796227"><time>2026-05-07T18:46:15Z</time></trkpt>
<trkpt lat="50.640201" lon="5.796068"><time>2026-05-07T18:56:15Z</time></trkpt>
</trkseg>
</trk>
<trk>
<name>lhvhv6</name>
<cmt>r</cmt>
<desc>Herve Chemin n°6 </desc>
<link href="https://chemins.be/herve/chemin/6"/><trkseg>
<trkpt lat="50.637255" lon="5.790101"><time>2026-05-07T18:26:15Z</time></trkpt>
<trkpt lat="50.636371" lon="5.791603"><time>2026-05-07T18:36:15Z</time></trkpt>
<trkpt lat="50.635854" lon="5.791774"><time>2026-05-07T18:46:15Z</time></trkpt>
<trkpt lat="50.635300" lon="5.792368"><time>2026-05-07T18:56:15Z</time></trkpt>
<trkpt lat="50.634996" lon="5.792397"><time>2026-05-07T19:06:15Z</time></trkpt>
</trkseg></trk>
<trk>
<name>lhvhv6</name>
<cmt>s</cmt>
<desc>Herve Chemin n°6 </desc>
<link href="https://chemins.be/herve/chemin/6"/><trkseg>
<trkpt lat="50.634996" lon="5.792397"><time>2026-05-07T19:06:15Z</time></trkpt>
<trkpt lat="50.633545" lon="5.792568"><time>2026-05-07T19:16:15Z</time></trkpt>
</trkseg>
</trk>
<trk>
<name>lhvhvi1</name>
<cmt>v</cmt>
<desc>Herve Sentier n°i1 </desc>
<link href="https://chemins.be/herve/sentier/i1"/><trkseg>
<trkpt lat="50.635366" lon="5.803027"><time>2026-05-07T18:26:15Z</time></trkpt>
<trkpt lat="50.635711" lon="5.803462"><time>2026-05-07T18:36:15Z</time></trkpt>
<trkpt lat="50.636199" lon="5.803957"><time>2026-05-07T18:46:15Z</time></trkpt>
<trkpt lat="50.636566" lon="5.804166"><time>2026-05-07T18:56:15Z</time></trkpt>
<trkpt lat="50.636996" lon="5.804278"><time>2026-05-07T19:06:15Z</time></trkpt>
<trkpt lat="50.637256" lon="5.804314"><time>2026-05-07T19:16:15Z</time></trkpt>
<trkpt lat="50.637526" lon="5.804266"><time>2026-05-07T19:26:15Z</time></trkpt>
<trkpt lat="50.637645" lon="5.804171"><time>2026-05-07T19:36:15Z</time></trkpt>
<trkpt lat="50.637957" lon="5.803615"><time>2026-05-07T19:46:15Z</time></trkpt>
<trkpt lat="50.638371" lon="5.802892"><time>2026-05-07T19:56:15Z</time></trkpt>
<trkpt lat="50.638567" lon="5.802276"><time>2026-05-07T20:06:15Z</time></trkpt>
<trkpt lat="50.638836" lon="5.801605"><time>2026-05-07T20:16:15Z</time></trkpt>
<trkpt lat="50.638938" lon="5.801312"><time>2026-05-07T20:26:15Z</time></trkpt>
</trkseg>
</trk>
<trk>
<name>lhvhvi10</name>
<cmt>v</cmt>
<desc>Herve Sentier n°i10 </desc>
<link href="https://chemins.be/herve/sentier/i10"/><trkseg>
<trkpt lat="50.639936" lon="5.803680"><time>2026-05-07T18:26:15Z</time></trkpt>
<trkpt lat="50.639862" lon="5.803800"><time>2026-05-07T18:36:15Z</time></trkpt>
<trkpt lat="50.639623" lon="5.803607"><time>2026-05-07T18:46:15Z</time></trkpt>
<trkpt lat="50.639198" lon="5.803689"><time>2026-05-07T18:56:15Z</time></trkpt>
<trkpt lat="50.638880" lon="5.804260"><time>2026-05-07T19:06:15Z</time></trkpt>
<trkpt lat="50.638760" lon="5.804208"><time>2026-05-07T19:16:15Z</time></trkpt>
</trkseg>
</trk>
<trk>
<name>lhvhvi2</name>
<cmt>v</cmt>
<desc>Herve Sentier n°i2 </desc>
<link href="https://chemins.be/herve/sentier/i2"/><trkseg>
<trkpt lat="50.642712" lon="5.802160"><time>2026-05-07T18:26:15Z</time></trkpt>
<trkpt lat="50.642501" lon="5.802342"><time>2026-05-07T18:36:15Z</time></trkpt>
<trkpt lat="50.642399" lon="5.802868"><time>2026-05-07T18:46:15Z</time></trkpt>
<trkpt lat="50.642059" lon="5.802643"><time>2026-05-07T18:56:15Z</time></trkpt>
</trkseg>
</trk>
<trk>
<name>lhvhvi3</name>
<cmt>v</cmt>
<desc>Herve Sentier n°i3 Ruelle du Patronnage</desc>
<link href="https://chemins.be/herve/sentier/i3"/><trkseg>
<trkpt lat="50.642311" lon="5.795884"><time>2026-05-07T18:26:15Z</time></trkpt>
<trkpt lat="50.642426" lon="5.795025"><time>2026-05-07T18:36:15Z</time></trkpt>
</trkseg>
</trk>
<trk>
<name>lhvhvi4</name>
<cmt>v</cmt>
<desc>Herve Sentier n°i4 </desc>
<link href="https://chemins.be/herve/sentier/i4"/><trkseg>
<trkpt lat="50.637713" lon="5.793001"><time>2026-05-07T18:26:15Z</time></trkpt>
<trkpt lat="50.637777" lon="5.793092"><time>2026-05-07T18:36:15Z</time></trkpt>
<trkpt lat="50.637879" lon="5.793366"><time>2026-05-07T18:46:15Z</time></trkpt>
<trkpt lat="50.637920" lon="5.793623"><time>2026-05-07T18:56:15Z</time></trkpt>
<trkpt lat="50.637981" lon="5.793715"><time>2026-05-07T19:06:15Z</time></trkpt>
</trkseg>
</trk>
<trk>
<name>lhvhvi5</name>
<cmt>v</cmt>
<desc>Herve Sentier n°i5 Allée des Peupliers</desc>
<link href="https://chemins.be/herve/sentier/i5"/><trkseg>
<trkpt lat="50.637440" lon="5.793387"><time>2026-05-07T18:26:15Z</time></trkpt>
<trkpt lat="50.637790" lon="5.793097"><time>2026-05-07T18:36:15Z</time></trkpt>
<trkpt lat="50.638067" lon="5.792856"><time>2026-05-07T18:46:15Z</time></trkpt>
<trkpt lat="50.638445" lon="5.792491"><time>2026-05-07T18:56:15Z</time></trkpt>
</trkseg>
</trk>
<trk>
<name>lhvhvi6</name>
<cmt>v</cmt>
<desc>Herve Sentier n°i6 </desc>
<link href="https://chemins.be/herve/sentier/i6"/><trkseg>
<trkpt lat="50.635836" lon="5.792713"><time>2026-05-07T18:26:15Z</time></trkpt>
<trkpt lat="50.635948" lon="5.792906"><time>2026-05-07T18:36:15Z</time></trkpt>
<trkpt lat="50.636234" lon="5.793174"><time>2026-05-07T18:46:15Z</time></trkpt>
</trkseg>
</trk>
<trk>
<name>lhvhvi7</name>
<cmt>v</cmt>
<desc>Herve Sentier n°i7 Passage lotissement Ann-Sophie</desc>
<link href="https://chemins.be/herve/sentier/i7"/><trkseg>
<trkpt lat="50.636899" lon="5.790044"><time>2026-05-07T18:26:15Z</time></trkpt>
<trkpt lat="50.636856" lon="5.790284"><time>2026-05-07T18:36:15Z</time></trkpt>
<trkpt lat="50.636375" lon="5.790752"><time>2026-05-07T18:46:15Z</time></trkpt>
</trkseg>
</trk>
<trk>
<name>lhvhvi8</name>
<cmt>v</cmt>
<desc>Herve Sentier n°i8 </desc>
<link href="https://chemins.be/herve/sentier/i8"/><trkseg>
<trkpt lat="50.642157" lon="5.791120"><time>2026-05-07T18:26:15Z</time></trkpt>
<trkpt lat="50.642407" lon="5.790920"><time>2026-05-07T18:36:15Z</time></trkpt>
<trkpt lat="50.642589" lon="5.790766"><time>2026-05-07T18:46:15Z</time></trkpt>
</trkseg>
</trk>
<trk>
<name>lhvhvi9</name>
<cmt>v</cmt>
<desc>Herve Chemin n°i9 </desc>
<link href="https://chemins.be/herve/chemin/i9"/><trkseg>
<trkpt lat="50.639911" lon="5.803165"><time>2026-05-07T18:26:15Z</time></trkpt>
<trkpt lat="50.639933" lon="5.803809"><time>2026-05-07T18:36:15Z</time></trkpt>
<trkpt lat="50.640352" lon="5.804195"><time>2026-05-07T18:46:15Z</time></trkpt>
</trkseg>
</trk>
<trk>
<name>lhvju1</name>
<cmt>v</cmt>
<desc>Julémont Chemin n°1 </desc>
<link href="https://chemins.be/julemont/chemin/1"/><trkseg>
<trkpt lat="50.694080" lon="5.779493"><time>2026-05-07T18:26:15Z</time></trkpt>
<trkpt lat="50.695480" lon="5.778843"><time>2026-05-07T18:36:15Z</time></trkpt>
<trkpt lat="50.695820" lon="5.779043"><time>2026-05-07T18:46:15Z</time></trkpt>
</trkseg>
</trk>
<trk>
<name>lhvju10</name>
<cmt>q</cmt>
<desc>Julémont Sentier n°10 </desc>
<link href="https://chemins.be/julemont/sentier/10"/><trkseg>
<trkpt lat="50.686169" lon="5.772711"><time>2026-05-07T18:26:15Z</time></trkpt>
<trkpt lat="50.691588" lon="5.778919"><time>2026-05-07T18:36:15Z</time></trkpt>
<trkpt lat="50.693120" lon="5.781823"><time>2026-05-07T18:46:15Z</time></trkpt>
<trkpt lat="50.692649" lon="5.783063"><time>2026-05-07T18:56:15Z</time></trkpt>
</trkseg>
</trk>
<trk>
<name>lhvju11</name>
<cmt>q</cmt>
<desc>Julémont Sentier n°11 </desc>
<link href="https://chemins.be/julemont/sentier/11"/><trkseg>
<trkpt lat="50.686758" lon="5.776273"><time>2026-05-07T18:26:15Z</time></trkpt>
<trkpt lat="50.688924" lon="5.773956"><time>2026-05-07T18:36:15Z</time></trkpt>
<trkpt lat="50.689341" lon="5.771481"><time>2026-05-07T18:46:15Z</time></trkpt>
<trkpt lat="50.689676" lon="5.768448"><time>2026-05-07T18:56:15Z</time></trkpt>
<trkpt lat="50.689586" lon="5.767089"><time>2026-05-07T19:06:15Z</time></trkpt>
</trkseg>
</trk>
<trk>
<name>lhvju12</name>
<cmt>q</cmt>
<desc>Julémont Sentier n°12 </desc>
<link href="https://chemins.be/julemont/sentier/12"/><trkseg>
<trkpt lat="50.685627" lon="5.777720"><time>2026-05-07T18:26:15Z</time></trkpt>
<trkpt lat="50.685061" lon="5.778006"><time>2026-05-07T18:36:15Z</time></trkpt>
<trkpt lat="50.683099" lon="5.777705"><time>2026-05-07T18:46:15Z</time></trkpt>
<trkpt lat="50.682179" lon="5.779200"><time>2026-05-07T18:56:15Z</time></trkpt>
<trkpt lat="50.680960" lon="5.780473"><time>2026-05-07T19:06:15Z</time></trkpt>
<trkpt lat="50.680216" lon="5.781897"><time>2026-05-07T19:16:15Z</time></trkpt>
</trkseg>
</trk>
<trk>
<name>lhvju13</name>
<cmt>q</cmt>
<desc>Julémont Sentier n°13 </desc>
<link href="https://chemins.be/julemont/sentier/13"/><trkseg>
<trkpt lat="50.686579" lon="5.775338"><time>2026-05-07T18:26:15Z</time></trkpt>
<trkpt lat="50.686171" lon="5.772827"><time>2026-05-07T18:36:15Z</time></trkpt>
</trkseg>
</trk>
<trk>
<name>lhvju14</name>
<cmt>q</cmt>
<desc>Julémont Sentier n°14 </desc>
<link href="https://chemins.be/julemont/sentier/14"/><trkseg>
<trkpt lat="50.686393" lon="5.782372"><time>2026-05-07T18:26:15Z</time></trkpt>
<trkpt lat="50.685705" lon="5.783526"><time>2026-05-07T18:36:15Z</time></trkpt>
</trkseg>
</trk>
<trk>
<name>lhvju16</name>
<cmt>q</cmt>
<desc>Julémont Sentier n°16 </desc>
<link href="https://chemins.be/julemont/sentier/16"/><trkseg>
<trkpt lat="50.678421" lon="5.778602"><time>2026-05-07T18:26:15Z</time></trkpt>
<trkpt lat="50.679291" lon="5.782180"><time>2026-05-07T18:36:15Z</time></trkpt>
</trkseg>
</trk>
<trk>
<name>lhvju17</name>
<cmt>q</cmt>
<desc>Julémont Sentier n°17 </desc>
<link href="https://chemins.be/julemont/sentier/17"/><trkseg>
<trkpt lat="50.685727" lon="5.777906"><time>2026-05-07T18:26:15Z</time></trkpt>
<trkpt lat="50.686049" lon="5.777026"><time>2026-05-07T18:36:15Z</time></trkpt>
<trkpt lat="50.685940" lon="5.775488"><time>2026-05-07T18:46:15Z</time></trkpt>
<trkpt lat="50.685945" lon="5.774243"><time>2026-05-07T18:56:15Z</time></trkpt>
</trkseg>
</trk>
<trk>
<name>lhvju17bis</name>
<cmt>q</cmt>
<desc>Julémont Sentier n°17bis </desc>
<link href="https://chemins.be/julemont/sentier/17bis"/><trkseg>
<trkpt lat="50.686325" lon="5.777398"><time>2026-05-07T18:26:15Z</time></trkpt>
<trkpt lat="50.686071" lon="5.777054"><time>2026-05-07T18:36:15Z</time></trkpt>
</trkseg>
</trk>
<trk>
<name>lhvju18</name>
<cmt>q</cmt>
<desc>Julémont Sentier n°18 </desc>
<link href="https://chemins.be/julemont/sentier/18"/><trkseg>
<trkpt lat="50.685233" lon="5.772234"><time>2026-05-07T18:26:15Z</time></trkpt>
<trkpt lat="50.685514" lon="5.773128"><time>2026-05-07T18:36:15Z</time></trkpt>
<trkpt lat="50.685501" lon="5.774043"><time>2026-05-07T18:46:15Z</time></trkpt>
<trkpt lat="50.685940" lon="5.775624"><time>2026-05-07T18:56:15Z</time></trkpt>
</trkseg>
</trk>
<trk>
<name>lhvju19</name>
<cmt>q</cmt>
<desc>Julémont Sentier n°19 </desc>
<link href="https://chemins.be/julemont/sentier/19"/><trkseg>
<trkpt lat="50.688092" lon="5.778542"><time>2026-05-07T18:26:15Z</time></trkpt>
<trkpt lat="50.686288" lon="5.778921"><time>2026-05-07T18:36:15Z</time></trkpt>
<trkpt lat="50.686034" lon="5.779136"><time>2026-05-07T18:46:15Z</time></trkpt>
</trkseg>
</trk>
<trk>
<name>lhvju21</name>
<cmt>q</cmt>
<desc>Julémont Sentier n°21 </desc>
<link href="https://chemins.be/julemont/sentier/21"/><trkseg>
<trkpt lat="50.690064" lon="5.773178"><time>2026-05-07T18:26:15Z</time></trkpt>
<trkpt lat="50.690530" lon="5.776461"><time>2026-05-07T18:36:15Z</time></trkpt>
<trkpt lat="50.691604" lon="5.778921"><time>2026-05-07T18:46:15Z</time></trkpt>
<trkpt lat="50.691536" lon="5.779687"><time>2026-05-07T18:56:15Z</time></trkpt>
<trkpt lat="50.691237" lon="5.780917"><time>2026-05-07T19:06:15Z</time></trkpt>
</trkseg></trk>
<trk>
<name>lhvju21</name>
<cmt>r</cmt>
<desc>Julémont Sentier n°21 </desc>
<link href="https://chemins.be/julemont/sentier/21"/><trkseg>
<trkpt lat="50.691237" lon="5.780917"><time>2026-05-07T19:06:15Z</time></trkpt>
<trkpt lat="50.691464" lon="5.781146"><time>2026-05-07T19:16:15Z</time></trkpt>
</trkseg></trk>
<trk>
<name>lhvju21</name>
<cmt>q</cmt>
<desc>Julémont Sentier n°21 </desc>
<link href="https://chemins.be/julemont/sentier/21"/><trkseg>
<trkpt lat="50.691464" lon="5.781146"><time>2026-05-07T19:16:15Z</time></trkpt>
<trkpt lat="50.691437" lon="5.781346"><time>2026-05-07T19:26:15Z</time></trkpt>
<trkpt lat="50.691885" lon="5.782419"><time>2026-05-07T19:36:15Z</time></trkpt>
<trkpt lat="50.692633" lon="5.783141"><time>2026-05-07T19:46:15Z</time></trkpt>
<trkpt lat="50.693457" lon="5.782819"><time>2026-05-07T19:56:15Z</time></trkpt>
</trkseg>
</trk>
<trk>
<name>lhvju22</name>
<cmt>q</cmt>
<desc>Julémont Sentier n°22 </desc>
<link href="https://chemins.be/julemont/sentier/22"/><trkseg>
<trkpt lat="50.690533" lon="5.779891"><time>2026-05-07T18:26:15Z</time></trkpt>
<trkpt lat="50.692052" lon="5.779594"><time>2026-05-07T18:36:15Z</time></trkpt>
<trkpt lat="50.693883" lon="5.779543"><time>2026-05-07T18:46:15Z</time></trkpt>
</trkseg>
</trk>
<trk>
<name>lhvju23</name>
<cmt>q</cmt>
<desc>Julémont Sentier n°23 </desc>
<link href="https://chemins.be/julemont/sentier/23"/><trkseg>
<trkpt lat="50.689247" lon="5.779100"><time>2026-05-07T18:26:15Z</time></trkpt>
<trkpt lat="50.689592" lon="5.777841"><time>2026-05-07T18:36:15Z</time></trkpt>
<trkpt lat="50.689383" lon="5.777476"><time>2026-05-07T18:46:15Z</time></trkpt>
<trkpt lat="50.689111" lon="5.776167"><time>2026-05-07T18:56:15Z</time></trkpt>
</trkseg>
</trk>
<trk>
<name>lhvju3</name>
<cmt>v</cmt>
<desc>Julémont Chemin n°3 Coronmeuse</desc>
<link href="https://chemins.be/julemont/chemin/3"/><trkseg>
<trkpt lat="50.697931" lon="5.762206"><time>2026-05-07T18:26:15Z</time></trkpt>
<trkpt lat="50.697085" lon="5.765293"><time>2026-05-07T18:36:15Z</time></trkpt>
<trkpt lat="50.696100" lon="5.767986"><time>2026-05-07T18:46:15Z</time></trkpt>
<trkpt lat="50.695892" lon="5.768471"><time>2026-05-07T18:56:15Z</time></trkpt>
<trkpt lat="50.695625" lon="5.769888"><time>2026-05-07T19:06:15Z</time></trkpt>
<trkpt lat="50.695779" lon="5.770524"><time>2026-05-07T19:16:15Z</time></trkpt>
<trkpt lat="50.695756" lon="5.771218"><time>2026-05-07T19:26:15Z</time></trkpt>
<trkpt lat="50.694922" lon="5.774344"><time>2026-05-07T19:36:15Z</time></trkpt>
<trkpt lat="50.693976" lon="5.779172"><time>2026-05-07T19:46:15Z</time></trkpt>
</trkseg></trk>
<trk>
<name>lhvju3</name>
<cmt>r</cmt>
<desc>Julémont Chemin n°3 Coronmeuse</desc>
<link href="https://chemins.be/julemont/chemin/3"/><trkseg>
<trkpt lat="50.693976" lon="5.779172"><time>2026-05-07T19:46:15Z</time></trkpt>
<trkpt lat="50.693790" lon="5.780252"><time>2026-05-07T19:56:15Z</time></trkpt>
<trkpt lat="50.693047" lon="5.781882"><time>2026-05-07T20:06:15Z</time></trkpt>
<trkpt lat="50.692548" lon="5.782087"><time>2026-05-07T20:16:15Z</time></trkpt>
</trkseg></trk>
<trk>
<name>lhvju3</name>
<cmt>v</cmt>
<desc>Julémont Chemin n°3 Coronmeuse</desc>
<link href="https://chemins.be/julemont/chemin/3"/><trkseg>
<trkpt lat="50.692548" lon="5.782087"><time>2026-05-07T20:16:15Z</time></trkpt>
<trkpt lat="50.692430" lon="5.782176"><time>2026-05-07T20:26:15Z</time></trkpt>
<trkpt lat="50.691689" lon="5.782848"><time>2026-05-07T20:36:15Z</time></trkpt>
<trkpt lat="50.691338" lon="5.783048"><time>2026-05-07T20:46:15Z</time></trkpt>
<trkpt lat="50.690033" lon="5.783462"><time>2026-05-07T20:56:15Z</time></trkpt>
<trkpt lat="50.689779" lon="5.783586"><time>2026-05-07T21:06:15Z</time></trkpt>
<trkpt lat="50.689531" lon="5.783676"><time>2026-05-07T21:16:15Z</time></trkpt>
</trkseg>
</trk>
<trk>
<name>lhvju4</name>
<cmt>v</cmt>
<desc>Julémont Chemin n°4 </desc>
<link href="https://chemins.be/julemont/chemin/4"/><trkseg>
<trkpt lat="50.686112" lon="5.779561"><time>2026-05-07T18:26:15Z</time></trkpt>
<trkpt lat="50.686399" lon="5.781169"><time>2026-05-07T18:36:15Z</time></trkpt>
<trkpt lat="50.686456" lon="5.782360"><time>2026-05-07T18:46:15Z</time></trkpt>
<trkpt lat="50.686290" lon="5.783473"><time>2026-05-07T18:56:15Z</time></trkpt>
</trkseg>
</trk>
<trk>
<name>lhvju6</name>
<cmt>q</cmt>
<desc>Julémont Chemin n°6 </desc>
<link href="https://chemins.be/julemont/chemin/6"/><trkseg>
<trkpt lat="50.679201" lon="5.778084"><time>2026-05-07T18:26:15Z</time></trkpt>
<trkpt lat="50.679382" lon="5.778521"><time>2026-05-07T18:36:15Z</time></trkpt>
<trkpt lat="50.679115" lon="5.779286"><time>2026-05-07T18:46:15Z</time></trkpt>
<trkpt lat="50.679645" lon="5.779944"><time>2026-05-07T18:56:15Z</time></trkpt>
<trkpt lat="50.680320" lon="5.782147"><time>2026-05-07T19:06:15Z</time></trkpt>
</trkseg>
</trk>
<trk>
<name>lhvju7</name>
<cmt>q</cmt>
<desc>Julémont Sentier n°7 Heusière</desc>
<link href="https://chemins.be/julemont/sentier/7"/><trkseg>
<trkpt lat="50.700100" lon="5.753534"><time>2026-05-07T18:26:15Z</time></trkpt>
<trkpt lat="50.700982" lon="5.754947"><time>2026-05-07T18:36:15Z</time></trkpt>
<trkpt lat="50.701632" lon="5.756226"><time>2026-05-07T18:46:15Z</time></trkpt>
<trkpt lat="50.701796" lon="5.755311"><time>2026-05-07T18:56:15Z</time></trkpt>
<trkpt lat="50.702267" lon="5.755778"><time>2026-05-07T19:06:15Z</time></trkpt>
</trkseg>
</trk>
<trk>
<name>lhvju8</name>
<cmt>v</cmt>
<desc>Julémont Sentier n°8 </desc>
<link href="https://chemins.be/julemont/sentier/8"/><trkseg>
<trkpt lat="50.694497" lon="5.758123"><time>2026-05-07T18:26:15Z</time></trkpt>
<trkpt lat="50.695125" lon="5.759722"><time>2026-05-07T18:36:15Z</time></trkpt>
<trkpt lat="50.695713" lon="5.761206"><time>2026-05-07T18:46:15Z</time></trkpt>
<trkpt lat="50.696174" lon="5.762444"><time>2026-05-07T18:56:15Z</time></trkpt>
<trkpt lat="50.696273" lon="5.763659"><time>2026-05-07T19:06:15Z</time></trkpt>
<trkpt lat="50.696169" lon="5.764518"><time>2026-05-07T19:16:15Z</time></trkpt>
<trkpt lat="50.697084" lon="5.765262"><time>2026-05-07T19:26:15Z</time></trkpt>
<trkpt lat="50.697225" lon="5.765952"><time>2026-05-07T19:36:15Z</time></trkpt>
<trkpt lat="50.697322" lon="5.766041"><time>2026-05-07T19:46:15Z</time></trkpt>
</trkseg>
</trk>
<trk>
<name>lhvju9</name>
<cmt>q</cmt>
<desc>Julémont Sentier n°9 </desc>
<link href="https://chemins.be/julemont/sentier/9"/><trkseg>
<trkpt lat="50.691001" lon="5.765567"><time>2026-05-07T18:26:15Z</time></trkpt>
<trkpt lat="50.693312" lon="5.769122"><time>2026-05-07T18:36:15Z</time></trkpt>
<trkpt lat="50.694182" lon="5.769730"><time>2026-05-07T18:46:15Z</time></trkpt>
<trkpt lat="50.694531" lon="5.770081"><time>2026-05-07T18:56:15Z</time></trkpt>
</trkseg>
</trk>
<trk>
<name>lhvxh11</name>
<cmt>q</cmt>
<desc>Xhendelesse Chemin n°11 Rue des Cloutiers / Voie des Potalles</desc>
<link href="https://chemins.be/xhendelesse/chemin/11"/><trkseg>
<trkpt lat="50.601421" lon="5.774201"><time>2026-05-07T18:26:15Z</time></trkpt>
<trkpt lat="50.600744" lon="5.772717"><time>2026-05-07T18:36:15Z</time></trkpt>
</trkseg></trk>
<trk>
<name>lhvxh11</name>
<cmt>v</cmt>
<desc>Xhendelesse Chemin n°11 Rue des Cloutiers / Voie des Potalles</desc>
<link href="https://chemins.be/xhendelesse/chemin/11"/><trkseg>
<trkpt lat="50.600744" lon="5.772717"><time>2026-05-07T18:36:15Z</time></trkpt>
<trkpt lat="50.600625" lon="5.772318"><time>2026-05-07T18:46:15Z</time></trkpt>
</trkseg></trk>
<trk>
<name>lhvxh11</name>
<cmt>r</cmt>
<desc>Xhendelesse Chemin n°11 Rue des Cloutiers / Voie des Potalles</desc>
<link href="https://chemins.be/xhendelesse/chemin/11"/><trkseg>
<trkpt lat="50.600625" lon="5.772318"><time>2026-05-07T18:46:15Z</time></trkpt>
<trkpt lat="50.600513" lon="5.772260"><time>2026-05-07T18:56:15Z</time></trkpt>
<trkpt lat="50.600255" lon="5.771862"><time>2026-05-07T19:06:15Z</time></trkpt>
</trkseg></trk>
<trk>
<name>lhvxh11</name>
<cmt>v</cmt>
<desc>Xhendelesse Chemin n°11 Rue des Cloutiers / Voie des Potalles</desc>
<link href="https://chemins.be/xhendelesse/chemin/11"/><trkseg>
<trkpt lat="50.600255" lon="5.771862"><time>2026-05-07T19:06:15Z</time></trkpt>
<trkpt lat="50.600057" lon="5.771416"><time>2026-05-07T19:16:15Z</time></trkpt>
<trkpt lat="50.600117" lon="5.771193"><time>2026-05-07T19:26:15Z</time></trkpt>
<trkpt lat="50.600100" lon="5.770865"><time>2026-05-07T19:36:15Z</time></trkpt>
</trkseg>
</trk>
<trk>
<name>lhvxh11bis</name>
<cmt>q</cmt>
<desc>Xhendelesse Chemin n°11bis </desc>
<link href="https://chemins.be/xhendelesse/chemin/11bis"/><trkseg>
<trkpt lat="50.600061" lon="5.772502"><time>2026-05-07T18:26:15Z</time></trkpt>
<trkpt lat="50.600245" lon="5.771870"><time>2026-05-07T18:36:15Z</time></trkpt>
</trkseg>
</trk>
<trk>
<name>lhvxh12</name>
<cmt>q</cmt>
<desc>Xhendelesse Chemin n°12 </desc>
<link href="https://chemins.be/xhendelesse/chemin/12"/><trkseg>
<trkpt lat="50.602489" lon="5.771968"><time>2026-05-07T18:26:15Z</time></trkpt>
<trkpt lat="50.602060" lon="5.770895"><time>2026-05-07T18:36:15Z</time></trkpt>
<trkpt lat="50.601783" lon="5.769822"><time>2026-05-07T18:46:15Z</time></trkpt>
</trkseg>
</trk>
<trk>
<name>lhvxh13</name>
<cmt>q</cmt>
<desc>Xhendelesse Chemin n°13 Falhez</desc>
<link href="https://chemins.be/xhendelesse/chemin/13"/><trkseg>
<trkpt lat="50.599629" lon="5.768914"><time>2026-05-07T18:26:15Z</time></trkpt>
<trkpt lat="50.599011" lon="5.770572"><time>2026-05-07T18:36:15Z</time></trkpt>
</trkseg></trk>
<trk>
<name>lhvxh13</name>
<cmt>v</cmt>
<desc>Xhendelesse Chemin n°13 Falhez</desc>
<link href="https://chemins.be/xhendelesse/chemin/13"/><trkseg>
<trkpt lat="50.599011" lon="5.770572"><time>2026-05-07T18:36:15Z</time></trkpt>
<trkpt lat="50.598228" lon="5.771384"><time>2026-05-07T18:46:15Z</time></trkpt>
<trkpt lat="50.597893" lon="5.770880"><time>2026-05-07T18:56:15Z</time></trkpt>
<trkpt lat="50.597743" lon="5.770621"><time>2026-05-07T19:06:15Z</time></trkpt>
</trkseg>
</trk>
<trk>
<name>lhvxh14</name>
<cmt>v</cmt>
<desc>Xhendelesse Chemin n°14 </desc>
<link href="https://chemins.be/xhendelesse/chemin/14"/><trkseg>
<trkpt lat="50.600611" lon="5.776861"><time>2026-05-07T18:26:15Z</time></trkpt>
<trkpt lat="50.600648" lon="5.777532"><time>2026-05-07T18:36:15Z</time></trkpt>
<trkpt lat="50.600850" lon="5.777954"><time>2026-05-07T18:46:15Z</time></trkpt>
</trkseg>
</trk>
<trk>
<name>lhvxh16</name>
<cmt>q</cmt>
<desc>Xhendelesse Chemin n°16 </desc>
<link href="https://chemins.be/xhendelesse/chemin/16"/><trkseg>
<trkpt lat="50.600274" lon="5.771841"><time>2026-05-07T18:26:15Z</time></trkpt>
<trkpt lat="50.601801" lon="5.769772"><time>2026-05-07T18:36:15Z</time></trkpt>
</trkseg>
</trk>
<trk>
<name>lhvxh17</name>
<cmt>q</cmt>
<desc>Xhendelesse Chemin n°17 </desc>
<link href="https://chemins.be/xhendelesse/chemin/17"/><trkseg>
<trkpt lat="50.620412" lon="5.769110"><time>2026-05-07T18:26:15Z</time></trkpt>
<trkpt lat="50.620224" lon="5.768239"><time>2026-05-07T18:36:15Z</time></trkpt>
</trkseg>
</trk>
<trk>
<name>lhvxh2</name>
<cmt>q</cmt>
<desc>Xhendelesse Chemin n°2 </desc>
<link href="https://chemins.be/xhendelesse/chemin/2"/><trkseg>
<trkpt lat="50.603104" lon="5.767554"><time>2026-05-07T18:26:15Z</time></trkpt>
<trkpt lat="50.603572" lon="5.768450"><time>2026-05-07T18:36:15Z</time></trkpt>
<trkpt lat="50.604794" lon="5.770574"><time>2026-05-07T18:46:15Z</time></trkpt>
<trkpt lat="50.606068" lon="5.772798"><time>2026-05-07T18:56:15Z</time></trkpt>
<trkpt lat="50.606172" lon="5.773482"><time>2026-05-07T19:06:15Z</time></trkpt>
</trkseg></trk>
<trk>
<name>lhvxh2</name>
<cmt>v</cmt>
<desc>Xhendelesse Chemin n°2 </desc>
<link href="https://chemins.be/xhendelesse/chemin/2"/><trkseg>
<trkpt lat="50.606172" lon="5.773482"><time>2026-05-07T19:06:15Z</time></trkpt>
<trkpt lat="50.606936" lon="5.774563"><time>2026-05-07T19:16:15Z</time></trkpt>
</trkseg>
</trk>
<trk>
<name>lhvxh20</name>
<cmt>v</cmt>
<desc>Xhendelesse Chemin n°20 </desc>
<link href="https://chemins.be/xhendelesse/chemin/20"/><trkseg>
<trkpt lat="50.624804" lon="5.759996"><time>2026-05-07T18:26:15Z</time></trkpt>
<trkpt lat="50.624390" lon="5.760743"><time>2026-05-07T18:36:15Z</time></trkpt>
</trkseg></trk>
<trk>
<name>lhvxh20</name>
<cmt>q</cmt>
<desc>Xhendelesse Chemin n°20 </desc>
<link href="https://chemins.be/xhendelesse/chemin/20"/><trkseg>
<trkpt lat="50.624390" lon="5.760743"><time>2026-05-07T18:36:15Z</time></trkpt>
<trkpt lat="50.624095" lon="5.762996"><time>2026-05-07T18:46:15Z</time></trkpt>
<trkpt lat="50.623222" lon="5.763944"><time>2026-05-07T18:56:15Z</time></trkpt>
</trkseg></trk>
<trk>
<name>lhvxh20</name>
<cmt>v</cmt>
<desc>Xhendelesse Chemin n°20 </desc>
<link href="https://chemins.be/xhendelesse/chemin/20"/><trkseg>
<trkpt lat="50.623222" lon="5.763944"><time>2026-05-07T18:56:15Z</time></trkpt>
<trkpt lat="50.622762" lon="5.764501"><time>2026-05-07T19:06:15Z</time></trkpt>
<trkpt lat="50.622631" lon="5.764994"><time>2026-05-07T19:16:15Z</time></trkpt>
<trkpt lat="50.622656" lon="5.765516"><time>2026-05-07T19:26:15Z</time></trkpt>
</trkseg>
</trk>
<trk>
<name>lhvxh21</name>
<cmt>q</cmt>
<desc>Xhendelesse Chemin n°21 </desc>
<link href="https://chemins.be/xhendelesse/chemin/21"/><trkseg>
<trkpt lat="50.618498" lon="5.771414"><time>2026-05-07T18:26:15Z</time></trkpt>
<trkpt lat="50.620035" lon="5.771962"><time>2026-05-07T18:36:15Z</time></trkpt>
<trkpt lat="50.620696" lon="5.772399"><time>2026-05-07T18:46:15Z</time></trkpt>
</trkseg>
</trk>
<trk>
<name>lhvxh22</name>
<cmt>r</cmt>
<desc>Xhendelesse Chemin n°22 Chaussée de Liège</desc>
<link href="https://chemins.be/xhendelesse/chemin/22"/><trkseg>
<trkpt lat="50.617840" lon="5.768836"><time>2026-05-07T18:26:15Z</time></trkpt>
<trkpt lat="50.617623" lon="5.768707"><time>2026-05-07T18:36:15Z</time></trkpt>
<trkpt lat="50.617118" lon="5.769149"><time>2026-05-07T18:46:15Z</time></trkpt>
</trkseg></trk>
<trk>
<name>lhvxh22</name>
<cmt>q</cmt>
<desc>Xhendelesse Chemin n°22 Chaussée de Liège</desc>
<link href="https://chemins.be/xhendelesse/chemin/22"/><trkseg>
<trkpt lat="50.617118" lon="5.769149"><time>2026-05-07T18:46:15Z</time></trkpt>
<trkpt lat="50.616629" lon="5.769437"><time>2026-05-07T18:56:15Z</time></trkpt>
<trkpt lat="50.614332" lon="5.769938"><time>2026-05-07T19:06:15Z</time></trkpt>
</trkseg>
</trk>
<trk>
<name>lhvxh23</name>
<cmt>v</cmt>
<desc>Xhendelesse Chemin n°23 </desc>
<link href="https://chemins.be/xhendelesse/chemin/23"/><trkseg>
<trkpt lat="50.614756" lon="5.770242"><time>2026-05-07T18:26:15Z</time></trkpt>
<trkpt lat="50.615060" lon="5.771079"><time>2026-05-07T18:36:15Z</time></trkpt>
<trkpt lat="50.615042" lon="5.772109"><time>2026-05-07T18:46:15Z</time></trkpt>
<trkpt lat="50.614459" lon="5.772471"><time>2026-05-07T18:56:15Z</time></trkpt>
<trkpt lat="50.614148" lon="5.773096"><time>2026-05-07T19:06:15Z</time></trkpt>
</trkseg>
</trk>
<trk>
<name>lhvxh23bis</name>
<cmt>q</cmt>
<desc>Xhendelesse Chemin n°23bis </desc>
<link href="https://chemins.be/xhendelesse/chemin/23bis"/><trkseg>
<trkpt lat="50.616320" lon="5.770893"><time>2026-05-07T18:26:15Z</time></trkpt>
<trkpt lat="50.616088" lon="5.771333"><time>2026-05-07T18:36:15Z</time></trkpt>
<trkpt lat="50.615659" lon="5.771387"><time>2026-05-07T18:46:15Z</time></trkpt>
<trkpt lat="50.615049" lon="5.771891"><time>2026-05-07T18:56:15Z</time></trkpt>
</trkseg>
</trk>
<trk>
<name>lhvxh25</name>
<cmt>v</cmt>
<desc>Xhendelesse Chemin n°25 </desc>
<link href="https://chemins.be/xhendelesse/chemin/25"/><trkseg>
<trkpt lat="50.599957" lon="5.767423"><time>2026-05-07T18:26:15Z</time></trkpt>
<trkpt lat="50.600136" lon="5.766779"><time>2026-05-07T18:36:15Z</time></trkpt>
<trkpt lat="50.600208" lon="5.766032"><time>2026-05-07T18:46:15Z</time></trkpt>
</trkseg>
</trk>
<trk>
<name>lhvxh28</name>
<cmt>q</cmt>
<desc>Xhendelesse Chemin n°28 Turlurette</desc>
<link href="https://chemins.be/xhendelesse/chemin/28"/><trkseg>
<trkpt lat="50.602007" lon="5.785510"><time>2026-05-07T18:26:15Z</time></trkpt>
<trkpt lat="50.601333" lon="5.784322"><time>2026-05-07T18:36:15Z</time></trkpt>
<trkpt lat="50.600425" lon="5.781215"><time>2026-05-07T18:46:15Z</time></trkpt>
<trkpt lat="50.599530" lon="5.779780"><time>2026-05-07T18:56:15Z</time></trkpt>
</trkseg></trk>
<trk>
<name>lhvxh28</name>
<cmt>v</cmt>
<desc>Xhendelesse Chemin n°28 Turlurette</desc>
<link href="https://chemins.be/xhendelesse/chemin/28"/><trkseg>
<trkpt lat="50.599530" lon="5.779780"><time>2026-05-07T18:56:15Z</time></trkpt>
<trkpt lat="50.598904" lon="5.778168"><time>2026-05-07T19:06:15Z</time></trkpt>
<trkpt lat="50.598418" lon="5.777520"><time>2026-05-07T19:16:15Z</time></trkpt>
<trkpt lat="50.597576" lon="5.775764"><time>2026-05-07T19:26:15Z</time></trkpt>
</trkseg></trk>
<trk>
<name>lhvxh28</name>
<cmt>r</cmt>
<desc>Xhendelesse Chemin n°28 Turlurette</desc>
<link href="https://chemins.be/xhendelesse/chemin/28"/><trkseg>
<trkpt lat="50.597576" lon="5.775764"><time>2026-05-07T19:26:15Z</time></trkpt>
<trkpt lat="50.597133" lon="5.774205"><time>2026-05-07T19:36:15Z</time></trkpt>
<trkpt lat="50.597217" lon="5.774055"><time>2026-05-07T19:46:15Z</time></trkpt>
<trkpt lat="50.596538" lon="5.772031"><time>2026-05-07T19:56:15Z</time></trkpt>
</trkseg></trk>
<trk>
<name>lhvxh28</name>
<cmt>v</cmt>
<desc>Xhendelesse Chemin n°28 Turlurette</desc>
<link href="https://chemins.be/xhendelesse/chemin/28"/><trkseg>
<trkpt lat="50.596538" lon="5.772031"><time>2026-05-07T19:56:15Z</time></trkpt>
<trkpt lat="50.595687" lon="5.770214"><time>2026-05-07T20:06:15Z</time></trkpt>
<trkpt lat="50.595073" lon="5.767976"><time>2026-05-07T20:16:15Z</time></trkpt>
</trkseg>
</trk>
<trk>
<name>lhvxh29</name>
<cmt>q</cmt>
<desc>Xhendelesse Chemin n°29 </desc>
<link href="https://chemins.be/xhendelesse/chemin/29"/><trkseg>
<trkpt lat="50.596844" lon="5.767200"><time>2026-05-07T18:26:15Z</time></trkpt>
<trkpt lat="50.597399" lon="5.767311"><time>2026-05-07T18:36:15Z</time></trkpt>
<trkpt lat="50.597989" lon="5.768193"><time>2026-05-07T18:46:15Z</time></trkpt>
</trkseg>
</trk>
<trk>
<name>lhvxh3</name>
<cmt>q</cmt>
<desc>Xhendelesse Chemin n°3 </desc>
<link href="https://chemins.be/xhendelesse/chemin/3"/><trkseg>
<trkpt lat="50.603894" lon="5.771304"><time>2026-05-07T18:26:15Z</time></trkpt>
<trkpt lat="50.605909" lon="5.769947"><time>2026-05-07T18:36:15Z</time></trkpt>
<trkpt lat="50.609287" lon="5.770116"><time>2026-05-07T18:46:15Z</time></trkpt>
</trkseg>
</trk>
<trk>
<name>lhvxh30</name>
<cmt>v</cmt>
<desc>Xhendelesse Chemin n°30 </desc>
<link href="https://chemins.be/xhendelesse/chemin/30"/><trkseg>
<trkpt lat="50.607845" lon="5.764805"><time>2026-05-07T18:26:15Z</time></trkpt>
<trkpt lat="50.607821" lon="5.765392"><time>2026-05-07T18:36:15Z</time></trkpt>
</trkseg></trk>
<trk>
<name>lhvxh30</name>
<cmt>q</cmt>
<desc>Xhendelesse Chemin n°30 </desc>
<link href="https://chemins.be/xhendelesse/chemin/30"/><trkseg>
<trkpt lat="50.607821" lon="5.765392"><time>2026-05-07T18:36:15Z</time></trkpt>
<trkpt lat="50.607810" lon="5.767427"><time>2026-05-07T18:46:15Z</time></trkpt>
<trkpt lat="50.606695" lon="5.769891"><time>2026-05-07T18:56:15Z</time></trkpt>
</trkseg>
</trk>
<trk>
<name>lhvxh31</name>
<cmt>s</cmt>
<desc>Xhendelesse Chemin n°31 </desc>
<link href="https://chemins.be/xhendelesse/chemin/31"/><trkseg>
<trkpt lat="50.630818" lon="5.763208"><time>2026-05-07T18:26:15Z</time></trkpt>
<trkpt lat="50.630353" lon="5.763862"><time>2026-05-07T18:36:15Z</time></trkpt>
</trkseg>
</trk>
<trk>
<name>lhvxh32</name>
<cmt>q</cmt>
<desc>Xhendelesse Sentier n°32 </desc>
<link href="https://chemins.be/xhendelesse/sentier/32"/><trkseg>
<trkpt lat="50.626659" lon="5.767474"><time>2026-05-07T18:26:15Z</time></trkpt>
<trkpt lat="50.626028" lon="5.766100"><time>2026-05-07T18:36:15Z</time></trkpt>
<trkpt lat="50.625461" lon="5.764698"><time>2026-05-07T18:46:15Z</time></trkpt>
<trkpt lat="50.624141" lon="5.763025"><time>2026-05-07T18:56:15Z</time></trkpt>
</trkseg>
</trk>
<trk>
<name>lhvxh33</name>
<cmt>q</cmt>
<desc>Xhendelesse Sentier n°33 </desc>
<link href="https://chemins.be/xhendelesse/sentier/33"/><trkseg>
<trkpt lat="50.622884" lon="5.757977"><time>2026-05-07T18:26:15Z</time></trkpt>
<trkpt lat="50.622885" lon="5.758767"><time>2026-05-07T18:36:15Z</time></trkpt>
<trkpt lat="50.622045" lon="5.764623"><time>2026-05-07T18:46:15Z</time></trkpt>
<trkpt lat="50.621849" lon="5.765985"><time>2026-05-07T18:56:15Z</time></trkpt>
<trkpt lat="50.621849" lon="5.766706"><time>2026-05-07T19:06:15Z</time></trkpt>
<trkpt lat="50.621434" lon="5.767865"><time>2026-05-07T19:16:15Z</time></trkpt>
<trkpt lat="50.621218" lon="5.768466"><time>2026-05-07T19:26:15Z</time></trkpt>
<trkpt lat="50.621496" lon="5.770200"><time>2026-05-07T19:36:15Z</time></trkpt>
<trkpt lat="50.621120" lon="5.771582"><time>2026-05-07T19:46:15Z</time></trkpt>
</trkseg>
</trk>
<trk>
<name>lhvxh33bis</name>
<cmt>q</cmt>
<desc>Xhendelesse Sentier n°33bis </desc>
<link href="https://chemins.be/xhendelesse/sentier/33bis"/><trkseg>
<trkpt lat="50.622631" lon="5.764976"><time>2026-05-07T18:26:15Z</time></trkpt>
<trkpt lat="50.622542" lon="5.764773"><time>2026-05-07T18:36:15Z</time></trkpt>
<trkpt lat="50.622084" lon="5.764655"><time>2026-05-07T18:46:15Z</time></trkpt>
</trkseg>
</trk>
<trk>
<name>lhvxh34</name>
<cmt>v</cmt>
<desc>Xhendelesse Sentier n°34 </desc>
<link href="https://chemins.be/xhendelesse/sentier/34"/><trkseg>
<trkpt lat="50.624734" lon="5.759941"><time>2026-05-07T18:26:15Z</time></trkpt>
<trkpt lat="50.623310" lon="5.758401"><time>2026-05-07T18:36:15Z</time></trkpt>
<trkpt lat="50.622581" lon="5.757663"><time>2026-05-07T18:46:15Z</time></trkpt>
<trkpt lat="50.622011" lon="5.757141"><time>2026-05-07T18:56:15Z</time></trkpt>
</trkseg>
</trk>
<trk>
<name>lhvxh35</name>
<cmt>q</cmt>
<desc>Xhendelesse Sentier n°35 </desc>
<link href="https://chemins.be/xhendelesse/sentier/35"/><trkseg>
<trkpt lat="50.624436" lon="5.760700"><time>2026-05-07T18:26:15Z</time></trkpt>
<trkpt lat="50.623370" lon="5.759581"><time>2026-05-07T18:36:15Z</time></trkpt>
<trkpt lat="50.622832" lon="5.759114"><time>2026-05-07T18:46:15Z</time></trkpt>
</trkseg>
</trk>
<trk>
<name>lhvxh36</name>
<cmt>q</cmt>
<desc>Xhendelesse Sentier n°36 </desc>
<link href="https://chemins.be/xhendelesse/sentier/36"/><trkseg>
<trkpt lat="50.620227" lon="5.768256"><time>2026-05-07T18:26:15Z</time></trkpt>
<trkpt lat="50.621468" lon="5.767827"><time>2026-05-07T18:36:15Z</time></trkpt>
</trkseg>
</trk>
<trk>
<name>lhvxh37</name>
<cmt>q</cmt>
<desc>Xhendelesse Sentier n°37 </desc>
<link href="https://chemins.be/xhendelesse/sentier/37"/><trkseg>
<trkpt lat="50.615036" lon="5.772198"><time>2026-05-07T18:26:15Z</time></trkpt>
<trkpt lat="50.616225" lon="5.774623"><time>2026-05-07T18:36:15Z</time></trkpt>
<trkpt lat="50.617563" lon="5.775729"><time>2026-05-07T18:46:15Z</time></trkpt>
</trkseg>
</trk>
<trk>
<name>lhvxh38</name>
<cmt>q</cmt>
<desc>Xhendelesse Sentier n°38 </desc>
<link href="https://chemins.be/xhendelesse/sentier/38"/><trkseg>
<trkpt lat="50.612356" lon="5.790845"><time>2026-05-07T18:26:15Z</time></trkpt>
<trkpt lat="50.612442" lon="5.792819"><time>2026-05-07T18:36:15Z</time></trkpt>
</trkseg>
</trk>
<trk>
<name>lhvxh39</name>
<cmt>v</cmt>
<desc>Xhendelesse Sentier n°39 </desc>
<link href="https://chemins.be/xhendelesse/sentier/39"/><trkseg>
<trkpt lat="50.609455" lon="5.783588"><time>2026-05-07T18:26:15Z</time></trkpt>
<trkpt lat="50.608304" lon="5.784387"><time>2026-05-07T18:36:15Z</time></trkpt>
<trkpt lat="50.607992" lon="5.785621"><time>2026-05-07T18:46:15Z</time></trkpt>
<trkpt lat="50.607848" lon="5.788556"><time>2026-05-07T18:56:15Z</time></trkpt>
<trkpt lat="50.607591" lon="5.789056"><time>2026-05-07T19:06:15Z</time></trkpt>
</trkseg>
</trk>
<trk>
<name>lhvxh3bis</name>
<cmt>q</cmt>
<desc>Xhendelesse Chemin n°3bis </desc>
<link href="https://chemins.be/xhendelesse/chemin/3bis"/><trkseg>
<trkpt lat="50.604212" lon="5.769501"><time>2026-05-07T18:26:15Z</time></trkpt>
<trkpt lat="50.605636" lon="5.770026"><time>2026-05-07T18:36:15Z</time></trkpt>
</trkseg>
</trk>
<trk>
<name>lhvxh3ter</name>
<cmt>q</cmt>
<desc>Xhendelesse Chemin n°3ter </desc>
<link href="https://chemins.be/xhendelesse/chemin/3ter"/><trkseg>
<trkpt lat="50.607656" lon="5.769999"><time>2026-05-07T18:26:15Z</time></trkpt>
<trkpt lat="50.608244" lon="5.768842"><time>2026-05-07T18:36:15Z</time></trkpt>
<trkpt lat="50.609021" lon="5.768580"><time>2026-05-07T18:46:15Z</time></trkpt>
</trkseg>
</trk>
<trk>
<name>lhvxh4</name>
<cmt>q</cmt>
<desc>Xhendelesse Chemin n°4 </desc>
<link href="https://chemins.be/xhendelesse/chemin/4"/><trkseg>
<trkpt lat="50.607854" lon="5.760966"><time>2026-05-07T18:26:15Z</time></trkpt>
<trkpt lat="50.606772" lon="5.762417"><time>2026-05-07T18:36:15Z</time></trkpt>
</trkseg></trk>
<trk>
<name>lhvxh4</name>
<cmt>d</cmt>
<desc>Xhendelesse Chemin n°4 </desc>
<link href="https://chemins.be/xhendelesse/chemin/4"/><trkseg>
<trkpt lat="50.606772" lon="5.762417"><time>2026-05-07T18:36:15Z</time></trkpt>
<trkpt lat="50.606462" lon="5.763017"><time>2026-05-07T18:46:15Z</time></trkpt>
</trkseg></trk>
<trk>
<name>lhvxh4</name>
<cmt>q</cmt>
<desc>Xhendelesse Chemin n°4 </desc>
<link href="https://chemins.be/xhendelesse/chemin/4"/><trkseg>
<trkpt lat="50.606462" lon="5.763017"><time>2026-05-07T18:46:15Z</time></trkpt>
<trkpt lat="50.606436" lon="5.763835"><time>2026-05-07T18:56:15Z</time></trkpt>
</trkseg></trk>
<trk>
<name>lhvxh4</name>
<cmt>r</cmt>
<desc>Xhendelesse Chemin n°4 </desc>
<link href="https://chemins.be/xhendelesse/chemin/4"/><trkseg>
<trkpt lat="50.606436" lon="5.763835"><time>2026-05-07T18:56:15Z</time></trkpt>
<trkpt lat="50.603325" lon="5.768707"><time>2026-05-07T19:06:15Z</time></trkpt>
<trkpt lat="50.601950" lon="5.769331"><time>2026-05-07T19:16:15Z</time></trkpt>
</trkseg></trk>
<trk>
<name>lhvxh4</name>
<cmt>q</cmt>
<desc>Xhendelesse Chemin n°4 </desc>
<link href="https://chemins.be/xhendelesse/chemin/4"/><trkseg>
<trkpt lat="50.601950" lon="5.769331"><time>2026-05-07T19:16:15Z</time></trkpt>
<trkpt lat="50.599866" lon="5.767502"><time>2026-05-07T19:26:15Z</time></trkpt>
<trkpt lat="50.598514" lon="5.766047"><time>2026-05-07T19:36:15Z</time></trkpt>
<trkpt lat="50.596789" lon="5.767189"><time>2026-05-07T19:46:15Z</time></trkpt>
<trkpt lat="50.596441" lon="5.767941"><time>2026-05-07T19:56:15Z</time></trkpt>
</trkseg></trk>
<trk>
<name>lhvxh4</name>
<cmt>d</cmt>
<desc>Xhendelesse Chemin n°4 </desc>
<link href="https://chemins.be/xhendelesse/chemin/4"/><trkseg>
<trkpt lat="50.596441" lon="5.767941"><time>2026-05-07T19:56:15Z</time></trkpt>
<trkpt lat="50.596206" lon="5.768192"><time>2026-05-07T20:06:15Z</time></trkpt>
<trkpt lat="50.595509" lon="5.769507"><time>2026-05-07T20:16:15Z</time></trkpt>
</trkseg>
</trk>
<trk>
<name>lhvxh41</name>
<cmt>q</cmt>
<desc>Xhendelesse Sentier n°41 </desc>
<link href="https://chemins.be/xhendelesse/sentier/41"/><trkseg>
<trkpt lat="50.602364" lon="5.787531"><time>2026-05-07T18:26:15Z</time></trkpt>
<trkpt lat="50.604351" lon="5.787397"><time>2026-05-07T18:36:15Z</time></trkpt>
<trkpt lat="50.605654" lon="5.787976"><time>2026-05-07T18:46:15Z</time></trkpt>
</trkseg>
</trk>
<trk>
<name>lhvxh42</name>
<cmt>q</cmt>
<desc>Xhendelesse Sentier n°42 Martinsart</desc>
<link href="https://chemins.be/xhendelesse/sentier/42"/><trkseg>
<trkpt lat="50.599942" lon="5.780225"><time>2026-05-07T18:26:15Z</time></trkpt>
<trkpt lat="50.600733" lon="5.779271"><time>2026-05-07T18:36:15Z</time></trkpt>
<trkpt lat="50.601172" lon="5.778660"><time>2026-05-07T18:46:15Z</time></trkpt>
</trkseg></trk>
<trk>
<name>lhvxh42</name>
<cmt>r</cmt>
<desc>Xhendelesse Sentier n°42 Martinsart</desc>
<link href="https://chemins.be/xhendelesse/sentier/42"/><trkseg>
<trkpt lat="50.601172" lon="5.778660"><time>2026-05-07T18:46:15Z</time></trkpt>
<trkpt lat="50.601909" lon="5.778620"><time>2026-05-07T18:56:15Z</time></trkpt>
<trkpt lat="50.602319" lon="5.778853"><time>2026-05-07T19:06:15Z</time></trkpt>
</trkseg></trk>
<trk>
<name>lhvxh42</name>
<cmt>v</cmt>
<desc>Xhendelesse Sentier n°42 Martinsart</desc>
<link href="https://chemins.be/xhendelesse/sentier/42"/><trkseg>
<trkpt lat="50.602319" lon="5.778853"><time>2026-05-07T19:06:15Z</time></trkpt>
<trkpt lat="50.603018" lon="5.779071"><time>2026-05-07T19:16:15Z</time></trkpt>
<trkpt lat="50.603448" lon="5.779333"><time>2026-05-07T19:26:15Z</time></trkpt>
<trkpt lat="50.603979" lon="5.779197"><time>2026-05-07T19:36:15Z</time></trkpt>
<trkpt lat="50.604169" lon="5.779784"><time>2026-05-07T19:46:15Z</time></trkpt>
<trkpt lat="50.604148" lon="5.780038"><time>2026-05-07T19:56:15Z</time></trkpt>
<trkpt lat="50.604299" lon="5.780212"><time>2026-05-07T20:06:15Z</time></trkpt>
</trkseg>
</trk>
<trk>
<name>lhvxh43</name>
<cmt>q</cmt>
<desc>Xhendelesse Sentier n°43 </desc>
<link href="https://chemins.be/xhendelesse/sentier/43"/><trkseg>
<trkpt lat="50.606161" lon="5.773475"><time>2026-05-07T18:26:15Z</time></trkpt>
<trkpt lat="50.603659" lon="5.778077"><time>2026-05-07T18:36:15Z</time></trkpt>
<trkpt lat="50.603331" lon="5.781796"><time>2026-05-07T18:46:15Z</time></trkpt>
<trkpt lat="50.602983" lon="5.782217"><time>2026-05-07T18:56:15Z</time></trkpt>
<trkpt lat="50.601742" lon="5.783020"><time>2026-05-07T19:06:15Z</time></trkpt>
<trkpt lat="50.601028" lon="5.783334"><time>2026-05-07T19:16:15Z</time></trkpt>
</trkseg>
</trk>
<trk>
<name>lhvxh44</name>
<cmt>q</cmt>
<desc>Xhendelesse Sentier n°44 </desc>
<link href="https://chemins.be/xhendelesse/sentier/44"/><trkseg>
<trkpt lat="50.598948" lon="5.770658"><time>2026-05-07T18:26:15Z</time></trkpt>
<trkpt lat="50.597550" lon="5.768408"><time>2026-05-07T18:36:15Z</time></trkpt>
<trkpt lat="50.596559" lon="5.767625"><time>2026-05-07T18:46:15Z</time></trkpt>
<trkpt lat="50.596447" lon="5.767941"><time>2026-05-07T18:56:15Z</time></trkpt>
</trkseg></trk>
<trk>
<name>lhvxh44</name>
<cmt>d</cmt>
<desc>Xhendelesse Sentier n°44 </desc>
<link href="https://chemins.be/xhendelesse/sentier/44"/><trkseg>
<trkpt lat="50.596447" lon="5.767941"><time>2026-05-07T18:56:15Z</time></trkpt>
<trkpt lat="50.596219" lon="5.768193"><time>2026-05-07T19:06:15Z</time></trkpt>
<trkpt lat="50.596052" lon="5.767287"><time>2026-05-07T19:16:15Z</time></trkpt>
</trkseg>
</trk>
<trk>
<name>lhvxh45</name>
<cmt>q</cmt>
<desc>Xhendelesse Sentier n°45 </desc>
<link href="https://chemins.be/xhendelesse/sentier/45"/><trkseg>
<trkpt lat="50.596946" lon="5.767137"><time>2026-05-07T18:26:15Z</time></trkpt>
<trkpt lat="50.596931" lon="5.766744"><time>2026-05-07T18:36:15Z</time></trkpt>
</trkseg>
</trk>
<trk>
<name>lhvxh46</name>
<cmt>r</cmt>
<desc>Xhendelesse Sentier n°46 Aux Cours - Rue de Stockis</desc>
<link href="https://chemins.be/xhendelesse/sentier/46"/><trkseg>
<trkpt lat="50.602408" lon="5.787558"><time>2026-05-07T18:26:15Z</time></trkpt>
<trkpt lat="50.602933" lon="5.788813"><time>2026-05-07T18:36:15Z</time></trkpt>
<trkpt lat="50.603341" lon="5.789998"><time>2026-05-07T18:46:15Z</time></trkpt>
</trkseg>
</trk>
<trk>
<name>lhvxh47</name>
<cmt>v</cmt>
<desc>Xhendelesse Sentier n°47 </desc>
<link href="https://chemins.be/xhendelesse/sentier/47"/><trkseg>
<trkpt lat="50.600208" lon="5.766046"><time>2026-05-07T18:26:15Z</time></trkpt>
<trkpt lat="50.601575" lon="5.764490"><time>2026-05-07T18:36:15Z</time></trkpt>
</trkseg>
</trk>
<trk>
<name>lhvxh49</name>
<cmt>q</cmt>
<desc>Xhendelesse Sentier n°49 </desc>
<link href="https://chemins.be/xhendelesse/sentier/49"/><trkseg>
<trkpt lat="50.612251" lon="5.790673"><time>2026-05-07T18:26:15Z</time></trkpt>
<trkpt lat="50.612133" lon="5.790673"><time>2026-05-07T18:36:15Z</time></trkpt>
<trkpt lat="50.611356" lon="5.788305"><time>2026-05-07T18:46:15Z</time></trkpt>
<trkpt lat="50.611284" lon="5.787805"><time>2026-05-07T18:56:15Z</time></trkpt>
</trkseg>
</trk>
<trk>
<name>lhvxh5</name>
<cmt>r</cmt>
<desc>Xhendelesse Chemin n°5 </desc>
<link href="https://chemins.be/xhendelesse/chemin/5"/><trkseg>
<trkpt lat="50.606503" lon="5.762976"><time>2026-05-07T18:26:15Z</time></trkpt>
<trkpt lat="50.606230" lon="5.762793"><time>2026-05-07T18:36:15Z</time></trkpt>
</trkseg></trk>
<trk>
<name>lhvxh5</name>
<cmt>v</cmt>
<desc>Xhendelesse Chemin n°5 </desc>
<link href="https://chemins.be/xhendelesse/chemin/5"/><trkseg>
<trkpt lat="50.606230" lon="5.762793"><time>2026-05-07T18:36:15Z</time></trkpt>
<trkpt lat="50.605554" lon="5.761199"><time>2026-05-07T18:46:15Z</time></trkpt>
</trkseg>
</trk>
<trk>
<name>lhvxh50</name>
<cmt>q</cmt>
<desc>Xhendelesse Sentier n°50 </desc>
<link href="https://chemins.be/xhendelesse/sentier/50"/><trkseg>
<trkpt lat="50.627885" lon="5.760370"><time>2026-05-07T18:26:15Z</time></trkpt>
<trkpt lat="50.627776" lon="5.761318"><time>2026-05-07T18:36:15Z</time></trkpt>
<trkpt lat="50.627742" lon="5.762798"><time>2026-05-07T18:46:15Z</time></trkpt>
</trkseg>
</trk>
<trk>
<name>lhvxh9</name>
<cmt>q</cmt>
<desc>Xhendelesse Chemin n°9 </desc>
<link href="https://chemins.be/xhendelesse/chemin/9"/><trkseg>
<trkpt lat="50.605662" lon="5.771933"><time>2026-05-07T18:26:15Z</time></trkpt>
<trkpt lat="50.606625" lon="5.770034"><time>2026-05-07T18:36:15Z</time></trkpt>
</trkseg>
</trk>
<trk>
<name>lhvxhi1</name>
<cmt>v</cmt>
<desc>Xhendelesse Chemin n°i1 </desc>
<link href="https://chemins.be/xhendelesse/chemin/i1"/><trkseg>
<trkpt lat="50.604353" lon="5.773342"><time>2026-05-07T18:26:15Z</time></trkpt>
<trkpt lat="50.604934" lon="5.773078"><time>2026-05-07T18:36:15Z</time></trkpt>
<trkpt lat="50.605842" lon="5.772842"><time>2026-05-07T18:46:15Z</time></trkpt>
<trkpt lat="50.606142" lon="5.773435"><time>2026-05-07T18:56:15Z</time></trkpt>
</trkseg>
</trk>
</gpx>